<?xml version="1.0" encoding="UTF-8" standalone="no" ?>
<gpx xmlns="http://www.topografix.com/GPX/1/1" xmlns:xsi="http://www.w3.org/2001/XMLSchema-instance" xsi:schemaLocation="http://www.topografix.com/GPX/1/1 http://www.topografix.com/GPX/1/1/gpx.xsd" version="1.1" creator="VisuGPX - https://www.visugpx.com">
  <metadata>
    <name>Sortie trail GR69</name>
    <desc><![CDATA[Départ de St Romain
Mt Cindré
Mt Laroche
Mt Thou
et beaucoup      ]]></desc>
  </metadata>
  <trk>
    <name><![CDATA[Untitled]]></name>
    <trkseg>
      <trkpt lat="45.83782" lon="4.82527">
        <ele>197.19999694824</ele>
        <time>2011-11-20T08:10:33.000Z</time>
      </trkpt>
      <trkpt lat="45.83781" lon="4.82536">
        <ele>197</ele>
        <time>2011-11-20T08:10:37.000Z</time>
      </trkpt>
      <trkpt lat="45.8378" lon="4.82554">
        <ele>196.80000305176</ele>
        <time>2011-11-20T08:10:42.000Z</time>
      </trkpt>
      <trkpt lat="45.83779" lon="4.8256">
        <ele>196.80000305176</ele>
        <time>2011-11-20T08:10:44.000Z</time>
      </trkpt>
      <trkpt lat="45.83774" lon="4.82562">
        <ele>197</ele>
        <time>2011-11-20T08:10:46.000Z</time>
      </trkpt>
      <trkpt lat="45.83769" lon="4.82569">
        <ele>197.19999694824</ele>
        <time>2011-11-20T08:10:50.000Z</time>
      </trkpt>
      <trkpt lat="45.83767" lon="4.82572">
        <ele>197.19999694824</ele>
        <time>2011-11-20T08:10:51.000Z</time>
      </trkpt>
      <trkpt lat="45.83765" lon="4.82583">
        <ele>197.19999694824</ele>
        <time>2011-11-20T08:10:54.000Z</time>
      </trkpt>
      <trkpt lat="45.83763" lon="4.82597">
        <ele>197</ele>
        <time>2011-11-20T08:10:58.000Z</time>
      </trkpt>
      <trkpt lat="45.83763" lon="4.826">
        <ele>196.80000305176</ele>
        <time>2011-11-20T08:10:59.000Z</time>
      </trkpt>
      <trkpt lat="45.83765" lon="4.82613">
        <ele>196.39999389648</ele>
        <time>2011-11-20T08:11:03.000Z</time>
      </trkpt>
      <trkpt lat="45.83766" lon="4.82624">
        <ele>196</ele>
        <time>2011-11-20T08:11:06.000Z</time>
      </trkpt>
      <trkpt lat="45.83767" lon="4.82631">
        <ele>195.80000305176</ele>
        <time>2011-11-20T08:11:08.000Z</time>
      </trkpt>
      <trkpt lat="45.83769" lon="4.82651">
        <ele>195.19999694824</ele>
        <time>2011-11-20T08:11:14.000Z</time>
      </trkpt>
      <trkpt lat="45.83769" lon="4.82672">
        <ele>194.60000610352</ele>
        <time>2011-11-20T08:11:20.000Z</time>
      </trkpt>
      <trkpt lat="45.83768" lon="4.82679">
        <ele>194.60000610352</ele>
        <time>2011-11-20T08:11:22.000Z</time>
      </trkpt>
      <trkpt lat="45.83768" lon="4.8269">
        <ele>194.39999389648</ele>
        <time>2011-11-20T08:11:25.000Z</time>
      </trkpt>
      <trkpt lat="45.83768" lon="4.82698">
        <ele>194.19999694824</ele>
        <time>2011-11-20T08:11:28.000Z</time>
      </trkpt>
      <trkpt lat="45.83768" lon="4.82705">
        <ele>194</ele>
        <time>2011-11-20T08:11:30.000Z</time>
      </trkpt>
      <trkpt lat="45.83768" lon="4.82722">
        <ele>193.60000610352</ele>
        <time>2011-11-20T08:11:35.000Z</time>
      </trkpt>
      <trkpt lat="45.83768" lon="4.82733">
        <ele>193.39999389648</ele>
        <time>2011-11-20T08:11:38.000Z</time>
      </trkpt>
      <trkpt lat="45.83768" lon="4.82742">
        <ele>193.19999694824</ele>
        <time>2011-11-20T08:11:41.000Z</time>
      </trkpt>
      <trkpt lat="45.83768" lon="4.82757">
        <ele>193</ele>
        <time>2011-11-20T08:11:45.000Z</time>
      </trkpt>
      <trkpt lat="45.83768" lon="4.82759">
        <ele>193</ele>
        <time>2011-11-20T08:11:46.000Z</time>
      </trkpt>
      <trkpt lat="45.83769" lon="4.82778">
        <ele>193</ele>
        <time>2011-11-20T08:11:51.000Z</time>
      </trkpt>
      <trkpt lat="45.83767" lon="4.82788">
        <ele>193</ele>
        <time>2011-11-20T08:11:54.000Z</time>
      </trkpt>
      <trkpt lat="45.83766" lon="4.82795">
        <ele>193.19999694824</ele>
        <time>2011-11-20T08:11:56.000Z</time>
      </trkpt>
      <trkpt lat="45.83762" lon="4.82811">
        <ele>193.39999389648</ele>
        <time>2011-11-20T08:12:01.000Z</time>
      </trkpt>
      <trkpt lat="45.83761" lon="4.82815">
        <ele>193.39999389648</ele>
        <time>2011-11-20T08:12:02.000Z</time>
      </trkpt>
      <trkpt lat="45.83757" lon="4.82818">
        <ele>193.60000610352</ele>
        <time>2011-11-20T08:12:04.000Z</time>
      </trkpt>
      <trkpt lat="45.83755" lon="4.8282">
        <ele>193.60000610352</ele>
        <time>2011-11-20T08:12:05.000Z</time>
      </trkpt>
      <trkpt lat="45.83746" lon="4.82825">
        <ele>194.19999694824</ele>
        <time>2011-11-20T08:12:09.000Z</time>
      </trkpt>
      <trkpt lat="45.83744" lon="4.82827">
        <ele>194.39999389648</ele>
        <time>2011-11-20T08:12:10.000Z</time>
      </trkpt>
      <trkpt lat="45.83737" lon="4.82836">
        <ele>194.80000305176</ele>
        <time>2011-11-20T08:12:15.000Z</time>
      </trkpt>
      <trkpt lat="45.83731" lon="4.82845">
        <ele>194.80000305176</ele>
        <time>2011-11-20T08:12:19.000Z</time>
      </trkpt>
      <trkpt lat="45.8373" lon="4.82848">
        <ele>194.60000610352</ele>
        <time>2011-11-20T08:12:20.000Z</time>
      </trkpt>
      <trkpt lat="45.8373" lon="4.8286">
        <ele>193.80000305176</ele>
        <time>2011-11-20T08:12:25.000Z</time>
      </trkpt>
      <trkpt lat="45.8373" lon="4.82872">
        <ele>193.19999694824</ele>
        <time>2011-11-20T08:12:29.000Z</time>
      </trkpt>
      <trkpt lat="45.83728" lon="4.82879">
        <ele>193</ele>
        <time>2011-11-20T08:12:32.000Z</time>
      </trkpt>
      <trkpt lat="45.83727" lon="4.82889">
        <ele>192.39999389648</ele>
        <time>2011-11-20T08:12:35.000Z</time>
      </trkpt>
      <trkpt lat="45.83726" lon="4.82898">
        <ele>191.80000305176</ele>
        <time>2011-11-20T08:12:38.000Z</time>
      </trkpt>
      <trkpt lat="45.83725" lon="4.8291">
        <ele>191.39999389648</ele>
        <time>2011-11-20T08:12:42.000Z</time>
      </trkpt>
      <trkpt lat="45.83723" lon="4.82916">
        <ele>191.19999694824</ele>
        <time>2011-11-20T08:12:45.000Z</time>
      </trkpt>
      <trkpt lat="45.83722" lon="4.82917">
        <ele>191.19999694824</ele>
        <time>2011-11-20T08:12:46.000Z</time>
      </trkpt>
      <trkpt lat="45.83721" lon="4.82922">
        <ele>191</ele>
        <time>2011-11-20T08:12:48.000Z</time>
      </trkpt>
      <trkpt lat="45.8372" lon="4.82926">
        <ele>190.80000305176</ele>
        <time>2011-11-20T08:12:49.000Z</time>
      </trkpt>
      <trkpt lat="45.83721" lon="4.8294">
        <ele>189.60000610352</ele>
        <time>2011-11-20T08:12:54.000Z</time>
      </trkpt>
      <trkpt lat="45.83721" lon="4.82942">
        <ele>189.39999389648</ele>
        <time>2011-11-20T08:12:55.000Z</time>
      </trkpt>
      <trkpt lat="45.83718" lon="4.82945">
        <ele>189.60000610352</ele>
        <time>2011-11-20T08:12:57.000Z</time>
      </trkpt>
      <trkpt lat="45.83716" lon="4.82947">
        <ele>189.60000610352</ele>
        <time>2011-11-20T08:12:58.000Z</time>
      </trkpt>
      <trkpt lat="45.83714" lon="4.82948">
        <ele>189.80000305176</ele>
        <time>2011-11-20T08:12:59.000Z</time>
      </trkpt>
      <trkpt lat="45.83701" lon="4.82957">
        <ele>191</ele>
        <time>2011-11-20T08:13:05.000Z</time>
      </trkpt>
      <trkpt lat="45.83691" lon="4.82966">
        <ele>192</ele>
        <time>2011-11-20T08:13:11.000Z</time>
      </trkpt>
      <trkpt lat="45.83685" lon="4.82969">
        <ele>192.60000610352</ele>
        <time>2011-11-20T08:13:14.000Z</time>
      </trkpt>
      <trkpt lat="45.8368" lon="4.82974">
        <ele>193</ele>
        <time>2011-11-20T08:13:16.000Z</time>
      </trkpt>
      <trkpt lat="45.83669" lon="4.82985">
        <ele>194.19999694824</ele>
        <time>2011-11-20T08:13:22.000Z</time>
      </trkpt>
      <trkpt lat="45.8366" lon="4.82994">
        <ele>195.39999389648</ele>
        <time>2011-11-20T08:13:28.000Z</time>
      </trkpt>
      <trkpt lat="45.83652" lon="4.83001">
        <ele>196.39999389648</ele>
        <time>2011-11-20T08:13:33.000Z</time>
      </trkpt>
      <trkpt lat="45.8365" lon="4.83004">
        <ele>196.60000610352</ele>
        <time>2011-11-20T08:13:35.000Z</time>
      </trkpt>
      <trkpt lat="45.83642" lon="4.83017">
        <ele>196.80000305176</ele>
        <time>2011-11-20T08:13:41.000Z</time>
      </trkpt>
      <trkpt lat="45.8364" lon="4.83019">
        <ele>196.80000305176</ele>
        <time>2011-11-20T08:13:42.000Z</time>
      </trkpt>
      <trkpt lat="45.83631" lon="4.83031">
        <ele>197.19999694824</ele>
        <time>2011-11-20T08:13:47.000Z</time>
      </trkpt>
      <trkpt lat="45.83627" lon="4.83037">
        <ele>197.39999389648</ele>
        <time>2011-11-20T08:13:50.000Z</time>
      </trkpt>
      <trkpt lat="45.8362" lon="4.83046">
        <ele>197.60000610352</ele>
        <time>2011-11-20T08:13:53.000Z</time>
      </trkpt>
      <trkpt lat="45.83613" lon="4.83053">
        <ele>198</ele>
        <time>2011-11-20T08:13:57.000Z</time>
      </trkpt>
      <trkpt lat="45.83611" lon="4.83056">
        <ele>198</ele>
        <time>2011-11-20T08:13:58.000Z</time>
      </trkpt>
      <trkpt lat="45.83603" lon="4.83069">
        <ele>198.19999694824</ele>
        <time>2011-11-20T08:14:03.000Z</time>
      </trkpt>
      <trkpt lat="45.83597" lon="4.83076">
        <ele>198.19999694824</ele>
        <time>2011-11-20T08:14:06.000Z</time>
      </trkpt>
      <trkpt lat="45.83595" lon="4.8308">
        <ele>198.39999389648</ele>
        <time>2011-11-20T08:14:08.000Z</time>
      </trkpt>
      <trkpt lat="45.83588" lon="4.83089">
        <ele>198.60000610352</ele>
        <time>2011-11-20T08:14:12.000Z</time>
      </trkpt>
      <trkpt lat="45.83583" lon="4.83094">
        <ele>199</ele>
        <time>2011-11-20T08:14:15.000Z</time>
      </trkpt>
      <trkpt lat="45.8358" lon="4.83098">
        <ele>199.19999694824</ele>
        <time>2011-11-20T08:14:17.000Z</time>
      </trkpt>
      <trkpt lat="45.83574" lon="4.83105">
        <ele>199.80000305176</ele>
        <time>2011-11-20T08:14:22.000Z</time>
      </trkpt>
      <trkpt lat="45.83568" lon="4.83111">
        <ele>200.60000610352</ele>
        <time>2011-11-20T08:14:25.000Z</time>
      </trkpt>
      <trkpt lat="45.83562" lon="4.83116">
        <ele>201.60000610352</ele>
        <time>2011-11-20T08:14:28.000Z</time>
      </trkpt>
      <trkpt lat="45.83552" lon="4.83124">
        <ele>203.19999694824</ele>
        <time>2011-11-20T08:14:34.000Z</time>
      </trkpt>
      <trkpt lat="45.83546" lon="4.8313">
        <ele>204.39999389648</ele>
        <time>2011-11-20T08:14:38.000Z</time>
      </trkpt>
      <trkpt lat="45.83544" lon="4.83131">
        <ele>204.60000610352</ele>
        <time>2011-11-20T08:14:39.000Z</time>
      </trkpt>
      <trkpt lat="45.8354" lon="4.83136">
        <ele>205.39999389648</ele>
        <time>2011-11-20T08:14:43.000Z</time>
      </trkpt>
      <trkpt lat="45.83536" lon="4.83139">
        <ele>206.19999694824</ele>
        <time>2011-11-20T08:14:45.000Z</time>
      </trkpt>
      <trkpt lat="45.83532" lon="4.83142">
        <ele>207.19999694824</ele>
        <time>2011-11-20T08:14:48.000Z</time>
      </trkpt>
      <trkpt lat="45.83524" lon="4.8315">
        <ele>208.80000305176</ele>
        <time>2011-11-20T08:14:53.000Z</time>
      </trkpt>
      <trkpt lat="45.83521" lon="4.83154">
        <ele>209.60000610352</ele>
        <time>2011-11-20T08:14:55.000Z</time>
      </trkpt>
      <trkpt lat="45.83515" lon="4.8316">
        <ele>211</ele>
        <time>2011-11-20T08:14:58.000Z</time>
      </trkpt>
      <trkpt lat="45.83513" lon="4.8316">
        <ele>211.39999389648</ele>
        <time>2011-11-20T08:14:59.000Z</time>
      </trkpt>
      <trkpt lat="45.83504" lon="4.83167">
        <ele>213.80000305176</ele>
        <time>2011-11-20T08:15:04.000Z</time>
      </trkpt>
      <trkpt lat="45.83502" lon="4.83168">
        <ele>214.39999389648</ele>
        <time>2011-11-20T08:15:06.000Z</time>
      </trkpt>
      <trkpt lat="45.83498" lon="4.83169">
        <ele>215.19999694824</ele>
        <time>2011-11-20T08:15:09.000Z</time>
      </trkpt>
      <trkpt lat="45.83497" lon="4.83171">
        <ele>215.60000610352</ele>
        <time>2011-11-20T08:15:10.000Z</time>
      </trkpt>
      <trkpt lat="45.83493" lon="4.83175">
        <ele>216.39999389648</ele>
        <time>2011-11-20T08:15:13.000Z</time>
      </trkpt>
      <trkpt lat="45.83487" lon="4.83178">
        <ele>217.80000305176</ele>
        <time>2011-11-20T08:15:17.000Z</time>
      </trkpt>
      <trkpt lat="45.83484" lon="4.8318">
        <ele>218.60000610352</ele>
        <time>2011-11-20T08:15:19.000Z</time>
      </trkpt>
      <trkpt lat="45.83473" lon="4.83183">
        <ele>221.19999694824</ele>
        <time>2011-11-20T08:15:25.000Z</time>
      </trkpt>
      <trkpt lat="45.83469" lon="4.83186">
        <ele>222.19999694824</ele>
        <time>2011-11-20T08:15:28.000Z</time>
      </trkpt>
      <trkpt lat="45.83464" lon="4.8319">
        <ele>223.19999694824</ele>
        <time>2011-11-20T08:15:31.000Z</time>
      </trkpt>
      <trkpt lat="45.83457" lon="4.83193">
        <ele>225.19999694824</ele>
        <time>2011-11-20T08:15:36.000Z</time>
      </trkpt>
      <trkpt lat="45.83452" lon="4.83194">
        <ele>226.39999389648</ele>
        <time>2011-11-20T08:15:39.000Z</time>
      </trkpt>
      <trkpt lat="45.8345" lon="4.83196">
        <ele>227</ele>
        <time>2011-11-20T08:15:41.000Z</time>
      </trkpt>
      <trkpt lat="45.83446" lon="4.83197">
        <ele>227.80000305176</ele>
        <time>2011-11-20T08:15:43.000Z</time>
      </trkpt>
      <trkpt lat="45.83443" lon="4.83197">
        <ele>228.60000610352</ele>
        <time>2011-11-20T08:15:48.000Z</time>
      </trkpt>
      <trkpt lat="45.8344" lon="4.83199">
        <ele>229.39999389648</ele>
        <time>2011-11-20T08:15:56.000Z</time>
      </trkpt>
      <trkpt lat="45.8344" lon="4.83202">
        <ele>229.39999389648</ele>
        <time>2011-11-20T08:15:59.000Z</time>
      </trkpt>
      <trkpt lat="45.83442" lon="4.83205">
        <ele>228.80000305176</ele>
        <time>2011-11-20T08:16:01.000Z</time>
      </trkpt>
      <trkpt lat="45.83445" lon="4.83205">
        <ele>228</ele>
        <time>2011-11-20T08:16:03.000Z</time>
      </trkpt>
      <trkpt lat="45.83448" lon="4.83205">
        <ele>227.39999389648</ele>
        <time>2011-11-20T08:16:05.000Z</time>
      </trkpt>
      <trkpt lat="45.8345" lon="4.8321">
        <ele>226.60000610352</ele>
        <time>2011-11-20T08:16:09.000Z</time>
      </trkpt>
      <trkpt lat="45.83452" lon="4.83219">
        <ele>226</ele>
        <time>2011-11-20T08:16:14.000Z</time>
      </trkpt>
      <trkpt lat="45.83452" lon="4.83225">
        <ele>225.80000305176</ele>
        <time>2011-11-20T08:16:17.000Z</time>
      </trkpt>
      <trkpt lat="45.83453" lon="4.8323">
        <ele>225.39999389648</ele>
        <time>2011-11-20T08:16:22.000Z</time>
      </trkpt>
      <trkpt lat="45.83452" lon="4.83232">
        <ele>225.39999389648</ele>
        <time>2011-11-20T08:16:23.000Z</time>
      </trkpt>
      <trkpt lat="45.83455" lon="4.83236">
        <ele>224.60000610352</ele>
        <time>2011-11-20T08:16:27.000Z</time>
      </trkpt>
      <trkpt lat="45.83455" lon="4.83238">
        <ele>224.60000610352</ele>
        <time>2011-11-20T08:16:28.000Z</time>
      </trkpt>
      <trkpt lat="45.83456" lon="4.83242">
        <ele>224.19999694824</ele>
        <time>2011-11-20T08:16:30.000Z</time>
      </trkpt>
      <trkpt lat="45.83456" lon="4.83246">
        <ele>224</ele>
        <time>2011-11-20T08:16:33.000Z</time>
      </trkpt>
      <trkpt lat="45.83457" lon="4.83248">
        <ele>223.80000305176</ele>
        <time>2011-11-20T08:16:34.000Z</time>
      </trkpt>
      <trkpt lat="45.83458" lon="4.83255">
        <ele>222.39999389648</ele>
        <time>2011-11-20T08:16:38.000Z</time>
      </trkpt>
      <trkpt lat="45.83455" lon="4.83258">
        <ele>222.80000305176</ele>
        <time>2011-11-20T08:16:52.000Z</time>
      </trkpt>
      <trkpt lat="45.83454" lon="4.83261">
        <ele>222.19999694824</ele>
        <time>2011-11-20T08:16:54.000Z</time>
      </trkpt>
      <trkpt lat="45.83448" lon="4.83267">
        <ele>222.80000305176</ele>
        <time>2011-11-20T08:16:58.000Z</time>
      </trkpt>
      <trkpt lat="45.83442" lon="4.83271">
        <ele>224</ele>
        <time>2011-11-20T08:17:04.000Z</time>
      </trkpt>
      <trkpt lat="45.83433" lon="4.83271">
        <ele>226.60000610352</ele>
        <time>2011-11-20T08:17:08.000Z</time>
      </trkpt>
      <trkpt lat="45.83432" lon="4.83269">
        <ele>227.39999389648</ele>
        <time>2011-11-20T08:17:09.000Z</time>
      </trkpt>
      <trkpt lat="45.83424" lon="4.83269">
        <ele>230</ele>
        <time>2011-11-20T08:17:13.000Z</time>
      </trkpt>
      <trkpt lat="45.83413" lon="4.83269">
        <ele>232.60000610352</ele>
        <time>2011-11-20T08:17:17.000Z</time>
      </trkpt>
      <trkpt lat="45.83411" lon="4.83269">
        <ele>232.80000305176</ele>
        <time>2011-11-20T08:17:18.000Z</time>
      </trkpt>
      <trkpt lat="45.83409" lon="4.83269">
        <ele>233.19999694824</ele>
        <time>2011-11-20T08:17:19.000Z</time>
      </trkpt>
      <trkpt lat="45.83406" lon="4.83267">
        <ele>233.80000305176</ele>
        <time>2011-11-20T08:17:21.000Z</time>
      </trkpt>
      <trkpt lat="45.83402" lon="4.83265">
        <ele>234.80000305176</ele>
        <time>2011-11-20T08:17:23.000Z</time>
      </trkpt>
      <trkpt lat="45.83394" lon="4.83262">
        <ele>236.39999389648</ele>
        <time>2011-11-20T08:17:26.000Z</time>
      </trkpt>
      <trkpt lat="45.83389" lon="4.83261">
        <ele>237.19999694824</ele>
        <time>2011-11-20T08:17:28.000Z</time>
      </trkpt>
      <trkpt lat="45.8338" lon="4.83257">
        <ele>239</ele>
        <time>2011-11-20T08:17:32.000Z</time>
      </trkpt>
      <trkpt lat="45.83377" lon="4.83256">
        <ele>239.80000305176</ele>
        <time>2011-11-20T08:17:34.000Z</time>
      </trkpt>
      <trkpt lat="45.83375" lon="4.83256">
        <ele>240</ele>
        <time>2011-11-20T08:17:35.000Z</time>
      </trkpt>
      <trkpt lat="45.8337" lon="4.83257">
        <ele>240.80000305176</ele>
        <time>2011-11-20T08:17:37.000Z</time>
      </trkpt>
      <trkpt lat="45.83365" lon="4.83255">
        <ele>241.60000610352</ele>
        <time>2011-11-20T08:17:40.000Z</time>
      </trkpt>
      <trkpt lat="45.83363" lon="4.83255">
        <ele>242</ele>
        <time>2011-11-20T08:17:41.000Z</time>
      </trkpt>
      <trkpt lat="45.83355" lon="4.8325">
        <ele>243.60000610352</ele>
        <time>2011-11-20T08:17:44.000Z</time>
      </trkpt>
      <trkpt lat="45.83353" lon="4.83247">
        <ele>244.19999694824</ele>
        <time>2011-11-20T08:17:45.000Z</time>
      </trkpt>
      <trkpt lat="45.83342" lon="4.83246">
        <ele>245.80000305176</ele>
        <time>2011-11-20T08:17:50.000Z</time>
      </trkpt>
      <trkpt lat="45.83335" lon="4.83246">
        <ele>246.80000305176</ele>
        <time>2011-11-20T08:17:53.000Z</time>
      </trkpt>
      <trkpt lat="45.83328" lon="4.83244">
        <ele>248.19999694824</ele>
        <time>2011-11-20T08:17:56.000Z</time>
      </trkpt>
      <trkpt lat="45.83326" lon="4.83245">
        <ele>248.39999389648</ele>
        <time>2011-11-20T08:17:57.000Z</time>
      </trkpt>
      <trkpt lat="45.8332" lon="4.83244">
        <ele>249.60000610352</ele>
        <time>2011-11-20T08:18:00.000Z</time>
      </trkpt>
      <trkpt lat="45.83316" lon="4.83243">
        <ele>250.39999389648</ele>
        <time>2011-11-20T08:18:02.000Z</time>
      </trkpt>
      <trkpt lat="45.83304" lon="4.83241">
        <ele>252.60000610352</ele>
        <time>2011-11-20T08:18:07.000Z</time>
      </trkpt>
      <trkpt lat="45.83297" lon="4.83242">
        <ele>253.60000610352</ele>
        <time>2011-11-20T08:18:10.000Z</time>
      </trkpt>
      <trkpt lat="45.83293" lon="4.83247">
        <ele>253.80000305176</ele>
        <time>2011-11-20T08:18:12.000Z</time>
      </trkpt>
      <trkpt lat="45.83284" lon="4.83257">
        <ele>254.19999694824</ele>
        <time>2011-11-20T08:18:17.000Z</time>
      </trkpt>
      <trkpt lat="45.83282" lon="4.83258">
        <ele>254.39999389648</ele>
        <time>2011-11-20T08:18:18.000Z</time>
      </trkpt>
      <trkpt lat="45.8328" lon="4.83261">
        <ele>254.39999389648</ele>
        <time>2011-11-20T08:18:19.000Z</time>
      </trkpt>
      <trkpt lat="45.83275" lon="4.83271">
        <ele>253.80000305176</ele>
        <time>2011-11-20T08:18:22.000Z</time>
      </trkpt>
      <trkpt lat="45.83273" lon="4.83274">
        <ele>253.80000305176</ele>
        <time>2011-11-20T08:18:23.000Z</time>
      </trkpt>
      <trkpt lat="45.8327" lon="4.83281">
        <ele>253.39999389648</ele>
        <time>2011-11-20T08:18:25.000Z</time>
      </trkpt>
      <trkpt lat="45.83267" lon="4.83286">
        <ele>253.19999694824</ele>
        <time>2011-11-20T08:18:27.000Z</time>
      </trkpt>
      <trkpt lat="45.83263" lon="4.83296">
        <ele>252.60000610352</ele>
        <time>2011-11-20T08:18:32.000Z</time>
      </trkpt>
      <trkpt lat="45.8326" lon="4.83304">
        <ele>252</ele>
        <time>2011-11-20T08:18:35.000Z</time>
      </trkpt>
      <trkpt lat="45.83257" lon="4.83311">
        <ele>251.60000610352</ele>
        <time>2011-11-20T08:18:38.000Z</time>
      </trkpt>
      <trkpt lat="45.83255" lon="4.83314">
        <ele>251.60000610352</ele>
        <time>2011-11-20T08:18:40.000Z</time>
      </trkpt>
      <trkpt lat="45.83253" lon="4.83318">
        <ele>251.39999389648</ele>
        <time>2011-11-20T08:18:42.000Z</time>
      </trkpt>
      <trkpt lat="45.83253" lon="4.8332">
        <ele>251.19999694824</ele>
        <time>2011-11-20T08:18:43.000Z</time>
      </trkpt>
      <trkpt lat="45.83249" lon="4.83326">
        <ele>251</ele>
        <time>2011-11-20T08:18:46.000Z</time>
      </trkpt>
      <trkpt lat="45.83245" lon="4.83333">
        <ele>250.60000610352</ele>
        <time>2011-11-20T08:18:49.000Z</time>
      </trkpt>
      <trkpt lat="45.8324" lon="4.83339">
        <ele>250.80000305176</ele>
        <time>2011-11-20T08:18:52.000Z</time>
      </trkpt>
      <trkpt lat="45.83235" lon="4.83344">
        <ele>251.19999694824</ele>
        <time>2011-11-20T08:18:55.000Z</time>
      </trkpt>
      <trkpt lat="45.83231" lon="4.83348">
        <ele>251.60000610352</ele>
        <time>2011-11-20T08:18:57.000Z</time>
      </trkpt>
      <trkpt lat="45.83221" lon="4.83364">
        <ele>252</ele>
        <time>2011-11-20T08:19:03.000Z</time>
      </trkpt>
      <trkpt lat="45.83219" lon="4.83366">
        <ele>252</ele>
        <time>2011-11-20T08:19:04.000Z</time>
      </trkpt>
      <trkpt lat="45.8321" lon="4.83375">
        <ele>252.39999389648</ele>
        <time>2011-11-20T08:19:09.000Z</time>
      </trkpt>
      <trkpt lat="45.83208" lon="4.83377">
        <ele>252.60000610352</ele>
        <time>2011-11-20T08:19:10.000Z</time>
      </trkpt>
      <trkpt lat="45.83206" lon="4.83379">
        <ele>252.60000610352</ele>
        <time>2011-11-20T08:19:11.000Z</time>
      </trkpt>
      <trkpt lat="45.832" lon="4.83382">
        <ele>253</ele>
        <time>2011-11-20T08:19:14.000Z</time>
      </trkpt>
      <trkpt lat="45.83199" lon="4.83384">
        <ele>253.19999694824</ele>
        <time>2011-11-20T08:19:15.000Z</time>
      </trkpt>
      <trkpt lat="45.83189" lon="4.83387">
        <ele>253.80000305176</ele>
        <time>2011-11-20T08:19:19.000Z</time>
      </trkpt>
      <trkpt lat="45.83187" lon="4.8339">
        <ele>254</ele>
        <time>2011-11-20T08:19:20.000Z</time>
      </trkpt>
      <trkpt lat="45.83177" lon="4.83396">
        <ele>254.39999389648</ele>
        <time>2011-11-20T08:19:24.000Z</time>
      </trkpt>
      <trkpt lat="45.83168" lon="4.834">
        <ele>255</ele>
        <time>2011-11-20T08:19:29.000Z</time>
      </trkpt>
      <trkpt lat="45.83155" lon="4.83399">
        <ele>255.80000305176</ele>
        <time>2011-11-20T08:19:35.000Z</time>
      </trkpt>
      <trkpt lat="45.83149" lon="4.83397">
        <ele>256.39999389648</ele>
        <time>2011-11-20T08:19:38.000Z</time>
      </trkpt>
      <trkpt lat="45.83145" lon="4.83395">
        <ele>256.79998779297</ele>
        <time>2011-11-20T08:19:40.000Z</time>
      </trkpt>
      <trkpt lat="45.83133" lon="4.83394">
        <ele>257.60000610352</ele>
        <time>2011-11-20T08:19:46.000Z</time>
      </trkpt>
      <trkpt lat="45.83131" lon="4.83394">
        <ele>257.79998779297</ele>
        <time>2011-11-20T08:19:47.000Z</time>
      </trkpt>
      <trkpt lat="45.8312" lon="4.83391">
        <ele>258.79998779297</ele>
        <time>2011-11-20T08:19:52.000Z</time>
      </trkpt>
      <trkpt lat="45.8312" lon="4.83388">
        <ele>259.20001220703</ele>
        <time>2011-11-20T08:20:01.000Z</time>
      </trkpt>
      <trkpt lat="45.83119" lon="4.83389">
        <ele>259</ele>
        <time>2011-11-20T08:20:38.000Z</time>
      </trkpt>
      <trkpt lat="45.83117" lon="4.83391">
        <ele>259</ele>
        <time>2011-11-20T08:21:11.000Z</time>
      </trkpt>
      <trkpt lat="45.83113" lon="4.83395">
        <ele>258.79998779297</ele>
        <time>2011-11-20T08:21:14.000Z</time>
      </trkpt>
      <trkpt lat="45.83108" lon="4.83402">
        <ele>258.39999389648</ele>
        <time>2011-11-20T08:21:18.000Z</time>
      </trkpt>
      <trkpt lat="45.83104" lon="4.83404">
        <ele>258.39999389648</ele>
        <time>2011-11-20T08:21:20.000Z</time>
      </trkpt>
      <trkpt lat="45.83092" lon="4.8341">
        <ele>258.39999389648</ele>
        <time>2011-11-20T08:21:25.000Z</time>
      </trkpt>
      <trkpt lat="45.8309" lon="4.83411">
        <ele>258.39999389648</ele>
        <time>2011-11-20T08:21:26.000Z</time>
      </trkpt>
      <trkpt lat="45.83083" lon="4.83416">
        <ele>258</ele>
        <time>2011-11-20T08:21:30.000Z</time>
      </trkpt>
      <trkpt lat="45.83073" lon="4.83423">
        <ele>258.79998779297</ele>
        <time>2011-11-20T08:21:35.000Z</time>
      </trkpt>
      <trkpt lat="45.83071" lon="4.83423">
        <ele>259</ele>
        <time>2011-11-20T08:21:36.000Z</time>
      </trkpt>
      <trkpt lat="45.83059" lon="4.83427">
        <ele>260.20001220703</ele>
        <time>2011-11-20T08:21:42.000Z</time>
      </trkpt>
      <trkpt lat="45.83055" lon="4.83429">
        <ele>260.60000610352</ele>
        <time>2011-11-20T08:21:44.000Z</time>
      </trkpt>
      <trkpt lat="45.83049" lon="4.83431">
        <ele>261.20001220703</ele>
        <time>2011-11-20T08:21:47.000Z</time>
      </trkpt>
      <trkpt lat="45.83038" lon="4.83439">
        <ele>262.20001220703</ele>
        <time>2011-11-20T08:21:52.000Z</time>
      </trkpt>
      <trkpt lat="45.83034" lon="4.83441">
        <ele>262.60000610352</ele>
        <time>2011-11-20T08:21:54.000Z</time>
      </trkpt>
      <trkpt lat="45.83025" lon="4.83447">
        <ele>263.39999389648</ele>
        <time>2011-11-20T08:21:59.000Z</time>
      </trkpt>
      <trkpt lat="45.83023" lon="4.83448">
        <ele>263.60000610352</ele>
        <time>2011-11-20T08:22:00.000Z</time>
      </trkpt>
      <trkpt lat="45.83021" lon="4.83449">
        <ele>263.79998779297</ele>
        <time>2011-11-20T08:22:01.000Z</time>
      </trkpt>
      <trkpt lat="45.83016" lon="4.83452">
        <ele>264.20001220703</ele>
        <time>2011-11-20T08:22:04.000Z</time>
      </trkpt>
      <trkpt lat="45.83014" lon="4.83453">
        <ele>264.39999389648</ele>
        <time>2011-11-20T08:22:05.000Z</time>
      </trkpt>
      <trkpt lat="45.83006" lon="4.83456">
        <ele>265.39999389648</ele>
        <time>2011-11-20T08:22:09.000Z</time>
      </trkpt>
      <trkpt lat="45.83003" lon="4.83457">
        <ele>265.60000610352</ele>
        <time>2011-11-20T08:22:10.000Z</time>
      </trkpt>
      <trkpt lat="45.82992" lon="4.83464">
        <ele>266.20001220703</ele>
        <time>2011-11-20T08:22:15.000Z</time>
      </trkpt>
      <trkpt lat="45.82985" lon="4.83467">
        <ele>266.60000610352</ele>
        <time>2011-11-20T08:22:18.000Z</time>
      </trkpt>
      <trkpt lat="45.82983" lon="4.83468">
        <ele>266.60000610352</ele>
        <time>2011-11-20T08:22:19.000Z</time>
      </trkpt>
      <trkpt lat="45.82981" lon="4.8347">
        <ele>266.60000610352</ele>
        <time>2011-11-20T08:22:20.000Z</time>
      </trkpt>
      <trkpt lat="45.82969" lon="4.8348">
        <ele>266.79998779297</ele>
        <time>2011-11-20T08:22:25.000Z</time>
      </trkpt>
      <trkpt lat="45.82965" lon="4.83483">
        <ele>267</ele>
        <time>2011-11-20T08:22:27.000Z</time>
      </trkpt>
      <trkpt lat="45.82961" lon="4.83485">
        <ele>267.20001220703</ele>
        <time>2011-11-20T08:22:29.000Z</time>
      </trkpt>
      <trkpt lat="45.82952" lon="4.83492">
        <ele>267.20001220703</ele>
        <time>2011-11-20T08:22:33.000Z</time>
      </trkpt>
      <trkpt lat="45.8295" lon="4.83493">
        <ele>267.39999389648</ele>
        <time>2011-11-20T08:22:34.000Z</time>
      </trkpt>
      <trkpt lat="45.82943" lon="4.83499">
        <ele>267.39999389648</ele>
        <time>2011-11-20T08:22:37.000Z</time>
      </trkpt>
      <trkpt lat="45.82939" lon="4.83502">
        <ele>267.39999389648</ele>
        <time>2011-11-20T08:22:39.000Z</time>
      </trkpt>
      <trkpt lat="45.82937" lon="4.83504">
        <ele>267.39999389648</ele>
        <time>2011-11-20T08:22:40.000Z</time>
      </trkpt>
      <trkpt lat="45.82933" lon="4.83509">
        <ele>267.20001220703</ele>
        <time>2011-11-20T08:22:42.000Z</time>
      </trkpt>
      <trkpt lat="45.82931" lon="4.8351">
        <ele>267.20001220703</ele>
        <time>2011-11-20T08:22:43.000Z</time>
      </trkpt>
      <trkpt lat="45.82921" lon="4.83516">
        <ele>267.20001220703</ele>
        <time>2011-11-20T08:22:47.000Z</time>
      </trkpt>
      <trkpt lat="45.82919" lon="4.83517">
        <ele>267.20001220703</ele>
        <time>2011-11-20T08:22:48.000Z</time>
      </trkpt>
      <trkpt lat="45.82916" lon="4.83518">
        <ele>267.20001220703</ele>
        <time>2011-11-20T08:22:49.000Z</time>
      </trkpt>
      <trkpt lat="45.82903" lon="4.83521">
        <ele>266.79998779297</ele>
        <time>2011-11-20T08:22:54.000Z</time>
      </trkpt>
      <trkpt lat="45.82885" lon="4.83524">
        <ele>266.39999389648</ele>
        <time>2011-11-20T08:23:01.000Z</time>
      </trkpt>
      <trkpt lat="45.82872" lon="4.83525">
        <ele>266.20001220703</ele>
        <time>2011-11-20T08:23:06.000Z</time>
      </trkpt>
      <trkpt lat="45.82866" lon="4.83526">
        <ele>266.20001220703</ele>
        <time>2011-11-20T08:23:08.000Z</time>
      </trkpt>
      <trkpt lat="45.82858" lon="4.83527">
        <ele>266</ele>
        <time>2011-11-20T08:23:11.000Z</time>
      </trkpt>
      <trkpt lat="45.82845" lon="4.83526">
        <ele>266</ele>
        <time>2011-11-20T08:23:16.000Z</time>
      </trkpt>
      <trkpt lat="45.82843" lon="4.83526">
        <ele>266</ele>
        <time>2011-11-20T08:23:17.000Z</time>
      </trkpt>
      <trkpt lat="45.82828" lon="4.83518">
        <ele>266.20001220703</ele>
        <time>2011-11-20T08:23:23.000Z</time>
      </trkpt>
      <trkpt lat="45.82822" lon="4.83504">
        <ele>267</ele>
        <time>2011-11-20T08:23:28.000Z</time>
      </trkpt>
      <trkpt lat="45.82821" lon="4.83493">
        <ele>267.60000610352</ele>
        <time>2011-11-20T08:23:31.000Z</time>
      </trkpt>
      <trkpt lat="45.82821" lon="4.8349">
        <ele>268</ele>
        <time>2011-11-20T08:23:32.000Z</time>
      </trkpt>
      <trkpt lat="45.8282" lon="4.83472">
        <ele>269.20001220703</ele>
        <time>2011-11-20T08:23:37.000Z</time>
      </trkpt>
      <trkpt lat="45.8282" lon="4.83466">
        <ele>269.60000610352</ele>
        <time>2011-11-20T08:23:39.000Z</time>
      </trkpt>
      <trkpt lat="45.82821" lon="4.83455">
        <ele>270.39999389648</ele>
        <time>2011-11-20T08:23:43.000Z</time>
      </trkpt>
      <trkpt lat="45.8282" lon="4.83441">
        <ele>271.39999389648</ele>
        <time>2011-11-20T08:23:48.000Z</time>
      </trkpt>
      <trkpt lat="45.82819" lon="4.83438">
        <ele>271.60000610352</ele>
        <time>2011-11-20T08:23:49.000Z</time>
      </trkpt>
      <trkpt lat="45.8282" lon="4.83423">
        <ele>272.79998779297</ele>
        <time>2011-11-20T08:23:54.000Z</time>
      </trkpt>
      <trkpt lat="45.82821" lon="4.83412">
        <ele>273.60000610352</ele>
        <time>2011-11-20T08:23:58.000Z</time>
      </trkpt>
      <trkpt lat="45.82821" lon="4.8341">
        <ele>273.79998779297</ele>
        <time>2011-11-20T08:23:59.000Z</time>
      </trkpt>
      <trkpt lat="45.82822" lon="4.83398">
        <ele>274.60000610352</ele>
        <time>2011-11-20T08:24:03.000Z</time>
      </trkpt>
      <trkpt lat="45.82821" lon="4.83385">
        <ele>275.60000610352</ele>
        <time>2011-11-20T08:24:08.000Z</time>
      </trkpt>
      <trkpt lat="45.82822" lon="4.8337">
        <ele>276.79998779297</ele>
        <time>2011-11-20T08:24:14.000Z</time>
      </trkpt>
      <trkpt lat="45.82821" lon="4.83357">
        <ele>277.79998779297</ele>
        <time>2011-11-20T08:24:18.000Z</time>
      </trkpt>
      <trkpt lat="45.82824" lon="4.83342">
        <ele>279</ele>
        <time>2011-11-20T08:24:24.000Z</time>
      </trkpt>
      <trkpt lat="45.82825" lon="4.83336">
        <ele>279.39999389648</ele>
        <time>2011-11-20T08:24:26.000Z</time>
      </trkpt>
      <trkpt lat="45.82826" lon="4.8333">
        <ele>280</ele>
        <time>2011-11-20T08:24:28.000Z</time>
      </trkpt>
      <trkpt lat="45.82826" lon="4.83328">
        <ele>280.20001220703</ele>
        <time>2011-11-20T08:24:29.000Z</time>
      </trkpt>
      <trkpt lat="45.82826" lon="4.83312">
        <ele>281.79998779297</ele>
        <time>2011-11-20T08:24:35.000Z</time>
      </trkpt>
      <trkpt lat="45.82827" lon="4.83303">
        <ele>282.60000610352</ele>
        <time>2011-11-20T08:24:38.000Z</time>
      </trkpt>
      <trkpt lat="45.82828" lon="4.83295">
        <ele>283.39999389648</ele>
        <time>2011-11-20T08:24:41.000Z</time>
      </trkpt>
      <trkpt lat="45.82829" lon="4.83283">
        <ele>284.60000610352</ele>
        <time>2011-11-20T08:24:46.000Z</time>
      </trkpt>
      <trkpt lat="45.8283" lon="4.83281">
        <ele>284.79998779297</ele>
        <time>2011-11-20T08:24:47.000Z</time>
      </trkpt>
      <trkpt lat="45.8283" lon="4.83282">
        <ele>284.79998779297</ele>
        <time>2011-11-20T08:24:49.000Z</time>
      </trkpt>
      <trkpt lat="45.82829" lon="4.83284">
        <ele>284.60000610352</ele>
        <time>2011-11-20T08:24:51.000Z</time>
      </trkpt>
      <trkpt lat="45.82826" lon="4.83282">
        <ele>284.60000610352</ele>
        <time>2011-11-20T08:24:57.000Z</time>
      </trkpt>
      <trkpt lat="45.82827" lon="4.83283">
        <ele>284.60000610352</ele>
        <time>2011-11-20T08:25:04.000Z</time>
      </trkpt>
      <trkpt lat="45.82824" lon="4.83278">
        <ele>285</ele>
        <time>2011-11-20T08:25:24.000Z</time>
      </trkpt>
      <trkpt lat="45.82824" lon="4.83277">
        <ele>285</ele>
        <time>2011-11-20T08:25:25.000Z</time>
      </trkpt>
      <trkpt lat="45.82818" lon="4.83276">
        <ele>285</ele>
        <time>2011-11-20T08:25:29.000Z</time>
      </trkpt>
      <trkpt lat="45.82816" lon="4.83275">
        <ele>285</ele>
        <time>2011-11-20T08:25:30.000Z</time>
      </trkpt>
      <trkpt lat="45.82812" lon="4.83275">
        <ele>285</ele>
        <time>2011-11-20T08:25:32.000Z</time>
      </trkpt>
      <trkpt lat="45.82808" lon="4.83272">
        <ele>285.20001220703</ele>
        <time>2011-11-20T08:25:34.000Z</time>
      </trkpt>
      <trkpt lat="45.82801" lon="4.83269">
        <ele>285.20001220703</ele>
        <time>2011-11-20T08:25:37.000Z</time>
      </trkpt>
      <trkpt lat="45.82796" lon="4.83266">
        <ele>285.39999389648</ele>
        <time>2011-11-20T08:25:39.000Z</time>
      </trkpt>
      <trkpt lat="45.82786" lon="4.83261">
        <ele>285.60000610352</ele>
        <time>2011-11-20T08:25:44.000Z</time>
      </trkpt>
      <trkpt lat="45.82782" lon="4.83258">
        <ele>285.79998779297</ele>
        <time>2011-11-20T08:25:46.000Z</time>
      </trkpt>
      <trkpt lat="45.82777" lon="4.83254">
        <ele>286</ele>
        <time>2011-11-20T08:25:49.000Z</time>
      </trkpt>
      <trkpt lat="45.82767" lon="4.8325">
        <ele>286.39999389648</ele>
        <time>2011-11-20T08:25:54.000Z</time>
      </trkpt>
      <trkpt lat="45.82765" lon="4.83248">
        <ele>286.39999389648</ele>
        <time>2011-11-20T08:25:55.000Z</time>
      </trkpt>
      <trkpt lat="45.82764" lon="4.83246">
        <ele>286.79998779297</ele>
        <time>2011-11-20T08:25:56.000Z</time>
      </trkpt>
      <trkpt lat="45.82763" lon="4.83239">
        <ele>287.60000610352</ele>
        <time>2011-11-20T08:25:59.000Z</time>
      </trkpt>
      <trkpt lat="45.82763" lon="4.83228">
        <ele>289</ele>
        <time>2011-11-20T08:26:03.000Z</time>
      </trkpt>
      <trkpt lat="45.82763" lon="4.83225">
        <ele>289.20001220703</ele>
        <time>2011-11-20T08:26:04.000Z</time>
      </trkpt>
      <trkpt lat="45.82763" lon="4.83222">
        <ele>289.60000610352</ele>
        <time>2011-11-20T08:26:05.000Z</time>
      </trkpt>
      <trkpt lat="45.82764" lon="4.83212">
        <ele>291</ele>
        <time>2011-11-20T08:26:09.000Z</time>
      </trkpt>
      <trkpt lat="45.82766" lon="4.832">
        <ele>292.39999389648</ele>
        <time>2011-11-20T08:26:14.000Z</time>
      </trkpt>
      <trkpt lat="45.82766" lon="4.83195">
        <ele>293</ele>
        <time>2011-11-20T08:26:16.000Z</time>
      </trkpt>
      <trkpt lat="45.82767" lon="4.83181">
        <ele>294.79998779297</ele>
        <time>2011-11-20T08:26:22.000Z</time>
      </trkpt>
      <trkpt lat="45.82766" lon="4.83179">
        <ele>295</ele>
        <time>2011-11-20T08:26:23.000Z</time>
      </trkpt>
      <trkpt lat="45.82762" lon="4.83175">
        <ele>295.20001220703</ele>
        <time>2011-11-20T08:26:26.000Z</time>
      </trkpt>
      <trkpt lat="45.8276" lon="4.83174">
        <ele>295.39999389648</ele>
        <time>2011-11-20T08:26:27.000Z</time>
      </trkpt>
      <trkpt lat="45.82749" lon="4.8317">
        <ele>295.39999389648</ele>
        <time>2011-11-20T08:26:32.000Z</time>
      </trkpt>
      <trkpt lat="45.82744" lon="4.83167">
        <ele>295.60000610352</ele>
        <time>2011-11-20T08:26:35.000Z</time>
      </trkpt>
      <trkpt lat="45.82744" lon="4.83164">
        <ele>296</ele>
        <time>2011-11-20T08:26:36.000Z</time>
      </trkpt>
      <trkpt lat="45.82743" lon="4.83163">
        <ele>296.20001220703</ele>
        <time>2011-11-20T08:26:37.000Z</time>
      </trkpt>
      <trkpt lat="45.82749" lon="4.8316">
        <ele>297</ele>
        <time>2011-11-20T08:26:40.000Z</time>
      </trkpt>
      <trkpt lat="45.82757" lon="4.83156">
        <ele>298</ele>
        <time>2011-11-20T08:26:45.000Z</time>
      </trkpt>
      <trkpt lat="45.8276" lon="4.83151">
        <ele>299</ele>
        <time>2011-11-20T08:26:48.000Z</time>
      </trkpt>
      <trkpt lat="45.82761" lon="4.83149">
        <ele>299.60000610352</ele>
        <time>2011-11-20T08:26:49.000Z</time>
      </trkpt>
      <trkpt lat="45.82768" lon="4.83138">
        <ele>301.79998779297</ele>
        <time>2011-11-20T08:26:54.000Z</time>
      </trkpt>
      <trkpt lat="45.82768" lon="4.83129">
        <ele>303.60000610352</ele>
        <time>2011-11-20T08:26:58.000Z</time>
      </trkpt>
      <trkpt lat="45.82769" lon="4.83126">
        <ele>304</ele>
        <time>2011-11-20T08:26:59.000Z</time>
      </trkpt>
      <trkpt lat="45.82771" lon="4.83115">
        <ele>306.20001220703</ele>
        <time>2011-11-20T08:27:05.000Z</time>
      </trkpt>
      <trkpt lat="45.82771" lon="4.83114">
        <ele>306.60000610352</ele>
        <time>2011-11-20T08:27:06.000Z</time>
      </trkpt>
      <trkpt lat="45.82772" lon="4.83112">
        <ele>307</ele>
        <time>2011-11-20T08:27:08.000Z</time>
      </trkpt>
      <trkpt lat="45.82773" lon="4.83111">
        <ele>307</ele>
        <time>2011-11-20T08:27:09.000Z</time>
      </trkpt>
      <trkpt lat="45.82776" lon="4.8311">
        <ele>307.60000610352</ele>
        <time>2011-11-20T08:27:13.000Z</time>
      </trkpt>
      <trkpt lat="45.82778" lon="4.8311">
        <ele>307.39999389648</ele>
        <time>2011-11-20T08:27:14.000Z</time>
      </trkpt>
      <trkpt lat="45.82779" lon="4.8311">
        <ele>307.60000610352</ele>
        <time>2011-11-20T08:27:15.000Z</time>
      </trkpt>
      <trkpt lat="45.82782" lon="4.8311">
        <ele>307.79998779297</ele>
        <time>2011-11-20T08:27:18.000Z</time>
      </trkpt>
      <trkpt lat="45.82783" lon="4.8311">
        <ele>307.79998779297</ele>
        <time>2011-11-20T08:27:19.000Z</time>
      </trkpt>
      <trkpt lat="45.82791" lon="4.83112">
        <ele>308</ele>
        <time>2011-11-20T08:27:23.000Z</time>
      </trkpt>
      <trkpt lat="45.82797" lon="4.83109">
        <ele>308.79998779297</ele>
        <time>2011-11-20T08:27:26.000Z</time>
      </trkpt>
      <trkpt lat="45.82798" lon="4.83109">
        <ele>308.79998779297</ele>
        <time>2011-11-20T08:27:27.000Z</time>
      </trkpt>
      <trkpt lat="45.82806" lon="4.83109">
        <ele>309.20001220703</ele>
        <time>2011-11-20T08:27:31.000Z</time>
      </trkpt>
      <trkpt lat="45.82809" lon="4.8311">
        <ele>309.20001220703</ele>
        <time>2011-11-20T08:27:33.000Z</time>
      </trkpt>
      <trkpt lat="45.82816" lon="4.8311">
        <ele>309.60000610352</ele>
        <time>2011-11-20T08:27:36.000Z</time>
      </trkpt>
      <trkpt lat="45.82818" lon="4.83109">
        <ele>309.79998779297</ele>
        <time>2011-11-20T08:27:37.000Z</time>
      </trkpt>
      <trkpt lat="45.82824" lon="4.8311">
        <ele>310</ele>
        <time>2011-11-20T08:27:40.000Z</time>
      </trkpt>
      <trkpt lat="45.82835" lon="4.83112">
        <ele>310</ele>
        <time>2011-11-20T08:27:44.000Z</time>
      </trkpt>
      <trkpt lat="45.82837" lon="4.83113">
        <ele>310</ele>
        <time>2011-11-20T08:27:45.000Z</time>
      </trkpt>
      <trkpt lat="45.82846" lon="4.83114">
        <ele>309.79998779297</ele>
        <time>2011-11-20T08:27:49.000Z</time>
      </trkpt>
      <trkpt lat="45.82855" lon="4.83112">
        <ele>310.20001220703</ele>
        <time>2011-11-20T08:27:52.000Z</time>
      </trkpt>
      <trkpt lat="45.82856" lon="4.83113">
        <ele>310.20001220703</ele>
        <time>2011-11-20T08:27:53.000Z</time>
      </trkpt>
      <trkpt lat="45.82866" lon="4.83116">
        <ele>309.60000610352</ele>
        <time>2011-11-20T08:27:58.000Z</time>
      </trkpt>
      <trkpt lat="45.82868" lon="4.83117">
        <ele>309.39999389648</ele>
        <time>2011-11-20T08:27:59.000Z</time>
      </trkpt>
      <trkpt lat="45.82873" lon="4.83118">
        <ele>309.20001220703</ele>
        <time>2011-11-20T08:28:02.000Z</time>
      </trkpt>
      <trkpt lat="45.82876" lon="4.83119">
        <ele>309.20001220703</ele>
        <time>2011-11-20T08:28:03.000Z</time>
      </trkpt>
      <trkpt lat="45.82886" lon="4.83118">
        <ele>309.39999389648</ele>
        <time>2011-11-20T08:28:07.000Z</time>
      </trkpt>
      <trkpt lat="45.82888" lon="4.83119">
        <ele>309.39999389648</ele>
        <time>2011-11-20T08:28:08.000Z</time>
      </trkpt>
      <trkpt lat="45.82893" lon="4.83117">
        <ele>309.60000610352</ele>
        <time>2011-11-20T08:28:10.000Z</time>
      </trkpt>
      <trkpt lat="45.82901" lon="4.83117">
        <ele>309.79998779297</ele>
        <time>2011-11-20T08:28:13.000Z</time>
      </trkpt>
      <trkpt lat="45.8291" lon="4.83118">
        <ele>309.79998779297</ele>
        <time>2011-11-20T08:28:18.000Z</time>
      </trkpt>
      <trkpt lat="45.82912" lon="4.83118">
        <ele>309.79998779297</ele>
        <time>2011-11-20T08:28:19.000Z</time>
      </trkpt>
      <trkpt lat="45.82915" lon="4.83117">
        <ele>310</ele>
        <time>2011-11-20T08:28:20.000Z</time>
      </trkpt>
      <trkpt lat="45.82922" lon="4.83117">
        <ele>310</ele>
        <time>2011-11-20T08:28:23.000Z</time>
      </trkpt>
      <trkpt lat="45.82924" lon="4.83116">
        <ele>310.20001220703</ele>
        <time>2011-11-20T08:28:24.000Z</time>
      </trkpt>
      <trkpt lat="45.82926" lon="4.83115">
        <ele>310.39999389648</ele>
        <time>2011-11-20T08:28:25.000Z</time>
      </trkpt>
      <trkpt lat="45.82932" lon="4.83116">
        <ele>310.20001220703</ele>
        <time>2011-11-20T08:28:28.000Z</time>
      </trkpt>
      <trkpt lat="45.82943" lon="4.83116">
        <ele>310</ele>
        <time>2011-11-20T08:28:33.000Z</time>
      </trkpt>
      <trkpt lat="45.8295" lon="4.83113">
        <ele>310.60000610352</ele>
        <time>2011-11-20T08:28:36.000Z</time>
      </trkpt>
      <trkpt lat="45.82954" lon="4.83112">
        <ele>310.60000610352</ele>
        <time>2011-11-20T08:28:37.000Z</time>
      </trkpt>
      <trkpt lat="45.82964" lon="4.83108">
        <ele>311.20001220703</ele>
        <time>2011-11-20T08:28:41.000Z</time>
      </trkpt>
      <trkpt lat="45.82969" lon="4.83109">
        <ele>311</ele>
        <time>2011-11-20T08:28:43.000Z</time>
      </trkpt>
      <trkpt lat="45.82976" lon="4.83108">
        <ele>311</ele>
        <time>2011-11-20T08:28:46.000Z</time>
      </trkpt>
      <trkpt lat="45.82987" lon="4.83105">
        <ele>311.39999389648</ele>
        <time>2011-11-20T08:28:51.000Z</time>
      </trkpt>
      <trkpt lat="45.82999" lon="4.831">
        <ele>312.20001220703</ele>
        <time>2011-11-20T08:28:56.000Z</time>
      </trkpt>
      <trkpt lat="45.83004" lon="4.83095">
        <ele>312.39999389648</ele>
        <time>2011-11-20T08:28:59.000Z</time>
      </trkpt>
      <trkpt lat="45.83005" lon="4.83094">
        <ele>312.60000610352</ele>
        <time>2011-11-20T08:29:00.000Z</time>
      </trkpt>
      <trkpt lat="45.83011" lon="4.83087">
        <ele>313.20001220703</ele>
        <time>2011-11-20T08:29:04.000Z</time>
      </trkpt>
      <trkpt lat="45.83014" lon="4.83083">
        <ele>313.39999389648</ele>
        <time>2011-11-20T08:29:06.000Z</time>
      </trkpt>
      <trkpt lat="45.83019" lon="4.83076">
        <ele>313</ele>
        <time>2011-11-20T08:29:09.000Z</time>
      </trkpt>
      <trkpt lat="45.83022" lon="4.83074">
        <ele>312.79998779297</ele>
        <time>2011-11-20T08:29:10.000Z</time>
      </trkpt>
      <trkpt lat="45.83027" lon="4.83065">
        <ele>312.60000610352</ele>
        <time>2011-11-20T08:29:15.000Z</time>
      </trkpt>
      <trkpt lat="45.83028" lon="4.83063">
        <ele>312.60000610352</ele>
        <time>2011-11-20T08:29:16.000Z</time>
      </trkpt>
      <trkpt lat="45.8303" lon="4.83058">
        <ele>312.39999389648</ele>
        <time>2011-11-20T08:29:18.000Z</time>
      </trkpt>
      <trkpt lat="45.8303" lon="4.83055">
        <ele>312.39999389648</ele>
        <time>2011-11-20T08:29:19.000Z</time>
      </trkpt>
      <trkpt lat="45.83032" lon="4.8305">
        <ele>312.39999389648</ele>
        <time>2011-11-20T08:29:21.000Z</time>
      </trkpt>
      <trkpt lat="45.83033" lon="4.83037">
        <ele>312.79998779297</ele>
        <time>2011-11-20T08:29:25.000Z</time>
      </trkpt>
      <trkpt lat="45.83032" lon="4.8303">
        <ele>313</ele>
        <time>2011-11-20T08:29:27.000Z</time>
      </trkpt>
      <trkpt lat="45.83032" lon="4.83027">
        <ele>313</ele>
        <time>2011-11-20T08:29:28.000Z</time>
      </trkpt>
      <trkpt lat="45.83033" lon="4.83024">
        <ele>313.20001220703</ele>
        <time>2011-11-20T08:29:29.000Z</time>
      </trkpt>
      <trkpt lat="45.83034" lon="4.83014">
        <ele>313.20001220703</ele>
        <time>2011-11-20T08:29:33.000Z</time>
      </trkpt>
      <trkpt lat="45.83036" lon="4.83005">
        <ele>313.20001220703</ele>
        <time>2011-11-20T08:29:36.000Z</time>
      </trkpt>
      <trkpt lat="45.83036" lon="4.82998">
        <ele>313.39999389648</ele>
        <time>2011-11-20T08:29:38.000Z</time>
      </trkpt>
      <trkpt lat="45.83037" lon="4.82995">
        <ele>313.39999389648</ele>
        <time>2011-11-20T08:29:39.000Z</time>
      </trkpt>
      <trkpt lat="45.83038" lon="4.82984">
        <ele>313.60000610352</ele>
        <time>2011-11-20T08:29:43.000Z</time>
      </trkpt>
      <trkpt lat="45.83038" lon="4.82978">
        <ele>313.79998779297</ele>
        <time>2011-11-20T08:29:45.000Z</time>
      </trkpt>
      <trkpt lat="45.83039" lon="4.82968">
        <ele>314</ele>
        <time>2011-11-20T08:29:48.000Z</time>
      </trkpt>
      <trkpt lat="45.83043" lon="4.82952">
        <ele>313.79998779297</ele>
        <time>2011-11-20T08:29:53.000Z</time>
      </trkpt>
      <trkpt lat="45.83044" lon="4.8295">
        <ele>313.79998779297</ele>
        <time>2011-11-20T08:29:54.000Z</time>
      </trkpt>
      <trkpt lat="45.83046" lon="4.82939">
        <ele>313.60000610352</ele>
        <time>2011-11-20T08:29:57.000Z</time>
      </trkpt>
      <trkpt lat="45.83051" lon="4.82928">
        <ele>313</ele>
        <time>2011-11-20T08:30:01.000Z</time>
      </trkpt>
      <trkpt lat="45.83052" lon="4.82925">
        <ele>312.79998779297</ele>
        <time>2011-11-20T08:30:02.000Z</time>
      </trkpt>
      <trkpt lat="45.8305" lon="4.82916">
        <ele>313.39999389648</ele>
        <time>2011-11-20T08:30:06.000Z</time>
      </trkpt>
      <trkpt lat="45.83051" lon="4.82913">
        <ele>313.60000610352</ele>
        <time>2011-11-20T08:30:07.000Z</time>
      </trkpt>
      <trkpt lat="45.83053" lon="4.82902">
        <ele>314.39999389648</ele>
        <time>2011-11-20T08:30:10.000Z</time>
      </trkpt>
      <trkpt lat="45.83054" lon="4.82899">
        <ele>314.60000610352</ele>
        <time>2011-11-20T08:30:11.000Z</time>
      </trkpt>
      <trkpt lat="45.8306" lon="4.82882">
        <ele>315.20001220703</ele>
        <time>2011-11-20T08:30:16.000Z</time>
      </trkpt>
      <trkpt lat="45.83061" lon="4.82877">
        <ele>315.39999389648</ele>
        <time>2011-11-20T08:30:18.000Z</time>
      </trkpt>
      <trkpt lat="45.83063" lon="4.82867">
        <ele>316</ele>
        <time>2011-11-20T08:30:21.000Z</time>
      </trkpt>
      <trkpt lat="45.83067" lon="4.82853">
        <ele>316.60000610352</ele>
        <time>2011-11-20T08:30:28.000Z</time>
      </trkpt>
      <trkpt lat="45.83065" lon="4.82851">
        <ele>317.20001220703</ele>
        <time>2011-11-20T08:30:30.000Z</time>
      </trkpt>
      <trkpt lat="45.83063" lon="4.82851">
        <ele>317.79998779297</ele>
        <time>2011-11-20T08:30:32.000Z</time>
      </trkpt>
      <trkpt lat="45.83059" lon="4.82849">
        <ele>319.20001220703</ele>
        <time>2011-11-20T08:30:36.000Z</time>
      </trkpt>
      <trkpt lat="45.83058" lon="4.82849">
        <ele>319.39999389648</ele>
        <time>2011-11-20T08:30:37.000Z</time>
      </trkpt>
      <trkpt lat="45.83057" lon="4.82848">
        <ele>319.79998779297</ele>
        <time>2011-11-20T08:30:38.000Z</time>
      </trkpt>
      <trkpt lat="45.83056" lon="4.82847">
        <ele>320.20001220703</ele>
        <time>2011-11-20T08:30:40.000Z</time>
      </trkpt>
      <trkpt lat="45.83055" lon="4.82846">
        <ele>320.39999389648</ele>
        <time>2011-11-20T08:30:41.000Z</time>
      </trkpt>
      <trkpt lat="45.83051" lon="4.82842">
        <ele>322.39999389648</ele>
        <time>2011-11-20T08:30:46.000Z</time>
      </trkpt>
      <trkpt lat="45.8305" lon="4.82841">
        <ele>322.39999389648</ele>
        <time>2011-11-20T08:30:47.000Z</time>
      </trkpt>
      <trkpt lat="45.83048" lon="4.82841">
        <ele>323</ele>
        <time>2011-11-20T08:30:49.000Z</time>
      </trkpt>
      <trkpt lat="45.83047" lon="4.82841">
        <ele>323.60000610352</ele>
        <time>2011-11-20T08:30:50.000Z</time>
      </trkpt>
      <trkpt lat="45.83044" lon="4.82837">
        <ele>325</ele>
        <time>2011-11-20T08:30:54.000Z</time>
      </trkpt>
      <trkpt lat="45.83042" lon="4.82837">
        <ele>325.39999389648</ele>
        <time>2011-11-20T08:30:57.000Z</time>
      </trkpt>
      <trkpt lat="45.83037" lon="4.82836">
        <ele>327</ele>
        <time>2011-11-20T08:31:01.000Z</time>
      </trkpt>
      <trkpt lat="45.83034" lon="4.82835">
        <ele>327.79998779297</ele>
        <time>2011-11-20T08:31:05.000Z</time>
      </trkpt>
      <trkpt lat="45.83031" lon="4.82835">
        <ele>328.79998779297</ele>
        <time>2011-11-20T08:31:08.000Z</time>
      </trkpt>
      <trkpt lat="45.8303" lon="4.82836">
        <ele>329</ele>
        <time>2011-11-20T08:31:09.000Z</time>
      </trkpt>
      <trkpt lat="45.83029" lon="4.82836">
        <ele>329.20001220703</ele>
        <time>2011-11-20T08:31:10.000Z</time>
      </trkpt>
      <trkpt lat="45.83027" lon="4.82834">
        <ele>330</ele>
        <time>2011-11-20T08:31:12.000Z</time>
      </trkpt>
      <trkpt lat="45.83023" lon="4.82828">
        <ele>332.60000610352</ele>
        <time>2011-11-20T08:31:18.000Z</time>
      </trkpt>
      <trkpt lat="45.83017" lon="4.82824">
        <ele>335</ele>
        <time>2011-11-20T08:31:24.000Z</time>
      </trkpt>
      <trkpt lat="45.83016" lon="4.82823">
        <ele>335.60000610352</ele>
        <time>2011-11-20T08:31:25.000Z</time>
      </trkpt>
      <trkpt lat="45.83013" lon="4.82819">
        <ele>337.60000610352</ele>
        <time>2011-11-20T08:31:31.000Z</time>
      </trkpt>
      <trkpt lat="45.83007" lon="4.82817">
        <ele>339.60000610352</ele>
        <time>2011-11-20T08:31:36.000Z</time>
      </trkpt>
      <trkpt lat="45.83002" lon="4.82815">
        <ele>341.79998779297</ele>
        <time>2011-11-20T08:31:41.000Z</time>
      </trkpt>
      <trkpt lat="45.82999" lon="4.82814">
        <ele>342.79998779297</ele>
        <time>2011-11-20T08:31:45.000Z</time>
      </trkpt>
      <trkpt lat="45.82996" lon="4.82814">
        <ele>343.79998779297</ele>
        <time>2011-11-20T08:31:48.000Z</time>
      </trkpt>
      <trkpt lat="45.82994" lon="4.82813">
        <ele>344.60000610352</ele>
        <time>2011-11-20T08:31:50.000Z</time>
      </trkpt>
      <trkpt lat="45.82992" lon="4.82812">
        <ele>345.39999389648</ele>
        <time>2011-11-20T08:31:52.000Z</time>
      </trkpt>
      <trkpt lat="45.82985" lon="4.82804">
        <ele>349.39999389648</ele>
        <time>2011-11-20T08:32:01.000Z</time>
      </trkpt>
      <trkpt lat="45.82981" lon="4.82802">
        <ele>351.20001220703</ele>
        <time>2011-11-20T08:32:04.000Z</time>
      </trkpt>
      <trkpt lat="45.82977" lon="4.82805">
        <ele>351.60000610352</ele>
        <time>2011-11-20T08:32:09.000Z</time>
      </trkpt>
      <trkpt lat="45.82976" lon="4.82803">
        <ele>352.60000610352</ele>
        <time>2011-11-20T08:32:16.000Z</time>
      </trkpt>
      <trkpt lat="45.82978" lon="4.82808">
        <ele>350.79998779297</ele>
        <time>2011-11-20T08:32:27.000Z</time>
      </trkpt>
      <trkpt lat="45.82976" lon="4.82811">
        <ele>350.39999389648</ele>
        <time>2011-11-20T08:32:30.000Z</time>
      </trkpt>
      <trkpt lat="45.82976" lon="4.82805">
        <ele>352</ele>
        <time>2011-11-20T08:33:33.000Z</time>
      </trkpt>
      <trkpt lat="45.82976" lon="4.82814">
        <ele>349.60000610352</ele>
        <time>2011-11-20T08:33:54.000Z</time>
      </trkpt>
      <trkpt lat="45.82975" lon="4.82814">
        <ele>350</ele>
        <time>2011-11-20T08:33:55.000Z</time>
      </trkpt>
      <trkpt lat="45.82976" lon="4.82816">
        <ele>349</ele>
        <time>2011-11-20T08:33:58.000Z</time>
      </trkpt>
      <trkpt lat="45.82979" lon="4.82826">
        <ele>345.60000610352</ele>
        <time>2011-11-20T08:34:10.000Z</time>
      </trkpt>
      <trkpt lat="45.82978" lon="4.82825">
        <ele>346.20001220703</ele>
        <time>2011-11-20T08:34:12.000Z</time>
      </trkpt>
      <trkpt lat="45.82977" lon="4.82823">
        <ele>346.79998779297</ele>
        <time>2011-11-20T08:34:13.000Z</time>
      </trkpt>
      <trkpt lat="45.82976" lon="4.8282">
        <ele>348</ele>
        <time>2011-11-20T08:34:14.000Z</time>
      </trkpt>
      <trkpt lat="45.82974" lon="4.82818">
        <ele>349.20001220703</ele>
        <time>2011-11-20T08:34:17.000Z</time>
      </trkpt>
      <trkpt lat="45.82974" lon="4.82819">
        <ele>349.20001220703</ele>
        <time>2011-11-20T08:34:18.000Z</time>
      </trkpt>
      <trkpt lat="45.82972" lon="4.82821">
        <ele>349</ele>
        <time>2011-11-20T08:34:21.000Z</time>
      </trkpt>
      <trkpt lat="45.82971" lon="4.82824">
        <ele>348.60000610352</ele>
        <time>2011-11-20T08:34:22.000Z</time>
      </trkpt>
      <trkpt lat="45.82965" lon="4.82831">
        <ele>348.20001220703</ele>
        <time>2011-11-20T08:34:26.000Z</time>
      </trkpt>
      <trkpt lat="45.82962" lon="4.82832">
        <ele>348.79998779297</ele>
        <time>2011-11-20T08:34:28.000Z</time>
      </trkpt>
      <trkpt lat="45.82958" lon="4.82832">
        <ele>349.79998779297</ele>
        <time>2011-11-20T08:34:31.000Z</time>
      </trkpt>
      <trkpt lat="45.82947" lon="4.8284">
        <ele>350.79998779297</ele>
        <time>2011-11-20T08:34:37.000Z</time>
      </trkpt>
      <trkpt lat="45.82945" lon="4.82842">
        <ele>351</ele>
        <time>2011-11-20T08:34:38.000Z</time>
      </trkpt>
      <trkpt lat="45.82936" lon="4.82851">
        <ele>351</ele>
        <time>2011-11-20T08:34:42.000Z</time>
      </trkpt>
      <trkpt lat="45.82935" lon="4.82852">
        <ele>351</ele>
        <time>2011-11-20T08:34:43.000Z</time>
      </trkpt>
      <trkpt lat="45.82929" lon="4.82856">
        <ele>351.39999389648</ele>
        <time>2011-11-20T08:34:46.000Z</time>
      </trkpt>
      <trkpt lat="45.82925" lon="4.82858">
        <ele>351.60000610352</ele>
        <time>2011-11-20T08:34:48.000Z</time>
      </trkpt>
      <trkpt lat="45.82914" lon="4.82863">
        <ele>352.60000610352</ele>
        <time>2011-11-20T08:34:54.000Z</time>
      </trkpt>
      <trkpt lat="45.82912" lon="4.82863">
        <ele>353.20001220703</ele>
        <time>2011-11-20T08:34:55.000Z</time>
      </trkpt>
      <trkpt lat="45.829" lon="4.82868">
        <ele>353.39999389648</ele>
        <time>2011-11-20T08:35:00.000Z</time>
      </trkpt>
      <trkpt lat="45.82892" lon="4.82871">
        <ele>353.60000610352</ele>
        <time>2011-11-20T08:35:03.000Z</time>
      </trkpt>
      <trkpt lat="45.82887" lon="4.82873">
        <ele>353.79998779297</ele>
        <time>2011-11-20T08:35:05.000Z</time>
      </trkpt>
      <trkpt lat="45.82882" lon="4.82875">
        <ele>353.79998779297</ele>
        <time>2011-11-20T08:35:07.000Z</time>
      </trkpt>
      <trkpt lat="45.82875" lon="4.82876">
        <ele>354.60000610352</ele>
        <time>2011-11-20T08:35:10.000Z</time>
      </trkpt>
      <trkpt lat="45.82873" lon="4.82876">
        <ele>354.79998779297</ele>
        <time>2011-11-20T08:35:11.000Z</time>
      </trkpt>
      <trkpt lat="45.82862" lon="4.82875">
        <ele>356.60000610352</ele>
        <time>2011-11-20T08:35:16.000Z</time>
      </trkpt>
      <trkpt lat="45.82852" lon="4.82875">
        <ele>358</ele>
        <time>2011-11-20T08:35:20.000Z</time>
      </trkpt>
      <trkpt lat="45.82849" lon="4.82876">
        <ele>358.20001220703</ele>
        <time>2011-11-20T08:35:21.000Z</time>
      </trkpt>
      <trkpt lat="45.82842" lon="4.82876">
        <ele>359.39999389648</ele>
        <time>2011-11-20T08:35:25.000Z</time>
      </trkpt>
      <trkpt lat="45.82834" lon="4.82878">
        <ele>359.79998779297</ele>
        <time>2011-11-20T08:35:28.000Z</time>
      </trkpt>
      <trkpt lat="45.82829" lon="4.82878">
        <ele>359.79998779297</ele>
        <time>2011-11-20T08:35:30.000Z</time>
      </trkpt>
      <trkpt lat="45.82827" lon="4.82879">
        <ele>359.39999389648</ele>
        <time>2011-11-20T08:35:31.000Z</time>
      </trkpt>
      <trkpt lat="45.82817" lon="4.82882">
        <ele>358.39999389648</ele>
        <time>2011-11-20T08:35:35.000Z</time>
      </trkpt>
      <trkpt lat="45.82815" lon="4.82884">
        <ele>358</ele>
        <time>2011-11-20T08:35:36.000Z</time>
      </trkpt>
      <trkpt lat="45.82802" lon="4.82886">
        <ele>356.79998779297</ele>
        <time>2011-11-20T08:35:41.000Z</time>
      </trkpt>
      <trkpt lat="45.82795" lon="4.82885">
        <ele>357</ele>
        <time>2011-11-20T08:35:44.000Z</time>
      </trkpt>
      <trkpt lat="45.82789" lon="4.82886">
        <ele>356.60000610352</ele>
        <time>2011-11-20T08:35:46.000Z</time>
      </trkpt>
      <trkpt lat="45.82779" lon="4.82888">
        <ele>356</ele>
        <time>2011-11-20T08:35:50.000Z</time>
      </trkpt>
      <trkpt lat="45.82776" lon="4.82888">
        <ele>355.60000610352</ele>
        <time>2011-11-20T08:35:51.000Z</time>
      </trkpt>
      <trkpt lat="45.82766" lon="4.82887">
        <ele>355.60000610352</ele>
        <time>2011-11-20T08:35:55.000Z</time>
      </trkpt>
      <trkpt lat="45.82757" lon="4.82885">
        <ele>356</ele>
        <time>2011-11-20T08:35:59.000Z</time>
      </trkpt>
      <trkpt lat="45.82754" lon="4.82884">
        <ele>356.20001220703</ele>
        <time>2011-11-20T08:36:00.000Z</time>
      </trkpt>
      <trkpt lat="45.82741" lon="4.82879">
        <ele>355.60000610352</ele>
        <time>2011-11-20T08:36:06.000Z</time>
      </trkpt>
      <trkpt lat="45.82738" lon="4.82877">
        <ele>355.60000610352</ele>
        <time>2011-11-20T08:36:08.000Z</time>
      </trkpt>
      <trkpt lat="45.82733" lon="4.82874">
        <ele>355.39999389648</ele>
        <time>2011-11-20T08:36:10.000Z</time>
      </trkpt>
      <trkpt lat="45.82725" lon="4.82871">
        <ele>354.60000610352</ele>
        <time>2011-11-20T08:36:14.000Z</time>
      </trkpt>
      <trkpt lat="45.8272" lon="4.82868">
        <ele>354.39999389648</ele>
        <time>2011-11-20T08:36:16.000Z</time>
      </trkpt>
      <trkpt lat="45.82712" lon="4.82861">
        <ele>354.20001220703</ele>
        <time>2011-11-20T08:36:20.000Z</time>
      </trkpt>
      <trkpt lat="45.82705" lon="4.82855">
        <ele>354.39999389648</ele>
        <time>2011-11-20T08:36:23.000Z</time>
      </trkpt>
      <trkpt lat="45.827" lon="4.82848">
        <ele>354.60000610352</ele>
        <time>2011-11-20T08:36:26.000Z</time>
      </trkpt>
      <trkpt lat="45.82692" lon="4.82836">
        <ele>355.39999389648</ele>
        <time>2011-11-20T08:36:31.000Z</time>
      </trkpt>
      <trkpt lat="45.82691" lon="4.82833">
        <ele>355.60000610352</ele>
        <time>2011-11-20T08:36:32.000Z</time>
      </trkpt>
      <trkpt lat="45.82684" lon="4.82815">
        <ele>357</ele>
        <time>2011-11-20T08:36:38.000Z</time>
      </trkpt>
      <trkpt lat="45.82683" lon="4.82813">
        <ele>357.20001220703</ele>
        <time>2011-11-20T08:36:39.000Z</time>
      </trkpt>
      <trkpt lat="45.8268" lon="4.82804">
        <ele>357.79998779297</ele>
        <time>2011-11-20T08:36:42.000Z</time>
      </trkpt>
      <trkpt lat="45.82679" lon="4.82801">
        <ele>358.20001220703</ele>
        <time>2011-11-20T08:36:43.000Z</time>
      </trkpt>
      <trkpt lat="45.82676" lon="4.82789">
        <ele>359.39999389648</ele>
        <time>2011-11-20T08:36:47.000Z</time>
      </trkpt>
      <trkpt lat="45.82677" lon="4.82786">
        <ele>360</ele>
        <time>2011-11-20T08:36:48.000Z</time>
      </trkpt>
      <trkpt lat="45.82683" lon="4.8279">
        <ele>360.79998779297</ele>
        <time>2011-11-20T08:36:52.000Z</time>
      </trkpt>
      <trkpt lat="45.82688" lon="4.82797">
        <ele>361</ele>
        <time>2011-11-20T08:36:57.000Z</time>
      </trkpt>
      <trkpt lat="45.82691" lon="4.828">
        <ele>361.20001220703</ele>
        <time>2011-11-20T08:37:00.000Z</time>
      </trkpt>
      <trkpt lat="45.82695" lon="4.82801">
        <ele>362</ele>
        <time>2011-11-20T08:37:02.000Z</time>
      </trkpt>
      <trkpt lat="45.82705" lon="4.82795">
        <ele>365.60000610352</ele>
        <time>2011-11-20T08:37:06.000Z</time>
      </trkpt>
      <trkpt lat="45.82707" lon="4.82792">
        <ele>366.60000610352</ele>
        <time>2011-11-20T08:37:07.000Z</time>
      </trkpt>
      <trkpt lat="45.82712" lon="4.82792">
        <ele>368.20001220703</ele>
        <time>2011-11-20T08:37:11.000Z</time>
      </trkpt>
      <trkpt lat="45.82714" lon="4.82791">
        <ele>368.60000610352</ele>
        <time>2011-11-20T08:37:12.000Z</time>
      </trkpt>
      <trkpt lat="45.82715" lon="4.82791">
        <ele>369</ele>
        <time>2011-11-20T08:37:13.000Z</time>
      </trkpt>
      <trkpt lat="45.82718" lon="4.82791">
        <ele>369.79998779297</ele>
        <time>2011-11-20T08:37:15.000Z</time>
      </trkpt>
      <trkpt lat="45.82724" lon="4.82792">
        <ele>371</ele>
        <time>2011-11-20T08:37:19.000Z</time>
      </trkpt>
      <trkpt lat="45.82725" lon="4.82793">
        <ele>371.39999389648</ele>
        <time>2011-11-20T08:37:20.000Z</time>
      </trkpt>
      <trkpt lat="45.82727" lon="4.82793">
        <ele>371.79998779297</ele>
        <time>2011-11-20T08:37:21.000Z</time>
      </trkpt>
      <trkpt lat="45.82731" lon="4.82797">
        <ele>371.79998779297</ele>
        <time>2011-11-20T08:37:24.000Z</time>
      </trkpt>
      <trkpt lat="45.82736" lon="4.82798">
        <ele>372.60000610352</ele>
        <time>2011-11-20T08:37:26.000Z</time>
      </trkpt>
      <trkpt lat="45.82741" lon="4.82801">
        <ele>373.20001220703</ele>
        <time>2011-11-20T08:37:29.000Z</time>
      </trkpt>
      <trkpt lat="45.82743" lon="4.82803">
        <ele>373.39999389648</ele>
        <time>2011-11-20T08:37:30.000Z</time>
      </trkpt>
      <trkpt lat="45.82749" lon="4.8281">
        <ele>372.79998779297</ele>
        <time>2011-11-20T08:37:34.000Z</time>
      </trkpt>
      <trkpt lat="45.82758" lon="4.82812">
        <ele>373.20001220703</ele>
        <time>2011-11-20T08:37:38.000Z</time>
      </trkpt>
      <trkpt lat="45.8276" lon="4.82813">
        <ele>373</ele>
        <time>2011-11-20T08:37:39.000Z</time>
      </trkpt>
      <trkpt lat="45.82761" lon="4.82822">
        <ele>370.60000610352</ele>
        <time>2011-11-20T08:37:42.000Z</time>
      </trkpt>
      <trkpt lat="45.82763" lon="4.82829">
        <ele>369</ele>
        <time>2011-11-20T08:37:44.000Z</time>
      </trkpt>
      <trkpt lat="45.82767" lon="4.82835">
        <ele>367.60000610352</ele>
        <time>2011-11-20T08:37:47.000Z</time>
      </trkpt>
      <trkpt lat="45.82766" lon="4.82833">
        <ele>368</ele>
        <time>2011-11-20T08:37:52.000Z</time>
      </trkpt>
      <trkpt lat="45.82765" lon="4.82833">
        <ele>368</ele>
        <time>2011-11-20T08:38:02.000Z</time>
      </trkpt>
      <trkpt lat="45.82765" lon="4.82838">
        <ele>367</ele>
        <time>2011-11-20T08:38:11.000Z</time>
      </trkpt>
      <trkpt lat="45.82771" lon="4.82837">
        <ele>367.39999389648</ele>
        <time>2011-11-20T08:38:16.000Z</time>
      </trkpt>
      <trkpt lat="45.82775" lon="4.82836">
        <ele>368</ele>
        <time>2011-11-20T08:38:19.000Z</time>
      </trkpt>
      <trkpt lat="45.82775" lon="4.82836">
        <ele>368.20001220703</ele>
        <time>2011-11-20T08:38:20.000Z</time>
      </trkpt>
      <trkpt lat="45.82778" lon="4.8283">
        <ele>369.79998779297</ele>
        <time>2011-11-20T08:38:25.000Z</time>
      </trkpt>
      <trkpt lat="45.8278" lon="4.82827">
        <ele>370.60000610352</ele>
        <time>2011-11-20T08:38:26.000Z</time>
      </trkpt>
      <trkpt lat="45.82789" lon="4.82818">
        <ele>374</ele>
        <time>2011-11-20T08:38:31.000Z</time>
      </trkpt>
      <trkpt lat="45.82794" lon="4.82818">
        <ele>374.39999389648</ele>
        <time>2011-11-20T08:38:33.000Z</time>
      </trkpt>
      <trkpt lat="45.82796" lon="4.82819">
        <ele>374.20001220703</ele>
        <time>2011-11-20T08:38:35.000Z</time>
      </trkpt>
      <trkpt lat="45.82798" lon="4.82818">
        <ele>374.60000610352</ele>
        <time>2011-11-20T08:38:36.000Z</time>
      </trkpt>
      <trkpt lat="45.828" lon="4.82815">
        <ele>375.79998779297</ele>
        <time>2011-11-20T08:38:39.000Z</time>
      </trkpt>
      <trkpt lat="45.82801" lon="4.82814">
        <ele>376</ele>
        <time>2011-11-20T08:38:40.000Z</time>
      </trkpt>
      <trkpt lat="45.82805" lon="4.82808">
        <ele>378.20001220703</ele>
        <time>2011-11-20T08:38:45.000Z</time>
      </trkpt>
      <trkpt lat="45.82806" lon="4.82807">
        <ele>378.39999389648</ele>
        <time>2011-11-20T08:38:46.000Z</time>
      </trkpt>
      <trkpt lat="45.82805" lon="4.82806">
        <ele>378.60000610352</ele>
        <time>2011-11-20T08:38:47.000Z</time>
      </trkpt>
      <trkpt lat="45.82804" lon="4.82803">
        <ele>379.39999389648</ele>
        <time>2011-11-20T08:38:49.000Z</time>
      </trkpt>
      <trkpt lat="45.82806" lon="4.828">
        <ele>380.39999389648</ele>
        <time>2011-11-20T08:38:53.000Z</time>
      </trkpt>
      <trkpt lat="45.82808" lon="4.82789">
        <ele>383.79998779297</ele>
        <time>2011-11-20T08:39:02.000Z</time>
      </trkpt>
      <trkpt lat="45.82809" lon="4.82785">
        <ele>385.20001220703</ele>
        <time>2011-11-20T08:39:05.000Z</time>
      </trkpt>
      <trkpt lat="45.8281" lon="4.82782">
        <ele>386</ele>
        <time>2011-11-20T08:39:06.000Z</time>
      </trkpt>
      <trkpt lat="45.8281" lon="4.8278">
        <ele>386.79998779297</ele>
        <time>2011-11-20T08:39:08.000Z</time>
      </trkpt>
      <trkpt lat="45.8281" lon="4.82777">
        <ele>387.60000610352</ele>
        <time>2011-11-20T08:39:10.000Z</time>
      </trkpt>
      <trkpt lat="45.82807" lon="4.82774">
        <ele>388.20001220703</ele>
        <time>2011-11-20T08:39:16.000Z</time>
      </trkpt>
      <trkpt lat="45.82805" lon="4.82773">
        <ele>388.39999389648</ele>
        <time>2011-11-20T08:39:18.000Z</time>
      </trkpt>
      <trkpt lat="45.82804" lon="4.82772">
        <ele>388.39999389648</ele>
        <time>2011-11-20T08:39:19.000Z</time>
      </trkpt>
      <trkpt lat="45.82804" lon="4.82769">
        <ele>389.20001220703</ele>
        <time>2011-11-20T08:39:21.000Z</time>
      </trkpt>
      <trkpt lat="45.82804" lon="4.82764">
        <ele>390.60000610352</ele>
        <time>2011-11-20T08:39:29.000Z</time>
      </trkpt>
      <trkpt lat="45.82802" lon="4.82756">
        <ele>393</ele>
        <time>2011-11-20T08:39:37.000Z</time>
      </trkpt>
      <trkpt lat="45.82799" lon="4.82752">
        <ele>393.39999389648</ele>
        <time>2011-11-20T08:39:42.000Z</time>
      </trkpt>
      <trkpt lat="45.82798" lon="4.8275">
        <ele>394.20001220703</ele>
        <time>2011-11-20T08:39:45.000Z</time>
      </trkpt>
      <trkpt lat="45.82798" lon="4.82748">
        <ele>394.39999389648</ele>
        <time>2011-11-20T08:39:46.000Z</time>
      </trkpt>
      <trkpt lat="45.82796" lon="4.82745">
        <ele>395</ele>
        <time>2011-11-20T08:39:49.000Z</time>
      </trkpt>
      <trkpt lat="45.82796" lon="4.82743">
        <ele>395.20001220703</ele>
        <time>2011-11-20T08:39:50.000Z</time>
      </trkpt>
      <trkpt lat="45.82796" lon="4.8274">
        <ele>396</ele>
        <time>2011-11-20T08:39:53.000Z</time>
      </trkpt>
      <trkpt lat="45.82795" lon="4.82735">
        <ele>396.79998779297</ele>
        <time>2011-11-20T08:39:56.000Z</time>
      </trkpt>
      <trkpt lat="45.82795" lon="4.82733">
        <ele>397.20001220703</ele>
        <time>2011-11-20T08:39:58.000Z</time>
      </trkpt>
      <trkpt lat="45.82793" lon="4.82731">
        <ele>397.39999389648</ele>
        <time>2011-11-20T08:40:00.000Z</time>
      </trkpt>
      <trkpt lat="45.82791" lon="4.82727">
        <ele>398</ele>
        <time>2011-11-20T08:40:04.000Z</time>
      </trkpt>
      <trkpt lat="45.8279" lon="4.82726">
        <ele>398</ele>
        <time>2011-11-20T08:40:05.000Z</time>
      </trkpt>
      <trkpt lat="45.82788" lon="4.82725">
        <ele>398.20001220703</ele>
        <time>2011-11-20T08:40:07.000Z</time>
      </trkpt>
      <trkpt lat="45.82786" lon="4.82723">
        <ele>398.39999389648</ele>
        <time>2011-11-20T08:40:09.000Z</time>
      </trkpt>
      <trkpt lat="45.82783" lon="4.82721">
        <ele>398.60000610352</ele>
        <time>2011-11-20T08:40:11.000Z</time>
      </trkpt>
      <trkpt lat="45.82783" lon="4.8272">
        <ele>398.60000610352</ele>
        <time>2011-11-20T08:40:14.000Z</time>
      </trkpt>
      <trkpt lat="45.82788" lon="4.82715">
        <ele>400.20001220703</ele>
        <time>2011-11-20T08:40:28.000Z</time>
      </trkpt>
      <trkpt lat="45.82789" lon="4.82714">
        <ele>400.39999389648</ele>
        <time>2011-11-20T08:40:29.000Z</time>
      </trkpt>
      <trkpt lat="45.82792" lon="4.82713">
        <ele>401</ele>
        <time>2011-11-20T08:40:33.000Z</time>
      </trkpt>
      <trkpt lat="45.82792" lon="4.82712">
        <ele>401.20001220703</ele>
        <time>2011-11-20T08:40:34.000Z</time>
      </trkpt>
      <trkpt lat="45.82793" lon="4.8271">
        <ele>401.79998779297</ele>
        <time>2011-11-20T08:40:37.000Z</time>
      </trkpt>
      <trkpt lat="45.82796" lon="4.82708">
        <ele>402.39999389648</ele>
        <time>2011-11-20T08:40:40.000Z</time>
      </trkpt>
      <trkpt lat="45.82797" lon="4.82707">
        <ele>402.79998779297</ele>
        <time>2011-11-20T08:40:41.000Z</time>
      </trkpt>
      <trkpt lat="45.82801" lon="4.82701">
        <ele>404.20001220703</ele>
        <time>2011-11-20T08:40:47.000Z</time>
      </trkpt>
      <trkpt lat="45.82802" lon="4.827">
        <ele>404.60000610352</ele>
        <time>2011-11-20T08:40:48.000Z</time>
      </trkpt>
      <trkpt lat="45.82804" lon="4.8269">
        <ele>406.79998779297</ele>
        <time>2011-11-20T08:40:52.000Z</time>
      </trkpt>
      <trkpt lat="45.82804" lon="4.82689">
        <ele>407</ele>
        <time>2011-11-20T08:40:53.000Z</time>
      </trkpt>
      <trkpt lat="45.82805" lon="4.82681">
        <ele>408.60000610352</ele>
        <time>2011-11-20T08:40:58.000Z</time>
      </trkpt>
      <trkpt lat="45.82805" lon="4.8268">
        <ele>409</ele>
        <time>2011-11-20T08:41:00.000Z</time>
      </trkpt>
      <trkpt lat="45.82806" lon="4.82673">
        <ele>410.20001220703</ele>
        <time>2011-11-20T08:41:05.000Z</time>
      </trkpt>
      <trkpt lat="45.82806" lon="4.82673">
        <ele>410.39999389648</ele>
        <time>2011-11-20T08:41:06.000Z</time>
      </trkpt>
      <trkpt lat="45.82807" lon="4.82677">
        <ele>409.79998779297</ele>
        <time>2011-11-20T08:41:25.000Z</time>
      </trkpt>
      <trkpt lat="45.82807" lon="4.82678">
        <ele>409.39999389648</ele>
        <time>2011-11-20T08:41:30.000Z</time>
      </trkpt>
      <trkpt lat="45.82807" lon="4.82676">
        <ele>410</ele>
        <time>2011-11-20T08:41:39.000Z</time>
      </trkpt>
      <trkpt lat="45.82809" lon="4.82676">
        <ele>410</ele>
        <time>2011-11-20T08:41:40.000Z</time>
      </trkpt>
      <trkpt lat="45.82811" lon="4.82675">
        <ele>410.39999389648</ele>
        <time>2011-11-20T08:41:42.000Z</time>
      </trkpt>
      <trkpt lat="45.82812" lon="4.82673">
        <ele>410.79998779297</ele>
        <time>2011-11-20T08:41:43.000Z</time>
      </trkpt>
      <trkpt lat="45.82815" lon="4.82668">
        <ele>412.20001220703</ele>
        <time>2011-11-20T08:41:46.000Z</time>
      </trkpt>
      <trkpt lat="45.82821" lon="4.82662">
        <ele>413.39999389648</ele>
        <time>2011-11-20T08:41:49.000Z</time>
      </trkpt>
      <trkpt lat="45.82822" lon="4.82661">
        <ele>413.79998779297</ele>
        <time>2011-11-20T08:41:50.000Z</time>
      </trkpt>
      <trkpt lat="45.82824" lon="4.82659">
        <ele>414</ele>
        <time>2011-11-20T08:41:51.000Z</time>
      </trkpt>
      <trkpt lat="45.82835" lon="4.82648">
        <ele>416.39999389648</ele>
        <time>2011-11-20T08:41:57.000Z</time>
      </trkpt>
      <trkpt lat="45.82837" lon="4.82646">
        <ele>416.60000610352</ele>
        <time>2011-11-20T08:41:58.000Z</time>
      </trkpt>
      <trkpt lat="45.82839" lon="4.82645">
        <ele>416.60000610352</ele>
        <time>2011-11-20T08:41:59.000Z</time>
      </trkpt>
      <trkpt lat="45.82841" lon="4.82642">
        <ele>416.79998779297</ele>
        <time>2011-11-20T08:42:01.000Z</time>
      </trkpt>
      <trkpt lat="45.82844" lon="4.8264">
        <ele>417</ele>
        <time>2011-11-20T08:42:03.000Z</time>
      </trkpt>
      <trkpt lat="45.82853" lon="4.82631">
        <ele>417.79998779297</ele>
        <time>2011-11-20T08:42:08.000Z</time>
      </trkpt>
      <trkpt lat="45.82862" lon="4.82619">
        <ele>419.20001220703</ele>
        <time>2011-11-20T08:42:13.000Z</time>
      </trkpt>
      <trkpt lat="45.82866" lon="4.82612">
        <ele>420</ele>
        <time>2011-11-20T08:42:17.000Z</time>
      </trkpt>
      <trkpt lat="45.82868" lon="4.8261">
        <ele>420.39999389648</ele>
        <time>2011-11-20T08:42:18.000Z</time>
      </trkpt>
      <trkpt lat="45.82874" lon="4.82603">
        <ele>421.20001220703</ele>
        <time>2011-11-20T08:42:21.000Z</time>
      </trkpt>
      <trkpt lat="45.82882" lon="4.82597">
        <ele>421.79998779297</ele>
        <time>2011-11-20T08:42:25.000Z</time>
      </trkpt>
      <trkpt lat="45.82884" lon="4.82596">
        <ele>421.79998779297</ele>
        <time>2011-11-20T08:42:26.000Z</time>
      </trkpt>
      <trkpt lat="45.82892" lon="4.82594">
        <ele>422</ele>
        <time>2011-11-20T08:42:30.000Z</time>
      </trkpt>
      <trkpt lat="45.82894" lon="4.82594">
        <ele>421.79998779297</ele>
        <time>2011-11-20T08:42:31.000Z</time>
      </trkpt>
      <trkpt lat="45.82896" lon="4.82593">
        <ele>422</ele>
        <time>2011-11-20T08:42:32.000Z</time>
      </trkpt>
      <trkpt lat="45.82899" lon="4.8259">
        <ele>422.20001220703</ele>
        <time>2011-11-20T08:42:33.000Z</time>
      </trkpt>
      <trkpt lat="45.82904" lon="4.82586">
        <ele>422.79998779297</ele>
        <time>2011-11-20T08:42:35.000Z</time>
      </trkpt>
      <trkpt lat="45.82909" lon="4.82584">
        <ele>423</ele>
        <time>2011-11-20T08:42:37.000Z</time>
      </trkpt>
      <trkpt lat="45.82915" lon="4.82583">
        <ele>423</ele>
        <time>2011-11-20T08:42:40.000Z</time>
      </trkpt>
      <trkpt lat="45.82917" lon="4.82581">
        <ele>423</ele>
        <time>2011-11-20T08:42:41.000Z</time>
      </trkpt>
      <trkpt lat="45.82922" lon="4.82579">
        <ele>422.39999389648</ele>
        <time>2011-11-20T08:42:43.000Z</time>
      </trkpt>
      <trkpt lat="45.82926" lon="4.82575">
        <ele>422</ele>
        <time>2011-11-20T08:42:46.000Z</time>
      </trkpt>
      <trkpt lat="45.82934" lon="4.82568">
        <ele>421.20001220703</ele>
        <time>2011-11-20T08:42:52.000Z</time>
      </trkpt>
      <trkpt lat="45.82935" lon="4.82566">
        <ele>421</ele>
        <time>2011-11-20T08:42:53.000Z</time>
      </trkpt>
      <trkpt lat="45.82937" lon="4.82564">
        <ele>421</ele>
        <time>2011-11-20T08:42:54.000Z</time>
      </trkpt>
      <trkpt lat="45.82943" lon="4.82557">
        <ele>420.60000610352</ele>
        <time>2011-11-20T08:42:58.000Z</time>
      </trkpt>
      <trkpt lat="45.82949" lon="4.82551">
        <ele>420.60000610352</ele>
        <time>2011-11-20T08:43:01.000Z</time>
      </trkpt>
      <trkpt lat="45.82952" lon="4.82548">
        <ele>420.39999389648</ele>
        <time>2011-11-20T08:43:03.000Z</time>
      </trkpt>
      <trkpt lat="45.82953" lon="4.82546">
        <ele>420.39999389648</ele>
        <time>2011-11-20T08:43:04.000Z</time>
      </trkpt>
      <trkpt lat="45.8296" lon="4.82538">
        <ele>420.39999389648</ele>
        <time>2011-11-20T08:43:07.000Z</time>
      </trkpt>
      <trkpt lat="45.82964" lon="4.82533">
        <ele>420.39999389648</ele>
        <time>2011-11-20T08:43:09.000Z</time>
      </trkpt>
      <trkpt lat="45.8297" lon="4.82525">
        <ele>420.79998779297</ele>
        <time>2011-11-20T08:43:12.000Z</time>
      </trkpt>
      <trkpt lat="45.82979" lon="4.82511">
        <ele>421.60000610352</ele>
        <time>2011-11-20T08:43:17.000Z</time>
      </trkpt>
      <trkpt lat="45.8298" lon="4.82506">
        <ele>422</ele>
        <time>2011-11-20T08:43:19.000Z</time>
      </trkpt>
      <trkpt lat="45.8298" lon="4.82498">
        <ele>423.20001220703</ele>
        <time>2011-11-20T08:43:22.000Z</time>
      </trkpt>
      <trkpt lat="45.82981" lon="4.82485">
        <ele>423.60000610352</ele>
        <time>2011-11-20T08:43:26.000Z</time>
      </trkpt>
      <trkpt lat="45.82981" lon="4.82479">
        <ele>423.79998779297</ele>
        <time>2011-11-20T08:43:28.000Z</time>
      </trkpt>
      <trkpt lat="45.82978" lon="4.82465">
        <ele>424.79998779297</ele>
        <time>2011-11-20T08:43:33.000Z</time>
      </trkpt>
      <trkpt lat="45.82977" lon="4.82458">
        <ele>425.20001220703</ele>
        <time>2011-11-20T08:43:35.000Z</time>
      </trkpt>
      <trkpt lat="45.82977" lon="4.82449">
        <ele>425.60000610352</ele>
        <time>2011-11-20T08:43:38.000Z</time>
      </trkpt>
      <trkpt lat="45.82973" lon="4.82432">
        <ele>426.79998779297</ele>
        <time>2011-11-20T08:43:43.000Z</time>
      </trkpt>
      <trkpt lat="45.82973" lon="4.82424">
        <ele>427.20001220703</ele>
        <time>2011-11-20T08:43:46.000Z</time>
      </trkpt>
      <trkpt lat="45.82973" lon="4.82421">
        <ele>427.20001220703</ele>
        <time>2011-11-20T08:43:47.000Z</time>
      </trkpt>
      <trkpt lat="45.82973" lon="4.82415">
        <ele>427.39999389648</ele>
        <time>2011-11-20T08:43:49.000Z</time>
      </trkpt>
      <trkpt lat="45.82972" lon="4.82408">
        <ele>427.39999389648</ele>
        <time>2011-11-20T08:43:51.000Z</time>
      </trkpt>
      <trkpt lat="45.8297" lon="4.82388">
        <ele>427.20001220703</ele>
        <time>2011-11-20T08:43:56.000Z</time>
      </trkpt>
      <trkpt lat="45.82969" lon="4.82379">
        <ele>427.20001220703</ele>
        <time>2011-11-20T08:43:58.000Z</time>
      </trkpt>
      <trkpt lat="45.82968" lon="4.82371">
        <ele>427.20001220703</ele>
        <time>2011-11-20T08:44:00.000Z</time>
      </trkpt>
      <trkpt lat="45.82967" lon="4.82357">
        <ele>427.20001220703</ele>
        <time>2011-11-20T08:44:04.000Z</time>
      </trkpt>
      <trkpt lat="45.82966" lon="4.82354">
        <ele>427.20001220703</ele>
        <time>2011-11-20T08:44:05.000Z</time>
      </trkpt>
      <trkpt lat="45.82966" lon="4.8235">
        <ele>427</ele>
        <time>2011-11-20T08:44:06.000Z</time>
      </trkpt>
      <trkpt lat="45.82967" lon="4.82347">
        <ele>427</ele>
        <time>2011-11-20T08:44:07.000Z</time>
      </trkpt>
      <trkpt lat="45.82967" lon="4.82346">
        <ele>427</ele>
        <time>2011-11-20T08:44:08.000Z</time>
      </trkpt>
      <trkpt lat="45.82971" lon="4.82331">
        <ele>425.79998779297</ele>
        <time>2011-11-20T08:44:13.000Z</time>
      </trkpt>
      <trkpt lat="45.8297" lon="4.82328">
        <ele>425.60000610352</ele>
        <time>2011-11-20T08:44:14.000Z</time>
      </trkpt>
      <trkpt lat="45.82967" lon="4.82315">
        <ele>424.79998779297</ele>
        <time>2011-11-20T08:44:19.000Z</time>
      </trkpt>
      <trkpt lat="45.82964" lon="4.82313">
        <ele>425</ele>
        <time>2011-11-20T08:44:20.000Z</time>
      </trkpt>
      <trkpt lat="45.82961" lon="4.82307">
        <ele>425</ele>
        <time>2011-11-20T08:44:23.000Z</time>
      </trkpt>
      <trkpt lat="45.82959" lon="4.82304">
        <ele>425</ele>
        <time>2011-11-20T08:44:24.000Z</time>
      </trkpt>
      <trkpt lat="45.82956" lon="4.82297">
        <ele>424.60000610352</ele>
        <time>2011-11-20T08:44:27.000Z</time>
      </trkpt>
      <trkpt lat="45.82955" lon="4.82292">
        <ele>424.39999389648</ele>
        <time>2011-11-20T08:44:29.000Z</time>
      </trkpt>
      <trkpt lat="45.82951" lon="4.82283">
        <ele>424.20001220703</ele>
        <time>2011-11-20T08:44:32.000Z</time>
      </trkpt>
      <trkpt lat="45.82943" lon="4.82268">
        <ele>424.20001220703</ele>
        <time>2011-11-20T08:44:37.000Z</time>
      </trkpt>
      <trkpt lat="45.82942" lon="4.82265">
        <ele>424</ele>
        <time>2011-11-20T08:44:38.000Z</time>
      </trkpt>
      <trkpt lat="45.82942" lon="4.82261">
        <ele>423.60000610352</ele>
        <time>2011-11-20T08:44:39.000Z</time>
      </trkpt>
      <trkpt lat="45.82938" lon="4.82244">
        <ele>422.20001220703</ele>
        <time>2011-11-20T08:44:43.000Z</time>
      </trkpt>
      <trkpt lat="45.82935" lon="4.82236">
        <ele>421.60000610352</ele>
        <time>2011-11-20T08:44:45.000Z</time>
      </trkpt>
      <trkpt lat="45.82932" lon="4.8223">
        <ele>421.20001220703</ele>
        <time>2011-11-20T08:44:47.000Z</time>
      </trkpt>
      <trkpt lat="45.82924" lon="4.82212">
        <ele>419.39999389648</ele>
        <time>2011-11-20T08:44:52.000Z</time>
      </trkpt>
      <trkpt lat="45.82915" lon="4.82203">
        <ele>419.20001220703</ele>
        <time>2011-11-20T08:44:56.000Z</time>
      </trkpt>
      <trkpt lat="45.82908" lon="4.82196">
        <ele>419.20001220703</ele>
        <time>2011-11-20T08:45:00.000Z</time>
      </trkpt>
      <trkpt lat="45.82907" lon="4.82194">
        <ele>419.20001220703</ele>
        <time>2011-11-20T08:45:01.000Z</time>
      </trkpt>
      <trkpt lat="45.829" lon="4.82186">
        <ele>419</ele>
        <time>2011-11-20T08:45:05.000Z</time>
      </trkpt>
      <trkpt lat="45.82892" lon="4.82182">
        <ele>420</ele>
        <time>2011-11-20T08:45:09.000Z</time>
      </trkpt>
      <trkpt lat="45.8289" lon="4.82181">
        <ele>420.20001220703</ele>
        <time>2011-11-20T08:45:10.000Z</time>
      </trkpt>
      <trkpt lat="45.82879" lon="4.82174">
        <ele>421.20001220703</ele>
        <time>2011-11-20T08:45:16.000Z</time>
      </trkpt>
      <trkpt lat="45.82873" lon="4.82174">
        <ele>422.20001220703</ele>
        <time>2011-11-20T08:45:19.000Z</time>
      </trkpt>
      <trkpt lat="45.82871" lon="4.82174">
        <ele>422.60000610352</ele>
        <time>2011-11-20T08:45:20.000Z</time>
      </trkpt>
      <trkpt lat="45.82861" lon="4.82175">
        <ele>424.79998779297</ele>
        <time>2011-11-20T08:45:25.000Z</time>
      </trkpt>
      <trkpt lat="45.82859" lon="4.82176">
        <ele>425.39999389648</ele>
        <time>2011-11-20T08:45:26.000Z</time>
      </trkpt>
      <trkpt lat="45.82855" lon="4.82177">
        <ele>426.20001220703</ele>
        <time>2011-11-20T08:45:29.000Z</time>
      </trkpt>
      <trkpt lat="45.82846" lon="4.82182">
        <ele>428.60000610352</ele>
        <time>2011-11-20T08:45:34.000Z</time>
      </trkpt>
      <trkpt lat="45.82841" lon="4.82186">
        <ele>430</ele>
        <time>2011-11-20T08:45:39.000Z</time>
      </trkpt>
      <trkpt lat="45.82838" lon="4.8219">
        <ele>431</ele>
        <time>2011-11-20T08:45:42.000Z</time>
      </trkpt>
      <trkpt lat="45.82837" lon="4.82192">
        <ele>431.60000610352</ele>
        <time>2011-11-20T08:45:43.000Z</time>
      </trkpt>
      <trkpt lat="45.82834" lon="4.82194">
        <ele>432.39999389648</ele>
        <time>2011-11-20T08:45:45.000Z</time>
      </trkpt>
      <trkpt lat="45.82833" lon="4.82194">
        <ele>432.60000610352</ele>
        <time>2011-11-20T08:45:46.000Z</time>
      </trkpt>
      <trkpt lat="45.82828" lon="4.82195">
        <ele>433.39999389648</ele>
        <time>2011-11-20T08:45:49.000Z</time>
      </trkpt>
      <trkpt lat="45.8282" lon="4.82193">
        <ele>434.39999389648</ele>
        <time>2011-11-20T08:45:54.000Z</time>
      </trkpt>
      <trkpt lat="45.82814" lon="4.82196">
        <ele>435.60000610352</ele>
        <time>2011-11-20T08:45:59.000Z</time>
      </trkpt>
      <trkpt lat="45.82813" lon="4.82195">
        <ele>435.60000610352</ele>
        <time>2011-11-20T08:46:00.000Z</time>
      </trkpt>
      <trkpt lat="45.82807" lon="4.82193">
        <ele>436.20001220703</ele>
        <time>2011-11-20T08:46:03.000Z</time>
      </trkpt>
      <trkpt lat="45.82803" lon="4.82193">
        <ele>436.79998779297</ele>
        <time>2011-11-20T08:46:05.000Z</time>
      </trkpt>
      <trkpt lat="45.82801" lon="4.82193">
        <ele>437</ele>
        <time>2011-11-20T08:46:06.000Z</time>
      </trkpt>
      <trkpt lat="45.82793" lon="4.82193">
        <ele>438.20001220703</ele>
        <time>2011-11-20T08:46:11.000Z</time>
      </trkpt>
      <trkpt lat="45.8279" lon="4.82193">
        <ele>438.60000610352</ele>
        <time>2011-11-20T08:46:13.000Z</time>
      </trkpt>
      <trkpt lat="45.82782" lon="4.82194">
        <ele>440</ele>
        <time>2011-11-20T08:46:18.000Z</time>
      </trkpt>
      <trkpt lat="45.8278" lon="4.82194">
        <ele>440.20001220703</ele>
        <time>2011-11-20T08:46:19.000Z</time>
      </trkpt>
      <trkpt lat="45.82775" lon="4.82197">
        <ele>441.20001220703</ele>
        <time>2011-11-20T08:46:25.000Z</time>
      </trkpt>
      <trkpt lat="45.82773" lon="4.82201">
        <ele>441.79998779297</ele>
        <time>2011-11-20T08:46:28.000Z</time>
      </trkpt>
      <trkpt lat="45.82772" lon="4.82203">
        <ele>442.20001220703</ele>
        <time>2011-11-20T08:46:31.000Z</time>
      </trkpt>
      <trkpt lat="45.82766" lon="4.82206">
        <ele>443.20001220703</ele>
        <time>2011-11-20T08:46:37.000Z</time>
      </trkpt>
      <trkpt lat="45.82764" lon="4.82207">
        <ele>443.39999389648</ele>
        <time>2011-11-20T08:46:38.000Z</time>
      </trkpt>
      <trkpt lat="45.82754" lon="4.82212">
        <ele>445</ele>
        <time>2011-11-20T08:46:45.000Z</time>
      </trkpt>
      <trkpt lat="45.82749" lon="4.82215">
        <ele>446</ele>
        <time>2011-11-20T08:46:49.000Z</time>
      </trkpt>
      <trkpt lat="45.82743" lon="4.82218">
        <ele>446.60000610352</ele>
        <time>2011-11-20T08:46:53.000Z</time>
      </trkpt>
      <trkpt lat="45.82734" lon="4.82224">
        <ele>447.79998779297</ele>
        <time>2011-11-20T08:47:00.000Z</time>
      </trkpt>
      <trkpt lat="45.82731" lon="4.82226">
        <ele>448.20001220703</ele>
        <time>2011-11-20T08:47:02.000Z</time>
      </trkpt>
      <trkpt lat="45.82725" lon="4.8223">
        <ele>449</ele>
        <time>2011-11-20T08:47:06.000Z</time>
      </trkpt>
      <trkpt lat="45.82718" lon="4.8224">
        <ele>450.20001220703</ele>
        <time>2011-11-20T08:47:13.000Z</time>
      </trkpt>
      <trkpt lat="45.82716" lon="4.82242">
        <ele>450.39999389648</ele>
        <time>2011-11-20T08:47:15.000Z</time>
      </trkpt>
      <trkpt lat="45.82708" lon="4.82248">
        <ele>451.39999389648</ele>
        <time>2011-11-20T08:47:22.000Z</time>
      </trkpt>
      <trkpt lat="45.82705" lon="4.82251">
        <ele>451.60000610352</ele>
        <time>2011-11-20T08:47:25.000Z</time>
      </trkpt>
      <trkpt lat="45.82702" lon="4.82257">
        <ele>451.60000610352</ele>
        <time>2011-11-20T08:47:29.000Z</time>
      </trkpt>
      <trkpt lat="45.82701" lon="4.82262">
        <ele>451.60000610352</ele>
        <time>2011-11-20T08:47:32.000Z</time>
      </trkpt>
      <trkpt lat="45.827" lon="4.82264">
        <ele>451.60000610352</ele>
        <time>2011-11-20T08:47:36.000Z</time>
      </trkpt>
      <trkpt lat="45.82699" lon="4.82263">
        <ele>451.60000610352</ele>
        <time>2011-11-20T08:47:43.000Z</time>
      </trkpt>
      <trkpt lat="45.82698" lon="4.82263">
        <ele>451.60000610352</ele>
        <time>2011-11-20T08:47:49.000Z</time>
      </trkpt>
      <trkpt lat="45.82697" lon="4.82263">
        <ele>451.79998779297</ele>
        <time>2011-11-20T08:48:17.000Z</time>
      </trkpt>
      <trkpt lat="45.82696" lon="4.82263">
        <ele>451.79998779297</ele>
        <time>2011-11-20T08:48:22.000Z</time>
      </trkpt>
      <trkpt lat="45.82697" lon="4.82264">
        <ele>451.79998779297</ele>
        <time>2011-11-20T08:49:18.000Z</time>
      </trkpt>
      <trkpt lat="45.827" lon="4.82269">
        <ele>451.39999389648</ele>
        <time>2011-11-20T08:49:21.000Z</time>
      </trkpt>
      <trkpt lat="45.82701" lon="4.82271">
        <ele>451.20001220703</ele>
        <time>2011-11-20T08:49:22.000Z</time>
      </trkpt>
      <trkpt lat="45.82705" lon="4.8228">
        <ele>450.60000610352</ele>
        <time>2011-11-20T08:49:25.000Z</time>
      </trkpt>
      <trkpt lat="45.82708" lon="4.82286">
        <ele>450.20001220703</ele>
        <time>2011-11-20T08:49:27.000Z</time>
      </trkpt>
      <trkpt lat="45.82714" lon="4.82295">
        <ele>449.60000610352</ele>
        <time>2011-11-20T08:49:30.000Z</time>
      </trkpt>
      <trkpt lat="45.82715" lon="4.82298">
        <ele>449.39999389648</ele>
        <time>2011-11-20T08:49:31.000Z</time>
      </trkpt>
      <trkpt lat="45.82718" lon="4.8231">
        <ele>449</ele>
        <time>2011-11-20T08:49:35.000Z</time>
      </trkpt>
      <trkpt lat="45.82718" lon="4.82313">
        <ele>448.79998779297</ele>
        <time>2011-11-20T08:49:36.000Z</time>
      </trkpt>
      <trkpt lat="45.82719" lon="4.82316">
        <ele>448.79998779297</ele>
        <time>2011-11-20T08:49:40.000Z</time>
      </trkpt>
      <trkpt lat="45.82716" lon="4.82308">
        <ele>449</ele>
        <time>2011-11-20T08:49:45.000Z</time>
      </trkpt>
      <trkpt lat="45.82716" lon="4.82304">
        <ele>449.20001220703</ele>
        <time>2011-11-20T08:49:49.000Z</time>
      </trkpt>
      <trkpt lat="45.82716" lon="4.82303">
        <ele>449.20001220703</ele>
        <time>2011-11-20T08:49:50.000Z</time>
      </trkpt>
      <trkpt lat="45.82715" lon="4.82299">
        <ele>449.39999389648</ele>
        <time>2011-11-20T08:49:52.000Z</time>
      </trkpt>
      <trkpt lat="45.82714" lon="4.82298">
        <ele>449.39999389648</ele>
        <time>2011-11-20T08:49:53.000Z</time>
      </trkpt>
      <trkpt lat="45.82709" lon="4.82288">
        <ele>450</ele>
        <time>2011-11-20T08:49:58.000Z</time>
      </trkpt>
      <trkpt lat="45.82703" lon="4.82278">
        <ele>450.79998779297</ele>
        <time>2011-11-20T08:50:03.000Z</time>
      </trkpt>
      <trkpt lat="45.82702" lon="4.82276">
        <ele>450.79998779297</ele>
        <time>2011-11-20T08:50:04.000Z</time>
      </trkpt>
      <trkpt lat="45.82696" lon="4.82265">
        <ele>451.79998779297</ele>
        <time>2011-11-20T08:50:09.000Z</time>
      </trkpt>
      <trkpt lat="45.82691" lon="4.82257">
        <ele>452.60000610352</ele>
        <time>2011-11-20T08:50:12.000Z</time>
      </trkpt>
      <trkpt lat="45.82689" lon="4.82254">
        <ele>452.79998779297</ele>
        <time>2011-11-20T08:50:13.000Z</time>
      </trkpt>
      <trkpt lat="45.82682" lon="4.8224">
        <ele>453.39999389648</ele>
        <time>2011-11-20T08:50:18.000Z</time>
      </trkpt>
      <trkpt lat="45.82679" lon="4.82235">
        <ele>453.39999389648</ele>
        <time>2011-11-20T08:50:20.000Z</time>
      </trkpt>
      <trkpt lat="45.82674" lon="4.82227">
        <ele>453.60000610352</ele>
        <time>2011-11-20T08:50:24.000Z</time>
      </trkpt>
      <trkpt lat="45.82667" lon="4.82213">
        <ele>454</ele>
        <time>2011-11-20T08:50:29.000Z</time>
      </trkpt>
      <trkpt lat="45.82658" lon="4.82197">
        <ele>454.39999389648</ele>
        <time>2011-11-20T08:50:35.000Z</time>
      </trkpt>
      <trkpt lat="45.82657" lon="4.82196">
        <ele>454.60000610352</ele>
        <time>2011-11-20T08:50:36.000Z</time>
      </trkpt>
      <trkpt lat="45.82653" lon="4.82197">
        <ele>454.79998779297</ele>
        <time>2011-11-20T08:50:39.000Z</time>
      </trkpt>
      <trkpt lat="45.82645" lon="4.82198">
        <ele>455.60000610352</ele>
        <time>2011-11-20T08:50:45.000Z</time>
      </trkpt>
      <trkpt lat="45.82644" lon="4.82199">
        <ele>455.60000610352</ele>
        <time>2011-11-20T08:50:46.000Z</time>
      </trkpt>
      <trkpt lat="45.8264" lon="4.82201">
        <ele>456</ele>
        <time>2011-11-20T08:50:49.000Z</time>
      </trkpt>
      <trkpt lat="45.82638" lon="4.82202">
        <ele>456.20001220703</ele>
        <time>2011-11-20T08:50:50.000Z</time>
      </trkpt>
      <trkpt lat="45.82634" lon="4.82203">
        <ele>456.60000610352</ele>
        <time>2011-11-20T08:50:52.000Z</time>
      </trkpt>
      <trkpt lat="45.82633" lon="4.82204">
        <ele>456.79998779297</ele>
        <time>2011-11-20T08:50:53.000Z</time>
      </trkpt>
      <trkpt lat="45.82624" lon="4.82205">
        <ele>457.39999389648</ele>
        <time>2011-11-20T08:50:58.000Z</time>
      </trkpt>
      <trkpt lat="45.82622" lon="4.82206">
        <ele>457.60000610352</ele>
        <time>2011-11-20T08:50:59.000Z</time>
      </trkpt>
      <trkpt lat="45.82616" lon="4.82209">
        <ele>458.20001220703</ele>
        <time>2011-11-20T08:51:02.000Z</time>
      </trkpt>
      <trkpt lat="45.82614" lon="4.8221">
        <ele>458.20001220703</ele>
        <time>2011-11-20T08:51:03.000Z</time>
      </trkpt>
      <trkpt lat="45.82605" lon="4.82213">
        <ele>459</ele>
        <time>2011-11-20T08:51:08.000Z</time>
      </trkpt>
      <trkpt lat="45.82598" lon="4.82214">
        <ele>459.60000610352</ele>
        <time>2011-11-20T08:51:12.000Z</time>
      </trkpt>
      <trkpt lat="45.82596" lon="4.82214">
        <ele>459.79998779297</ele>
        <time>2011-11-20T08:51:13.000Z</time>
      </trkpt>
      <trkpt lat="45.8259" lon="4.82222">
        <ele>460</ele>
        <time>2011-11-20T08:51:17.000Z</time>
      </trkpt>
      <trkpt lat="45.82582" lon="4.82226">
        <ele>460.60000610352</ele>
        <time>2011-11-20T08:51:21.000Z</time>
      </trkpt>
      <trkpt lat="45.82579" lon="4.82226">
        <ele>460.60000610352</ele>
        <time>2011-11-20T08:51:22.000Z</time>
      </trkpt>
      <trkpt lat="45.82563" lon="4.82227">
        <ele>461.39999389648</ele>
        <time>2011-11-20T08:51:29.000Z</time>
      </trkpt>
      <trkpt lat="45.82559" lon="4.82227">
        <ele>461.60000610352</ele>
        <time>2011-11-20T08:51:31.000Z</time>
      </trkpt>
      <trkpt lat="45.82552" lon="4.82227">
        <ele>461.79998779297</ele>
        <time>2011-11-20T08:51:34.000Z</time>
      </trkpt>
      <trkpt lat="45.82545" lon="4.82227">
        <ele>462.20001220703</ele>
        <time>2011-11-20T08:51:37.000Z</time>
      </trkpt>
      <trkpt lat="45.82537" lon="4.82226">
        <ele>462.39999389648</ele>
        <time>2011-11-20T08:51:40.000Z</time>
      </trkpt>
      <trkpt lat="45.82526" lon="4.82225">
        <ele>463</ele>
        <time>2011-11-20T08:51:45.000Z</time>
      </trkpt>
      <trkpt lat="45.82523" lon="4.82223">
        <ele>463.20001220703</ele>
        <time>2011-11-20T08:51:46.000Z</time>
      </trkpt>
      <trkpt lat="45.82518" lon="4.82218">
        <ele>463.60000610352</ele>
        <time>2011-11-20T08:51:49.000Z</time>
      </trkpt>
      <trkpt lat="45.82517" lon="4.82216">
        <ele>463.79998779297</ele>
        <time>2011-11-20T08:51:50.000Z</time>
      </trkpt>
      <trkpt lat="45.82517" lon="4.82206">
        <ele>464.20001220703</ele>
        <time>2011-11-20T08:51:55.000Z</time>
      </trkpt>
      <trkpt lat="45.82517" lon="4.82205">
        <ele>464.20001220703</ele>
        <time>2011-11-20T08:51:56.000Z</time>
      </trkpt>
      <trkpt lat="45.82517" lon="4.82203">
        <ele>464.39999389648</ele>
        <time>2011-11-20T08:51:57.000Z</time>
      </trkpt>
      <trkpt lat="45.82514" lon="4.822">
        <ele>464.60000610352</ele>
        <time>2011-11-20T08:51:59.000Z</time>
      </trkpt>
      <trkpt lat="45.82511" lon="4.82195">
        <ele>465</ele>
        <time>2011-11-20T08:52:01.000Z</time>
      </trkpt>
      <trkpt lat="45.82506" lon="4.82187">
        <ele>465.60000610352</ele>
        <time>2011-11-20T08:52:04.000Z</time>
      </trkpt>
      <trkpt lat="45.82507" lon="4.82184">
        <ele>465.60000610352</ele>
        <time>2011-11-20T08:52:05.000Z</time>
      </trkpt>
      <trkpt lat="45.82506" lon="4.82178">
        <ele>466</ele>
        <time>2011-11-20T08:52:08.000Z</time>
      </trkpt>
      <trkpt lat="45.82506" lon="4.82173">
        <ele>466.20001220703</ele>
        <time>2011-11-20T08:52:11.000Z</time>
      </trkpt>
      <trkpt lat="45.82506" lon="4.82171">
        <ele>466.39999389648</ele>
        <time>2011-11-20T08:52:12.000Z</time>
      </trkpt>
      <trkpt lat="45.82502" lon="4.82159">
        <ele>466.79998779297</ele>
        <time>2011-11-20T08:52:16.000Z</time>
      </trkpt>
      <trkpt lat="45.825" lon="4.82157">
        <ele>467</ele>
        <time>2011-11-20T08:52:17.000Z</time>
      </trkpt>
      <trkpt lat="45.82492" lon="4.82153">
        <ele>467</ele>
        <time>2011-11-20T08:52:21.000Z</time>
      </trkpt>
      <trkpt lat="45.82484" lon="4.82152">
        <ele>467</ele>
        <time>2011-11-20T08:52:25.000Z</time>
      </trkpt>
      <trkpt lat="45.82483" lon="4.82152">
        <ele>467</ele>
        <time>2011-11-20T08:52:26.000Z</time>
      </trkpt>
      <trkpt lat="45.82477" lon="4.82151">
        <ele>467</ele>
        <time>2011-11-20T08:52:29.000Z</time>
      </trkpt>
      <trkpt lat="45.82473" lon="4.8215">
        <ele>467</ele>
        <time>2011-11-20T08:52:31.000Z</time>
      </trkpt>
      <trkpt lat="45.82466" lon="4.82149">
        <ele>467</ele>
        <time>2011-11-20T08:52:34.000Z</time>
      </trkpt>
      <trkpt lat="45.82459" lon="4.82149">
        <ele>467</ele>
        <time>2011-11-20T08:52:37.000Z</time>
      </trkpt>
      <trkpt lat="45.82447" lon="4.82151">
        <ele>466.79998779297</ele>
        <time>2011-11-20T08:52:42.000Z</time>
      </trkpt>
      <trkpt lat="45.82444" lon="4.8215">
        <ele>466.79998779297</ele>
        <time>2011-11-20T08:52:43.000Z</time>
      </trkpt>
      <trkpt lat="45.82434" lon="4.82146">
        <ele>467</ele>
        <time>2011-11-20T08:52:47.000Z</time>
      </trkpt>
      <trkpt lat="45.82429" lon="4.82145">
        <ele>467</ele>
        <time>2011-11-20T08:52:49.000Z</time>
      </trkpt>
      <trkpt lat="45.82418" lon="4.82143">
        <ele>467</ele>
        <time>2011-11-20T08:52:52.000Z</time>
      </trkpt>
      <trkpt lat="45.8241" lon="4.8214">
        <ele>467</ele>
        <time>2011-11-20T08:52:55.000Z</time>
      </trkpt>
      <trkpt lat="45.82401" lon="4.82137">
        <ele>466.79998779297</ele>
        <time>2011-11-20T08:52:58.000Z</time>
      </trkpt>
      <trkpt lat="45.8239" lon="4.82136">
        <ele>466.39999389648</ele>
        <time>2011-11-20T08:53:02.000Z</time>
      </trkpt>
      <trkpt lat="45.82387" lon="4.82136">
        <ele>466.39999389648</ele>
        <time>2011-11-20T08:53:03.000Z</time>
      </trkpt>
      <trkpt lat="45.82374" lon="4.82132">
        <ele>466.20001220703</ele>
        <time>2011-11-20T08:53:08.000Z</time>
      </trkpt>
      <trkpt lat="45.82372" lon="4.82132">
        <ele>466.20001220703</ele>
        <time>2011-11-20T08:53:09.000Z</time>
      </trkpt>
      <trkpt lat="45.8237" lon="4.82133">
        <ele>466</ele>
        <time>2011-11-20T08:53:10.000Z</time>
      </trkpt>
      <trkpt lat="45.82364" lon="4.82133">
        <ele>465.79998779297</ele>
        <time>2011-11-20T08:53:12.000Z</time>
      </trkpt>
      <trkpt lat="45.82349" lon="4.82131">
        <ele>465.60000610352</ele>
        <time>2011-11-20T08:53:17.000Z</time>
      </trkpt>
      <trkpt lat="45.82336" lon="4.82127">
        <ele>465.79998779297</ele>
        <time>2011-11-20T08:53:22.000Z</time>
      </trkpt>
      <trkpt lat="45.82329" lon="4.82125">
        <ele>465.60000610352</ele>
        <time>2011-11-20T08:53:25.000Z</time>
      </trkpt>
      <trkpt lat="45.82324" lon="4.82123">
        <ele>465.79998779297</ele>
        <time>2011-11-20T08:53:27.000Z</time>
      </trkpt>
      <trkpt lat="45.82315" lon="4.82117">
        <ele>465.79998779297</ele>
        <time>2011-11-20T08:53:31.000Z</time>
      </trkpt>
      <trkpt lat="45.8231" lon="4.82115">
        <ele>465.79998779297</ele>
        <time>2011-11-20T08:53:33.000Z</time>
      </trkpt>
      <trkpt lat="45.82304" lon="4.82111">
        <ele>466</ele>
        <time>2011-11-20T08:53:36.000Z</time>
      </trkpt>
      <trkpt lat="45.82293" lon="4.82107">
        <ele>466</ele>
        <time>2011-11-20T08:53:40.000Z</time>
      </trkpt>
      <trkpt lat="45.82291" lon="4.82106">
        <ele>466</ele>
        <time>2011-11-20T08:53:41.000Z</time>
      </trkpt>
      <trkpt lat="45.82277" lon="4.82097">
        <ele>466.39999389648</ele>
        <time>2011-11-20T08:53:46.000Z</time>
      </trkpt>
      <trkpt lat="45.82275" lon="4.82096">
        <ele>466.60000610352</ele>
        <time>2011-11-20T08:53:47.000Z</time>
      </trkpt>
      <trkpt lat="45.82259" lon="4.82088">
        <ele>466.60000610352</ele>
        <time>2011-11-20T08:53:53.000Z</time>
      </trkpt>
      <trkpt lat="45.82256" lon="4.82089">
        <ele>466.39999389648</ele>
        <time>2011-11-20T08:53:55.000Z</time>
      </trkpt>
      <trkpt lat="45.82254" lon="4.82091">
        <ele>466.20001220703</ele>
        <time>2011-11-20T08:53:56.000Z</time>
      </trkpt>
      <trkpt lat="45.82251" lon="4.82096">
        <ele>465.20001220703</ele>
        <time>2011-11-20T08:53:58.000Z</time>
      </trkpt>
      <trkpt lat="45.82246" lon="4.82112">
        <ele>462.20001220703</ele>
        <time>2011-11-20T08:54:02.000Z</time>
      </trkpt>
      <trkpt lat="45.82243" lon="4.82114">
        <ele>461.39999389648</ele>
        <time>2011-11-20T08:54:03.000Z</time>
      </trkpt>
      <trkpt lat="45.8224" lon="4.82114">
        <ele>460.79998779297</ele>
        <time>2011-11-20T08:54:04.000Z</time>
      </trkpt>
      <trkpt lat="45.82233" lon="4.82107">
        <ele>460.39999389648</ele>
        <time>2011-11-20T08:54:07.000Z</time>
      </trkpt>
      <trkpt lat="45.8223" lon="4.82104">
        <ele>460.39999389648</ele>
        <time>2011-11-20T08:54:08.000Z</time>
      </trkpt>
      <trkpt lat="45.82221" lon="4.82094">
        <ele>460.20001220703</ele>
        <time>2011-11-20T08:54:12.000Z</time>
      </trkpt>
      <trkpt lat="45.82215" lon="4.82085">
        <ele>460.39999389648</ele>
        <time>2011-11-20T08:54:15.000Z</time>
      </trkpt>
      <trkpt lat="45.82208" lon="4.82077">
        <ele>459.39999389648</ele>
        <time>2011-11-20T08:54:18.000Z</time>
      </trkpt>
      <trkpt lat="45.82202" lon="4.82068">
        <ele>458.20001220703</ele>
        <time>2011-11-20T08:54:21.000Z</time>
      </trkpt>
      <trkpt lat="45.82198" lon="4.82062">
        <ele>457.60000610352</ele>
        <time>2011-11-20T08:54:23.000Z</time>
      </trkpt>
      <trkpt lat="45.82188" lon="4.82048">
        <ele>455.79998779297</ele>
        <time>2011-11-20T08:54:28.000Z</time>
      </trkpt>
      <trkpt lat="45.82181" lon="4.82036">
        <ele>454.60000610352</ele>
        <time>2011-11-20T08:54:32.000Z</time>
      </trkpt>
      <trkpt lat="45.82175" lon="4.82028">
        <ele>453.39999389648</ele>
        <time>2011-11-20T08:54:35.000Z</time>
      </trkpt>
      <trkpt lat="45.82171" lon="4.82018">
        <ele>452.79998779297</ele>
        <time>2011-11-20T08:54:38.000Z</time>
      </trkpt>
      <trkpt lat="45.82168" lon="4.82003">
        <ele>452.20001220703</ele>
        <time>2011-11-20T08:54:42.000Z</time>
      </trkpt>
      <trkpt lat="45.82168" lon="4.81999">
        <ele>452</ele>
        <time>2011-11-20T08:54:43.000Z</time>
      </trkpt>
      <trkpt lat="45.82168" lon="4.81989">
        <ele>450.60000610352</ele>
        <time>2011-11-20T08:54:48.000Z</time>
      </trkpt>
      <trkpt lat="45.82166" lon="4.81982">
        <ele>449.20001220703</ele>
        <time>2011-11-20T08:54:52.000Z</time>
      </trkpt>
      <trkpt lat="45.82165" lon="4.81978">
        <ele>448.39999389648</ele>
        <time>2011-11-20T08:54:54.000Z</time>
      </trkpt>
      <trkpt lat="45.82164" lon="4.81976">
        <ele>448</ele>
        <time>2011-11-20T08:54:55.000Z</time>
      </trkpt>
      <trkpt lat="45.82163" lon="4.81973">
        <ele>447.20001220703</ele>
        <time>2011-11-20T08:54:57.000Z</time>
      </trkpt>
      <trkpt lat="45.82161" lon="4.81967">
        <ele>445.79998779297</ele>
        <time>2011-11-20T08:55:01.000Z</time>
      </trkpt>
      <trkpt lat="45.8216" lon="4.81966">
        <ele>445.20001220703</ele>
        <time>2011-11-20T08:55:15.000Z</time>
      </trkpt>
      <trkpt lat="45.82159" lon="4.81964">
        <ele>444.79998779297</ele>
        <time>2011-11-20T08:55:30.000Z</time>
      </trkpt>
      <trkpt lat="45.8216" lon="4.81966">
        <ele>445.20001220703</ele>
        <time>2011-11-20T08:55:39.000Z</time>
      </trkpt>
      <trkpt lat="45.8216" lon="4.81966">
        <ele>445.39999389648</ele>
        <time>2011-11-20T08:56:06.000Z</time>
      </trkpt>
      <trkpt lat="45.8216" lon="4.81967">
        <ele>445.39999389648</ele>
        <time>2011-11-20T08:56:20.000Z</time>
      </trkpt>
      <trkpt lat="45.8216" lon="4.81967">
        <ele>445.39999389648</ele>
        <time>2011-11-20T08:56:29.000Z</time>
      </trkpt>
      <trkpt lat="45.82162" lon="4.81968">
        <ele>446.20001220703</ele>
        <time>2011-11-20T08:56:33.000Z</time>
      </trkpt>
      <trkpt lat="45.82165" lon="4.81968">
        <ele>447</ele>
        <time>2011-11-20T08:56:44.000Z</time>
      </trkpt>
      <trkpt lat="45.82167" lon="4.81971">
        <ele>448.20001220703</ele>
        <time>2011-11-20T08:57:04.000Z</time>
      </trkpt>
      <trkpt lat="45.82171" lon="4.81976">
        <ele>449.39999389648</ele>
        <time>2011-11-20T08:57:36.000Z</time>
      </trkpt>
      <trkpt lat="45.82174" lon="4.81977">
        <ele>450.20001220703</ele>
        <time>2011-11-20T08:57:43.000Z</time>
      </trkpt>
      <trkpt lat="45.8217" lon="4.81972">
        <ele>448.79998779297</ele>
        <time>2011-11-20T08:58:40.000Z</time>
      </trkpt>
      <trkpt lat="45.82177" lon="4.81974">
        <ele>450.39999389648</ele>
        <time>2011-11-20T08:58:46.000Z</time>
      </trkpt>
      <trkpt lat="45.8218" lon="4.81973">
        <ele>450.79998779297</ele>
        <time>2011-11-20T08:58:52.000Z</time>
      </trkpt>
      <trkpt lat="45.82183" lon="4.81972">
        <ele>451.20001220703</ele>
        <time>2011-11-20T08:58:59.000Z</time>
      </trkpt>
      <trkpt lat="45.82185" lon="4.81967">
        <ele>451</ele>
        <time>2011-11-20T08:59:03.000Z</time>
      </trkpt>
      <trkpt lat="45.82187" lon="4.81967">
        <ele>451.20001220703</ele>
        <time>2011-11-20T08:59:04.000Z</time>
      </trkpt>
      <trkpt lat="45.82188" lon="4.81968">
        <ele>451.60000610352</ele>
        <time>2011-11-20T08:59:05.000Z</time>
      </trkpt>
      <trkpt lat="45.82194" lon="4.81968">
        <ele>452.60000610352</ele>
        <time>2011-11-20T08:59:08.000Z</time>
      </trkpt>
      <trkpt lat="45.82203" lon="4.81963">
        <ele>453.39999389648</ele>
        <time>2011-11-20T08:59:14.000Z</time>
      </trkpt>
      <trkpt lat="45.82208" lon="4.81961">
        <ele>454.20001220703</ele>
        <time>2011-11-20T08:59:16.000Z</time>
      </trkpt>
      <trkpt lat="45.82211" lon="4.81959">
        <ele>454.39999389648</ele>
        <time>2011-11-20T08:59:17.000Z</time>
      </trkpt>
      <trkpt lat="45.82216" lon="4.81956">
        <ele>455</ele>
        <time>2011-11-20T08:59:19.000Z</time>
      </trkpt>
      <trkpt lat="45.8222" lon="4.81956">
        <ele>455.60000610352</ele>
        <time>2011-11-20T08:59:20.000Z</time>
      </trkpt>
      <trkpt lat="45.82229" lon="4.81954">
        <ele>457</ele>
        <time>2011-11-20T08:59:24.000Z</time>
      </trkpt>
      <trkpt lat="45.82236" lon="4.81956">
        <ele>458.60000610352</ele>
        <time>2011-11-20T08:59:29.000Z</time>
      </trkpt>
      <trkpt lat="45.82239" lon="4.81952">
        <ele>458.60000610352</ele>
        <time>2011-11-20T08:59:31.000Z</time>
      </trkpt>
      <trkpt lat="45.82246" lon="4.81945">
        <ele>458.79998779297</ele>
        <time>2011-11-20T08:59:34.000Z</time>
      </trkpt>
      <trkpt lat="45.82256" lon="4.81939">
        <ele>458.60000610352</ele>
        <time>2011-11-20T08:59:39.000Z</time>
      </trkpt>
      <trkpt lat="45.82263" lon="4.81935">
        <ele>458.39999389648</ele>
        <time>2011-11-20T08:59:43.000Z</time>
      </trkpt>
      <trkpt lat="45.82271" lon="4.81928">
        <ele>457.60000610352</ele>
        <time>2011-11-20T08:59:49.000Z</time>
      </trkpt>
      <trkpt lat="45.82272" lon="4.81926">
        <ele>457.39999389648</ele>
        <time>2011-11-20T08:59:50.000Z</time>
      </trkpt>
      <trkpt lat="45.8228" lon="4.81917">
        <ele>456.39999389648</ele>
        <time>2011-11-20T08:59:54.000Z</time>
      </trkpt>
      <trkpt lat="45.82286" lon="4.81912">
        <ele>455.60000610352</ele>
        <time>2011-11-20T08:59:58.000Z</time>
      </trkpt>
      <trkpt lat="45.82288" lon="4.81912">
        <ele>455.39999389648</ele>
        <time>2011-11-20T08:59:59.000Z</time>
      </trkpt>
      <trkpt lat="45.82289" lon="4.81911">
        <ele>455.39999389648</ele>
        <time>2011-11-20T09:00:00.000Z</time>
      </trkpt>
      <trkpt lat="45.82294" lon="4.8191">
        <ele>455.39999389648</ele>
        <time>2011-11-20T09:00:02.000Z</time>
      </trkpt>
      <trkpt lat="45.82303" lon="4.81907">
        <ele>455.20001220703</ele>
        <time>2011-11-20T09:00:06.000Z</time>
      </trkpt>
      <trkpt lat="45.82306" lon="4.81905">
        <ele>454.79998779297</ele>
        <time>2011-11-20T09:00:08.000Z</time>
      </trkpt>
      <trkpt lat="45.82313" lon="4.81901">
        <ele>454.39999389648</ele>
        <time>2011-11-20T09:00:11.000Z</time>
      </trkpt>
      <trkpt lat="45.82324" lon="4.81898">
        <ele>454.39999389648</ele>
        <time>2011-11-20T09:00:16.000Z</time>
      </trkpt>
      <trkpt lat="45.82334" lon="4.81893">
        <ele>453.79998779297</ele>
        <time>2011-11-20T09:00:21.000Z</time>
      </trkpt>
      <trkpt lat="45.82341" lon="4.81889">
        <ele>453.39999389648</ele>
        <time>2011-11-20T09:00:24.000Z</time>
      </trkpt>
      <trkpt lat="45.82346" lon="4.81887">
        <ele>453.20001220703</ele>
        <time>2011-11-20T09:00:26.000Z</time>
      </trkpt>
      <trkpt lat="45.82356" lon="4.81882">
        <ele>452.60000610352</ele>
        <time>2011-11-20T09:00:31.000Z</time>
      </trkpt>
      <trkpt lat="45.82358" lon="4.8188">
        <ele>452.39999389648</ele>
        <time>2011-11-20T09:00:32.000Z</time>
      </trkpt>
      <trkpt lat="45.82369" lon="4.81875">
        <ele>452</ele>
        <time>2011-11-20T09:00:37.000Z</time>
      </trkpt>
      <trkpt lat="45.82375" lon="4.81871">
        <ele>451.60000610352</ele>
        <time>2011-11-20T09:00:40.000Z</time>
      </trkpt>
      <trkpt lat="45.82377" lon="4.8187">
        <ele>451.60000610352</ele>
        <time>2011-11-20T09:00:41.000Z</time>
      </trkpt>
      <trkpt lat="45.82393" lon="4.8186">
        <ele>450.79998779297</ele>
        <time>2011-11-20T09:00:48.000Z</time>
      </trkpt>
      <trkpt lat="45.82401" lon="4.81855">
        <ele>450.39999389648</ele>
        <time>2011-11-20T09:00:52.000Z</time>
      </trkpt>
      <trkpt lat="45.82405" lon="4.81852">
        <ele>450.20001220703</ele>
        <time>2011-11-20T09:00:54.000Z</time>
      </trkpt>
      <trkpt lat="45.8241" lon="4.8185">
        <ele>450.20001220703</ele>
        <time>2011-11-20T09:00:56.000Z</time>
      </trkpt>
      <trkpt lat="45.82419" lon="4.81846">
        <ele>450.20001220703</ele>
        <time>2011-11-20T09:01:00.000Z</time>
      </trkpt>
      <trkpt lat="45.82428" lon="4.81843">
        <ele>450.20001220703</ele>
        <time>2011-11-20T09:01:04.000Z</time>
      </trkpt>
      <trkpt lat="45.82432" lon="4.81842">
        <ele>450.39999389648</ele>
        <time>2011-11-20T09:01:06.000Z</time>
      </trkpt>
      <trkpt lat="45.82432" lon="4.81841">
        <ele>450.20001220703</ele>
        <time>2011-11-20T09:01:09.000Z</time>
      </trkpt>
      <trkpt lat="45.82432" lon="4.8184">
        <ele>450</ele>
        <time>2011-11-20T09:01:10.000Z</time>
      </trkpt>
      <trkpt lat="45.82428" lon="4.81836">
        <ele>449.20001220703</ele>
        <time>2011-11-20T09:01:14.000Z</time>
      </trkpt>
      <trkpt lat="45.82424" lon="4.81829">
        <ele>447.79998779297</ele>
        <time>2011-11-20T09:01:18.000Z</time>
      </trkpt>
      <trkpt lat="45.82423" lon="4.81827">
        <ele>447.60000610352</ele>
        <time>2011-11-20T09:01:19.000Z</time>
      </trkpt>
      <trkpt lat="45.82423" lon="4.81825">
        <ele>447.20001220703</ele>
        <time>2011-11-20T09:01:20.000Z</time>
      </trkpt>
      <trkpt lat="45.82423" lon="4.81818">
        <ele>446.20001220703</ele>
        <time>2011-11-20T09:01:23.000Z</time>
      </trkpt>
      <trkpt lat="45.82422" lon="4.81813">
        <ele>445.39999389648</ele>
        <time>2011-11-20T09:01:25.000Z</time>
      </trkpt>
      <trkpt lat="45.82421" lon="4.81805">
        <ele>444.20001220703</ele>
        <time>2011-11-20T09:01:28.000Z</time>
      </trkpt>
      <trkpt lat="45.82421" lon="4.81799">
        <ele>443.39999389648</ele>
        <time>2011-11-20T09:01:30.000Z</time>
      </trkpt>
      <trkpt lat="45.8242" lon="4.8178">
        <ele>440.60000610352</ele>
        <time>2011-11-20T09:01:37.000Z</time>
      </trkpt>
      <trkpt lat="45.8242" lon="4.81778">
        <ele>440.20001220703</ele>
        <time>2011-11-20T09:01:38.000Z</time>
      </trkpt>
      <trkpt lat="45.82418" lon="4.81768">
        <ele>438.60000610352</ele>
        <time>2011-11-20T09:01:42.000Z</time>
      </trkpt>
      <trkpt lat="45.82415" lon="4.81752">
        <ele>435.79998779297</ele>
        <time>2011-11-20T09:01:48.000Z</time>
      </trkpt>
      <trkpt lat="45.82415" lon="4.81749">
        <ele>435.60000610352</ele>
        <time>2011-11-20T09:01:49.000Z</time>
      </trkpt>
      <trkpt lat="45.82414" lon="4.81743">
        <ele>435.20001220703</ele>
        <time>2011-11-20T09:01:51.000Z</time>
      </trkpt>
      <trkpt lat="45.82417" lon="4.81737">
        <ele>435.39999389648</ele>
        <time>2011-11-20T09:01:54.000Z</time>
      </trkpt>
      <trkpt lat="45.82417" lon="4.81726">
        <ele>434.79998779297</ele>
        <time>2011-11-20T09:01:58.000Z</time>
      </trkpt>
      <trkpt lat="45.82418" lon="4.81724">
        <ele>434.79998779297</ele>
        <time>2011-11-20T09:01:59.000Z</time>
      </trkpt>
      <trkpt lat="45.82419" lon="4.81713">
        <ele>434.39999389648</ele>
        <time>2011-11-20T09:02:05.000Z</time>
      </trkpt>
      <trkpt lat="45.82425" lon="4.81713">
        <ele>435.20001220703</ele>
        <time>2011-11-20T09:02:19.000Z</time>
      </trkpt>
      <trkpt lat="45.82428" lon="4.81713">
        <ele>435.60000610352</ele>
        <time>2011-11-20T09:02:21.000Z</time>
      </trkpt>
      <trkpt lat="45.82433" lon="4.81714">
        <ele>436.39999389648</ele>
        <time>2011-11-20T09:02:25.000Z</time>
      </trkpt>
      <trkpt lat="45.82441" lon="4.81716">
        <ele>437.79998779297</ele>
        <time>2011-11-20T09:02:31.000Z</time>
      </trkpt>
      <trkpt lat="45.82444" lon="4.81716">
        <ele>438</ele>
        <time>2011-11-20T09:02:34.000Z</time>
      </trkpt>
      <trkpt lat="45.82446" lon="4.81713">
        <ele>438.20001220703</ele>
        <time>2011-11-20T09:02:37.000Z</time>
      </trkpt>
      <trkpt lat="45.82446" lon="4.81712">
        <ele>438.20001220703</ele>
        <time>2011-11-20T09:02:38.000Z</time>
      </trkpt>
      <trkpt lat="45.82447" lon="4.8171">
        <ele>438.20001220703</ele>
        <time>2011-11-20T09:02:39.000Z</time>
      </trkpt>
      <trkpt lat="45.82448" lon="4.81707">
        <ele>438.20001220703</ele>
        <time>2011-11-20T09:02:42.000Z</time>
      </trkpt>
      <trkpt lat="45.82447" lon="4.81703">
        <ele>438.20001220703</ele>
        <time>2011-11-20T09:02:44.000Z</time>
      </trkpt>
      <trkpt lat="45.82449" lon="4.81688">
        <ele>438</ele>
        <time>2011-11-20T09:02:52.000Z</time>
      </trkpt>
      <trkpt lat="45.82449" lon="4.81686">
        <ele>437.79998779297</ele>
        <time>2011-11-20T09:02:53.000Z</time>
      </trkpt>
      <trkpt lat="45.8245" lon="4.81679">
        <ele>438</ele>
        <time>2011-11-20T09:02:58.000Z</time>
      </trkpt>
      <trkpt lat="45.82451" lon="4.81678">
        <ele>438</ele>
        <time>2011-11-20T09:02:59.000Z</time>
      </trkpt>
      <trkpt lat="45.82453" lon="4.81675">
        <ele>438.20001220703</ele>
        <time>2011-11-20T09:03:01.000Z</time>
      </trkpt>
      <trkpt lat="45.82456" lon="4.81672">
        <ele>438.60000610352</ele>
        <time>2011-11-20T09:03:03.000Z</time>
      </trkpt>
      <trkpt lat="45.82458" lon="4.81671">
        <ele>439</ele>
        <time>2011-11-20T09:03:04.000Z</time>
      </trkpt>
      <trkpt lat="45.82461" lon="4.8167">
        <ele>439.39999389648</ele>
        <time>2011-11-20T09:03:06.000Z</time>
      </trkpt>
      <trkpt lat="45.82464" lon="4.81668">
        <ele>440</ele>
        <time>2011-11-20T09:03:09.000Z</time>
      </trkpt>
      <trkpt lat="45.82466" lon="4.81667">
        <ele>440.20001220703</ele>
        <time>2011-11-20T09:03:10.000Z</time>
      </trkpt>
      <trkpt lat="45.82471" lon="4.81663">
        <ele>440.79998779297</ele>
        <time>2011-11-20T09:03:13.000Z</time>
      </trkpt>
      <trkpt lat="45.82477" lon="4.8166">
        <ele>441.60000610352</ele>
        <time>2011-11-20T09:03:16.000Z</time>
      </trkpt>
      <trkpt lat="45.82479" lon="4.81658">
        <ele>441.79998779297</ele>
        <time>2011-11-20T09:03:17.000Z</time>
      </trkpt>
      <trkpt lat="45.82486" lon="4.81653">
        <ele>442.60000610352</ele>
        <time>2011-11-20T09:03:20.000Z</time>
      </trkpt>
      <trkpt lat="45.82488" lon="4.81651">
        <ele>443</ele>
        <time>2011-11-20T09:03:21.000Z</time>
      </trkpt>
      <trkpt lat="45.82494" lon="4.81647">
        <ele>443.79998779297</ele>
        <time>2011-11-20T09:03:24.000Z</time>
      </trkpt>
      <trkpt lat="45.82498" lon="4.81645">
        <ele>444.60000610352</ele>
        <time>2011-11-20T09:03:26.000Z</time>
      </trkpt>
      <trkpt lat="45.82511" lon="4.81637">
        <ele>444.39999389648</ele>
        <time>2011-11-20T09:03:32.000Z</time>
      </trkpt>
      <trkpt lat="45.82513" lon="4.81636">
        <ele>444.39999389648</ele>
        <time>2011-11-20T09:03:33.000Z</time>
      </trkpt>
      <trkpt lat="45.82527" lon="4.8163">
        <ele>444.20001220703</ele>
        <time>2011-11-20T09:03:39.000Z</time>
      </trkpt>
      <trkpt lat="45.82531" lon="4.81627">
        <ele>444</ele>
        <time>2011-11-20T09:03:41.000Z</time>
      </trkpt>
      <trkpt lat="45.82539" lon="4.81623">
        <ele>443.79998779297</ele>
        <time>2011-11-20T09:03:44.000Z</time>
      </trkpt>
      <trkpt lat="45.82547" lon="4.8162">
        <ele>443.60000610352</ele>
        <time>2011-11-20T09:03:48.000Z</time>
      </trkpt>
      <trkpt lat="45.82547" lon="4.81618">
        <ele>443.60000610352</ele>
        <time>2011-11-20T09:03:49.000Z</time>
      </trkpt>
      <trkpt lat="45.8255" lon="4.81615">
        <ele>443.39999389648</ele>
        <time>2011-11-20T09:03:52.000Z</time>
      </trkpt>
      <trkpt lat="45.82552" lon="4.81614">
        <ele>443.39999389648</ele>
        <time>2011-11-20T09:03:54.000Z</time>
      </trkpt>
      <trkpt lat="45.8256" lon="4.81609">
        <ele>443.20001220703</ele>
        <time>2011-11-20T09:03:59.000Z</time>
      </trkpt>
      <trkpt lat="45.82562" lon="4.81608">
        <ele>443</ele>
        <time>2011-11-20T09:04:00.000Z</time>
      </trkpt>
      <trkpt lat="45.82574" lon="4.81602">
        <ele>442.79998779297</ele>
        <time>2011-11-20T09:04:05.000Z</time>
      </trkpt>
      <trkpt lat="45.82581" lon="4.81598">
        <ele>442.60000610352</ele>
        <time>2011-11-20T09:04:08.000Z</time>
      </trkpt>
      <trkpt lat="45.8259" lon="4.81594">
        <ele>442.20001220703</ele>
        <time>2011-11-20T09:04:12.000Z</time>
      </trkpt>
      <trkpt lat="45.82599" lon="4.81589">
        <ele>442</ele>
        <time>2011-11-20T09:04:16.000Z</time>
      </trkpt>
      <trkpt lat="45.82612" lon="4.81581">
        <ele>441.39999389648</ele>
        <time>2011-11-20T09:04:22.000Z</time>
      </trkpt>
      <trkpt lat="45.82617" lon="4.81579">
        <ele>441.20001220703</ele>
        <time>2011-11-20T09:04:24.000Z</time>
      </trkpt>
      <trkpt lat="45.82624" lon="4.81575">
        <ele>441</ele>
        <time>2011-11-20T09:04:27.000Z</time>
      </trkpt>
      <trkpt lat="45.82634" lon="4.81568">
        <ele>440.39999389648</ele>
        <time>2011-11-20T09:04:31.000Z</time>
      </trkpt>
      <trkpt lat="45.8264" lon="4.81565">
        <ele>440.20001220703</ele>
        <time>2011-11-20T09:04:33.000Z</time>
      </trkpt>
      <trkpt lat="45.82652" lon="4.81559">
        <ele>439.79998779297</ele>
        <time>2011-11-20T09:04:38.000Z</time>
      </trkpt>
      <trkpt lat="45.8267" lon="4.81549">
        <ele>439</ele>
        <time>2011-11-20T09:04:45.000Z</time>
      </trkpt>
      <trkpt lat="45.82686" lon="4.81543">
        <ele>437.79998779297</ele>
        <time>2011-11-20T09:04:51.000Z</time>
      </trkpt>
      <trkpt lat="45.82689" lon="4.81543">
        <ele>437.39999389648</ele>
        <time>2011-11-20T09:04:52.000Z</time>
      </trkpt>
      <trkpt lat="45.82699" lon="4.81539">
        <ele>436.60000610352</ele>
        <time>2011-11-20T09:04:56.000Z</time>
      </trkpt>
      <trkpt lat="45.82708" lon="4.81535">
        <ele>435.79998779297</ele>
        <time>2011-11-20T09:04:59.000Z</time>
      </trkpt>
      <trkpt lat="45.82711" lon="4.81535">
        <ele>435.60000610352</ele>
        <time>2011-11-20T09:05:00.000Z</time>
      </trkpt>
      <trkpt lat="45.82723" lon="4.8153">
        <ele>434.60000610352</ele>
        <time>2011-11-20T09:05:04.000Z</time>
      </trkpt>
      <trkpt lat="45.82726" lon="4.81528">
        <ele>434.20001220703</ele>
        <time>2011-11-20T09:05:05.000Z</time>
      </trkpt>
      <trkpt lat="45.82737" lon="4.81523">
        <ele>433.20001220703</ele>
        <time>2011-11-20T09:05:09.000Z</time>
      </trkpt>
      <trkpt lat="45.82744" lon="4.81522">
        <ele>432.60000610352</ele>
        <time>2011-11-20T09:05:12.000Z</time>
      </trkpt>
      <trkpt lat="45.82747" lon="4.81521">
        <ele>432.39999389648</ele>
        <time>2011-11-20T09:05:14.000Z</time>
      </trkpt>
      <trkpt lat="45.82751" lon="4.81512">
        <ele>431.20001220703</ele>
        <time>2011-11-20T09:05:18.000Z</time>
      </trkpt>
      <trkpt lat="45.82752" lon="4.81504">
        <ele>430.20001220703</ele>
        <time>2011-11-20T09:05:21.000Z</time>
      </trkpt>
      <trkpt lat="45.82752" lon="4.81501">
        <ele>430</ele>
        <time>2011-11-20T09:05:22.000Z</time>
      </trkpt>
      <trkpt lat="45.82753" lon="4.81498">
        <ele>429.60000610352</ele>
        <time>2011-11-20T09:05:23.000Z</time>
      </trkpt>
      <trkpt lat="45.8276" lon="4.8148">
        <ele>425.79998779297</ele>
        <time>2011-11-20T09:05:30.000Z</time>
      </trkpt>
      <trkpt lat="45.82761" lon="4.81477">
        <ele>425.20001220703</ele>
        <time>2011-11-20T09:05:31.000Z</time>
      </trkpt>
      <trkpt lat="45.82768" lon="4.81464">
        <ele>422</ele>
        <time>2011-11-20T09:05:36.000Z</time>
      </trkpt>
      <trkpt lat="45.82771" lon="4.81454">
        <ele>420.39999389648</ele>
        <time>2011-11-20T09:05:40.000Z</time>
      </trkpt>
      <trkpt lat="45.82774" lon="4.81448">
        <ele>419.39999389648</ele>
        <time>2011-11-20T09:05:42.000Z</time>
      </trkpt>
      <trkpt lat="45.82775" lon="4.81435">
        <ele>418.60000610352</ele>
        <time>2011-11-20T09:05:46.000Z</time>
      </trkpt>
      <trkpt lat="45.82776" lon="4.81426">
        <ele>417.79998779297</ele>
        <time>2011-11-20T09:05:49.000Z</time>
      </trkpt>
      <trkpt lat="45.82777" lon="4.81419">
        <ele>417.60000610352</ele>
        <time>2011-11-20T09:05:51.000Z</time>
      </trkpt>
      <trkpt lat="45.82781" lon="4.81401">
        <ele>416.20001220703</ele>
        <time>2011-11-20T09:05:56.000Z</time>
      </trkpt>
      <trkpt lat="45.82782" lon="4.81397">
        <ele>415.79998779297</ele>
        <time>2011-11-20T09:05:57.000Z</time>
      </trkpt>
      <trkpt lat="45.82787" lon="4.81376">
        <ele>414.79998779297</ele>
        <time>2011-11-20T09:06:03.000Z</time>
      </trkpt>
      <trkpt lat="45.8279" lon="4.8135">
        <ele>414</ele>
        <time>2011-11-20T09:06:09.000Z</time>
      </trkpt>
      <trkpt lat="45.82791" lon="4.81342">
        <ele>414</ele>
        <time>2011-11-20T09:06:11.000Z</time>
      </trkpt>
      <trkpt lat="45.8279" lon="4.81323">
        <ele>413.79998779297</ele>
        <time>2011-11-20T09:06:15.000Z</time>
      </trkpt>
      <trkpt lat="45.82789" lon="4.81312">
        <ele>413.60000610352</ele>
        <time>2011-11-20T09:06:17.000Z</time>
      </trkpt>
      <trkpt lat="45.82783" lon="4.81295">
        <ele>413.60000610352</ele>
        <time>2011-11-20T09:06:21.000Z</time>
      </trkpt>
      <trkpt lat="45.8278" lon="4.81292">
        <ele>413.39999389648</ele>
        <time>2011-11-20T09:06:22.000Z</time>
      </trkpt>
      <trkpt lat="45.82771" lon="4.81284">
        <ele>413.39999389648</ele>
        <time>2011-11-20T09:06:26.000Z</time>
      </trkpt>
      <trkpt lat="45.82769" lon="4.81283">
        <ele>413.39999389648</ele>
        <time>2011-11-20T09:06:27.000Z</time>
      </trkpt>
      <trkpt lat="45.82765" lon="4.81281">
        <ele>413.39999389648</ele>
        <time>2011-11-20T09:06:29.000Z</time>
      </trkpt>
      <trkpt lat="45.82761" lon="4.81279">
        <ele>413.39999389648</ele>
        <time>2011-11-20T09:06:31.000Z</time>
      </trkpt>
      <trkpt lat="45.82747" lon="4.81278">
        <ele>413.60000610352</ele>
        <time>2011-11-20T09:06:36.000Z</time>
      </trkpt>
      <trkpt lat="45.8273" lon="4.8128">
        <ele>413.20001220703</ele>
        <time>2011-11-20T09:06:42.000Z</time>
      </trkpt>
      <trkpt lat="45.82727" lon="4.81279">
        <ele>413.20001220703</ele>
        <time>2011-11-20T09:06:43.000Z</time>
      </trkpt>
      <trkpt lat="45.82717" lon="4.81274">
        <ele>412.39999389648</ele>
        <time>2011-11-20T09:06:47.000Z</time>
      </trkpt>
      <trkpt lat="45.8271" lon="4.81264">
        <ele>411.60000610352</ele>
        <time>2011-11-20T09:06:50.000Z</time>
      </trkpt>
      <trkpt lat="45.82707" lon="4.81261">
        <ele>411.20001220703</ele>
        <time>2011-11-20T09:06:52.000Z</time>
      </trkpt>
      <trkpt lat="45.82697" lon="4.8125">
        <ele>410</ele>
        <time>2011-11-20T09:06:57.000Z</time>
      </trkpt>
      <trkpt lat="45.82694" lon="4.81248">
        <ele>409.79998779297</ele>
        <time>2011-11-20T09:06:58.000Z</time>
      </trkpt>
      <trkpt lat="45.82688" lon="4.8124">
        <ele>408.79998779297</ele>
        <time>2011-11-20T09:07:01.000Z</time>
      </trkpt>
      <trkpt lat="45.82683" lon="4.81228">
        <ele>407.60000610352</ele>
        <time>2011-11-20T09:07:05.000Z</time>
      </trkpt>
      <trkpt lat="45.82681" lon="4.81225">
        <ele>407.20001220703</ele>
        <time>2011-11-20T09:07:06.000Z</time>
      </trkpt>
      <trkpt lat="45.82676" lon="4.81215">
        <ele>406</ele>
        <time>2011-11-20T09:07:09.000Z</time>
      </trkpt>
      <trkpt lat="45.82675" lon="4.81212">
        <ele>405.79998779297</ele>
        <time>2011-11-20T09:07:10.000Z</time>
      </trkpt>
      <trkpt lat="45.8267" lon="4.81206">
        <ele>404.79998779297</ele>
        <time>2011-11-20T09:07:13.000Z</time>
      </trkpt>
      <trkpt lat="45.82668" lon="4.81203">
        <ele>404.39999389648</ele>
        <time>2011-11-20T09:07:14.000Z</time>
      </trkpt>
      <trkpt lat="45.82665" lon="4.812">
        <ele>404</ele>
        <time>2011-11-20T09:07:15.000Z</time>
      </trkpt>
      <trkpt lat="45.82658" lon="4.81193">
        <ele>402.79998779297</ele>
        <time>2011-11-20T09:07:19.000Z</time>
      </trkpt>
      <trkpt lat="45.82653" lon="4.81189">
        <ele>402.20001220703</ele>
        <time>2011-11-20T09:07:21.000Z</time>
      </trkpt>
      <trkpt lat="45.82645" lon="4.81183">
        <ele>401</ele>
        <time>2011-11-20T09:07:25.000Z</time>
      </trkpt>
      <trkpt lat="45.82641" lon="4.81179">
        <ele>400.20001220703</ele>
        <time>2011-11-20T09:07:27.000Z</time>
      </trkpt>
      <trkpt lat="45.82639" lon="4.81176">
        <ele>399.60000610352</ele>
        <time>2011-11-20T09:07:28.000Z</time>
      </trkpt>
      <trkpt lat="45.82636" lon="4.81174">
        <ele>399.20001220703</ele>
        <time>2011-11-20T09:07:29.000Z</time>
      </trkpt>
      <trkpt lat="45.82626" lon="4.81162">
        <ele>396.79998779297</ele>
        <time>2011-11-20T09:07:35.000Z</time>
      </trkpt>
      <trkpt lat="45.82624" lon="4.81157">
        <ele>395.79998779297</ele>
        <time>2011-11-20T09:07:37.000Z</time>
      </trkpt>
      <trkpt lat="45.82619" lon="4.81145">
        <ele>393.79998779297</ele>
        <time>2011-11-20T09:07:41.000Z</time>
      </trkpt>
      <trkpt lat="45.82617" lon="4.81132">
        <ele>391.60000610352</ele>
        <time>2011-11-20T09:07:45.000Z</time>
      </trkpt>
      <trkpt lat="45.82616" lon="4.81128">
        <ele>391</ele>
        <time>2011-11-20T09:07:46.000Z</time>
      </trkpt>
      <trkpt lat="45.82615" lon="4.81116">
        <ele>389</ele>
        <time>2011-11-20T09:07:50.000Z</time>
      </trkpt>
      <trkpt lat="45.82613" lon="4.81106">
        <ele>387.60000610352</ele>
        <time>2011-11-20T09:07:53.000Z</time>
      </trkpt>
      <trkpt lat="45.82613" lon="4.81099">
        <ele>386.39999389648</ele>
        <time>2011-11-20T09:07:55.000Z</time>
      </trkpt>
      <trkpt lat="45.8261" lon="4.8108">
        <ele>383.39999389648</ele>
        <time>2011-11-20T09:08:00.000Z</time>
      </trkpt>
      <trkpt lat="45.82611" lon="4.81058">
        <ele>382</ele>
        <time>2011-11-20T09:08:04.000Z</time>
      </trkpt>
      <trkpt lat="45.82614" lon="4.81052">
        <ele>381.79998779297</ele>
        <time>2011-11-20T09:08:06.000Z</time>
      </trkpt>
      <trkpt lat="45.82619" lon="4.81046">
        <ele>382</ele>
        <time>2011-11-20T09:08:09.000Z</time>
      </trkpt>
      <trkpt lat="45.82628" lon="4.81036">
        <ele>382</ele>
        <time>2011-11-20T09:08:14.000Z</time>
      </trkpt>
      <trkpt lat="45.82629" lon="4.81034">
        <ele>382</ele>
        <time>2011-11-20T09:08:15.000Z</time>
      </trkpt>
      <trkpt lat="45.82632" lon="4.81031">
        <ele>382</ele>
        <time>2011-11-20T09:08:18.000Z</time>
      </trkpt>
      <trkpt lat="45.82633" lon="4.8103">
        <ele>382</ele>
        <time>2011-11-20T09:08:20.000Z</time>
      </trkpt>
      <trkpt lat="45.82635" lon="4.81024">
        <ele>381.60000610352</ele>
        <time>2011-11-20T09:08:25.000Z</time>
      </trkpt>
      <trkpt lat="45.82635" lon="4.81018">
        <ele>381</ele>
        <time>2011-11-20T09:08:29.000Z</time>
      </trkpt>
      <trkpt lat="45.82633" lon="4.81012">
        <ele>380.39999389648</ele>
        <time>2011-11-20T09:08:31.000Z</time>
      </trkpt>
      <trkpt lat="45.82633" lon="4.81011">
        <ele>380.39999389648</ele>
        <time>2011-11-20T09:08:32.000Z</time>
      </trkpt>
      <trkpt lat="45.82632" lon="4.8101">
        <ele>380.20001220703</ele>
        <time>2011-11-20T09:08:33.000Z</time>
      </trkpt>
      <trkpt lat="45.82626" lon="4.81002">
        <ele>379.20001220703</ele>
        <time>2011-11-20T09:08:40.000Z</time>
      </trkpt>
      <trkpt lat="45.82623" lon="4.80996">
        <ele>378.79998779297</ele>
        <time>2011-11-20T09:08:44.000Z</time>
      </trkpt>
      <trkpt lat="45.8262" lon="4.80992">
        <ele>378.79998779297</ele>
        <time>2011-11-20T09:08:45.000Z</time>
      </trkpt>
      <trkpt lat="45.82612" lon="4.80987">
        <ele>378.60000610352</ele>
        <time>2011-11-20T09:08:48.000Z</time>
      </trkpt>
      <trkpt lat="45.82602" lon="4.80984">
        <ele>378.20001220703</ele>
        <time>2011-11-20T09:08:52.000Z</time>
      </trkpt>
      <trkpt lat="45.82596" lon="4.80982">
        <ele>378</ele>
        <time>2011-11-20T09:08:54.000Z</time>
      </trkpt>
      <trkpt lat="45.82583" lon="4.80979">
        <ele>377.39999389648</ele>
        <time>2011-11-20T09:08:59.000Z</time>
      </trkpt>
      <trkpt lat="45.82578" lon="4.80978">
        <ele>377</ele>
        <time>2011-11-20T09:09:01.000Z</time>
      </trkpt>
      <trkpt lat="45.82563" lon="4.80973">
        <ele>376.39999389648</ele>
        <time>2011-11-20T09:09:07.000Z</time>
      </trkpt>
      <trkpt lat="45.8256" lon="4.80972">
        <ele>376.39999389648</ele>
        <time>2011-11-20T09:09:08.000Z</time>
      </trkpt>
      <trkpt lat="45.82548" lon="4.80969">
        <ele>375.79998779297</ele>
        <time>2011-11-20T09:09:13.000Z</time>
      </trkpt>
      <trkpt lat="45.82545" lon="4.80969">
        <ele>375.60000610352</ele>
        <time>2011-11-20T09:09:14.000Z</time>
      </trkpt>
      <trkpt lat="45.82531" lon="4.80965">
        <ele>374.79998779297</ele>
        <time>2011-11-20T09:09:19.000Z</time>
      </trkpt>
      <trkpt lat="45.82525" lon="4.80964">
        <ele>374.60000610352</ele>
        <time>2011-11-20T09:09:21.000Z</time>
      </trkpt>
      <trkpt lat="45.82514" lon="4.80961">
        <ele>374</ele>
        <time>2011-11-20T09:09:25.000Z</time>
      </trkpt>
      <trkpt lat="45.82506" lon="4.80958">
        <ele>373.79998779297</ele>
        <time>2011-11-20T09:09:28.000Z</time>
      </trkpt>
      <trkpt lat="45.82498" lon="4.80956">
        <ele>373.39999389648</ele>
        <time>2011-11-20T09:09:31.000Z</time>
      </trkpt>
      <trkpt lat="45.82487" lon="4.80953">
        <ele>372.39999389648</ele>
        <time>2011-11-20T09:09:35.000Z</time>
      </trkpt>
      <trkpt lat="45.82481" lon="4.80951">
        <ele>372</ele>
        <time>2011-11-20T09:09:37.000Z</time>
      </trkpt>
      <trkpt lat="45.82468" lon="4.80945">
        <ele>371.20001220703</ele>
        <time>2011-11-20T09:09:42.000Z</time>
      </trkpt>
      <trkpt lat="45.82465" lon="4.80943">
        <ele>371</ele>
        <time>2011-11-20T09:09:43.000Z</time>
      </trkpt>
      <trkpt lat="45.8245" lon="4.8093">
        <ele>370.39999389648</ele>
        <time>2011-11-20T09:09:49.000Z</time>
      </trkpt>
      <trkpt lat="45.82443" lon="4.8092">
        <ele>370.39999389648</ele>
        <time>2011-11-20T09:09:53.000Z</time>
      </trkpt>
      <trkpt lat="45.82437" lon="4.80913">
        <ele>370.60000610352</ele>
        <time>2011-11-20T09:09:56.000Z</time>
      </trkpt>
      <trkpt lat="45.82433" lon="4.80909">
        <ele>370.79998779297</ele>
        <time>2011-11-20T09:09:58.000Z</time>
      </trkpt>
      <trkpt lat="45.82423" lon="4.80897">
        <ele>371.60000610352</ele>
        <time>2011-11-20T09:10:03.000Z</time>
      </trkpt>
      <trkpt lat="45.82421" lon="4.80895">
        <ele>371.79998779297</ele>
        <time>2011-11-20T09:10:04.000Z</time>
      </trkpt>
      <trkpt lat="45.8241" lon="4.80884">
        <ele>372.20001220703</ele>
        <time>2011-11-20T09:10:09.000Z</time>
      </trkpt>
      <trkpt lat="45.82405" lon="4.8088">
        <ele>372.20001220703</ele>
        <time>2011-11-20T09:10:11.000Z</time>
      </trkpt>
      <trkpt lat="45.82394" lon="4.80866">
        <ele>372.79998779297</ele>
        <time>2011-11-20T09:10:17.000Z</time>
      </trkpt>
      <trkpt lat="45.82391" lon="4.80864">
        <ele>372.79998779297</ele>
        <time>2011-11-20T09:10:18.000Z</time>
      </trkpt>
      <trkpt lat="45.82384" lon="4.80856">
        <ele>373</ele>
        <time>2011-11-20T09:10:22.000Z</time>
      </trkpt>
      <trkpt lat="45.82375" lon="4.8085">
        <ele>372.39999389648</ele>
        <time>2011-11-20T09:10:25.000Z</time>
      </trkpt>
      <trkpt lat="45.8237" lon="4.80847">
        <ele>372</ele>
        <time>2011-11-20T09:10:27.000Z</time>
      </trkpt>
      <trkpt lat="45.82369" lon="4.80837">
        <ele>373</ele>
        <time>2011-11-20T09:10:31.000Z</time>
      </trkpt>
      <trkpt lat="45.8237" lon="4.8083">
        <ele>373.79998779297</ele>
        <time>2011-11-20T09:10:36.000Z</time>
      </trkpt>
      <trkpt lat="45.82369" lon="4.80826">
        <ele>374.20001220703</ele>
        <time>2011-11-20T09:10:41.000Z</time>
      </trkpt>
      <trkpt lat="45.82369" lon="4.80821">
        <ele>374.79998779297</ele>
        <time>2011-11-20T09:10:44.000Z</time>
      </trkpt>
      <trkpt lat="45.82368" lon="4.80817">
        <ele>375.20001220703</ele>
        <time>2011-11-20T09:10:48.000Z</time>
      </trkpt>
      <trkpt lat="45.82368" lon="4.80812">
        <ele>375.60000610352</ele>
        <time>2011-11-20T09:10:53.000Z</time>
      </trkpt>
      <trkpt lat="45.82368" lon="4.8081">
        <ele>375.79998779297</ele>
        <time>2011-11-20T09:10:54.000Z</time>
      </trkpt>
      <trkpt lat="45.82366" lon="4.808">
        <ele>376.60000610352</ele>
        <time>2011-11-20T09:10:57.000Z</time>
      </trkpt>
      <trkpt lat="45.82364" lon="4.80793">
        <ele>377.20001220703</ele>
        <time>2011-11-20T09:11:00.000Z</time>
      </trkpt>
      <trkpt lat="45.82366" lon="4.80779">
        <ele>378.79998779297</ele>
        <time>2011-11-20T09:11:07.000Z</time>
      </trkpt>
      <trkpt lat="45.82368" lon="4.80775">
        <ele>379.60000610352</ele>
        <time>2011-11-20T09:11:10.000Z</time>
      </trkpt>
      <trkpt lat="45.82369" lon="4.80767">
        <ele>380.60000610352</ele>
        <time>2011-11-20T09:11:15.000Z</time>
      </trkpt>
      <trkpt lat="45.82369" lon="4.80764">
        <ele>381</ele>
        <time>2011-11-20T09:11:17.000Z</time>
      </trkpt>
      <trkpt lat="45.82371" lon="4.80758">
        <ele>381.79998779297</ele>
        <time>2011-11-20T09:11:20.000Z</time>
      </trkpt>
      <trkpt lat="45.82374" lon="4.80752">
        <ele>383.20001220703</ele>
        <time>2011-11-20T09:11:25.000Z</time>
      </trkpt>
      <trkpt lat="45.82376" lon="4.80749">
        <ele>383.60000610352</ele>
        <time>2011-11-20T09:11:27.000Z</time>
      </trkpt>
      <trkpt lat="45.82376" lon="4.80747">
        <ele>383.79998779297</ele>
        <time>2011-11-20T09:11:28.000Z</time>
      </trkpt>
      <trkpt lat="45.82378" lon="4.80734">
        <ele>385.20001220703</ele>
        <time>2011-11-20T09:11:36.000Z</time>
      </trkpt>
      <trkpt lat="45.82375" lon="4.80725">
        <ele>385.79998779297</ele>
        <time>2011-11-20T09:11:39.000Z</time>
      </trkpt>
      <trkpt lat="45.82373" lon="4.80714">
        <ele>386.20001220703</ele>
        <time>2011-11-20T09:11:42.000Z</time>
      </trkpt>
      <trkpt lat="45.82366" lon="4.80704">
        <ele>386.20001220703</ele>
        <time>2011-11-20T09:11:48.000Z</time>
      </trkpt>
      <trkpt lat="45.82364" lon="4.80702">
        <ele>386</ele>
        <time>2011-11-20T09:11:49.000Z</time>
      </trkpt>
      <trkpt lat="45.82356" lon="4.80692">
        <ele>385.79998779297</ele>
        <time>2011-11-20T09:11:52.000Z</time>
      </trkpt>
      <trkpt lat="45.8235" lon="4.80683">
        <ele>385.79998779297</ele>
        <time>2011-11-20T09:11:54.000Z</time>
      </trkpt>
      <trkpt lat="45.82349" lon="4.80671">
        <ele>386.60000610352</ele>
        <time>2011-11-20T09:11:57.000Z</time>
      </trkpt>
      <trkpt lat="45.82353" lon="4.80661">
        <ele>388.20001220703</ele>
        <time>2011-11-20T09:12:02.000Z</time>
      </trkpt>
      <trkpt lat="45.82353" lon="4.8066">
        <ele>388.39999389648</ele>
        <time>2011-11-20T09:12:03.000Z</time>
      </trkpt>
      <trkpt lat="45.82353" lon="4.80658">
        <ele>388.79998779297</ele>
        <time>2011-11-20T09:12:05.000Z</time>
      </trkpt>
      <trkpt lat="45.82354" lon="4.80657">
        <ele>388.79998779297</ele>
        <time>2011-11-20T09:12:06.000Z</time>
      </trkpt>
      <trkpt lat="45.82355" lon="4.80655">
        <ele>389.20001220703</ele>
        <time>2011-11-20T09:12:08.000Z</time>
      </trkpt>
      <trkpt lat="45.82355" lon="4.8064">
        <ele>390.79998779297</ele>
        <time>2011-11-20T09:12:15.000Z</time>
      </trkpt>
      <trkpt lat="45.82355" lon="4.80638">
        <ele>391</ele>
        <time>2011-11-20T09:12:16.000Z</time>
      </trkpt>
      <trkpt lat="45.82355" lon="4.80632">
        <ele>391.60000610352</ele>
        <time>2011-11-20T09:12:19.000Z</time>
      </trkpt>
      <trkpt lat="45.82356" lon="4.80628">
        <ele>392.20001220703</ele>
        <time>2011-11-20T09:12:21.000Z</time>
      </trkpt>
      <trkpt lat="45.82357" lon="4.80623">
        <ele>393</ele>
        <time>2011-11-20T09:12:24.000Z</time>
      </trkpt>
      <trkpt lat="45.82358" lon="4.80621">
        <ele>393.39999389648</ele>
        <time>2011-11-20T09:12:26.000Z</time>
      </trkpt>
      <trkpt lat="45.82358" lon="4.80619">
        <ele>393.60000610352</ele>
        <time>2011-11-20T09:12:28.000Z</time>
      </trkpt>
      <trkpt lat="45.82358" lon="4.80618">
        <ele>393.60000610352</ele>
        <time>2011-11-20T09:12:29.000Z</time>
      </trkpt>
      <trkpt lat="45.82359" lon="4.80616">
        <ele>394</ele>
        <time>2011-11-20T09:12:31.000Z</time>
      </trkpt>
      <trkpt lat="45.82359" lon="4.80615">
        <ele>394.20001220703</ele>
        <time>2011-11-20T09:12:32.000Z</time>
      </trkpt>
      <trkpt lat="45.8236" lon="4.80611">
        <ele>394.79998779297</ele>
        <time>2011-11-20T09:12:35.000Z</time>
      </trkpt>
      <trkpt lat="45.82361" lon="4.80608">
        <ele>395.20001220703</ele>
        <time>2011-11-20T09:12:37.000Z</time>
      </trkpt>
      <trkpt lat="45.82361" lon="4.80607">
        <ele>395.39999389648</ele>
        <time>2011-11-20T09:12:38.000Z</time>
      </trkpt>
      <trkpt lat="45.82362" lon="4.80602">
        <ele>396</ele>
        <time>2011-11-20T09:12:41.000Z</time>
      </trkpt>
      <trkpt lat="45.82364" lon="4.80596">
        <ele>397</ele>
        <time>2011-11-20T09:12:45.000Z</time>
      </trkpt>
      <trkpt lat="45.82366" lon="4.8059">
        <ele>398</ele>
        <time>2011-11-20T09:12:49.000Z</time>
      </trkpt>
      <trkpt lat="45.82369" lon="4.80585">
        <ele>399</ele>
        <time>2011-11-20T09:12:52.000Z</time>
      </trkpt>
      <trkpt lat="45.82369" lon="4.80583">
        <ele>399.39999389648</ele>
        <time>2011-11-20T09:12:53.000Z</time>
      </trkpt>
      <trkpt lat="45.8237" lon="4.8058">
        <ele>400</ele>
        <time>2011-11-20T09:12:55.000Z</time>
      </trkpt>
      <trkpt lat="45.82373" lon="4.80569">
        <ele>401.60000610352</ele>
        <time>2011-11-20T09:13:00.000Z</time>
      </trkpt>
      <trkpt lat="45.82374" lon="4.80566">
        <ele>402.20001220703</ele>
        <time>2011-11-20T09:13:02.000Z</time>
      </trkpt>
      <trkpt lat="45.82375" lon="4.80562">
        <ele>402.79998779297</ele>
        <time>2011-11-20T09:13:05.000Z</time>
      </trkpt>
      <trkpt lat="45.82375" lon="4.8056">
        <ele>403</ele>
        <time>2011-11-20T09:13:06.000Z</time>
      </trkpt>
      <trkpt lat="45.82379" lon="4.80552">
        <ele>404.60000610352</ele>
        <time>2011-11-20T09:13:12.000Z</time>
      </trkpt>
      <trkpt lat="45.8238" lon="4.80549">
        <ele>405.20001220703</ele>
        <time>2011-11-20T09:13:14.000Z</time>
      </trkpt>
      <trkpt lat="45.82382" lon="4.80544">
        <ele>406</ele>
        <time>2011-11-20T09:13:18.000Z</time>
      </trkpt>
      <trkpt lat="45.82383" lon="4.80542">
        <ele>406.39999389648</ele>
        <time>2011-11-20T09:13:19.000Z</time>
      </trkpt>
      <trkpt lat="45.82383" lon="4.80538">
        <ele>407</ele>
        <time>2011-11-20T09:13:21.000Z</time>
      </trkpt>
      <trkpt lat="45.82384" lon="4.80533">
        <ele>407.60000610352</ele>
        <time>2011-11-20T09:13:24.000Z</time>
      </trkpt>
      <trkpt lat="45.82387" lon="4.80529">
        <ele>408.60000610352</ele>
        <time>2011-11-20T09:13:28.000Z</time>
      </trkpt>
      <trkpt lat="45.8239" lon="4.80524">
        <ele>409.60000610352</ele>
        <time>2011-11-20T09:13:31.000Z</time>
      </trkpt>
      <trkpt lat="45.82392" lon="4.80515">
        <ele>411.20001220703</ele>
        <time>2011-11-20T09:13:36.000Z</time>
      </trkpt>
      <trkpt lat="45.82392" lon="4.80512">
        <ele>411.39999389648</ele>
        <time>2011-11-20T09:13:37.000Z</time>
      </trkpt>
      <trkpt lat="45.82393" lon="4.80506">
        <ele>412.39999389648</ele>
        <time>2011-11-20T09:13:40.000Z</time>
      </trkpt>
      <trkpt lat="45.82394" lon="4.80498">
        <ele>413.20001220703</ele>
        <time>2011-11-20T09:13:43.000Z</time>
      </trkpt>
      <trkpt lat="45.82395" lon="4.80496">
        <ele>413.39999389648</ele>
        <time>2011-11-20T09:13:45.000Z</time>
      </trkpt>
      <trkpt lat="45.82396" lon="4.80494">
        <ele>413.60000610352</ele>
        <time>2011-11-20T09:13:46.000Z</time>
      </trkpt>
      <trkpt lat="45.82396" lon="4.80489">
        <ele>413.79998779297</ele>
        <time>2011-11-20T09:13:49.000Z</time>
      </trkpt>
      <trkpt lat="45.82397" lon="4.80483">
        <ele>414.39999389648</ele>
        <time>2011-11-20T09:13:53.000Z</time>
      </trkpt>
      <trkpt lat="45.82398" lon="4.80479">
        <ele>414.60000610352</ele>
        <time>2011-11-20T09:13:55.000Z</time>
      </trkpt>
      <trkpt lat="45.82393" lon="4.80458">
        <ele>414.60000610352</ele>
        <time>2011-11-20T09:14:06.000Z</time>
      </trkpt>
      <trkpt lat="45.8239" lon="4.80448">
        <ele>414.20001220703</ele>
        <time>2011-11-20T09:14:17.000Z</time>
      </trkpt>
      <trkpt lat="45.82393" lon="4.8044">
        <ele>415.20001220703</ele>
        <time>2011-11-20T09:15:08.000Z</time>
      </trkpt>
      <trkpt lat="45.82394" lon="4.80431">
        <ele>415.79998779297</ele>
        <time>2011-11-20T09:15:12.000Z</time>
      </trkpt>
      <trkpt lat="45.82395" lon="4.80428">
        <ele>416</ele>
        <time>2011-11-20T09:15:13.000Z</time>
      </trkpt>
      <trkpt lat="45.82398" lon="4.80418">
        <ele>417</ele>
        <time>2011-11-20T09:15:17.000Z</time>
      </trkpt>
      <trkpt lat="45.82402" lon="4.80406">
        <ele>416.79998779297</ele>
        <time>2011-11-20T09:15:22.000Z</time>
      </trkpt>
      <trkpt lat="45.82404" lon="4.80404">
        <ele>416.79998779297</ele>
        <time>2011-11-20T09:15:23.000Z</time>
      </trkpt>
      <trkpt lat="45.82411" lon="4.80394">
        <ele>417.39999389648</ele>
        <time>2011-11-20T09:15:28.000Z</time>
      </trkpt>
      <trkpt lat="45.82417" lon="4.80389">
        <ele>418.20001220703</ele>
        <time>2011-11-20T09:15:31.000Z</time>
      </trkpt>
      <trkpt lat="45.82421" lon="4.80382">
        <ele>418.60000610352</ele>
        <time>2011-11-20T09:15:34.000Z</time>
      </trkpt>
      <trkpt lat="45.82432" lon="4.80372">
        <ele>420</ele>
        <time>2011-11-20T09:15:40.000Z</time>
      </trkpt>
      <trkpt lat="45.82444" lon="4.80363">
        <ele>422.20001220703</ele>
        <time>2011-11-20T09:15:46.000Z</time>
      </trkpt>
      <trkpt lat="45.82448" lon="4.80359">
        <ele>422.60000610352</ele>
        <time>2011-11-20T09:15:48.000Z</time>
      </trkpt>
      <trkpt lat="45.82452" lon="4.80355">
        <ele>423.20001220703</ele>
        <time>2011-11-20T09:15:50.000Z</time>
      </trkpt>
      <trkpt lat="45.82461" lon="4.80348">
        <ele>424.79998779297</ele>
        <time>2011-11-20T09:15:55.000Z</time>
      </trkpt>
      <trkpt lat="45.82465" lon="4.80346">
        <ele>425.60000610352</ele>
        <time>2011-11-20T09:15:57.000Z</time>
      </trkpt>
      <trkpt lat="45.82469" lon="4.80343">
        <ele>426.39999389648</ele>
        <time>2011-11-20T09:15:59.000Z</time>
      </trkpt>
      <trkpt lat="45.82483" lon="4.80333">
        <ele>428.79998779297</ele>
        <time>2011-11-20T09:16:06.000Z</time>
      </trkpt>
      <trkpt lat="45.82493" lon="4.80325">
        <ele>430.20001220703</ele>
        <time>2011-11-20T09:16:11.000Z</time>
      </trkpt>
      <trkpt lat="45.825" lon="4.80322">
        <ele>431.60000610352</ele>
        <time>2011-11-20T09:16:15.000Z</time>
      </trkpt>
      <trkpt lat="45.82504" lon="4.8032">
        <ele>432</ele>
        <time>2011-11-20T09:16:17.000Z</time>
      </trkpt>
      <trkpt lat="45.82513" lon="4.80313">
        <ele>433.20001220703</ele>
        <time>2011-11-20T09:16:22.000Z</time>
      </trkpt>
      <trkpt lat="45.82519" lon="4.80309">
        <ele>434</ele>
        <time>2011-11-20T09:16:25.000Z</time>
      </trkpt>
      <trkpt lat="45.82523" lon="4.80305">
        <ele>434.60000610352</ele>
        <time>2011-11-20T09:16:28.000Z</time>
      </trkpt>
      <trkpt lat="45.82531" lon="4.80298">
        <ele>435.60000610352</ele>
        <time>2011-11-20T09:16:33.000Z</time>
      </trkpt>
      <trkpt lat="45.82536" lon="4.80294">
        <ele>436.39999389648</ele>
        <time>2011-11-20T09:16:36.000Z</time>
      </trkpt>
      <trkpt lat="45.82537" lon="4.80292">
        <ele>436.60000610352</ele>
        <time>2011-11-20T09:16:37.000Z</time>
      </trkpt>
      <trkpt lat="45.82538" lon="4.80291">
        <ele>436.79998779297</ele>
        <time>2011-11-20T09:16:38.000Z</time>
      </trkpt>
      <trkpt lat="45.82541" lon="4.80288">
        <ele>437.39999389648</ele>
        <time>2011-11-20T09:16:40.000Z</time>
      </trkpt>
      <trkpt lat="45.82543" lon="4.80287">
        <ele>437.60000610352</ele>
        <time>2011-11-20T09:16:41.000Z</time>
      </trkpt>
      <trkpt lat="45.82545" lon="4.80285">
        <ele>438</ele>
        <time>2011-11-20T09:16:43.000Z</time>
      </trkpt>
      <trkpt lat="45.82548" lon="4.80282">
        <ele>438.39999389648</ele>
        <time>2011-11-20T09:16:46.000Z</time>
      </trkpt>
      <trkpt lat="45.82552" lon="4.80279">
        <ele>439.39999389648</ele>
        <time>2011-11-20T09:16:49.000Z</time>
      </trkpt>
      <trkpt lat="45.82555" lon="4.80276">
        <ele>440</ele>
        <time>2011-11-20T09:16:52.000Z</time>
      </trkpt>
      <trkpt lat="45.82561" lon="4.80271">
        <ele>441.20001220703</ele>
        <time>2011-11-20T09:16:57.000Z</time>
      </trkpt>
      <trkpt lat="45.82564" lon="4.80267">
        <ele>441.79998779297</ele>
        <time>2011-11-20T09:17:00.000Z</time>
      </trkpt>
      <trkpt lat="45.82567" lon="4.80265">
        <ele>442.60000610352</ele>
        <time>2011-11-20T09:17:03.000Z</time>
      </trkpt>
      <trkpt lat="45.82568" lon="4.80264">
        <ele>443</ele>
        <time>2011-11-20T09:17:05.000Z</time>
      </trkpt>
      <trkpt lat="45.82572" lon="4.80262">
        <ele>444</ele>
        <time>2011-11-20T09:17:08.000Z</time>
      </trkpt>
      <trkpt lat="45.82575" lon="4.8026">
        <ele>444.60000610352</ele>
        <time>2011-11-20T09:17:10.000Z</time>
      </trkpt>
      <trkpt lat="45.82586" lon="4.80252">
        <ele>447.60000610352</ele>
        <time>2011-11-20T09:17:16.000Z</time>
      </trkpt>
      <trkpt lat="45.82589" lon="4.8025">
        <ele>448.60000610352</ele>
        <time>2011-11-20T09:17:18.000Z</time>
      </trkpt>
      <trkpt lat="45.82594" lon="4.80244">
        <ele>449</ele>
        <time>2011-11-20T09:17:21.000Z</time>
      </trkpt>
      <trkpt lat="45.82605" lon="4.80237">
        <ele>451.20001220703</ele>
        <time>2011-11-20T09:17:27.000Z</time>
      </trkpt>
      <trkpt lat="45.82615" lon="4.80229">
        <ele>453.20001220703</ele>
        <time>2011-11-20T09:17:33.000Z</time>
      </trkpt>
      <trkpt lat="45.82622" lon="4.80222">
        <ele>454.60000610352</ele>
        <time>2011-11-20T09:17:37.000Z</time>
      </trkpt>
      <trkpt lat="45.82624" lon="4.80221">
        <ele>455</ele>
        <time>2011-11-20T09:17:38.000Z</time>
      </trkpt>
      <trkpt lat="45.82633" lon="4.80216">
        <ele>457.39999389648</ele>
        <time>2011-11-20T09:17:43.000Z</time>
      </trkpt>
      <trkpt lat="45.8264" lon="4.8021">
        <ele>459</ele>
        <time>2011-11-20T09:17:47.000Z</time>
      </trkpt>
      <trkpt lat="45.82651" lon="4.802">
        <ele>461.79998779297</ele>
        <time>2011-11-20T09:17:53.000Z</time>
      </trkpt>
      <trkpt lat="45.82658" lon="4.80194">
        <ele>463.39999389648</ele>
        <time>2011-11-20T09:17:57.000Z</time>
      </trkpt>
      <trkpt lat="45.8266" lon="4.80191">
        <ele>464</ele>
        <time>2011-11-20T09:17:59.000Z</time>
      </trkpt>
      <trkpt lat="45.82665" lon="4.80186">
        <ele>465.39999389648</ele>
        <time>2011-11-20T09:18:04.000Z</time>
      </trkpt>
      <trkpt lat="45.82665" lon="4.80185">
        <ele>465.39999389648</ele>
        <time>2011-11-20T09:18:05.000Z</time>
      </trkpt>
      <trkpt lat="45.82673" lon="4.80177">
        <ele>467.20001220703</ele>
        <time>2011-11-20T09:18:12.000Z</time>
      </trkpt>
      <trkpt lat="45.82675" lon="4.80176">
        <ele>467.60000610352</ele>
        <time>2011-11-20T09:18:13.000Z</time>
      </trkpt>
      <trkpt lat="45.8268" lon="4.80171">
        <ele>468.79998779297</ele>
        <time>2011-11-20T09:18:18.000Z</time>
      </trkpt>
      <trkpt lat="45.82686" lon="4.80169">
        <ele>470.20001220703</ele>
        <time>2011-11-20T09:18:23.000Z</time>
      </trkpt>
      <trkpt lat="45.82686" lon="4.80168">
        <ele>470.39999389648</ele>
        <time>2011-11-20T09:18:24.000Z</time>
      </trkpt>
      <trkpt lat="45.82694" lon="4.80165">
        <ele>472.20001220703</ele>
        <time>2011-11-20T09:18:31.000Z</time>
      </trkpt>
      <trkpt lat="45.82695" lon="4.80164">
        <ele>472.20001220703</ele>
        <time>2011-11-20T09:18:32.000Z</time>
      </trkpt>
      <trkpt lat="45.82707" lon="4.8016">
        <ele>474.79998779297</ele>
        <time>2011-11-20T09:18:40.000Z</time>
      </trkpt>
      <trkpt lat="45.82712" lon="4.80155">
        <ele>475.79998779297</ele>
        <time>2011-11-20T09:18:44.000Z</time>
      </trkpt>
      <trkpt lat="45.82717" lon="4.80153">
        <ele>476.79998779297</ele>
        <time>2011-11-20T09:18:47.000Z</time>
      </trkpt>
      <trkpt lat="45.82729" lon="4.80143">
        <ele>479.20001220703</ele>
        <time>2011-11-20T09:18:54.000Z</time>
      </trkpt>
      <trkpt lat="45.82742" lon="4.80132">
        <ele>481.79998779297</ele>
        <time>2011-11-20T09:19:01.000Z</time>
      </trkpt>
      <trkpt lat="45.82745" lon="4.8013">
        <ele>482.20001220703</ele>
        <time>2011-11-20T09:19:03.000Z</time>
      </trkpt>
      <trkpt lat="45.82746" lon="4.80128">
        <ele>482.39999389648</ele>
        <time>2011-11-20T09:19:04.000Z</time>
      </trkpt>
      <trkpt lat="45.82749" lon="4.80123">
        <ele>483</ele>
        <time>2011-11-20T09:19:06.000Z</time>
      </trkpt>
      <trkpt lat="45.82756" lon="4.80114">
        <ele>483.79998779297</ele>
        <time>2011-11-20T09:19:11.000Z</time>
      </trkpt>
      <trkpt lat="45.82761" lon="4.80106">
        <ele>484</ele>
        <time>2011-11-20T09:19:14.000Z</time>
      </trkpt>
      <trkpt lat="45.82764" lon="4.80101">
        <ele>484.39999389648</ele>
        <time>2011-11-20T09:19:17.000Z</time>
      </trkpt>
      <trkpt lat="45.82767" lon="4.80097">
        <ele>485</ele>
        <time>2011-11-20T09:19:19.000Z</time>
      </trkpt>
      <trkpt lat="45.82769" lon="4.80093">
        <ele>485.20001220703</ele>
        <time>2011-11-20T09:19:21.000Z</time>
      </trkpt>
      <trkpt lat="45.82774" lon="4.80084">
        <ele>486</ele>
        <time>2011-11-20T09:19:25.000Z</time>
      </trkpt>
      <trkpt lat="45.82776" lon="4.8008">
        <ele>485.79998779297</ele>
        <time>2011-11-20T09:19:27.000Z</time>
      </trkpt>
      <trkpt lat="45.82787" lon="4.80071">
        <ele>487.20001220703</ele>
        <time>2011-11-20T09:19:34.000Z</time>
      </trkpt>
      <trkpt lat="45.82791" lon="4.80067">
        <ele>488</ele>
        <time>2011-11-20T09:19:39.000Z</time>
      </trkpt>
      <trkpt lat="45.82793" lon="4.80066">
        <ele>488.20001220703</ele>
        <time>2011-11-20T09:19:41.000Z</time>
      </trkpt>
      <trkpt lat="45.82795" lon="4.80064">
        <ele>488.60000610352</ele>
        <time>2011-11-20T09:19:44.000Z</time>
      </trkpt>
      <trkpt lat="45.82797" lon="4.80062">
        <ele>488.79998779297</ele>
        <time>2011-11-20T09:19:45.000Z</time>
      </trkpt>
      <trkpt lat="45.82805" lon="4.80057">
        <ele>490.60000610352</ele>
        <time>2011-11-20T09:19:49.000Z</time>
      </trkpt>
      <trkpt lat="45.82807" lon="4.80056">
        <ele>490.79998779297</ele>
        <time>2011-11-20T09:19:50.000Z</time>
      </trkpt>
      <trkpt lat="45.82808" lon="4.80056">
        <ele>491.39999389648</ele>
        <time>2011-11-20T09:19:51.000Z</time>
      </trkpt>
      <trkpt lat="45.82812" lon="4.80054">
        <ele>492.20001220703</ele>
        <time>2011-11-20T09:19:53.000Z</time>
      </trkpt>
      <trkpt lat="45.82816" lon="4.8005">
        <ele>493</ele>
        <time>2011-11-20T09:19:55.000Z</time>
      </trkpt>
      <trkpt lat="45.82824" lon="4.80039">
        <ele>494</ele>
        <time>2011-11-20T09:20:00.000Z</time>
      </trkpt>
      <trkpt lat="45.82825" lon="4.80037">
        <ele>494</ele>
        <time>2011-11-20T09:20:01.000Z</time>
      </trkpt>
      <trkpt lat="45.82834" lon="4.80029">
        <ele>495.79998779297</ele>
        <time>2011-11-20T09:20:06.000Z</time>
      </trkpt>
      <trkpt lat="45.82835" lon="4.80028">
        <ele>496</ele>
        <time>2011-11-20T09:20:07.000Z</time>
      </trkpt>
      <trkpt lat="45.8284" lon="4.80025">
        <ele>496.79998779297</ele>
        <time>2011-11-20T09:20:10.000Z</time>
      </trkpt>
      <trkpt lat="45.82841" lon="4.80024">
        <ele>496.79998779297</ele>
        <time>2011-11-20T09:20:11.000Z</time>
      </trkpt>
      <trkpt lat="45.82842" lon="4.80023">
        <ele>496.79998779297</ele>
        <time>2011-11-20T09:20:12.000Z</time>
      </trkpt>
      <trkpt lat="45.82843" lon="4.80021">
        <ele>496.79998779297</ele>
        <time>2011-11-20T09:20:14.000Z</time>
      </trkpt>
      <trkpt lat="45.82843" lon="4.80016">
        <ele>496.39999389648</ele>
        <time>2011-11-20T09:20:17.000Z</time>
      </trkpt>
      <trkpt lat="45.82843" lon="4.80006">
        <ele>495</ele>
        <time>2011-11-20T09:20:28.000Z</time>
      </trkpt>
      <trkpt lat="45.82839" lon="4.79995">
        <ele>492.20001220703</ele>
        <time>2011-11-20T09:20:40.000Z</time>
      </trkpt>
      <trkpt lat="45.82838" lon="4.79994">
        <ele>491.79998779297</ele>
        <time>2011-11-20T09:20:41.000Z</time>
      </trkpt>
      <trkpt lat="45.82835" lon="4.79981">
        <ele>487.79998779297</ele>
        <time>2011-11-20T09:20:46.000Z</time>
      </trkpt>
      <trkpt lat="45.82833" lon="4.79979">
        <ele>486.79998779297</ele>
        <time>2011-11-20T09:20:47.000Z</time>
      </trkpt>
      <trkpt lat="45.82829" lon="4.79976">
        <ele>484.60000610352</ele>
        <time>2011-11-20T09:20:53.000Z</time>
      </trkpt>
      <trkpt lat="45.82835" lon="4.79974">
        <ele>486.20001220703</ele>
        <time>2011-11-20T09:21:31.000Z</time>
      </trkpt>
      <trkpt lat="45.8284" lon="4.79975">
        <ele>487.60000610352</ele>
        <time>2011-11-20T09:21:45.000Z</time>
      </trkpt>
      <trkpt lat="45.82845" lon="4.79979">
        <ele>490</ele>
        <time>2011-11-20T09:21:53.000Z</time>
      </trkpt>
      <trkpt lat="45.82848" lon="4.79982">
        <ele>491.39999389648</ele>
        <time>2011-11-20T09:21:59.000Z</time>
      </trkpt>
      <trkpt lat="45.82853" lon="4.79984">
        <ele>493.39999389648</ele>
        <time>2011-11-20T09:22:04.000Z</time>
      </trkpt>
      <trkpt lat="45.82854" lon="4.79985">
        <ele>493.79998779297</ele>
        <time>2011-11-20T09:22:05.000Z</time>
      </trkpt>
      <trkpt lat="45.82855" lon="4.79985">
        <ele>494</ele>
        <time>2011-11-20T09:22:06.000Z</time>
      </trkpt>
      <trkpt lat="45.82859" lon="4.79986">
        <ele>495.60000610352</ele>
        <time>2011-11-20T09:22:11.000Z</time>
      </trkpt>
      <trkpt lat="45.82864" lon="4.79989">
        <ele>497.39999389648</ele>
        <time>2011-11-20T09:22:19.000Z</time>
      </trkpt>
      <trkpt lat="45.82871" lon="4.79987">
        <ele>498.60000610352</ele>
        <time>2011-11-20T09:22:27.000Z</time>
      </trkpt>
      <trkpt lat="45.82871" lon="4.79986">
        <ele>498.79998779297</ele>
        <time>2011-11-20T09:22:28.000Z</time>
      </trkpt>
      <trkpt lat="45.8288" lon="4.79984">
        <ele>500.60000610352</ele>
        <time>2011-11-20T09:22:35.000Z</time>
      </trkpt>
      <trkpt lat="45.82882" lon="4.79984">
        <ele>501</ele>
        <time>2011-11-20T09:22:37.000Z</time>
      </trkpt>
      <trkpt lat="45.82886" lon="4.79983">
        <ele>502</ele>
        <time>2011-11-20T09:22:40.000Z</time>
      </trkpt>
      <trkpt lat="45.82888" lon="4.79982">
        <ele>502.20001220703</ele>
        <time>2011-11-20T09:22:41.000Z</time>
      </trkpt>
      <trkpt lat="45.8289" lon="4.79981">
        <ele>502.79998779297</ele>
        <time>2011-11-20T09:22:43.000Z</time>
      </trkpt>
      <trkpt lat="45.82894" lon="4.7998">
        <ele>503.39999389648</ele>
        <time>2011-11-20T09:22:45.000Z</time>
      </trkpt>
      <trkpt lat="45.82896" lon="4.79979">
        <ele>503.79998779297</ele>
        <time>2011-11-20T09:22:46.000Z</time>
      </trkpt>
      <trkpt lat="45.82904" lon="4.79973">
        <ele>504.60000610352</ele>
        <time>2011-11-20T09:22:49.000Z</time>
      </trkpt>
      <trkpt lat="45.82906" lon="4.79973">
        <ele>505.20001220703</ele>
        <time>2011-11-20T09:22:50.000Z</time>
      </trkpt>
      <trkpt lat="45.82916" lon="4.79972">
        <ele>507.79998779297</ele>
        <time>2011-11-20T09:22:55.000Z</time>
      </trkpt>
      <trkpt lat="45.82925" lon="4.79969">
        <ele>508.20001220703</ele>
        <time>2011-11-20T09:23:00.000Z</time>
      </trkpt>
      <trkpt lat="45.82932" lon="4.79963">
        <ele>508.39999389648</ele>
        <time>2011-11-20T09:23:04.000Z</time>
      </trkpt>
      <trkpt lat="45.8294" lon="4.79961">
        <ele>509.20001220703</ele>
        <time>2011-11-20T09:23:08.000Z</time>
      </trkpt>
      <trkpt lat="45.82942" lon="4.7996">
        <ele>509.39999389648</ele>
        <time>2011-11-20T09:23:09.000Z</time>
      </trkpt>
      <trkpt lat="45.82946" lon="4.79958">
        <ele>509.39999389648</ele>
        <time>2011-11-20T09:23:11.000Z</time>
      </trkpt>
      <trkpt lat="45.82948" lon="4.79957">
        <ele>509.39999389648</ele>
        <time>2011-11-20T09:23:12.000Z</time>
      </trkpt>
      <trkpt lat="45.82959" lon="4.79954">
        <ele>510.79998779297</ele>
        <time>2011-11-20T09:23:19.000Z</time>
      </trkpt>
      <trkpt lat="45.82962" lon="4.79952">
        <ele>510.79998779297</ele>
        <time>2011-11-20T09:23:21.000Z</time>
      </trkpt>
      <trkpt lat="45.82967" lon="4.79951">
        <ele>511.60000610352</ele>
        <time>2011-11-20T09:23:24.000Z</time>
      </trkpt>
      <trkpt lat="45.82971" lon="4.7995">
        <ele>512</ele>
        <time>2011-11-20T09:23:27.000Z</time>
      </trkpt>
      <trkpt lat="45.82974" lon="4.79947">
        <ele>512</ele>
        <time>2011-11-20T09:23:29.000Z</time>
      </trkpt>
      <trkpt lat="45.82979" lon="4.79942">
        <ele>512</ele>
        <time>2011-11-20T09:23:32.000Z</time>
      </trkpt>
      <trkpt lat="45.82984" lon="4.79938">
        <ele>512.20001220703</ele>
        <time>2011-11-20T09:23:35.000Z</time>
      </trkpt>
      <trkpt lat="45.82985" lon="4.79937">
        <ele>512.40002441406</ele>
        <time>2011-11-20T09:23:36.000Z</time>
      </trkpt>
      <trkpt lat="45.8299" lon="4.79936">
        <ele>513</ele>
        <time>2011-11-20T09:23:39.000Z</time>
      </trkpt>
      <trkpt lat="45.82996" lon="4.79933">
        <ele>513.40002441406</ele>
        <time>2011-11-20T09:23:42.000Z</time>
      </trkpt>
      <trkpt lat="45.83" lon="4.79929">
        <ele>513.59997558594</ele>
        <time>2011-11-20T09:23:44.000Z</time>
      </trkpt>
      <trkpt lat="45.83006" lon="4.79924">
        <ele>513.40002441406</ele>
        <time>2011-11-20T09:23:47.000Z</time>
      </trkpt>
      <trkpt lat="45.83009" lon="4.79919">
        <ele>513.20001220703</ele>
        <time>2011-11-20T09:23:49.000Z</time>
      </trkpt>
      <trkpt lat="45.83011" lon="4.79918">
        <ele>513.20001220703</ele>
        <time>2011-11-20T09:23:50.000Z</time>
      </trkpt>
      <trkpt lat="45.83013" lon="4.79918">
        <ele>513.40002441406</ele>
        <time>2011-11-20T09:23:51.000Z</time>
      </trkpt>
      <trkpt lat="45.83017" lon="4.79914">
        <ele>513</ele>
        <time>2011-11-20T09:23:53.000Z</time>
      </trkpt>
      <trkpt lat="45.83026" lon="4.79913">
        <ele>513.20001220703</ele>
        <time>2011-11-20T09:23:57.000Z</time>
      </trkpt>
      <trkpt lat="45.83029" lon="4.7991">
        <ele>512.79998779297</ele>
        <time>2011-11-20T09:23:59.000Z</time>
      </trkpt>
      <trkpt lat="45.83033" lon="4.79908">
        <ele>512.79998779297</ele>
        <time>2011-11-20T09:24:01.000Z</time>
      </trkpt>
      <trkpt lat="45.83041" lon="4.79903">
        <ele>512.20001220703</ele>
        <time>2011-11-20T09:24:06.000Z</time>
      </trkpt>
      <trkpt lat="45.83046" lon="4.79903">
        <ele>512.79998779297</ele>
        <time>2011-11-20T09:24:09.000Z</time>
      </trkpt>
      <trkpt lat="45.83048" lon="4.79904">
        <ele>513.20001220703</ele>
        <time>2011-11-20T09:24:10.000Z</time>
      </trkpt>
      <trkpt lat="45.83057" lon="4.79902">
        <ele>513.40002441406</ele>
        <time>2011-11-20T09:24:14.000Z</time>
      </trkpt>
      <trkpt lat="45.8306" lon="4.79901">
        <ele>513.40002441406</ele>
        <time>2011-11-20T09:24:15.000Z</time>
      </trkpt>
      <trkpt lat="45.83064" lon="4.79901">
        <ele>513.59997558594</ele>
        <time>2011-11-20T09:24:17.000Z</time>
      </trkpt>
      <trkpt lat="45.83066" lon="4.79899">
        <ele>513.40002441406</ele>
        <time>2011-11-20T09:24:18.000Z</time>
      </trkpt>
      <trkpt lat="45.83067" lon="4.79898">
        <ele>513.20001220703</ele>
        <time>2011-11-20T09:24:19.000Z</time>
      </trkpt>
      <trkpt lat="45.83072" lon="4.79898">
        <ele>513.79998779297</ele>
        <time>2011-11-20T09:24:22.000Z</time>
      </trkpt>
      <trkpt lat="45.83073" lon="4.79898">
        <ele>513.79998779297</ele>
        <time>2011-11-20T09:24:23.000Z</time>
      </trkpt>
      <trkpt lat="45.83077" lon="4.79897">
        <ele>514</ele>
        <time>2011-11-20T09:24:25.000Z</time>
      </trkpt>
      <trkpt lat="45.83081" lon="4.79897">
        <ele>514.20001220703</ele>
        <time>2011-11-20T09:24:27.000Z</time>
      </trkpt>
      <trkpt lat="45.83082" lon="4.79897">
        <ele>514.40002441406</ele>
        <time>2011-11-20T09:24:29.000Z</time>
      </trkpt>
      <trkpt lat="45.83084" lon="4.79897">
        <ele>514.40002441406</ele>
        <time>2011-11-20T09:24:30.000Z</time>
      </trkpt>
      <trkpt lat="45.83086" lon="4.79897">
        <ele>514.40002441406</ele>
        <time>2011-11-20T09:24:31.000Z</time>
      </trkpt>
      <trkpt lat="45.83095" lon="4.79897">
        <ele>514.20001220703</ele>
        <time>2011-11-20T09:24:35.000Z</time>
      </trkpt>
      <trkpt lat="45.83103" lon="4.79897">
        <ele>514</ele>
        <time>2011-11-20T09:24:39.000Z</time>
      </trkpt>
      <trkpt lat="45.83106" lon="4.79897">
        <ele>514</ele>
        <time>2011-11-20T09:24:41.000Z</time>
      </trkpt>
      <trkpt lat="45.83108" lon="4.79898">
        <ele>514</ele>
        <time>2011-11-20T09:24:43.000Z</time>
      </trkpt>
      <trkpt lat="45.83119" lon="4.799">
        <ele>514.40002441406</ele>
        <time>2011-11-20T09:24:48.000Z</time>
      </trkpt>
      <trkpt lat="45.83123" lon="4.79901">
        <ele>514.59997558594</ele>
        <time>2011-11-20T09:24:50.000Z</time>
      </trkpt>
      <trkpt lat="45.83128" lon="4.79901">
        <ele>514.40002441406</ele>
        <time>2011-11-20T09:24:53.000Z</time>
      </trkpt>
      <trkpt lat="45.8313" lon="4.799">
        <ele>514</ele>
        <time>2011-11-20T09:24:54.000Z</time>
      </trkpt>
      <trkpt lat="45.83138" lon="4.79902">
        <ele>514.20001220703</ele>
        <time>2011-11-20T09:24:59.000Z</time>
      </trkpt>
      <trkpt lat="45.8314" lon="4.79904">
        <ele>514.79998779297</ele>
        <time>2011-11-20T09:25:01.000Z</time>
      </trkpt>
      <trkpt lat="45.83141" lon="4.79906">
        <ele>515.20001220703</ele>
        <time>2011-11-20T09:25:02.000Z</time>
      </trkpt>
      <trkpt lat="45.83145" lon="4.79907">
        <ele>515.20001220703</ele>
        <time>2011-11-20T09:25:04.000Z</time>
      </trkpt>
      <trkpt lat="45.83154" lon="4.79907">
        <ele>515.20001220703</ele>
        <time>2011-11-20T09:25:08.000Z</time>
      </trkpt>
      <trkpt lat="45.83158" lon="4.79911">
        <ele>515.79998779297</ele>
        <time>2011-11-20T09:25:10.000Z</time>
      </trkpt>
      <trkpt lat="45.8316" lon="4.79913">
        <ele>516.20001220703</ele>
        <time>2011-11-20T09:25:12.000Z</time>
      </trkpt>
      <trkpt lat="45.83167" lon="4.79924">
        <ele>517</ele>
        <time>2011-11-20T09:25:18.000Z</time>
      </trkpt>
      <trkpt lat="45.83171" lon="4.7993">
        <ele>516.40002441406</ele>
        <time>2011-11-20T09:25:22.000Z</time>
      </trkpt>
      <trkpt lat="45.83173" lon="4.79935">
        <ele>516.20001220703</ele>
        <time>2011-11-20T09:25:24.000Z</time>
      </trkpt>
      <trkpt lat="45.83177" lon="4.79944">
        <ele>515.79998779297</ele>
        <time>2011-11-20T09:25:29.000Z</time>
      </trkpt>
      <trkpt lat="45.83181" lon="4.79949">
        <ele>515.20001220703</ele>
        <time>2011-11-20T09:25:32.000Z</time>
      </trkpt>
      <trkpt lat="45.83184" lon="4.79958">
        <ele>515</ele>
        <time>2011-11-20T09:25:35.000Z</time>
      </trkpt>
      <trkpt lat="45.83185" lon="4.79966">
        <ele>514.79998779297</ele>
        <time>2011-11-20T09:25:38.000Z</time>
      </trkpt>
      <trkpt lat="45.83186" lon="4.79971">
        <ele>514.59997558594</ele>
        <time>2011-11-20T09:25:41.000Z</time>
      </trkpt>
      <trkpt lat="45.83187" lon="4.79972">
        <ele>514.59997558594</ele>
        <time>2011-11-20T09:25:42.000Z</time>
      </trkpt>
      <trkpt lat="45.83188" lon="4.7997">
        <ele>514.20001220703</ele>
        <time>2011-11-20T09:25:46.000Z</time>
      </trkpt>
      <trkpt lat="45.83188" lon="4.7997">
        <ele>514.20001220703</ele>
        <time>2011-11-20T09:25:47.000Z</time>
      </trkpt>
      <trkpt lat="45.83188" lon="4.79982">
        <ele>514.59997558594</ele>
        <time>2011-11-20T09:26:14.000Z</time>
      </trkpt>
      <trkpt lat="45.8319" lon="4.79978">
        <ele>514</ele>
        <time>2011-11-20T09:26:18.000Z</time>
      </trkpt>
      <trkpt lat="45.83191" lon="4.79976">
        <ele>513.79998779297</ele>
        <time>2011-11-20T09:26:21.000Z</time>
      </trkpt>
      <trkpt lat="45.83196" lon="4.79975">
        <ele>513</ele>
        <time>2011-11-20T09:26:27.000Z</time>
      </trkpt>
      <trkpt lat="45.832" lon="4.79976">
        <ele>512.20001220703</ele>
        <time>2011-11-20T09:26:36.000Z</time>
      </trkpt>
      <trkpt lat="45.83204" lon="4.79974">
        <ele>511.39999389648</ele>
        <time>2011-11-20T09:26:41.000Z</time>
      </trkpt>
      <trkpt lat="45.83207" lon="4.79972">
        <ele>511</ele>
        <time>2011-11-20T09:26:43.000Z</time>
      </trkpt>
      <trkpt lat="45.83209" lon="4.79968">
        <ele>510.60000610352</ele>
        <time>2011-11-20T09:26:45.000Z</time>
      </trkpt>
      <trkpt lat="45.83211" lon="4.79967">
        <ele>510.20001220703</ele>
        <time>2011-11-20T09:26:46.000Z</time>
      </trkpt>
      <trkpt lat="45.83217" lon="4.79969">
        <ele>509.20001220703</ele>
        <time>2011-11-20T09:26:49.000Z</time>
      </trkpt>
      <trkpt lat="45.83219" lon="4.79969">
        <ele>508.79998779297</ele>
        <time>2011-11-20T09:26:50.000Z</time>
      </trkpt>
      <trkpt lat="45.8322" lon="4.79969">
        <ele>508.60000610352</ele>
        <time>2011-11-20T09:26:51.000Z</time>
      </trkpt>
      <trkpt lat="45.83223" lon="4.79971">
        <ele>508</ele>
        <time>2011-11-20T09:26:53.000Z</time>
      </trkpt>
      <trkpt lat="45.83227" lon="4.79975">
        <ele>507.39999389648</ele>
        <time>2011-11-20T09:26:55.000Z</time>
      </trkpt>
      <trkpt lat="45.8323" lon="4.79978">
        <ele>506.79998779297</ele>
        <time>2011-11-20T09:26:57.000Z</time>
      </trkpt>
      <trkpt lat="45.83234" lon="4.79986">
        <ele>506</ele>
        <time>2011-11-20T09:27:00.000Z</time>
      </trkpt>
      <trkpt lat="45.83234" lon="4.79989">
        <ele>506</ele>
        <time>2011-11-20T09:27:01.000Z</time>
      </trkpt>
      <trkpt lat="45.83235" lon="4.79991">
        <ele>505.79998779297</ele>
        <time>2011-11-20T09:27:02.000Z</time>
      </trkpt>
      <trkpt lat="45.83239" lon="4.79995">
        <ele>505</ele>
        <time>2011-11-20T09:27:05.000Z</time>
      </trkpt>
      <trkpt lat="45.83247" lon="4.79997">
        <ele>503.60000610352</ele>
        <time>2011-11-20T09:27:09.000Z</time>
      </trkpt>
      <trkpt lat="45.83249" lon="4.79995">
        <ele>503.20001220703</ele>
        <time>2011-11-20T09:27:10.000Z</time>
      </trkpt>
      <trkpt lat="45.8325" lon="4.79993">
        <ele>503</ele>
        <time>2011-11-20T09:27:11.000Z</time>
      </trkpt>
      <trkpt lat="45.83252" lon="4.7999">
        <ele>503</ele>
        <time>2011-11-20T09:27:12.000Z</time>
      </trkpt>
      <trkpt lat="45.83255" lon="4.79986">
        <ele>502.79998779297</ele>
        <time>2011-11-20T09:27:14.000Z</time>
      </trkpt>
      <trkpt lat="45.83265" lon="4.79979">
        <ele>502.60000610352</ele>
        <time>2011-11-20T09:27:19.000Z</time>
      </trkpt>
      <trkpt lat="45.8327" lon="4.79976">
        <ele>502.39999389648</ele>
        <time>2011-11-20T09:27:21.000Z</time>
      </trkpt>
      <trkpt lat="45.83275" lon="4.79974">
        <ele>502.20001220703</ele>
        <time>2011-11-20T09:27:23.000Z</time>
      </trkpt>
      <trkpt lat="45.83278" lon="4.79974">
        <ele>502.20001220703</ele>
        <time>2011-11-20T09:27:24.000Z</time>
      </trkpt>
      <trkpt lat="45.83283" lon="4.79975">
        <ele>502</ele>
        <time>2011-11-20T09:27:26.000Z</time>
      </trkpt>
      <trkpt lat="45.83285" lon="4.79975">
        <ele>501.79998779297</ele>
        <time>2011-11-20T09:27:27.000Z</time>
      </trkpt>
      <trkpt lat="45.83296" lon="4.79971">
        <ele>501.39999389648</ele>
        <time>2011-11-20T09:27:32.000Z</time>
      </trkpt>
      <trkpt lat="45.83297" lon="4.79969">
        <ele>501.39999389648</ele>
        <time>2011-11-20T09:27:33.000Z</time>
      </trkpt>
      <trkpt lat="45.83302" lon="4.79967">
        <ele>501</ele>
        <time>2011-11-20T09:27:36.000Z</time>
      </trkpt>
      <trkpt lat="45.83304" lon="4.79969">
        <ele>501</ele>
        <time>2011-11-20T09:27:38.000Z</time>
      </trkpt>
      <trkpt lat="45.83309" lon="4.7997">
        <ele>500.79998779297</ele>
        <time>2011-11-20T09:27:40.000Z</time>
      </trkpt>
      <trkpt lat="45.83316" lon="4.7997">
        <ele>500.60000610352</ele>
        <time>2011-11-20T09:27:42.000Z</time>
      </trkpt>
      <trkpt lat="45.83318" lon="4.79969">
        <ele>500.39999389648</ele>
        <time>2011-11-20T09:27:43.000Z</time>
      </trkpt>
      <trkpt lat="45.83329" lon="4.79966">
        <ele>499.79998779297</ele>
        <time>2011-11-20T09:27:47.000Z</time>
      </trkpt>
      <trkpt lat="45.83338" lon="4.79963">
        <ele>499.60000610352</ele>
        <time>2011-11-20T09:27:51.000Z</time>
      </trkpt>
      <trkpt lat="45.83343" lon="4.79962">
        <ele>499.60000610352</ele>
        <time>2011-11-20T09:27:53.000Z</time>
      </trkpt>
      <trkpt lat="45.83354" lon="4.79959">
        <ele>499.79998779297</ele>
        <time>2011-11-20T09:27:58.000Z</time>
      </trkpt>
      <trkpt lat="45.83357" lon="4.79958">
        <ele>499.79998779297</ele>
        <time>2011-11-20T09:27:59.000Z</time>
      </trkpt>
      <trkpt lat="45.83367" lon="4.79955">
        <ele>500</ele>
        <time>2011-11-20T09:28:03.000Z</time>
      </trkpt>
      <trkpt lat="45.83376" lon="4.79951">
        <ele>500.20001220703</ele>
        <time>2011-11-20T09:28:07.000Z</time>
      </trkpt>
      <trkpt lat="45.83378" lon="4.79949">
        <ele>500.20001220703</ele>
        <time>2011-11-20T09:28:08.000Z</time>
      </trkpt>
      <trkpt lat="45.8339" lon="4.79943">
        <ele>500.39999389648</ele>
        <time>2011-11-20T09:28:13.000Z</time>
      </trkpt>
      <trkpt lat="45.83394" lon="4.79941">
        <ele>500.60000610352</ele>
        <time>2011-11-20T09:28:15.000Z</time>
      </trkpt>
      <trkpt lat="45.83404" lon="4.79939">
        <ele>501</ele>
        <time>2011-11-20T09:28:19.000Z</time>
      </trkpt>
      <trkpt lat="45.83414" lon="4.79934">
        <ele>501.39999389648</ele>
        <time>2011-11-20T09:28:24.000Z</time>
      </trkpt>
      <trkpt lat="45.83416" lon="4.79933">
        <ele>501.39999389648</ele>
        <time>2011-11-20T09:28:25.000Z</time>
      </trkpt>
      <trkpt lat="45.83426" lon="4.79927">
        <ele>502.60000610352</ele>
        <time>2011-11-20T09:28:30.000Z</time>
      </trkpt>
      <trkpt lat="45.83433" lon="4.79925">
        <ele>503.20001220703</ele>
        <time>2011-11-20T09:28:33.000Z</time>
      </trkpt>
      <trkpt lat="45.8344" lon="4.79923">
        <ele>503.79998779297</ele>
        <time>2011-11-20T09:28:36.000Z</time>
      </trkpt>
      <trkpt lat="45.83451" lon="4.7992">
        <ele>505</ele>
        <time>2011-11-20T09:28:41.000Z</time>
      </trkpt>
      <trkpt lat="45.83453" lon="4.79919">
        <ele>505.20001220703</ele>
        <time>2011-11-20T09:28:42.000Z</time>
      </trkpt>
      <trkpt lat="45.83454" lon="4.79918">
        <ele>505.39999389648</ele>
        <time>2011-11-20T09:28:43.000Z</time>
      </trkpt>
      <trkpt lat="45.83458" lon="4.79918">
        <ele>505.79998779297</ele>
        <time>2011-11-20T09:28:47.000Z</time>
      </trkpt>
      <trkpt lat="45.83462" lon="4.79917">
        <ele>506.20001220703</ele>
        <time>2011-11-20T09:28:52.000Z</time>
      </trkpt>
      <trkpt lat="45.83462" lon="4.79916">
        <ele>506.20001220703</ele>
        <time>2011-11-20T09:28:53.000Z</time>
      </trkpt>
      <trkpt lat="45.83463" lon="4.79916">
        <ele>506.20001220703</ele>
        <time>2011-11-20T09:28:54.000Z</time>
      </trkpt>
      <trkpt lat="45.83464" lon="4.79915">
        <ele>506.20001220703</ele>
        <time>2011-11-20T09:29:03.000Z</time>
      </trkpt>
      <trkpt lat="45.83463" lon="4.79912">
        <ele>505.60000610352</ele>
        <time>2011-11-20T09:29:08.000Z</time>
      </trkpt>
      <trkpt lat="45.83463" lon="4.79908">
        <ele>505</ele>
        <time>2011-11-20T09:29:10.000Z</time>
      </trkpt>
      <trkpt lat="45.83463" lon="4.79904">
        <ele>504.20001220703</ele>
        <time>2011-11-20T09:29:12.000Z</time>
      </trkpt>
      <trkpt lat="45.83464" lon="4.79898">
        <ele>503.20001220703</ele>
        <time>2011-11-20T09:29:15.000Z</time>
      </trkpt>
      <trkpt lat="45.83469" lon="4.79884">
        <ele>501.39999389648</ele>
        <time>2011-11-20T09:29:20.000Z</time>
      </trkpt>
      <trkpt lat="45.83469" lon="4.79878">
        <ele>500.39999389648</ele>
        <time>2011-11-20T09:29:22.000Z</time>
      </trkpt>
      <trkpt lat="45.83469" lon="4.79871">
        <ele>499.20001220703</ele>
        <time>2011-11-20T09:29:24.000Z</time>
      </trkpt>
      <trkpt lat="45.8347" lon="4.79857">
        <ele>497</ele>
        <time>2011-11-20T09:29:28.000Z</time>
      </trkpt>
      <trkpt lat="45.8347" lon="4.79849">
        <ele>495.60000610352</ele>
        <time>2011-11-20T09:29:30.000Z</time>
      </trkpt>
      <trkpt lat="45.83471" lon="4.79832">
        <ele>492.79998779297</ele>
        <time>2011-11-20T09:29:34.000Z</time>
      </trkpt>
      <trkpt lat="45.83472" lon="4.79822">
        <ele>491.39999389648</ele>
        <time>2011-11-20T09:29:36.000Z</time>
      </trkpt>
      <trkpt lat="45.83476" lon="4.79806">
        <ele>488.79998779297</ele>
        <time>2011-11-20T09:29:39.000Z</time>
      </trkpt>
      <trkpt lat="45.83477" lon="4.79801">
        <ele>488</ele>
        <time>2011-11-20T09:29:40.000Z</time>
      </trkpt>
      <trkpt lat="45.83485" lon="4.7978">
        <ele>485.20001220703</ele>
        <time>2011-11-20T09:29:45.000Z</time>
      </trkpt>
      <trkpt lat="45.83489" lon="4.7976">
        <ele>481.79998779297</ele>
        <time>2011-11-20T09:29:50.000Z</time>
      </trkpt>
      <trkpt lat="45.83489" lon="4.79755">
        <ele>481</ele>
        <time>2011-11-20T09:29:51.000Z</time>
      </trkpt>
      <trkpt lat="45.83489" lon="4.79746">
        <ele>479.79998779297</ele>
        <time>2011-11-20T09:29:53.000Z</time>
      </trkpt>
      <trkpt lat="45.83491" lon="4.79742">
        <ele>479.79998779297</ele>
        <time>2011-11-20T09:29:54.000Z</time>
      </trkpt>
      <trkpt lat="45.83489" lon="4.79733">
        <ele>479</ele>
        <time>2011-11-20T09:29:57.000Z</time>
      </trkpt>
      <trkpt lat="45.83487" lon="4.79732">
        <ele>478.79998779297</ele>
        <time>2011-11-20T09:29:58.000Z</time>
      </trkpt>
      <trkpt lat="45.83479" lon="4.79728">
        <ele>477.79998779297</ele>
        <time>2011-11-20T09:30:01.000Z</time>
      </trkpt>
      <trkpt lat="45.83479" lon="4.79717">
        <ele>477.20001220703</ele>
        <time>2011-11-20T09:30:04.000Z</time>
      </trkpt>
      <trkpt lat="45.8348" lon="4.79714">
        <ele>477</ele>
        <time>2011-11-20T09:30:05.000Z</time>
      </trkpt>
      <trkpt lat="45.83481" lon="4.79696">
        <ele>475.79998779297</ele>
        <time>2011-11-20T09:30:09.000Z</time>
      </trkpt>
      <trkpt lat="45.83482" lon="4.7969">
        <ele>475.39999389648</ele>
        <time>2011-11-20T09:30:10.000Z</time>
      </trkpt>
      <trkpt lat="45.83481" lon="4.79668">
        <ele>474</ele>
        <time>2011-11-20T09:30:14.000Z</time>
      </trkpt>
      <trkpt lat="45.8348" lon="4.7966">
        <ele>473.79998779297</ele>
        <time>2011-11-20T09:30:16.000Z</time>
      </trkpt>
      <trkpt lat="45.8348" lon="4.79651">
        <ele>473.79998779297</ele>
        <time>2011-11-20T09:30:18.000Z</time>
      </trkpt>
      <trkpt lat="45.8348" lon="4.79632">
        <ele>473.79998779297</ele>
        <time>2011-11-20T09:30:23.000Z</time>
      </trkpt>
      <trkpt lat="45.8348" lon="4.79628">
        <ele>473.79998779297</ele>
        <time>2011-11-20T09:30:24.000Z</time>
      </trkpt>
      <trkpt lat="45.83477" lon="4.79607">
        <ele>473.39999389648</ele>
        <time>2011-11-20T09:30:30.000Z</time>
      </trkpt>
      <trkpt lat="45.83475" lon="4.79606">
        <ele>473.39999389648</ele>
        <time>2011-11-20T09:30:31.000Z</time>
      </trkpt>
      <trkpt lat="45.83472" lon="4.79604">
        <ele>473.20001220703</ele>
        <time>2011-11-20T09:30:34.000Z</time>
      </trkpt>
      <trkpt lat="45.83472" lon="4.79603">
        <ele>473.20001220703</ele>
        <time>2011-11-20T09:30:35.000Z</time>
      </trkpt>
      <trkpt lat="45.83469" lon="4.79606">
        <ele>473</ele>
        <time>2011-11-20T09:30:39.000Z</time>
      </trkpt>
      <trkpt lat="45.83458" lon="4.79605">
        <ele>472.20001220703</ele>
        <time>2011-11-20T09:30:44.000Z</time>
      </trkpt>
      <trkpt lat="45.83455" lon="4.79605">
        <ele>472</ele>
        <time>2011-11-20T09:30:45.000Z</time>
      </trkpt>
      <trkpt lat="45.83445" lon="4.796">
        <ele>471.20001220703</ele>
        <time>2011-11-20T09:30:49.000Z</time>
      </trkpt>
      <trkpt lat="45.83443" lon="4.79597">
        <ele>471.20001220703</ele>
        <time>2011-11-20T09:30:50.000Z</time>
      </trkpt>
      <trkpt lat="45.83443" lon="4.79594">
        <ele>471.20001220703</ele>
        <time>2011-11-20T09:30:51.000Z</time>
      </trkpt>
      <trkpt lat="45.83444" lon="4.79587">
        <ele>471.39999389648</ele>
        <time>2011-11-20T09:30:53.000Z</time>
      </trkpt>
      <trkpt lat="45.83444" lon="4.79584">
        <ele>471.60000610352</ele>
        <time>2011-11-20T09:30:54.000Z</time>
      </trkpt>
      <trkpt lat="45.83445" lon="4.79566">
        <ele>472</ele>
        <time>2011-11-20T09:30:59.000Z</time>
      </trkpt>
      <trkpt lat="45.83446" lon="4.79542">
        <ele>472.60000610352</ele>
        <time>2011-11-20T09:31:06.000Z</time>
      </trkpt>
      <trkpt lat="45.83445" lon="4.79539">
        <ele>472.60000610352</ele>
        <time>2011-11-20T09:31:07.000Z</time>
      </trkpt>
      <trkpt lat="45.83438" lon="4.79534">
        <ele>472.60000610352</ele>
        <time>2011-11-20T09:31:10.000Z</time>
      </trkpt>
      <trkpt lat="45.83433" lon="4.79534">
        <ele>472.20001220703</ele>
        <time>2011-11-20T09:31:12.000Z</time>
      </trkpt>
      <trkpt lat="45.83428" lon="4.79533">
        <ele>472.20001220703</ele>
        <time>2011-11-20T09:31:14.000Z</time>
      </trkpt>
      <trkpt lat="45.83425" lon="4.79533">
        <ele>472</ele>
        <time>2011-11-20T09:31:15.000Z</time>
      </trkpt>
      <trkpt lat="45.83412" lon="4.79531">
        <ele>471.60000610352</ele>
        <time>2011-11-20T09:31:20.000Z</time>
      </trkpt>
      <trkpt lat="45.83409" lon="4.79531">
        <ele>471.39999389648</ele>
        <time>2011-11-20T09:31:21.000Z</time>
      </trkpt>
      <trkpt lat="45.83393" lon="4.79529">
        <ele>470.60000610352</ele>
        <time>2011-11-20T09:31:27.000Z</time>
      </trkpt>
      <trkpt lat="45.83391" lon="4.79528">
        <ele>470.39999389648</ele>
        <time>2011-11-20T09:31:28.000Z</time>
      </trkpt>
      <trkpt lat="45.83381" lon="4.79521">
        <ele>470.20001220703</ele>
        <time>2011-11-20T09:31:32.000Z</time>
      </trkpt>
      <trkpt lat="45.83375" lon="4.79511">
        <ele>470.39999389648</ele>
        <time>2011-11-20T09:31:36.000Z</time>
      </trkpt>
      <trkpt lat="45.83373" lon="4.79509">
        <ele>470.39999389648</ele>
        <time>2011-11-20T09:31:37.000Z</time>
      </trkpt>
      <trkpt lat="45.83365" lon="4.79499">
        <ele>470.60000610352</ele>
        <time>2011-11-20T09:31:42.000Z</time>
      </trkpt>
      <trkpt lat="45.83362" lon="4.79491">
        <ele>470.79998779297</ele>
        <time>2011-11-20T09:31:45.000Z</time>
      </trkpt>
      <trkpt lat="45.83362" lon="4.79485">
        <ele>471.39999389648</ele>
        <time>2011-11-20T09:31:47.000Z</time>
      </trkpt>
      <trkpt lat="45.83361" lon="4.79467">
        <ele>472.60000610352</ele>
        <time>2011-11-20T09:31:52.000Z</time>
      </trkpt>
      <trkpt lat="45.83362" lon="4.79464">
        <ele>472.79998779297</ele>
        <time>2011-11-20T09:31:53.000Z</time>
      </trkpt>
      <trkpt lat="45.83356" lon="4.79447">
        <ele>473.79998779297</ele>
        <time>2011-11-20T09:31:59.000Z</time>
      </trkpt>
      <trkpt lat="45.83351" lon="4.79442">
        <ele>474.20001220703</ele>
        <time>2011-11-20T09:32:02.000Z</time>
      </trkpt>
      <trkpt lat="45.83349" lon="4.79439">
        <ele>474.39999389648</ele>
        <time>2011-11-20T09:32:04.000Z</time>
      </trkpt>
      <trkpt lat="45.8334" lon="4.79428">
        <ele>475</ele>
        <time>2011-11-20T09:32:10.000Z</time>
      </trkpt>
      <trkpt lat="45.83337" lon="4.79427">
        <ele>475.20001220703</ele>
        <time>2011-11-20T09:32:11.000Z</time>
      </trkpt>
      <trkpt lat="45.83331" lon="4.79421">
        <ele>475.39999389648</ele>
        <time>2011-11-20T09:32:15.000Z</time>
      </trkpt>
      <trkpt lat="45.8332" lon="4.79414">
        <ele>475.39999389648</ele>
        <time>2011-11-20T09:32:20.000Z</time>
      </trkpt>
      <trkpt lat="45.83318" lon="4.79413">
        <ele>475.39999389648</ele>
        <time>2011-11-20T09:32:21.000Z</time>
      </trkpt>
      <trkpt lat="45.83311" lon="4.79408">
        <ele>475.60000610352</ele>
        <time>2011-11-20T09:32:26.000Z</time>
      </trkpt>
      <trkpt lat="45.83303" lon="4.79403">
        <ele>475.79998779297</ele>
        <time>2011-11-20T09:32:31.000Z</time>
      </trkpt>
      <trkpt lat="45.83292" lon="4.794">
        <ele>475.60000610352</ele>
        <time>2011-11-20T09:32:37.000Z</time>
      </trkpt>
      <trkpt lat="45.83285" lon="4.79397">
        <ele>475.60000610352</ele>
        <time>2011-11-20T09:32:41.000Z</time>
      </trkpt>
      <trkpt lat="45.83281" lon="4.79394">
        <ele>475.60000610352</ele>
        <time>2011-11-20T09:32:43.000Z</time>
      </trkpt>
      <trkpt lat="45.83272" lon="4.79381">
        <ele>476.79998779297</ele>
        <time>2011-11-20T09:32:49.000Z</time>
      </trkpt>
      <trkpt lat="45.83271" lon="4.79378">
        <ele>477.20001220703</ele>
        <time>2011-11-20T09:32:50.000Z</time>
      </trkpt>
      <trkpt lat="45.83271" lon="4.79362">
        <ele>479.20001220703</ele>
        <time>2011-11-20T09:32:55.000Z</time>
      </trkpt>
      <trkpt lat="45.83265" lon="4.79354">
        <ele>479.79998779297</ele>
        <time>2011-11-20T09:32:59.000Z</time>
      </trkpt>
      <trkpt lat="45.83259" lon="4.79349">
        <ele>480.39999389648</ele>
        <time>2011-11-20T09:33:02.000Z</time>
      </trkpt>
      <trkpt lat="45.83256" lon="4.79345">
        <ele>480.60000610352</ele>
        <time>2011-11-20T09:33:04.000Z</time>
      </trkpt>
      <trkpt lat="45.83251" lon="4.79337">
        <ele>481.39999389648</ele>
        <time>2011-11-20T09:33:07.000Z</time>
      </trkpt>
      <trkpt lat="45.83248" lon="4.79328">
        <ele>482.39999389648</ele>
        <time>2011-11-20T09:33:10.000Z</time>
      </trkpt>
      <trkpt lat="45.83238" lon="4.79317">
        <ele>483.20001220703</ele>
        <time>2011-11-20T09:33:16.000Z</time>
      </trkpt>
      <trkpt lat="45.83228" lon="4.79312">
        <ele>483.20001220703</ele>
        <time>2011-11-20T09:33:21.000Z</time>
      </trkpt>
      <trkpt lat="45.8322" lon="4.79309">
        <ele>483</ele>
        <time>2011-11-20T09:33:25.000Z</time>
      </trkpt>
      <trkpt lat="45.83213" lon="4.79308">
        <ele>482.79998779297</ele>
        <time>2011-11-20T09:33:28.000Z</time>
      </trkpt>
      <trkpt lat="45.83201" lon="4.79303">
        <ele>482.79998779297</ele>
        <time>2011-11-20T09:33:34.000Z</time>
      </trkpt>
      <trkpt lat="45.83199" lon="4.79302">
        <ele>482.79998779297</ele>
        <time>2011-11-20T09:33:35.000Z</time>
      </trkpt>
      <trkpt lat="45.83186" lon="4.79298">
        <ele>482.79998779297</ele>
        <time>2011-11-20T09:33:41.000Z</time>
      </trkpt>
      <trkpt lat="45.83181" lon="4.79297">
        <ele>482.79998779297</ele>
        <time>2011-11-20T09:33:43.000Z</time>
      </trkpt>
      <trkpt lat="45.83174" lon="4.79295">
        <ele>482.60000610352</ele>
        <time>2011-11-20T09:33:46.000Z</time>
      </trkpt>
      <trkpt lat="45.83163" lon="4.79291">
        <ele>482.79998779297</ele>
        <time>2011-11-20T09:33:51.000Z</time>
      </trkpt>
      <trkpt lat="45.83163" lon="4.79285">
        <ele>483.79998779297</ele>
        <time>2011-11-20T09:33:54.000Z</time>
      </trkpt>
      <trkpt lat="45.83169" lon="4.79284">
        <ele>484.39999389648</ele>
        <time>2011-11-20T09:33:58.000Z</time>
      </trkpt>
      <trkpt lat="45.83172" lon="4.79284">
        <ele>484.39999389648</ele>
        <time>2011-11-20T09:34:00.000Z</time>
      </trkpt>
      <trkpt lat="45.83177" lon="4.79284">
        <ele>484.60000610352</ele>
        <time>2011-11-20T09:34:03.000Z</time>
      </trkpt>
      <trkpt lat="45.83181" lon="4.79283">
        <ele>485</ele>
        <time>2011-11-20T09:34:06.000Z</time>
      </trkpt>
      <trkpt lat="45.83182" lon="4.79282">
        <ele>485.20001220703</ele>
        <time>2011-11-20T09:34:08.000Z</time>
      </trkpt>
      <trkpt lat="45.83183" lon="4.7928">
        <ele>485.39999389648</ele>
        <time>2011-11-20T09:34:11.000Z</time>
      </trkpt>
      <trkpt lat="45.83184" lon="4.79279">
        <ele>485.60000610352</ele>
        <time>2011-11-20T09:34:12.000Z</time>
      </trkpt>
      <trkpt lat="45.83187" lon="4.79274">
        <ele>486.60000610352</ele>
        <time>2011-11-20T09:34:17.000Z</time>
      </trkpt>
      <trkpt lat="45.8319" lon="4.79267">
        <ele>487.79998779297</ele>
        <time>2011-11-20T09:34:22.000Z</time>
      </trkpt>
      <trkpt lat="45.83192" lon="4.79265">
        <ele>488.20001220703</ele>
        <time>2011-11-20T09:34:24.000Z</time>
      </trkpt>
      <trkpt lat="45.83197" lon="4.79252">
        <ele>490.20001220703</ele>
        <time>2011-11-20T09:34:32.000Z</time>
      </trkpt>
      <trkpt lat="45.83199" lon="4.79248">
        <ele>490.79998779297</ele>
        <time>2011-11-20T09:34:35.000Z</time>
      </trkpt>
      <trkpt lat="45.83199" lon="4.79244">
        <ele>491.39999389648</ele>
        <time>2011-11-20T09:34:37.000Z</time>
      </trkpt>
      <trkpt lat="45.832" lon="4.7924">
        <ele>491.79998779297</ele>
        <time>2011-11-20T09:34:39.000Z</time>
      </trkpt>
      <trkpt lat="45.83205" lon="4.79227">
        <ele>493.60000610352</ele>
        <time>2011-11-20T09:34:47.000Z</time>
      </trkpt>
      <trkpt lat="45.83207" lon="4.7922">
        <ele>494.39999389648</ele>
        <time>2011-11-20T09:34:51.000Z</time>
      </trkpt>
      <trkpt lat="45.83211" lon="4.79215">
        <ele>495.20001220703</ele>
        <time>2011-11-20T09:34:55.000Z</time>
      </trkpt>
      <trkpt lat="45.83213" lon="4.79208">
        <ele>496.20001220703</ele>
        <time>2011-11-20T09:34:59.000Z</time>
      </trkpt>
      <trkpt lat="45.83215" lon="4.79206">
        <ele>496.60000610352</ele>
        <time>2011-11-20T09:35:01.000Z</time>
      </trkpt>
      <trkpt lat="45.83218" lon="4.79199">
        <ele>497.60000610352</ele>
        <time>2011-11-20T09:35:06.000Z</time>
      </trkpt>
      <trkpt lat="45.83219" lon="4.79194">
        <ele>498.39999389648</ele>
        <time>2011-11-20T09:35:09.000Z</time>
      </trkpt>
      <trkpt lat="45.83222" lon="4.79182">
        <ele>500</ele>
        <time>2011-11-20T09:35:15.000Z</time>
      </trkpt>
      <trkpt lat="45.83223" lon="4.79173">
        <ele>501.39999389648</ele>
        <time>2011-11-20T09:35:20.000Z</time>
      </trkpt>
      <trkpt lat="45.83224" lon="4.79171">
        <ele>501.79998779297</ele>
        <time>2011-11-20T09:35:21.000Z</time>
      </trkpt>
      <trkpt lat="45.83227" lon="4.79162">
        <ele>503.20001220703</ele>
        <time>2011-11-20T09:35:27.000Z</time>
      </trkpt>
      <trkpt lat="45.83233" lon="4.79151">
        <ele>504.79998779297</ele>
        <time>2011-11-20T09:35:34.000Z</time>
      </trkpt>
      <trkpt lat="45.83234" lon="4.79149">
        <ele>505</ele>
        <time>2011-11-20T09:35:35.000Z</time>
      </trkpt>
      <trkpt lat="45.83237" lon="4.79141">
        <ele>506.20001220703</ele>
        <time>2011-11-20T09:35:40.000Z</time>
      </trkpt>
      <trkpt lat="45.83239" lon="4.79127">
        <ele>507.60000610352</ele>
        <time>2011-11-20T09:35:47.000Z</time>
      </trkpt>
      <trkpt lat="45.83241" lon="4.79124">
        <ele>508</ele>
        <time>2011-11-20T09:35:49.000Z</time>
      </trkpt>
      <trkpt lat="45.83244" lon="4.79117">
        <ele>509</ele>
        <time>2011-11-20T09:35:54.000Z</time>
      </trkpt>
      <trkpt lat="45.83245" lon="4.79114">
        <ele>509.39999389648</ele>
        <time>2011-11-20T09:35:56.000Z</time>
      </trkpt>
      <trkpt lat="45.83246" lon="4.79107">
        <ele>510.20001220703</ele>
        <time>2011-11-20T09:35:59.000Z</time>
      </trkpt>
      <trkpt lat="45.83247" lon="4.79104">
        <ele>510.60000610352</ele>
        <time>2011-11-20T09:36:01.000Z</time>
      </trkpt>
      <trkpt lat="45.83248" lon="4.79101">
        <ele>511</ele>
        <time>2011-11-20T09:36:03.000Z</time>
      </trkpt>
      <trkpt lat="45.83251" lon="4.79091">
        <ele>512.20001220703</ele>
        <time>2011-11-20T09:36:09.000Z</time>
      </trkpt>
      <trkpt lat="45.83253" lon="4.79079">
        <ele>513.20001220703</ele>
        <time>2011-11-20T09:36:15.000Z</time>
      </trkpt>
      <trkpt lat="45.83255" lon="4.79076">
        <ele>513.59997558594</ele>
        <time>2011-11-20T09:36:17.000Z</time>
      </trkpt>
      <trkpt lat="45.83258" lon="4.79068">
        <ele>514.20001220703</ele>
        <time>2011-11-20T09:36:23.000Z</time>
      </trkpt>
      <trkpt lat="45.83259" lon="4.79068">
        <ele>514.40002441406</ele>
        <time>2011-11-20T09:36:24.000Z</time>
      </trkpt>
      <trkpt lat="45.83261" lon="4.79069">
        <ele>514.40002441406</ele>
        <time>2011-11-20T09:36:27.000Z</time>
      </trkpt>
      <trkpt lat="45.83263" lon="4.79069">
        <ele>514.40002441406</ele>
        <time>2011-11-20T09:36:30.000Z</time>
      </trkpt>
      <trkpt lat="45.83265" lon="4.79069">
        <ele>514.40002441406</ele>
        <time>2011-11-20T09:36:31.000Z</time>
      </trkpt>
      <trkpt lat="45.83266" lon="4.7907">
        <ele>514.20001220703</ele>
        <time>2011-11-20T09:36:32.000Z</time>
      </trkpt>
      <trkpt lat="45.83273" lon="4.79071">
        <ele>514.20001220703</ele>
        <time>2011-11-20T09:36:35.000Z</time>
      </trkpt>
      <trkpt lat="45.83284" lon="4.79072">
        <ele>514.40002441406</ele>
        <time>2011-11-20T09:36:40.000Z</time>
      </trkpt>
      <trkpt lat="45.83286" lon="4.79072">
        <ele>514.40002441406</ele>
        <time>2011-11-20T09:36:41.000Z</time>
      </trkpt>
      <trkpt lat="45.83295" lon="4.79073">
        <ele>514.40002441406</ele>
        <time>2011-11-20T09:36:45.000Z</time>
      </trkpt>
      <trkpt lat="45.83303" lon="4.79073">
        <ele>514.59997558594</ele>
        <time>2011-11-20T09:36:48.000Z</time>
      </trkpt>
      <trkpt lat="45.8331" lon="4.79071">
        <ele>514.79998779297</ele>
        <time>2011-11-20T09:36:51.000Z</time>
      </trkpt>
      <trkpt lat="45.83315" lon="4.79068">
        <ele>515.20001220703</ele>
        <time>2011-11-20T09:36:54.000Z</time>
      </trkpt>
      <trkpt lat="45.83316" lon="4.79066">
        <ele>515.40002441406</ele>
        <time>2011-11-20T09:36:55.000Z</time>
      </trkpt>
      <trkpt lat="45.83318" lon="4.79059">
        <ele>516.20001220703</ele>
        <time>2011-11-20T09:36:58.000Z</time>
      </trkpt>
      <trkpt lat="45.83317" lon="4.79054">
        <ele>516.79998779297</ele>
        <time>2011-11-20T09:37:00.000Z</time>
      </trkpt>
      <trkpt lat="45.83317" lon="4.79042">
        <ele>518</ele>
        <time>2011-11-20T09:37:04.000Z</time>
      </trkpt>
      <trkpt lat="45.83323" lon="4.79037">
        <ele>518.59997558594</ele>
        <time>2011-11-20T09:37:08.000Z</time>
      </trkpt>
      <trkpt lat="45.83325" lon="4.79036">
        <ele>518.79998779297</ele>
        <time>2011-11-20T09:37:09.000Z</time>
      </trkpt>
      <trkpt lat="45.83333" lon="4.7903">
        <ele>519.59997558594</ele>
        <time>2011-11-20T09:37:14.000Z</time>
      </trkpt>
      <trkpt lat="45.83334" lon="4.79029">
        <ele>519.79998779297</ele>
        <time>2011-11-20T09:37:15.000Z</time>
      </trkpt>
      <trkpt lat="45.83336" lon="4.79022">
        <ele>520.59997558594</ele>
        <time>2011-11-20T09:37:18.000Z</time>
      </trkpt>
      <trkpt lat="45.83336" lon="4.7902">
        <ele>520.79998779297</ele>
        <time>2011-11-20T09:37:19.000Z</time>
      </trkpt>
      <trkpt lat="45.83337" lon="4.79008">
        <ele>522.20001220703</ele>
        <time>2011-11-20T09:37:24.000Z</time>
      </trkpt>
      <trkpt lat="45.83338" lon="4.78995">
        <ele>523.59997558594</ele>
        <time>2011-11-20T09:37:30.000Z</time>
      </trkpt>
      <trkpt lat="45.83338" lon="4.78993">
        <ele>523.79998779297</ele>
        <time>2011-11-20T09:37:31.000Z</time>
      </trkpt>
      <trkpt lat="45.83339" lon="4.78982">
        <ele>525</ele>
        <time>2011-11-20T09:37:35.000Z</time>
      </trkpt>
      <trkpt lat="45.83338" lon="4.7898">
        <ele>525.20001220703</ele>
        <time>2011-11-20T09:37:36.000Z</time>
      </trkpt>
      <trkpt lat="45.83338" lon="4.78976">
        <ele>525.59997558594</ele>
        <time>2011-11-20T09:37:38.000Z</time>
      </trkpt>
      <trkpt lat="45.83338" lon="4.78969">
        <ele>526.40002441406</ele>
        <time>2011-11-20T09:37:41.000Z</time>
      </trkpt>
      <trkpt lat="45.83338" lon="4.78967">
        <ele>526.59997558594</ele>
        <time>2011-11-20T09:37:42.000Z</time>
      </trkpt>
      <trkpt lat="45.83337" lon="4.78959">
        <ele>527.40002441406</ele>
        <time>2011-11-20T09:37:46.000Z</time>
      </trkpt>
      <trkpt lat="45.83337" lon="4.78958">
        <ele>527.59997558594</ele>
        <time>2011-11-20T09:37:47.000Z</time>
      </trkpt>
      <trkpt lat="45.83338" lon="4.78956">
        <ele>527.79998779297</ele>
        <time>2011-11-20T09:37:50.000Z</time>
      </trkpt>
      <trkpt lat="45.83338" lon="4.78955">
        <ele>528</ele>
        <time>2011-11-20T09:37:51.000Z</time>
      </trkpt>
      <trkpt lat="45.83338" lon="4.78954">
        <ele>528</ele>
        <time>2011-11-20T09:37:56.000Z</time>
      </trkpt>
      <trkpt lat="45.83332" lon="4.78981">
        <ele>525</ele>
        <time>2011-11-20T09:38:12.000Z</time>
      </trkpt>
      <trkpt lat="45.83333" lon="4.7897">
        <ele>526</ele>
        <time>2011-11-20T09:38:14.000Z</time>
      </trkpt>
      <trkpt lat="45.83337" lon="4.78956">
        <ele>527.79998779297</ele>
        <time>2011-11-20T09:38:23.000Z</time>
      </trkpt>
      <trkpt lat="45.83337" lon="4.78956">
        <ele>527.79998779297</ele>
        <time>2011-11-20T09:38:24.000Z</time>
      </trkpt>
      <trkpt lat="45.83333" lon="4.78955">
        <ele>527.79998779297</ele>
        <time>2011-11-20T09:38:52.000Z</time>
      </trkpt>
      <trkpt lat="45.83333" lon="4.78953">
        <ele>528</ele>
        <time>2011-11-20T09:38:53.000Z</time>
      </trkpt>
      <trkpt lat="45.83333" lon="4.78952">
        <ele>528.20001220703</ele>
        <time>2011-11-20T09:38:54.000Z</time>
      </trkpt>
      <trkpt lat="45.83335" lon="4.78948">
        <ele>528.59997558594</ele>
        <time>2011-11-20T09:38:56.000Z</time>
      </trkpt>
      <trkpt lat="45.83337" lon="4.78941">
        <ele>529.40002441406</ele>
        <time>2011-11-20T09:39:01.000Z</time>
      </trkpt>
      <trkpt lat="45.83337" lon="4.78936">
        <ele>529.79998779297</ele>
        <time>2011-11-20T09:39:04.000Z</time>
      </trkpt>
      <trkpt lat="45.83337" lon="4.78933">
        <ele>530.20001220703</ele>
        <time>2011-11-20T09:39:07.000Z</time>
      </trkpt>
      <trkpt lat="45.83338" lon="4.78929">
        <ele>530.59997558594</ele>
        <time>2011-11-20T09:39:10.000Z</time>
      </trkpt>
      <trkpt lat="45.83338" lon="4.78927">
        <ele>531</ele>
        <time>2011-11-20T09:39:12.000Z</time>
      </trkpt>
      <trkpt lat="45.83338" lon="4.78927">
        <ele>530.79998779297</ele>
        <time>2011-11-20T09:39:13.000Z</time>
      </trkpt>
      <trkpt lat="45.83337" lon="4.78924">
        <ele>531.20001220703</ele>
        <time>2011-11-20T09:39:20.000Z</time>
      </trkpt>
      <trkpt lat="45.83337" lon="4.7892">
        <ele>531.59997558594</ele>
        <time>2011-11-20T09:39:22.000Z</time>
      </trkpt>
      <trkpt lat="45.83336" lon="4.78913">
        <ele>532.40002441406</ele>
        <time>2011-11-20T09:39:27.000Z</time>
      </trkpt>
      <trkpt lat="45.83337" lon="4.78905">
        <ele>533.20001220703</ele>
        <time>2011-11-20T09:39:30.000Z</time>
      </trkpt>
      <trkpt lat="45.83338" lon="4.78902">
        <ele>533.59997558594</ele>
        <time>2011-11-20T09:39:31.000Z</time>
      </trkpt>
      <trkpt lat="45.83336" lon="4.78895">
        <ele>534.20001220703</ele>
        <time>2011-11-20T09:39:34.000Z</time>
      </trkpt>
      <trkpt lat="45.83336" lon="4.78893">
        <ele>534.59997558594</ele>
        <time>2011-11-20T09:39:35.000Z</time>
      </trkpt>
      <trkpt lat="45.83336" lon="4.78883">
        <ele>535.59997558594</ele>
        <time>2011-11-20T09:39:39.000Z</time>
      </trkpt>
      <trkpt lat="45.83336" lon="4.7888">
        <ele>536</ele>
        <time>2011-11-20T09:39:40.000Z</time>
      </trkpt>
      <trkpt lat="45.83336" lon="4.78876">
        <ele>536.40002441406</ele>
        <time>2011-11-20T09:39:41.000Z</time>
      </trkpt>
      <trkpt lat="45.83336" lon="4.78859">
        <ele>538.20001220703</ele>
        <time>2011-11-20T09:39:46.000Z</time>
      </trkpt>
      <trkpt lat="45.83336" lon="4.78852">
        <ele>539</ele>
        <time>2011-11-20T09:39:48.000Z</time>
      </trkpt>
      <trkpt lat="45.83337" lon="4.78842">
        <ele>540.20001220703</ele>
        <time>2011-11-20T09:39:51.000Z</time>
      </trkpt>
      <trkpt lat="45.83337" lon="4.78826">
        <ele>541</ele>
        <time>2011-11-20T09:39:57.000Z</time>
      </trkpt>
      <trkpt lat="45.83339" lon="4.78819">
        <ele>540.79998779297</ele>
        <time>2011-11-20T09:40:01.000Z</time>
      </trkpt>
      <trkpt lat="45.8334" lon="4.78817">
        <ele>540.79998779297</ele>
        <time>2011-11-20T09:40:04.000Z</time>
      </trkpt>
      <trkpt lat="45.8334" lon="4.78815">
        <ele>540.79998779297</ele>
        <time>2011-11-20T09:40:06.000Z</time>
      </trkpt>
      <trkpt lat="45.8334" lon="4.78808">
        <ele>540.59997558594</ele>
        <time>2011-11-20T09:40:12.000Z</time>
      </trkpt>
      <trkpt lat="45.83339" lon="4.78804">
        <ele>540.40002441406</ele>
        <time>2011-11-20T09:40:15.000Z</time>
      </trkpt>
      <trkpt lat="45.8334" lon="4.78799">
        <ele>540.20001220703</ele>
        <time>2011-11-20T09:40:18.000Z</time>
      </trkpt>
      <trkpt lat="45.83339" lon="4.78797">
        <ele>540.20001220703</ele>
        <time>2011-11-20T09:40:24.000Z</time>
      </trkpt>
      <trkpt lat="45.83336" lon="4.78795">
        <ele>539.79998779297</ele>
        <time>2011-11-20T09:41:07.000Z</time>
      </trkpt>
      <trkpt lat="45.83342" lon="4.78798">
        <ele>540.59997558594</ele>
        <time>2011-11-20T09:41:45.000Z</time>
      </trkpt>
      <trkpt lat="45.83336" lon="4.78805">
        <ele>540.20001220703</ele>
        <time>2011-11-20T09:42:19.000Z</time>
      </trkpt>
      <trkpt lat="45.83345" lon="4.78795">
        <ele>540.79998779297</ele>
        <time>2011-11-20T09:43:52.000Z</time>
      </trkpt>
      <trkpt lat="45.83348" lon="4.78791">
        <ele>541</ele>
        <time>2011-11-20T09:43:54.000Z</time>
      </trkpt>
      <trkpt lat="45.83354" lon="4.78787">
        <ele>541.59997558594</ele>
        <time>2011-11-20T09:43:57.000Z</time>
      </trkpt>
      <trkpt lat="45.83359" lon="4.78783">
        <ele>542.20001220703</ele>
        <time>2011-11-20T09:44:00.000Z</time>
      </trkpt>
      <trkpt lat="45.83363" lon="4.78782">
        <ele>542.59997558594</ele>
        <time>2011-11-20T09:44:02.000Z</time>
      </trkpt>
      <trkpt lat="45.83366" lon="4.78782">
        <ele>543</ele>
        <time>2011-11-20T09:44:03.000Z</time>
      </trkpt>
      <trkpt lat="45.83372" lon="4.78777">
        <ele>543.79998779297</ele>
        <time>2011-11-20T09:44:07.000Z</time>
      </trkpt>
      <trkpt lat="45.83382" lon="4.78771">
        <ele>545.20001220703</ele>
        <time>2011-11-20T09:44:13.000Z</time>
      </trkpt>
      <trkpt lat="45.83384" lon="4.78765">
        <ele>545.40002441406</ele>
        <time>2011-11-20T09:44:16.000Z</time>
      </trkpt>
      <trkpt lat="45.83389" lon="4.78761">
        <ele>546.40002441406</ele>
        <time>2011-11-20T09:44:20.000Z</time>
      </trkpt>
      <trkpt lat="45.83399" lon="4.78759">
        <ele>547.79998779297</ele>
        <time>2011-11-20T09:44:25.000Z</time>
      </trkpt>
      <trkpt lat="45.83402" lon="4.78759">
        <ele>548.20001220703</ele>
        <time>2011-11-20T09:44:26.000Z</time>
      </trkpt>
      <trkpt lat="45.83408" lon="4.78755">
        <ele>549.20001220703</ele>
        <time>2011-11-20T09:44:29.000Z</time>
      </trkpt>
      <trkpt lat="45.83422" lon="4.78753">
        <ele>551.20001220703</ele>
        <time>2011-11-20T09:44:36.000Z</time>
      </trkpt>
      <trkpt lat="45.83429" lon="4.78752">
        <ele>552</ele>
        <time>2011-11-20T09:44:40.000Z</time>
      </trkpt>
      <trkpt lat="45.83441" lon="4.7875">
        <ele>553.20001220703</ele>
        <time>2011-11-20T09:44:46.000Z</time>
      </trkpt>
      <trkpt lat="45.83447" lon="4.78748">
        <ele>553.59997558594</ele>
        <time>2011-11-20T09:44:49.000Z</time>
      </trkpt>
      <trkpt lat="45.83449" lon="4.78746">
        <ele>553.79998779297</ele>
        <time>2011-11-20T09:44:50.000Z</time>
      </trkpt>
      <trkpt lat="45.83458" lon="4.7874">
        <ele>554.40002441406</ele>
        <time>2011-11-20T09:44:56.000Z</time>
      </trkpt>
      <trkpt lat="45.8346" lon="4.78739">
        <ele>554.59997558594</ele>
        <time>2011-11-20T09:44:57.000Z</time>
      </trkpt>
      <trkpt lat="45.83462" lon="4.78737">
        <ele>554.79998779297</ele>
        <time>2011-11-20T09:44:58.000Z</time>
      </trkpt>
      <trkpt lat="45.83468" lon="4.78734">
        <ele>555.40002441406</ele>
        <time>2011-11-20T09:45:02.000Z</time>
      </trkpt>
      <trkpt lat="45.83477" lon="4.78733">
        <ele>556.40002441406</ele>
        <time>2011-11-20T09:45:06.000Z</time>
      </trkpt>
      <trkpt lat="45.83479" lon="4.78732">
        <ele>556.59997558594</ele>
        <time>2011-11-20T09:45:07.000Z</time>
      </trkpt>
      <trkpt lat="45.83488" lon="4.78729">
        <ele>557.40002441406</ele>
        <time>2011-11-20T09:45:12.000Z</time>
      </trkpt>
      <trkpt lat="45.83496" lon="4.78729">
        <ele>558.40002441406</ele>
        <time>2011-11-20T09:45:16.000Z</time>
      </trkpt>
      <trkpt lat="45.83499" lon="4.78728">
        <ele>558.79998779297</ele>
        <time>2011-11-20T09:45:17.000Z</time>
      </trkpt>
      <trkpt lat="45.83508" lon="4.78723">
        <ele>559.59997558594</ele>
        <time>2011-11-20T09:45:22.000Z</time>
      </trkpt>
      <trkpt lat="45.83514" lon="4.78722">
        <ele>560.20001220703</ele>
        <time>2011-11-20T09:45:24.000Z</time>
      </trkpt>
      <trkpt lat="45.8352" lon="4.78719">
        <ele>560.79998779297</ele>
        <time>2011-11-20T09:45:27.000Z</time>
      </trkpt>
      <trkpt lat="45.83532" lon="4.78715">
        <ele>562</ele>
        <time>2011-11-20T09:45:33.000Z</time>
      </trkpt>
      <trkpt lat="45.83533" lon="4.78713">
        <ele>562.20001220703</ele>
        <time>2011-11-20T09:45:34.000Z</time>
      </trkpt>
      <trkpt lat="45.83536" lon="4.7871">
        <ele>562.59997558594</ele>
        <time>2011-11-20T09:45:36.000Z</time>
      </trkpt>
      <trkpt lat="45.8354" lon="4.78707">
        <ele>563</ele>
        <time>2011-11-20T09:45:38.000Z</time>
      </trkpt>
      <trkpt lat="45.8355" lon="4.787">
        <ele>564.40002441406</ele>
        <time>2011-11-20T09:45:44.000Z</time>
      </trkpt>
      <trkpt lat="45.83554" lon="4.78698">
        <ele>565</ele>
        <time>2011-11-20T09:45:46.000Z</time>
      </trkpt>
      <trkpt lat="45.83567" lon="4.78694">
        <ele>566.79998779297</ele>
        <time>2011-11-20T09:45:51.000Z</time>
      </trkpt>
      <trkpt lat="45.83569" lon="4.78692">
        <ele>567.20001220703</ele>
        <time>2011-11-20T09:45:52.000Z</time>
      </trkpt>
      <trkpt lat="45.8358" lon="4.78685">
        <ele>569</ele>
        <time>2011-11-20T09:45:58.000Z</time>
      </trkpt>
      <trkpt lat="45.83584" lon="4.78682">
        <ele>569.59997558594</ele>
        <time>2011-11-20T09:46:01.000Z</time>
      </trkpt>
      <trkpt lat="45.83589" lon="4.7868">
        <ele>570.20001220703</ele>
        <time>2011-11-20T09:46:04.000Z</time>
      </trkpt>
      <trkpt lat="45.83603" lon="4.78679">
        <ele>571.20001220703</ele>
        <time>2011-11-20T09:46:10.000Z</time>
      </trkpt>
      <trkpt lat="45.83612" lon="4.78675">
        <ele>572</ele>
        <time>2011-11-20T09:46:14.000Z</time>
      </trkpt>
      <trkpt lat="45.8362" lon="4.78672">
        <ele>573</ele>
        <time>2011-11-20T09:46:18.000Z</time>
      </trkpt>
      <trkpt lat="45.83624" lon="4.78671">
        <ele>573.40002441406</ele>
        <time>2011-11-20T09:46:20.000Z</time>
      </trkpt>
      <trkpt lat="45.83626" lon="4.7867">
        <ele>573.59997558594</ele>
        <time>2011-11-20T09:46:21.000Z</time>
      </trkpt>
      <trkpt lat="45.83638" lon="4.78664">
        <ele>574.79998779297</ele>
        <time>2011-11-20T09:46:26.000Z</time>
      </trkpt>
      <trkpt lat="45.83651" lon="4.78655">
        <ele>575.59997558594</ele>
        <time>2011-11-20T09:46:32.000Z</time>
      </trkpt>
      <trkpt lat="45.83656" lon="4.78651">
        <ele>576</ele>
        <time>2011-11-20T09:46:35.000Z</time>
      </trkpt>
      <trkpt lat="45.83662" lon="4.78649">
        <ele>576.40002441406</ele>
        <time>2011-11-20T09:46:39.000Z</time>
      </trkpt>
      <trkpt lat="45.83665" lon="4.78645">
        <ele>576.59997558594</ele>
        <time>2011-11-20T09:46:44.000Z</time>
      </trkpt>
      <trkpt lat="45.83666" lon="4.78646">
        <ele>576.59997558594</ele>
        <time>2011-11-20T09:46:46.000Z</time>
      </trkpt>
      <trkpt lat="45.83666" lon="4.78646">
        <ele>576.59997558594</ele>
        <time>2011-11-20T09:46:53.000Z</time>
      </trkpt>
      <trkpt lat="45.83669" lon="4.78645">
        <ele>576.79998779297</ele>
        <time>2011-11-20T09:47:03.000Z</time>
      </trkpt>
      <trkpt lat="45.83668" lon="4.78643">
        <ele>576.59997558594</ele>
        <time>2011-11-20T09:47:08.000Z</time>
      </trkpt>
      <trkpt lat="45.83665" lon="4.78644">
        <ele>576.59997558594</ele>
        <time>2011-11-20T09:47:11.000Z</time>
      </trkpt>
      <trkpt lat="45.83662" lon="4.78646">
        <ele>576.20001220703</ele>
        <time>2011-11-20T09:47:14.000Z</time>
      </trkpt>
      <trkpt lat="45.83653" lon="4.78651">
        <ele>575.79998779297</ele>
        <time>2011-11-20T09:47:21.000Z</time>
      </trkpt>
      <trkpt lat="45.83652" lon="4.78652">
        <ele>575.59997558594</ele>
        <time>2011-11-20T09:47:22.000Z</time>
      </trkpt>
      <trkpt lat="45.83643" lon="4.78658">
        <ele>575</ele>
        <time>2011-11-20T09:47:28.000Z</time>
      </trkpt>
      <trkpt lat="45.83634" lon="4.78664">
        <ele>574.59997558594</ele>
        <time>2011-11-20T09:47:34.000Z</time>
      </trkpt>
      <trkpt lat="45.83633" lon="4.78665">
        <ele>574.40002441406</ele>
        <time>2011-11-20T09:47:35.000Z</time>
      </trkpt>
      <trkpt lat="45.83626" lon="4.78668">
        <ele>573.79998779297</ele>
        <time>2011-11-20T09:47:41.000Z</time>
      </trkpt>
      <trkpt lat="45.83626" lon="4.78669">
        <ele>573.59997558594</ele>
        <time>2011-11-20T09:47:42.000Z</time>
      </trkpt>
      <trkpt lat="45.83625" lon="4.78672">
        <ele>573.40002441406</ele>
        <time>2011-11-20T09:47:45.000Z</time>
      </trkpt>
      <trkpt lat="45.83625" lon="4.78673">
        <ele>573.20001220703</ele>
        <time>2011-11-20T09:47:47.000Z</time>
      </trkpt>
      <trkpt lat="45.83628" lon="4.78669">
        <ele>573.79998779297</ele>
        <time>2011-11-20T09:47:59.000Z</time>
      </trkpt>
      <trkpt lat="45.8363" lon="4.78667">
        <ele>574.20001220703</ele>
        <time>2011-11-20T09:48:00.000Z</time>
      </trkpt>
      <trkpt lat="45.83636" lon="4.78658">
        <ele>574.59997558594</ele>
        <time>2011-11-20T09:48:04.000Z</time>
      </trkpt>
      <trkpt lat="45.83641" lon="4.78652">
        <ele>574.79998779297</ele>
        <time>2011-11-20T09:48:07.000Z</time>
      </trkpt>
      <trkpt lat="45.83645" lon="4.78649">
        <ele>575</ele>
        <time>2011-11-20T09:48:09.000Z</time>
      </trkpt>
      <trkpt lat="45.83655" lon="4.78645">
        <ele>575.79998779297</ele>
        <time>2011-11-20T09:48:13.000Z</time>
      </trkpt>
      <trkpt lat="45.83661" lon="4.78643">
        <ele>576.20001220703</ele>
        <time>2011-11-20T09:48:15.000Z</time>
      </trkpt>
      <trkpt lat="45.83668" lon="4.78639">
        <ele>576.59997558594</ele>
        <time>2011-11-20T09:48:18.000Z</time>
      </trkpt>
      <trkpt lat="45.83675" lon="4.78635">
        <ele>576.79998779297</ele>
        <time>2011-11-20T09:48:23.000Z</time>
      </trkpt>
      <trkpt lat="45.83676" lon="4.78635">
        <ele>576.79998779297</ele>
        <time>2011-11-20T09:48:24.000Z</time>
      </trkpt>
      <trkpt lat="45.83676" lon="4.78632">
        <ele>577</ele>
        <time>2011-11-20T09:48:28.000Z</time>
      </trkpt>
      <trkpt lat="45.83676" lon="4.7863">
        <ele>576.79998779297</ele>
        <time>2011-11-20T09:48:29.000Z</time>
      </trkpt>
      <trkpt lat="45.83669" lon="4.78612">
        <ele>576.40002441406</ele>
        <time>2011-11-20T09:48:35.000Z</time>
      </trkpt>
      <trkpt lat="45.83667" lon="4.78609">
        <ele>576.20001220703</ele>
        <time>2011-11-20T09:48:36.000Z</time>
      </trkpt>
      <trkpt lat="45.83665" lon="4.786">
        <ele>576</ele>
        <time>2011-11-20T09:48:37.000Z</time>
      </trkpt>
      <trkpt lat="45.83665" lon="4.78595">
        <ele>576</ele>
        <time>2011-11-20T09:48:39.000Z</time>
      </trkpt>
      <trkpt lat="45.83666" lon="4.78584">
        <ele>575.79998779297</ele>
        <time>2011-11-20T09:48:41.000Z</time>
      </trkpt>
      <trkpt lat="45.83668" lon="4.78577">
        <ele>575.40002441406</ele>
        <time>2011-11-20T09:48:43.000Z</time>
      </trkpt>
      <trkpt lat="45.83674" lon="4.78566">
        <ele>575</ele>
        <time>2011-11-20T09:48:48.000Z</time>
      </trkpt>
      <trkpt lat="45.83679" lon="4.78565">
        <ele>575.20001220703</ele>
        <time>2011-11-20T09:48:50.000Z</time>
      </trkpt>
      <trkpt lat="45.8368" lon="4.78563">
        <ele>575.20001220703</ele>
        <time>2011-11-20T09:48:51.000Z</time>
      </trkpt>
      <trkpt lat="45.83683" lon="4.78559">
        <ele>575.20001220703</ele>
        <time>2011-11-20T09:48:53.000Z</time>
      </trkpt>
      <trkpt lat="45.83689" lon="4.7855">
        <ele>575</ele>
        <time>2011-11-20T09:48:57.000Z</time>
      </trkpt>
      <trkpt lat="45.83693" lon="4.78546">
        <ele>575</ele>
        <time>2011-11-20T09:48:59.000Z</time>
      </trkpt>
      <trkpt lat="45.83704" lon="4.78546">
        <ele>575.79998779297</ele>
        <time>2011-11-20T09:49:04.000Z</time>
      </trkpt>
      <trkpt lat="45.83711" lon="4.78542">
        <ele>576.20001220703</ele>
        <time>2011-11-20T09:49:09.000Z</time>
      </trkpt>
      <trkpt lat="45.83711" lon="4.78539">
        <ele>576</ele>
        <time>2011-11-20T09:49:10.000Z</time>
      </trkpt>
      <trkpt lat="45.83724" lon="4.7854">
        <ele>577.20001220703</ele>
        <time>2011-11-20T09:49:15.000Z</time>
      </trkpt>
      <trkpt lat="45.83732" lon="4.7854">
        <ele>577.79998779297</ele>
        <time>2011-11-20T09:49:17.000Z</time>
      </trkpt>
      <trkpt lat="45.83737" lon="4.7854">
        <ele>578.20001220703</ele>
        <time>2011-11-20T09:49:20.000Z</time>
      </trkpt>
      <trkpt lat="45.83749" lon="4.78538">
        <ele>579.20001220703</ele>
        <time>2011-11-20T09:49:26.000Z</time>
      </trkpt>
      <trkpt lat="45.83763" lon="4.78537">
        <ele>579.40002441406</ele>
        <time>2011-11-20T09:49:32.000Z</time>
      </trkpt>
      <trkpt lat="45.83769" lon="4.78538">
        <ele>579.40002441406</ele>
        <time>2011-11-20T09:49:35.000Z</time>
      </trkpt>
      <trkpt lat="45.83776" lon="4.78538">
        <ele>579.59997558594</ele>
        <time>2011-11-20T09:49:37.000Z</time>
      </trkpt>
      <trkpt lat="45.83776" lon="4.78538">
        <ele>579.59997558594</ele>
        <time>2011-11-20T09:49:38.000Z</time>
      </trkpt>
      <trkpt lat="45.83787" lon="4.78537">
        <ele>579.59997558594</ele>
        <time>2011-11-20T09:49:43.000Z</time>
      </trkpt>
      <trkpt lat="45.83789" lon="4.78537">
        <ele>579.59997558594</ele>
        <time>2011-11-20T09:49:44.000Z</time>
      </trkpt>
      <trkpt lat="45.838" lon="4.78538">
        <ele>579.79998779297</ele>
        <time>2011-11-20T09:49:49.000Z</time>
      </trkpt>
      <trkpt lat="45.83807" lon="4.78538">
        <ele>580</ele>
        <time>2011-11-20T09:49:52.000Z</time>
      </trkpt>
      <trkpt lat="45.83812" lon="4.78539">
        <ele>580</ele>
        <time>2011-11-20T09:49:54.000Z</time>
      </trkpt>
      <trkpt lat="45.83821" lon="4.78537">
        <ele>580</ele>
        <time>2011-11-20T09:49:58.000Z</time>
      </trkpt>
      <trkpt lat="45.83828" lon="4.78536">
        <ele>580.20001220703</ele>
        <time>2011-11-20T09:50:00.000Z</time>
      </trkpt>
      <trkpt lat="45.8383" lon="4.78535">
        <ele>580.20001220703</ele>
        <time>2011-11-20T09:50:02.000Z</time>
      </trkpt>
      <trkpt lat="45.83844" lon="4.78534">
        <ele>580.40002441406</ele>
        <time>2011-11-20T09:50:07.000Z</time>
      </trkpt>
      <trkpt lat="45.83847" lon="4.78534">
        <ele>580.40002441406</ele>
        <time>2011-11-20T09:50:08.000Z</time>
      </trkpt>
      <trkpt lat="45.83864" lon="4.78532">
        <ele>580.59997558594</ele>
        <time>2011-11-20T09:50:13.000Z</time>
      </trkpt>
      <trkpt lat="45.83867" lon="4.78532">
        <ele>580.59997558594</ele>
        <time>2011-11-20T09:50:14.000Z</time>
      </trkpt>
      <trkpt lat="45.83876" lon="4.7853">
        <ele>580.59997558594</ele>
        <time>2011-11-20T09:50:18.000Z</time>
      </trkpt>
      <trkpt lat="45.83884" lon="4.78524">
        <ele>580.59997558594</ele>
        <time>2011-11-20T09:50:22.000Z</time>
      </trkpt>
      <trkpt lat="45.83893" lon="4.7851">
        <ele>580</ele>
        <time>2011-11-20T09:50:28.000Z</time>
      </trkpt>
      <trkpt lat="45.83895" lon="4.78507">
        <ele>580</ele>
        <time>2011-11-20T09:50:30.000Z</time>
      </trkpt>
      <trkpt lat="45.83901" lon="4.78502">
        <ele>579.79998779297</ele>
        <time>2011-11-20T09:50:33.000Z</time>
      </trkpt>
      <trkpt lat="45.83911" lon="4.78495">
        <ele>579.20001220703</ele>
        <time>2011-11-20T09:50:37.000Z</time>
      </trkpt>
      <trkpt lat="45.83914" lon="4.78491">
        <ele>578.79998779297</ele>
        <time>2011-11-20T09:50:39.000Z</time>
      </trkpt>
      <trkpt lat="45.83915" lon="4.7849">
        <ele>578.59997558594</ele>
        <time>2011-11-20T09:50:46.000Z</time>
      </trkpt>
      <trkpt lat="45.83921" lon="4.78486">
        <ele>578.20001220703</ele>
        <time>2011-11-20T09:50:54.000Z</time>
      </trkpt>
      <trkpt lat="45.83927" lon="4.78483">
        <ele>577.79998779297</ele>
        <time>2011-11-20T09:50:59.000Z</time>
      </trkpt>
      <trkpt lat="45.83932" lon="4.78483">
        <ele>578</ele>
        <time>2011-11-20T09:51:03.000Z</time>
      </trkpt>
      <trkpt lat="45.83941" lon="4.78486">
        <ele>578.59997558594</ele>
        <time>2011-11-20T09:51:08.000Z</time>
      </trkpt>
      <trkpt lat="45.83951" lon="4.78486">
        <ele>578.59997558594</ele>
        <time>2011-11-20T09:51:11.000Z</time>
      </trkpt>
      <trkpt lat="45.83954" lon="4.78485">
        <ele>578.59997558594</ele>
        <time>2011-11-20T09:51:12.000Z</time>
      </trkpt>
      <trkpt lat="45.83961" lon="4.78485">
        <ele>578.79998779297</ele>
        <time>2011-11-20T09:51:16.000Z</time>
      </trkpt>
      <trkpt lat="45.83962" lon="4.78485">
        <ele>578.79998779297</ele>
        <time>2011-11-20T09:51:17.000Z</time>
      </trkpt>
      <trkpt lat="45.83968" lon="4.78483">
        <ele>578.59997558594</ele>
        <time>2011-11-20T09:51:21.000Z</time>
      </trkpt>
      <trkpt lat="45.83973" lon="4.78486">
        <ele>579.20001220703</ele>
        <time>2011-11-20T09:51:22.000Z</time>
      </trkpt>
      <trkpt lat="45.83985" lon="4.78487">
        <ele>579.59997558594</ele>
        <time>2011-11-20T09:51:26.000Z</time>
      </trkpt>
      <trkpt lat="45.83985" lon="4.78487">
        <ele>579.59997558594</ele>
        <time>2011-11-20T09:51:27.000Z</time>
      </trkpt>
      <trkpt lat="45.83992" lon="4.78488">
        <ele>580</ele>
        <time>2011-11-20T09:51:30.000Z</time>
      </trkpt>
      <trkpt lat="45.83994" lon="4.78487">
        <ele>579.79998779297</ele>
        <time>2011-11-20T09:51:32.000Z</time>
      </trkpt>
      <trkpt lat="45.84005" lon="4.78492">
        <ele>580.40002441406</ele>
        <time>2011-11-20T09:51:37.000Z</time>
      </trkpt>
      <trkpt lat="45.84007" lon="4.78493">
        <ele>580.40002441406</ele>
        <time>2011-11-20T09:51:38.000Z</time>
      </trkpt>
      <trkpt lat="45.84012" lon="4.78492">
        <ele>580</ele>
        <time>2011-11-20T09:51:40.000Z</time>
      </trkpt>
      <trkpt lat="45.84015" lon="4.78491">
        <ele>579.79998779297</ele>
        <time>2011-11-20T09:51:41.000Z</time>
      </trkpt>
      <trkpt lat="45.84027" lon="4.78492">
        <ele>579.40002441406</ele>
        <time>2011-11-20T09:51:46.000Z</time>
      </trkpt>
      <trkpt lat="45.84031" lon="4.78492">
        <ele>579.20001220703</ele>
        <time>2011-11-20T09:51:48.000Z</time>
      </trkpt>
      <trkpt lat="45.84038" lon="4.78492">
        <ele>578.79998779297</ele>
        <time>2011-11-20T09:51:51.000Z</time>
      </trkpt>
      <trkpt lat="45.84047" lon="4.78497">
        <ele>579.20001220703</ele>
        <time>2011-11-20T09:51:56.000Z</time>
      </trkpt>
      <trkpt lat="45.8405" lon="4.78502">
        <ele>579.59997558594</ele>
        <time>2011-11-20T09:51:58.000Z</time>
      </trkpt>
      <trkpt lat="45.84054" lon="4.78508">
        <ele>579.59997558594</ele>
        <time>2011-11-20T09:52:00.000Z</time>
      </trkpt>
      <trkpt lat="45.84055" lon="4.78511">
        <ele>579.59997558594</ele>
        <time>2011-11-20T09:52:01.000Z</time>
      </trkpt>
      <trkpt lat="45.84057" lon="4.78519">
        <ele>579.59997558594</ele>
        <time>2011-11-20T09:52:04.000Z</time>
      </trkpt>
      <trkpt lat="45.84058" lon="4.78522">
        <ele>579.59997558594</ele>
        <time>2011-11-20T09:52:05.000Z</time>
      </trkpt>
      <trkpt lat="45.84062" lon="4.78527">
        <ele>579.59997558594</ele>
        <time>2011-11-20T09:52:07.000Z</time>
      </trkpt>
      <trkpt lat="45.84062" lon="4.78532">
        <ele>579.59997558594</ele>
        <time>2011-11-20T09:52:10.000Z</time>
      </trkpt>
      <trkpt lat="45.8406" lon="4.78545">
        <ele>580.20001220703</ele>
        <time>2011-11-20T09:52:15.000Z</time>
      </trkpt>
      <trkpt lat="45.8406" lon="4.78552">
        <ele>580.40002441406</ele>
        <time>2011-11-20T09:52:17.000Z</time>
      </trkpt>
      <trkpt lat="45.84061" lon="4.78569">
        <ele>580.59997558594</ele>
        <time>2011-11-20T09:52:22.000Z</time>
      </trkpt>
      <trkpt lat="45.84063" lon="4.78578">
        <ele>580.79998779297</ele>
        <time>2011-11-20T09:52:25.000Z</time>
      </trkpt>
      <trkpt lat="45.84063" lon="4.78581">
        <ele>580.79998779297</ele>
        <time>2011-11-20T09:52:27.000Z</time>
      </trkpt>
      <trkpt lat="45.84064" lon="4.786">
        <ele>580</ele>
        <time>2011-11-20T09:52:31.000Z</time>
      </trkpt>
      <trkpt lat="45.84064" lon="4.78603">
        <ele>580</ele>
        <time>2011-11-20T09:52:32.000Z</time>
      </trkpt>
      <trkpt lat="45.84064" lon="4.78603">
        <ele>580</ele>
        <time>2011-11-20T09:52:33.000Z</time>
      </trkpt>
      <trkpt lat="45.84064" lon="4.7862">
        <ele>579.20001220703</ele>
        <time>2011-11-20T09:52:36.000Z</time>
      </trkpt>
      <trkpt lat="45.84066" lon="4.78635">
        <ele>578.40002441406</ele>
        <time>2011-11-20T09:52:40.000Z</time>
      </trkpt>
      <trkpt lat="45.84066" lon="4.78638">
        <ele>578.20001220703</ele>
        <time>2011-11-20T09:52:41.000Z</time>
      </trkpt>
      <trkpt lat="45.84067" lon="4.78653">
        <ele>577.40002441406</ele>
        <time>2011-11-20T09:52:45.000Z</time>
      </trkpt>
      <trkpt lat="45.84067" lon="4.78657">
        <ele>577.20001220703</ele>
        <time>2011-11-20T09:52:47.000Z</time>
      </trkpt>
      <trkpt lat="45.84068" lon="4.78661">
        <ele>577</ele>
        <time>2011-11-20T09:52:49.000Z</time>
      </trkpt>
      <trkpt lat="45.84069" lon="4.78669">
        <ele>576.59997558594</ele>
        <time>2011-11-20T09:52:54.000Z</time>
      </trkpt>
      <trkpt lat="45.84069" lon="4.7867">
        <ele>576.40002441406</ele>
        <time>2011-11-20T09:52:55.000Z</time>
      </trkpt>
      <trkpt lat="45.84071" lon="4.78677">
        <ele>576</ele>
        <time>2011-11-20T09:53:01.000Z</time>
      </trkpt>
      <trkpt lat="45.84072" lon="4.78685">
        <ele>575.59997558594</ele>
        <time>2011-11-20T09:53:07.000Z</time>
      </trkpt>
      <trkpt lat="45.84072" lon="4.78687">
        <ele>575.40002441406</ele>
        <time>2011-11-20T09:53:08.000Z</time>
      </trkpt>
      <trkpt lat="45.84077" lon="4.78694">
        <ele>574.79998779297</ele>
        <time>2011-11-20T09:53:13.000Z</time>
      </trkpt>
      <trkpt lat="45.84085" lon="4.78701">
        <ele>574</ele>
        <time>2011-11-20T09:53:19.000Z</time>
      </trkpt>
      <trkpt lat="45.84087" lon="4.78702">
        <ele>573.79998779297</ele>
        <time>2011-11-20T09:53:21.000Z</time>
      </trkpt>
      <trkpt lat="45.84093" lon="4.78708">
        <ele>573</ele>
        <time>2011-11-20T09:53:26.000Z</time>
      </trkpt>
      <trkpt lat="45.84102" lon="4.78715">
        <ele>572</ele>
        <time>2011-11-20T09:53:30.000Z</time>
      </trkpt>
      <trkpt lat="45.84104" lon="4.78717">
        <ele>571.79998779297</ele>
        <time>2011-11-20T09:53:31.000Z</time>
      </trkpt>
      <trkpt lat="45.8411" lon="4.78727">
        <ele>571</ele>
        <time>2011-11-20T09:53:34.000Z</time>
      </trkpt>
      <trkpt lat="45.84116" lon="4.78741">
        <ele>570</ele>
        <time>2011-11-20T09:53:38.000Z</time>
      </trkpt>
      <trkpt lat="45.84117" lon="4.78744">
        <ele>569.79998779297</ele>
        <time>2011-11-20T09:53:39.000Z</time>
      </trkpt>
      <trkpt lat="45.84122" lon="4.78755">
        <ele>569</ele>
        <time>2011-11-20T09:53:43.000Z</time>
      </trkpt>
      <trkpt lat="45.84123" lon="4.78756">
        <ele>568.79998779297</ele>
        <time>2011-11-20T09:53:44.000Z</time>
      </trkpt>
      <trkpt lat="45.84127" lon="4.78762">
        <ele>568.20001220703</ele>
        <time>2011-11-20T09:53:48.000Z</time>
      </trkpt>
      <trkpt lat="45.84128" lon="4.78765">
        <ele>568</ele>
        <time>2011-11-20T09:53:49.000Z</time>
      </trkpt>
      <trkpt lat="45.8413" lon="4.78768">
        <ele>567.79998779297</ele>
        <time>2011-11-20T09:53:50.000Z</time>
      </trkpt>
      <trkpt lat="45.8413" lon="4.78772">
        <ele>567.79998779297</ele>
        <time>2011-11-20T09:53:51.000Z</time>
      </trkpt>
      <trkpt lat="45.8413" lon="4.78781">
        <ele>567.40002441406</ele>
        <time>2011-11-20T09:53:54.000Z</time>
      </trkpt>
      <trkpt lat="45.84131" lon="4.78784">
        <ele>567.20001220703</ele>
        <time>2011-11-20T09:53:55.000Z</time>
      </trkpt>
      <trkpt lat="45.84134" lon="4.78787">
        <ele>567</ele>
        <time>2011-11-20T09:53:56.000Z</time>
      </trkpt>
      <trkpt lat="45.84136" lon="4.78789">
        <ele>566.79998779297</ele>
        <time>2011-11-20T09:53:57.000Z</time>
      </trkpt>
      <trkpt lat="45.84147" lon="4.78794">
        <ele>566</ele>
        <time>2011-11-20T09:54:01.000Z</time>
      </trkpt>
      <trkpt lat="45.84151" lon="4.78796">
        <ele>565.79998779297</ele>
        <time>2011-11-20T09:54:02.000Z</time>
      </trkpt>
      <trkpt lat="45.84158" lon="4.78805">
        <ele>565.20001220703</ele>
        <time>2011-11-20T09:54:05.000Z</time>
      </trkpt>
      <trkpt lat="45.84165" lon="4.78817">
        <ele>565</ele>
        <time>2011-11-20T09:54:08.000Z</time>
      </trkpt>
      <trkpt lat="45.84166" lon="4.7882">
        <ele>565</ele>
        <time>2011-11-20T09:54:09.000Z</time>
      </trkpt>
      <trkpt lat="45.84168" lon="4.78822">
        <ele>564.79998779297</ele>
        <time>2011-11-20T09:54:10.000Z</time>
      </trkpt>
      <trkpt lat="45.84174" lon="4.78822">
        <ele>564.20001220703</ele>
        <time>2011-11-20T09:54:12.000Z</time>
      </trkpt>
      <trkpt lat="45.84181" lon="4.78817">
        <ele>563.40002441406</ele>
        <time>2011-11-20T09:54:15.000Z</time>
      </trkpt>
      <trkpt lat="45.84183" lon="4.78816">
        <ele>563.20001220703</ele>
        <time>2011-11-20T09:54:16.000Z</time>
      </trkpt>
      <trkpt lat="45.84186" lon="4.78812">
        <ele>562.79998779297</ele>
        <time>2011-11-20T09:54:18.000Z</time>
      </trkpt>
      <trkpt lat="45.8419" lon="4.78814">
        <ele>562.40002441406</ele>
        <time>2011-11-20T09:54:20.000Z</time>
      </trkpt>
      <trkpt lat="45.84195" lon="4.78823">
        <ele>561.79998779297</ele>
        <time>2011-11-20T09:54:22.000Z</time>
      </trkpt>
      <trkpt lat="45.84198" lon="4.7883">
        <ele>561.59997558594</ele>
        <time>2011-11-20T09:54:24.000Z</time>
      </trkpt>
      <trkpt lat="45.84199" lon="4.78834">
        <ele>561.40002441406</ele>
        <time>2011-11-20T09:54:25.000Z</time>
      </trkpt>
      <trkpt lat="45.84201" lon="4.78842">
        <ele>560.79998779297</ele>
        <time>2011-11-20T09:54:28.000Z</time>
      </trkpt>
      <trkpt lat="45.84205" lon="4.78847">
        <ele>560.20001220703</ele>
        <time>2011-11-20T09:54:30.000Z</time>
      </trkpt>
      <trkpt lat="45.84209" lon="4.78857">
        <ele>559.59997558594</ele>
        <time>2011-11-20T09:54:33.000Z</time>
      </trkpt>
      <trkpt lat="45.84211" lon="4.7886">
        <ele>559.20001220703</ele>
        <time>2011-11-20T09:54:34.000Z</time>
      </trkpt>
      <trkpt lat="45.84215" lon="4.78869">
        <ele>558.59997558594</ele>
        <time>2011-11-20T09:54:37.000Z</time>
      </trkpt>
      <trkpt lat="45.84217" lon="4.78877">
        <ele>558.20001220703</ele>
        <time>2011-11-20T09:54:39.000Z</time>
      </trkpt>
      <trkpt lat="45.8422" lon="4.78897">
        <ele>557.40002441406</ele>
        <time>2011-11-20T09:54:44.000Z</time>
      </trkpt>
      <trkpt lat="45.8422" lon="4.78917">
        <ele>557</ele>
        <time>2011-11-20T09:54:49.000Z</time>
      </trkpt>
      <trkpt lat="45.84218" lon="4.78925">
        <ele>556.59997558594</ele>
        <time>2011-11-20T09:54:51.000Z</time>
      </trkpt>
      <trkpt lat="45.84215" lon="4.78934">
        <ele>556</ele>
        <time>2011-11-20T09:54:54.000Z</time>
      </trkpt>
      <trkpt lat="45.84208" lon="4.78946">
        <ele>555.40002441406</ele>
        <time>2011-11-20T09:54:58.000Z</time>
      </trkpt>
      <trkpt lat="45.84203" lon="4.7895">
        <ele>555.20001220703</ele>
        <time>2011-11-20T09:55:00.000Z</time>
      </trkpt>
      <trkpt lat="45.84195" lon="4.78964">
        <ele>554.20001220703</ele>
        <time>2011-11-20T09:55:05.000Z</time>
      </trkpt>
      <trkpt lat="45.84193" lon="4.78969">
        <ele>554</ele>
        <time>2011-11-20T09:55:06.000Z</time>
      </trkpt>
      <trkpt lat="45.84187" lon="4.78985">
        <ele>552.59997558594</ele>
        <time>2011-11-20T09:55:11.000Z</time>
      </trkpt>
      <trkpt lat="45.84186" lon="4.78988">
        <ele>552.40002441406</ele>
        <time>2011-11-20T09:55:12.000Z</time>
      </trkpt>
      <trkpt lat="45.84183" lon="4.79">
        <ele>551.20001220703</ele>
        <time>2011-11-20T09:55:16.000Z</time>
      </trkpt>
      <trkpt lat="45.84182" lon="4.79015">
        <ele>549.40002441406</ele>
        <time>2011-11-20T09:55:20.000Z</time>
      </trkpt>
      <trkpt lat="45.8418" lon="4.79043">
        <ele>546</ele>
        <time>2011-11-20T09:55:26.000Z</time>
      </trkpt>
      <trkpt lat="45.84178" lon="4.79064">
        <ele>543.40002441406</ele>
        <time>2011-11-20T09:55:30.000Z</time>
      </trkpt>
      <trkpt lat="45.84178" lon="4.79071">
        <ele>542.59997558594</ele>
        <time>2011-11-20T09:55:31.000Z</time>
      </trkpt>
      <trkpt lat="45.84175" lon="4.79086">
        <ele>540.59997558594</ele>
        <time>2011-11-20T09:55:34.000Z</time>
      </trkpt>
      <trkpt lat="45.84173" lon="4.79098">
        <ele>539.20001220703</ele>
        <time>2011-11-20T09:55:36.000Z</time>
      </trkpt>
      <trkpt lat="45.84172" lon="4.79109">
        <ele>537.59997558594</ele>
        <time>2011-11-20T09:55:38.000Z</time>
      </trkpt>
      <trkpt lat="45.84171" lon="4.79127">
        <ele>535.20001220703</ele>
        <time>2011-11-20T09:55:41.000Z</time>
      </trkpt>
      <trkpt lat="45.8417" lon="4.79133">
        <ele>534.40002441406</ele>
        <time>2011-11-20T09:55:42.000Z</time>
      </trkpt>
      <trkpt lat="45.8417" lon="4.7914">
        <ele>533.59997558594</ele>
        <time>2011-11-20T09:55:43.000Z</time>
      </trkpt>
      <trkpt lat="45.84171" lon="4.79153">
        <ele>531.79998779297</ele>
        <time>2011-11-20T09:55:46.000Z</time>
      </trkpt>
      <trkpt lat="45.84173" lon="4.79152">
        <ele>532</ele>
        <time>2011-11-20T09:55:47.000Z</time>
      </trkpt>
      <trkpt lat="45.84173" lon="4.79151">
        <ele>532.20001220703</ele>
        <time>2011-11-20T09:55:48.000Z</time>
      </trkpt>
      <trkpt lat="45.84173" lon="4.7915">
        <ele>532.40002441406</ele>
        <time>2011-11-20T09:55:49.000Z</time>
      </trkpt>
      <trkpt lat="45.84173" lon="4.79149">
        <ele>532.59997558594</ele>
        <time>2011-11-20T09:55:50.000Z</time>
      </trkpt>
      <trkpt lat="45.84172" lon="4.79148">
        <ele>532.59997558594</ele>
        <time>2011-11-20T09:55:59.000Z</time>
      </trkpt>
      <trkpt lat="45.84177" lon="4.79161">
        <ele>531</ele>
        <time>2011-11-20T09:56:04.000Z</time>
      </trkpt>
      <trkpt lat="45.84179" lon="4.79165">
        <ele>530.79998779297</ele>
        <time>2011-11-20T09:56:05.000Z</time>
      </trkpt>
      <trkpt lat="45.84188" lon="4.79177">
        <ele>530</ele>
        <time>2011-11-20T09:56:09.000Z</time>
      </trkpt>
      <trkpt lat="45.84192" lon="4.79184">
        <ele>529.79998779297</ele>
        <time>2011-11-20T09:56:11.000Z</time>
      </trkpt>
      <trkpt lat="45.84201" lon="4.79195">
        <ele>529.40002441406</ele>
        <time>2011-11-20T09:56:15.000Z</time>
      </trkpt>
      <trkpt lat="45.84207" lon="4.79203">
        <ele>529.20001220703</ele>
        <time>2011-11-20T09:56:18.000Z</time>
      </trkpt>
      <trkpt lat="45.84212" lon="4.79209">
        <ele>529</ele>
        <time>2011-11-20T09:56:20.000Z</time>
      </trkpt>
      <trkpt lat="45.8422" lon="4.79221">
        <ele>528.79998779297</ele>
        <time>2011-11-20T09:56:24.000Z</time>
      </trkpt>
      <trkpt lat="45.84223" lon="4.79224">
        <ele>528.79998779297</ele>
        <time>2011-11-20T09:56:25.000Z</time>
      </trkpt>
      <trkpt lat="45.84234" lon="4.7924">
        <ele>528.40002441406</ele>
        <time>2011-11-20T09:56:31.000Z</time>
      </trkpt>
      <trkpt lat="45.84242" lon="4.79258">
        <ele>528.20001220703</ele>
        <time>2011-11-20T09:56:37.000Z</time>
      </trkpt>
      <trkpt lat="45.84244" lon="4.79264">
        <ele>528.20001220703</ele>
        <time>2011-11-20T09:56:39.000Z</time>
      </trkpt>
      <trkpt lat="45.84246" lon="4.79278">
        <ele>528</ele>
        <time>2011-11-20T09:56:43.000Z</time>
      </trkpt>
      <trkpt lat="45.84247" lon="4.79292">
        <ele>527.79998779297</ele>
        <time>2011-11-20T09:56:47.000Z</time>
      </trkpt>
      <trkpt lat="45.84246" lon="4.79295">
        <ele>527.59997558594</ele>
        <time>2011-11-20T09:56:48.000Z</time>
      </trkpt>
      <trkpt lat="45.84245" lon="4.79298">
        <ele>527.59997558594</ele>
        <time>2011-11-20T09:56:49.000Z</time>
      </trkpt>
      <trkpt lat="45.84242" lon="4.79308">
        <ele>527.20001220703</ele>
        <time>2011-11-20T09:56:52.000Z</time>
      </trkpt>
      <trkpt lat="45.84239" lon="4.79317">
        <ele>527</ele>
        <time>2011-11-20T09:56:55.000Z</time>
      </trkpt>
      <trkpt lat="45.84238" lon="4.7932">
        <ele>526.79998779297</ele>
        <time>2011-11-20T09:56:56.000Z</time>
      </trkpt>
      <trkpt lat="45.84237" lon="4.79335">
        <ele>526.59997558594</ele>
        <time>2011-11-20T09:57:01.000Z</time>
      </trkpt>
      <trkpt lat="45.84238" lon="4.79342">
        <ele>527</ele>
        <time>2011-11-20T09:57:04.000Z</time>
      </trkpt>
      <trkpt lat="45.84239" lon="4.79344">
        <ele>527.20001220703</ele>
        <time>2011-11-20T09:57:05.000Z</time>
      </trkpt>
      <trkpt lat="45.84239" lon="4.79345">
        <ele>527.20001220703</ele>
        <time>2011-11-20T09:57:06.000Z</time>
      </trkpt>
      <trkpt lat="45.84249" lon="4.79347">
        <ele>527.40002441406</ele>
        <time>2011-11-20T09:57:11.000Z</time>
      </trkpt>
      <trkpt lat="45.84258" lon="4.79347">
        <ele>527</ele>
        <time>2011-11-20T09:57:15.000Z</time>
      </trkpt>
      <trkpt lat="45.84264" lon="4.79348">
        <ele>526.79998779297</ele>
        <time>2011-11-20T09:57:17.000Z</time>
      </trkpt>
      <trkpt lat="45.84276" lon="4.79348">
        <ele>526.20001220703</ele>
        <time>2011-11-20T09:57:22.000Z</time>
      </trkpt>
      <trkpt lat="45.84278" lon="4.7935">
        <ele>526.20001220703</ele>
        <time>2011-11-20T09:57:23.000Z</time>
      </trkpt>
      <trkpt lat="45.84277" lon="4.79354">
        <ele>526.40002441406</ele>
        <time>2011-11-20T09:57:25.000Z</time>
      </trkpt>
      <trkpt lat="45.84274" lon="4.7936">
        <ele>526.79998779297</ele>
        <time>2011-11-20T09:57:27.000Z</time>
      </trkpt>
      <trkpt lat="45.84268" lon="4.79364">
        <ele>527.20001220703</ele>
        <time>2011-11-20T09:57:29.000Z</time>
      </trkpt>
      <trkpt lat="45.84266" lon="4.79365">
        <ele>527.40002441406</ele>
        <time>2011-11-20T09:57:30.000Z</time>
      </trkpt>
      <trkpt lat="45.84254" lon="4.79378">
        <ele>528.40002441406</ele>
        <time>2011-11-20T09:57:35.000Z</time>
      </trkpt>
      <trkpt lat="45.84251" lon="4.79383">
        <ele>528.59997558594</ele>
        <time>2011-11-20T09:57:37.000Z</time>
      </trkpt>
      <trkpt lat="45.84246" lon="4.79387">
        <ele>529</ele>
        <time>2011-11-20T09:57:39.000Z</time>
      </trkpt>
      <trkpt lat="45.84238" lon="4.79401">
        <ele>529.79998779297</ele>
        <time>2011-11-20T09:57:44.000Z</time>
      </trkpt>
      <trkpt lat="45.8423" lon="4.79413">
        <ele>530.79998779297</ele>
        <time>2011-11-20T09:57:50.000Z</time>
      </trkpt>
      <trkpt lat="45.84228" lon="4.79422">
        <ele>532.40002441406</ele>
        <time>2011-11-20T09:57:56.000Z</time>
      </trkpt>
      <trkpt lat="45.84227" lon="4.79424">
        <ele>532.59997558594</ele>
        <time>2011-11-20T09:57:57.000Z</time>
      </trkpt>
      <trkpt lat="45.84225" lon="4.79432">
        <ele>534.40002441406</ele>
        <time>2011-11-20T09:58:04.000Z</time>
      </trkpt>
      <trkpt lat="45.84223" lon="4.79444">
        <ele>536.59997558594</ele>
        <time>2011-11-20T09:58:12.000Z</time>
      </trkpt>
      <trkpt lat="45.84223" lon="4.79448">
        <ele>537.40002441406</ele>
        <time>2011-11-20T09:58:15.000Z</time>
      </trkpt>
      <trkpt lat="45.84222" lon="4.79451">
        <ele>538</ele>
        <time>2011-11-20T09:58:17.000Z</time>
      </trkpt>
      <trkpt lat="45.8422" lon="4.79461">
        <ele>540</ele>
        <time>2011-11-20T09:58:23.000Z</time>
      </trkpt>
      <trkpt lat="45.84219" lon="4.79473">
        <ele>542.59997558594</ele>
        <time>2011-11-20T09:58:32.000Z</time>
      </trkpt>
      <trkpt lat="45.8422" lon="4.79476">
        <ele>543</ele>
        <time>2011-11-20T09:58:34.000Z</time>
      </trkpt>
      <trkpt lat="45.8422" lon="4.79483">
        <ele>544.20001220703</ele>
        <time>2011-11-20T09:58:39.000Z</time>
      </trkpt>
      <trkpt lat="45.8422" lon="4.79486">
        <ele>544.79998779297</ele>
        <time>2011-11-20T09:58:42.000Z</time>
      </trkpt>
      <trkpt lat="45.84219" lon="4.79492">
        <ele>546.20001220703</ele>
        <time>2011-11-20T09:58:47.000Z</time>
      </trkpt>
      <trkpt lat="45.84218" lon="4.79494">
        <ele>546.40002441406</ele>
        <time>2011-11-20T09:58:48.000Z</time>
      </trkpt>
      <trkpt lat="45.84217" lon="4.795">
        <ele>547.79998779297</ele>
        <time>2011-11-20T09:58:53.000Z</time>
      </trkpt>
      <trkpt lat="45.84216" lon="4.79502">
        <ele>548.59997558594</ele>
        <time>2011-11-20T09:58:54.000Z</time>
      </trkpt>
      <trkpt lat="45.84214" lon="4.79508">
        <ele>550.20001220703</ele>
        <time>2011-11-20T09:58:57.000Z</time>
      </trkpt>
      <trkpt lat="45.84213" lon="4.79511">
        <ele>551</ele>
        <time>2011-11-20T09:59:00.000Z</time>
      </trkpt>
      <trkpt lat="45.84211" lon="4.79516">
        <ele>552.40002441406</ele>
        <time>2011-11-20T09:59:06.000Z</time>
      </trkpt>
      <trkpt lat="45.84209" lon="4.79522">
        <ele>554</ele>
        <time>2011-11-20T09:59:12.000Z</time>
      </trkpt>
      <trkpt lat="45.84208" lon="4.79524">
        <ele>554.79998779297</ele>
        <time>2011-11-20T09:59:16.000Z</time>
      </trkpt>
      <trkpt lat="45.84208" lon="4.79526">
        <ele>555</ele>
        <time>2011-11-20T09:59:18.000Z</time>
      </trkpt>
      <trkpt lat="45.84207" lon="4.79527">
        <ele>555.40002441406</ele>
        <time>2011-11-20T09:59:25.000Z</time>
      </trkpt>
      <trkpt lat="45.84201" lon="4.79524">
        <ele>555.79998779297</ele>
        <time>2011-11-20T09:59:32.000Z</time>
      </trkpt>
      <trkpt lat="45.84202" lon="4.79526">
        <ele>556.20001220703</ele>
        <time>2011-11-20T09:59:43.000Z</time>
      </trkpt>
      <trkpt lat="45.84204" lon="4.79528">
        <ele>556.20001220703</ele>
        <time>2011-11-20T09:59:52.000Z</time>
      </trkpt>
      <trkpt lat="45.84206" lon="4.79528">
        <ele>556</ele>
        <time>2011-11-20T10:00:00.000Z</time>
      </trkpt>
      <trkpt lat="45.84207" lon="4.79529">
        <ele>556</ele>
        <time>2011-11-20T10:00:17.000Z</time>
      </trkpt>
      <trkpt lat="45.84206" lon="4.79527">
        <ele>555.59997558594</ele>
        <time>2011-11-20T10:00:20.000Z</time>
      </trkpt>
      <trkpt lat="45.84205" lon="4.79525">
        <ele>555.40002441406</ele>
        <time>2011-11-20T10:00:26.000Z</time>
      </trkpt>
      <trkpt lat="45.84205" lon="4.79524">
        <ele>555</ele>
        <time>2011-11-20T10:00:27.000Z</time>
      </trkpt>
      <trkpt lat="45.84209" lon="4.79524">
        <ele>554.59997558594</ele>
        <time>2011-11-20T10:00:31.000Z</time>
      </trkpt>
      <trkpt lat="45.84209" lon="4.79525">
        <ele>554.79998779297</ele>
        <time>2011-11-20T10:00:32.000Z</time>
      </trkpt>
      <trkpt lat="45.8421" lon="4.79526">
        <ele>554.79998779297</ele>
        <time>2011-11-20T10:00:35.000Z</time>
      </trkpt>
      <trkpt lat="45.84209" lon="4.79526">
        <ele>555</ele>
        <time>2011-11-20T10:00:46.000Z</time>
      </trkpt>
      <trkpt lat="45.84211" lon="4.7953">
        <ele>555.79998779297</ele>
        <time>2011-11-20T10:01:17.000Z</time>
      </trkpt>
      <trkpt lat="45.84215" lon="4.79532">
        <ele>555.59997558594</ele>
        <time>2011-11-20T10:01:20.000Z</time>
      </trkpt>
      <trkpt lat="45.84216" lon="4.79532">
        <ele>555.40002441406</ele>
        <time>2011-11-20T10:01:21.000Z</time>
      </trkpt>
      <trkpt lat="45.84223" lon="4.79536">
        <ele>555.20001220703</ele>
        <time>2011-11-20T10:01:28.000Z</time>
      </trkpt>
      <trkpt lat="45.84229" lon="4.79542">
        <ele>555.40002441406</ele>
        <time>2011-11-20T10:01:35.000Z</time>
      </trkpt>
      <trkpt lat="45.84228" lon="4.79543">
        <ele>555.79998779297</ele>
        <time>2011-11-20T10:01:37.000Z</time>
      </trkpt>
      <trkpt lat="45.84227" lon="4.79552">
        <ele>558</ele>
        <time>2011-11-20T10:01:41.000Z</time>
      </trkpt>
      <trkpt lat="45.84221" lon="4.7956">
        <ele>560.79998779297</ele>
        <time>2011-11-20T10:01:46.000Z</time>
      </trkpt>
      <trkpt lat="45.84219" lon="4.79565">
        <ele>562.40002441406</ele>
        <time>2011-11-20T10:01:50.000Z</time>
      </trkpt>
      <trkpt lat="45.84219" lon="4.79567">
        <ele>562.79998779297</ele>
        <time>2011-11-20T10:01:52.000Z</time>
      </trkpt>
      <trkpt lat="45.84218" lon="4.79571">
        <ele>564</ele>
        <time>2011-11-20T10:01:56.000Z</time>
      </trkpt>
      <trkpt lat="45.84218" lon="4.79575">
        <ele>564.79998779297</ele>
        <time>2011-11-20T10:01:58.000Z</time>
      </trkpt>
      <trkpt lat="45.84219" lon="4.79577">
        <ele>565.20001220703</ele>
        <time>2011-11-20T10:02:00.000Z</time>
      </trkpt>
      <trkpt lat="45.84221" lon="4.79582">
        <ele>566</ele>
        <time>2011-11-20T10:02:02.000Z</time>
      </trkpt>
      <trkpt lat="45.84221" lon="4.79592">
        <ele>567.79998779297</ele>
        <time>2011-11-20T10:02:07.000Z</time>
      </trkpt>
      <trkpt lat="45.8422" lon="4.79594">
        <ele>568.20001220703</ele>
        <time>2011-11-20T10:02:08.000Z</time>
      </trkpt>
      <trkpt lat="45.8422" lon="4.79596">
        <ele>568.59997558594</ele>
        <time>2011-11-20T10:02:09.000Z</time>
      </trkpt>
      <trkpt lat="45.84218" lon="4.79601">
        <ele>570</ele>
        <time>2011-11-20T10:02:14.000Z</time>
      </trkpt>
      <trkpt lat="45.84215" lon="4.79605">
        <ele>571.40002441406</ele>
        <time>2011-11-20T10:02:20.000Z</time>
      </trkpt>
      <trkpt lat="45.84217" lon="4.796">
        <ele>569.79998779297</ele>
        <time>2011-11-20T10:02:24.000Z</time>
      </trkpt>
      <trkpt lat="45.84218" lon="4.796">
        <ele>569.79998779297</ele>
        <time>2011-11-20T10:02:25.000Z</time>
      </trkpt>
      <trkpt lat="45.84219" lon="4.79602">
        <ele>569.79998779297</ele>
        <time>2011-11-20T10:02:27.000Z</time>
      </trkpt>
      <trkpt lat="45.84223" lon="4.79605">
        <ele>569.59997558594</ele>
        <time>2011-11-20T10:02:30.000Z</time>
      </trkpt>
      <trkpt lat="45.84227" lon="4.79613">
        <ele>570</ele>
        <time>2011-11-20T10:02:35.000Z</time>
      </trkpt>
      <trkpt lat="45.8423" lon="4.79621">
        <ele>570.79998779297</ele>
        <time>2011-11-20T10:02:40.000Z</time>
      </trkpt>
      <trkpt lat="45.84229" lon="4.79623">
        <ele>571.20001220703</ele>
        <time>2011-11-20T10:02:41.000Z</time>
      </trkpt>
      <trkpt lat="45.84228" lon="4.79624">
        <ele>571.59997558594</ele>
        <time>2011-11-20T10:02:42.000Z</time>
      </trkpt>
      <trkpt lat="45.84228" lon="4.79627">
        <ele>572.20001220703</ele>
        <time>2011-11-20T10:02:44.000Z</time>
      </trkpt>
      <trkpt lat="45.84226" lon="4.79632">
        <ele>573.40002441406</ele>
        <time>2011-11-20T10:02:47.000Z</time>
      </trkpt>
      <trkpt lat="45.84224" lon="4.79642">
        <ele>575.79998779297</ele>
        <time>2011-11-20T10:02:54.000Z</time>
      </trkpt>
      <trkpt lat="45.84224" lon="4.79643">
        <ele>576</ele>
        <time>2011-11-20T10:02:55.000Z</time>
      </trkpt>
      <trkpt lat="45.84224" lon="4.79649">
        <ele>577</ele>
        <time>2011-11-20T10:03:00.000Z</time>
      </trkpt>
      <trkpt lat="45.84223" lon="4.7965">
        <ele>577.40002441406</ele>
        <time>2011-11-20T10:03:01.000Z</time>
      </trkpt>
      <trkpt lat="45.8422" lon="4.79658">
        <ele>579.59997558594</ele>
        <time>2011-11-20T10:03:07.000Z</time>
      </trkpt>
      <trkpt lat="45.8422" lon="4.79659">
        <ele>579.79998779297</ele>
        <time>2011-11-20T10:03:08.000Z</time>
      </trkpt>
      <trkpt lat="45.84219" lon="4.79663">
        <ele>580.79998779297</ele>
        <time>2011-11-20T10:03:11.000Z</time>
      </trkpt>
      <trkpt lat="45.84219" lon="4.79663">
        <ele>581</ele>
        <time>2011-11-20T10:03:12.000Z</time>
      </trkpt>
      <trkpt lat="45.84218" lon="4.79666">
        <ele>581.59997558594</ele>
        <time>2011-11-20T10:03:14.000Z</time>
      </trkpt>
      <trkpt lat="45.84218" lon="4.79673">
        <ele>582.40002441406</ele>
        <time>2011-11-20T10:03:21.000Z</time>
      </trkpt>
      <trkpt lat="45.84218" lon="4.79674">
        <ele>582.59997558594</ele>
        <time>2011-11-20T10:03:22.000Z</time>
      </trkpt>
      <trkpt lat="45.84218" lon="4.79678">
        <ele>582.79998779297</ele>
        <time>2011-11-20T10:03:27.000Z</time>
      </trkpt>
      <trkpt lat="45.84215" lon="4.79679">
        <ele>583.59997558594</ele>
        <time>2011-11-20T10:03:32.000Z</time>
      </trkpt>
      <trkpt lat="45.84214" lon="4.79683">
        <ele>584.40002441406</ele>
        <time>2011-11-20T10:03:37.000Z</time>
      </trkpt>
      <trkpt lat="45.84213" lon="4.79685">
        <ele>585</ele>
        <time>2011-11-20T10:03:43.000Z</time>
      </trkpt>
      <trkpt lat="45.84209" lon="4.79687">
        <ele>586</ele>
        <time>2011-11-20T10:03:50.000Z</time>
      </trkpt>
      <trkpt lat="45.84207" lon="4.79693">
        <ele>587.20001220703</ele>
        <time>2011-11-20T10:04:00.000Z</time>
      </trkpt>
      <trkpt lat="45.84206" lon="4.79693">
        <ele>587.20001220703</ele>
        <time>2011-11-20T10:04:01.000Z</time>
      </trkpt>
      <trkpt lat="45.84203" lon="4.79698">
        <ele>588.40002441406</ele>
        <time>2011-11-20T10:04:11.000Z</time>
      </trkpt>
      <trkpt lat="45.84203" lon="4.79699">
        <ele>588.59997558594</ele>
        <time>2011-11-20T10:04:17.000Z</time>
      </trkpt>
      <trkpt lat="45.84203" lon="4.797">
        <ele>588.59997558594</ele>
        <time>2011-11-20T10:04:18.000Z</time>
      </trkpt>
      <trkpt lat="45.84205" lon="4.79704">
        <ele>588.59997558594</ele>
        <time>2011-11-20T10:04:21.000Z</time>
      </trkpt>
      <trkpt lat="45.84203" lon="4.79709">
        <ele>589.40002441406</ele>
        <time>2011-11-20T10:04:25.000Z</time>
      </trkpt>
      <trkpt lat="45.84199" lon="4.79707">
        <ele>590.20001220703</ele>
        <time>2011-11-20T10:04:29.000Z</time>
      </trkpt>
      <trkpt lat="45.84198" lon="4.79707">
        <ele>590.20001220703</ele>
        <time>2011-11-20T10:04:30.000Z</time>
      </trkpt>
      <trkpt lat="45.84197" lon="4.79706">
        <ele>590.40002441406</ele>
        <time>2011-11-20T10:04:31.000Z</time>
      </trkpt>
      <trkpt lat="45.84195" lon="4.79704">
        <ele>590.59997558594</ele>
        <time>2011-11-20T10:04:36.000Z</time>
      </trkpt>
      <trkpt lat="45.84198" lon="4.79708">
        <ele>590.20001220703</ele>
        <time>2011-11-20T10:04:42.000Z</time>
      </trkpt>
      <trkpt lat="45.84201" lon="4.79708">
        <ele>589.59997558594</ele>
        <time>2011-11-20T10:04:48.000Z</time>
      </trkpt>
      <trkpt lat="45.84202" lon="4.79711">
        <ele>589.79998779297</ele>
        <time>2011-11-20T10:05:30.000Z</time>
      </trkpt>
      <trkpt lat="45.84201" lon="4.7971">
        <ele>589.79998779297</ele>
        <time>2011-11-20T10:05:39.000Z</time>
      </trkpt>
      <trkpt lat="45.84199" lon="4.7971">
        <ele>590.20001220703</ele>
        <time>2011-11-20T10:06:00.000Z</time>
      </trkpt>
      <trkpt lat="45.84204" lon="4.79711">
        <ele>589.40002441406</ele>
        <time>2011-11-20T10:06:15.000Z</time>
      </trkpt>
      <trkpt lat="45.84201" lon="4.79718">
        <ele>590.40002441406</ele>
        <time>2011-11-20T10:06:22.000Z</time>
      </trkpt>
      <trkpt lat="45.84195" lon="4.79727">
        <ele>592.20001220703</ele>
        <time>2011-11-20T10:06:29.000Z</time>
      </trkpt>
      <trkpt lat="45.84194" lon="4.79729">
        <ele>592.40002441406</ele>
        <time>2011-11-20T10:06:30.000Z</time>
      </trkpt>
      <trkpt lat="45.84187" lon="4.79742">
        <ele>594.59997558594</ele>
        <time>2011-11-20T10:06:38.000Z</time>
      </trkpt>
      <trkpt lat="45.84184" lon="4.79749">
        <ele>595.40002441406</ele>
        <time>2011-11-20T10:06:42.000Z</time>
      </trkpt>
      <trkpt lat="45.8418" lon="4.79755">
        <ele>595.79998779297</ele>
        <time>2011-11-20T10:06:46.000Z</time>
      </trkpt>
      <trkpt lat="45.84175" lon="4.79768">
        <ele>595.59997558594</ele>
        <time>2011-11-20T10:06:53.000Z</time>
      </trkpt>
      <trkpt lat="45.84173" lon="4.79772">
        <ele>595.59997558594</ele>
        <time>2011-11-20T10:06:55.000Z</time>
      </trkpt>
      <trkpt lat="45.84173" lon="4.79781">
        <ele>595</ele>
        <time>2011-11-20T10:07:00.000Z</time>
      </trkpt>
      <trkpt lat="45.84177" lon="4.79791">
        <ele>594</ele>
        <time>2011-11-20T10:07:06.000Z</time>
      </trkpt>
      <trkpt lat="45.84178" lon="4.79796">
        <ele>593.79998779297</ele>
        <time>2011-11-20T10:07:09.000Z</time>
      </trkpt>
      <trkpt lat="45.84179" lon="4.79798">
        <ele>593.59997558594</ele>
        <time>2011-11-20T10:07:11.000Z</time>
      </trkpt>
      <trkpt lat="45.84179" lon="4.79799">
        <ele>593.40002441406</ele>
        <time>2011-11-20T10:07:12.000Z</time>
      </trkpt>
      <trkpt lat="45.84183" lon="4.79804">
        <ele>593</ele>
        <time>2011-11-20T10:07:16.000Z</time>
      </trkpt>
      <trkpt lat="45.84187" lon="4.79808">
        <ele>592.59997558594</ele>
        <time>2011-11-20T10:07:18.000Z</time>
      </trkpt>
      <trkpt lat="45.84192" lon="4.79816">
        <ele>592</ele>
        <time>2011-11-20T10:07:21.000Z</time>
      </trkpt>
      <trkpt lat="45.84198" lon="4.79823">
        <ele>591.40002441406</ele>
        <time>2011-11-20T10:07:24.000Z</time>
      </trkpt>
      <trkpt lat="45.84206" lon="4.79835">
        <ele>590.79998779297</ele>
        <time>2011-11-20T10:07:28.000Z</time>
      </trkpt>
      <trkpt lat="45.84221" lon="4.79847">
        <ele>588.59997558594</ele>
        <time>2011-11-20T10:07:34.000Z</time>
      </trkpt>
      <trkpt lat="45.84223" lon="4.79849">
        <ele>588.40002441406</ele>
        <time>2011-11-20T10:07:35.000Z</time>
      </trkpt>
      <trkpt lat="45.84233" lon="4.79862">
        <ele>586.40002441406</ele>
        <time>2011-11-20T10:07:40.000Z</time>
      </trkpt>
      <trkpt lat="45.84237" lon="4.79869">
        <ele>585.40002441406</ele>
        <time>2011-11-20T10:07:42.000Z</time>
      </trkpt>
      <trkpt lat="45.84241" lon="4.7988">
        <ele>583.79998779297</ele>
        <time>2011-11-20T10:07:45.000Z</time>
      </trkpt>
      <trkpt lat="45.84245" lon="4.79892">
        <ele>582.20001220703</ele>
        <time>2011-11-20T10:07:48.000Z</time>
      </trkpt>
      <trkpt lat="45.84247" lon="4.799">
        <ele>581.20001220703</ele>
        <time>2011-11-20T10:07:50.000Z</time>
      </trkpt>
      <trkpt lat="45.84251" lon="4.79919">
        <ele>578.59997558594</ele>
        <time>2011-11-20T10:07:55.000Z</time>
      </trkpt>
      <trkpt lat="45.84252" lon="4.79923">
        <ele>578</ele>
        <time>2011-11-20T10:07:56.000Z</time>
      </trkpt>
      <trkpt lat="45.84256" lon="4.79944">
        <ele>575.20001220703</ele>
        <time>2011-11-20T10:08:01.000Z</time>
      </trkpt>
      <trkpt lat="45.84255" lon="4.79965">
        <ele>573</ele>
        <time>2011-11-20T10:08:06.000Z</time>
      </trkpt>
      <trkpt lat="45.84256" lon="4.79974">
        <ele>572</ele>
        <time>2011-11-20T10:08:08.000Z</time>
      </trkpt>
      <trkpt lat="45.84254" lon="4.79993">
        <ele>569.79998779297</ele>
        <time>2011-11-20T10:08:12.000Z</time>
      </trkpt>
      <trkpt lat="45.84251" lon="4.80003">
        <ele>568.59997558594</ele>
        <time>2011-11-20T10:08:14.000Z</time>
      </trkpt>
      <trkpt lat="45.84247" lon="4.80017">
        <ele>566.40002441406</ele>
        <time>2011-11-20T10:08:17.000Z</time>
      </trkpt>
      <trkpt lat="45.84243" lon="4.80027">
        <ele>565.20001220703</ele>
        <time>2011-11-20T10:08:19.000Z</time>
      </trkpt>
      <trkpt lat="45.84236" lon="4.80041">
        <ele>563.40002441406</ele>
        <time>2011-11-20T10:08:22.000Z</time>
      </trkpt>
      <trkpt lat="45.84231" lon="4.80048">
        <ele>562.40002441406</ele>
        <time>2011-11-20T10:08:24.000Z</time>
      </trkpt>
      <trkpt lat="45.84223" lon="4.80062">
        <ele>560.59997558594</ele>
        <time>2011-11-20T10:08:27.000Z</time>
      </trkpt>
      <trkpt lat="45.84221" lon="4.80072">
        <ele>559.40002441406</ele>
        <time>2011-11-20T10:08:29.000Z</time>
      </trkpt>
      <trkpt lat="45.8422" lon="4.80083">
        <ele>558</ele>
        <time>2011-11-20T10:08:31.000Z</time>
      </trkpt>
      <trkpt lat="45.8422" lon="4.80096">
        <ele>556.20001220703</ele>
        <time>2011-11-20T10:08:34.000Z</time>
      </trkpt>
      <trkpt lat="45.84221" lon="4.80097">
        <ele>556.20001220703</ele>
        <time>2011-11-20T10:08:35.000Z</time>
      </trkpt>
      <trkpt lat="45.8422" lon="4.80096">
        <ele>556.20001220703</ele>
        <time>2011-11-20T10:08:38.000Z</time>
      </trkpt>
      <trkpt lat="45.84221" lon="4.80099">
        <ele>555.79998779297</ele>
        <time>2011-11-20T10:08:40.000Z</time>
      </trkpt>
      <trkpt lat="45.84223" lon="4.80117">
        <ele>553.40002441406</ele>
        <time>2011-11-20T10:08:44.000Z</time>
      </trkpt>
      <trkpt lat="45.84225" lon="4.80123">
        <ele>552.59997558594</ele>
        <time>2011-11-20T10:08:45.000Z</time>
      </trkpt>
      <trkpt lat="45.84231" lon="4.80137">
        <ele>550.79998779297</ele>
        <time>2011-11-20T10:08:48.000Z</time>
      </trkpt>
      <trkpt lat="45.84236" lon="4.80144">
        <ele>549.79998779297</ele>
        <time>2011-11-20T10:08:50.000Z</time>
      </trkpt>
      <trkpt lat="45.84239" lon="4.80147">
        <ele>549.40002441406</ele>
        <time>2011-11-20T10:08:51.000Z</time>
      </trkpt>
      <trkpt lat="45.84243" lon="4.80149">
        <ele>549</ele>
        <time>2011-11-20T10:08:52.000Z</time>
      </trkpt>
      <trkpt lat="45.84256" lon="4.80152">
        <ele>548.79998779297</ele>
        <time>2011-11-20T10:08:55.000Z</time>
      </trkpt>
      <trkpt lat="45.84262" lon="4.80153">
        <ele>549</ele>
        <time>2011-11-20T10:08:57.000Z</time>
      </trkpt>
      <trkpt lat="45.84273" lon="4.80157">
        <ele>548.79998779297</ele>
        <time>2011-11-20T10:09:01.000Z</time>
      </trkpt>
      <trkpt lat="45.84276" lon="4.80158">
        <ele>548.79998779297</ele>
        <time>2011-11-20T10:09:02.000Z</time>
      </trkpt>
      <trkpt lat="45.84289" lon="4.8016">
        <ele>549.20001220703</ele>
        <time>2011-11-20T10:09:07.000Z</time>
      </trkpt>
      <trkpt lat="45.84292" lon="4.80161">
        <ele>549.20001220703</ele>
        <time>2011-11-20T10:09:08.000Z</time>
      </trkpt>
      <trkpt lat="45.84305" lon="4.80165">
        <ele>549</ele>
        <time>2011-11-20T10:09:13.000Z</time>
      </trkpt>
      <trkpt lat="45.8431" lon="4.80167">
        <ele>549</ele>
        <time>2011-11-20T10:09:16.000Z</time>
      </trkpt>
      <trkpt lat="45.84315" lon="4.80168">
        <ele>549</ele>
        <time>2011-11-20T10:09:18.000Z</time>
      </trkpt>
      <trkpt lat="45.84323" lon="4.80171">
        <ele>549.20001220703</ele>
        <time>2011-11-20T10:09:22.000Z</time>
      </trkpt>
      <trkpt lat="45.84324" lon="4.80173">
        <ele>549</ele>
        <time>2011-11-20T10:09:23.000Z</time>
      </trkpt>
      <trkpt lat="45.84324" lon="4.80179">
        <ele>548.40002441406</ele>
        <time>2011-11-20T10:09:26.000Z</time>
      </trkpt>
      <trkpt lat="45.84324" lon="4.8018">
        <ele>548.20001220703</ele>
        <time>2011-11-20T10:09:27.000Z</time>
      </trkpt>
      <trkpt lat="45.84324" lon="4.80181">
        <ele>548.20001220703</ele>
        <time>2011-11-20T10:09:28.000Z</time>
      </trkpt>
      <trkpt lat="45.84324" lon="4.80185">
        <ele>547.59997558594</ele>
        <time>2011-11-20T10:09:32.000Z</time>
      </trkpt>
      <trkpt lat="45.84323" lon="4.80205">
        <ele>545.59997558594</ele>
        <time>2011-11-20T10:09:37.000Z</time>
      </trkpt>
      <trkpt lat="45.84327" lon="4.80211">
        <ele>545.20001220703</ele>
        <time>2011-11-20T10:09:39.000Z</time>
      </trkpt>
      <trkpt lat="45.84328" lon="4.8021">
        <ele>545.40002441406</ele>
        <time>2011-11-20T10:09:40.000Z</time>
      </trkpt>
      <trkpt lat="45.84337" lon="4.80207">
        <ele>546.20001220703</ele>
        <time>2011-11-20T10:09:44.000Z</time>
      </trkpt>
      <trkpt lat="45.8434" lon="4.80208">
        <ele>546.20001220703</ele>
        <time>2011-11-20T10:09:45.000Z</time>
      </trkpt>
      <trkpt lat="45.8435" lon="4.80214">
        <ele>545.79998779297</ele>
        <time>2011-11-20T10:09:48.000Z</time>
      </trkpt>
      <trkpt lat="45.84354" lon="4.80217">
        <ele>545.59997558594</ele>
        <time>2011-11-20T10:09:50.000Z</time>
      </trkpt>
      <trkpt lat="45.84357" lon="4.80219">
        <ele>545.59997558594</ele>
        <time>2011-11-20T10:09:51.000Z</time>
      </trkpt>
      <trkpt lat="45.8436" lon="4.80222">
        <ele>545.40002441406</ele>
        <time>2011-11-20T10:09:52.000Z</time>
      </trkpt>
      <trkpt lat="45.84368" lon="4.80231">
        <ele>544.59997558594</ele>
        <time>2011-11-20T10:09:56.000Z</time>
      </trkpt>
      <trkpt lat="45.84372" lon="4.80236">
        <ele>544.20001220703</ele>
        <time>2011-11-20T10:09:58.000Z</time>
      </trkpt>
      <trkpt lat="45.84375" lon="4.80238">
        <ele>544.20001220703</ele>
        <time>2011-11-20T10:09:59.000Z</time>
      </trkpt>
      <trkpt lat="45.84378" lon="4.8024">
        <ele>544</ele>
        <time>2011-11-20T10:10:01.000Z</time>
      </trkpt>
      <trkpt lat="45.84385" lon="4.80251">
        <ele>543</ele>
        <time>2011-11-20T10:10:05.000Z</time>
      </trkpt>
      <trkpt lat="45.84387" lon="4.80254">
        <ele>542.59997558594</ele>
        <time>2011-11-20T10:10:06.000Z</time>
      </trkpt>
      <trkpt lat="45.84389" lon="4.80258">
        <ele>542.20001220703</ele>
        <time>2011-11-20T10:10:07.000Z</time>
      </trkpt>
      <trkpt lat="45.84392" lon="4.80271">
        <ele>540.59997558594</ele>
        <time>2011-11-20T10:10:10.000Z</time>
      </trkpt>
      <trkpt lat="45.84395" lon="4.80286">
        <ele>538.59997558594</ele>
        <time>2011-11-20T10:10:14.000Z</time>
      </trkpt>
      <trkpt lat="45.84396" lon="4.80313">
        <ele>535.20001220703</ele>
        <time>2011-11-20T10:10:19.000Z</time>
      </trkpt>
      <trkpt lat="45.84395" lon="4.80318">
        <ele>534.40002441406</ele>
        <time>2011-11-20T10:10:20.000Z</time>
      </trkpt>
      <trkpt lat="45.84396" lon="4.80341">
        <ele>531.20001220703</ele>
        <time>2011-11-20T10:10:24.000Z</time>
      </trkpt>
      <trkpt lat="45.84396" lon="4.8036">
        <ele>528</ele>
        <time>2011-11-20T10:10:28.000Z</time>
      </trkpt>
      <trkpt lat="45.84397" lon="4.80369">
        <ele>526.59997558594</ele>
        <time>2011-11-20T10:10:30.000Z</time>
      </trkpt>
      <trkpt lat="45.84396" lon="4.80378">
        <ele>525</ele>
        <time>2011-11-20T10:10:32.000Z</time>
      </trkpt>
      <trkpt lat="45.84397" lon="4.80398">
        <ele>521.59997558594</ele>
        <time>2011-11-20T10:10:36.000Z</time>
      </trkpt>
      <trkpt lat="45.84397" lon="4.80411">
        <ele>519.59997558594</ele>
        <time>2011-11-20T10:10:39.000Z</time>
      </trkpt>
      <trkpt lat="45.84396" lon="4.80416">
        <ele>518.79998779297</ele>
        <time>2011-11-20T10:10:40.000Z</time>
      </trkpt>
      <trkpt lat="45.84394" lon="4.80424">
        <ele>517.40002441406</ele>
        <time>2011-11-20T10:10:42.000Z</time>
      </trkpt>
      <trkpt lat="45.84388" lon="4.80443">
        <ele>514.20001220703</ele>
        <time>2011-11-20T10:10:46.000Z</time>
      </trkpt>
      <trkpt lat="45.84385" lon="4.80445">
        <ele>513.79998779297</ele>
        <time>2011-11-20T10:10:49.000Z</time>
      </trkpt>
      <trkpt lat="45.84385" lon="4.80447">
        <ele>513.59997558594</ele>
        <time>2011-11-20T10:10:53.000Z</time>
      </trkpt>
      <trkpt lat="45.8438" lon="4.80448">
        <ele>513.20001220703</ele>
        <time>2011-11-20T10:11:00.000Z</time>
      </trkpt>
      <trkpt lat="45.84375" lon="4.80448">
        <ele>513.40002441406</ele>
        <time>2011-11-20T10:11:07.000Z</time>
      </trkpt>
      <trkpt lat="45.84367" lon="4.80452">
        <ele>512.79998779297</ele>
        <time>2011-11-20T10:11:10.000Z</time>
      </trkpt>
      <trkpt lat="45.84365" lon="4.80453">
        <ele>512.40002441406</ele>
        <time>2011-11-20T10:11:11.000Z</time>
      </trkpt>
      <trkpt lat="45.84361" lon="4.80459">
        <ele>511.39999389648</ele>
        <time>2011-11-20T10:11:14.000Z</time>
      </trkpt>
      <trkpt lat="45.8436" lon="4.80463">
        <ele>510.79998779297</ele>
        <time>2011-11-20T10:11:15.000Z</time>
      </trkpt>
      <trkpt lat="45.8436" lon="4.80475">
        <ele>509</ele>
        <time>2011-11-20T10:11:18.000Z</time>
      </trkpt>
      <trkpt lat="45.84363" lon="4.80482">
        <ele>507.79998779297</ele>
        <time>2011-11-20T10:11:20.000Z</time>
      </trkpt>
      <trkpt lat="45.84363" lon="4.80486">
        <ele>507</ele>
        <time>2011-11-20T10:11:21.000Z</time>
      </trkpt>
      <trkpt lat="45.84363" lon="4.80495">
        <ele>505.79998779297</ele>
        <time>2011-11-20T10:11:23.000Z</time>
      </trkpt>
      <trkpt lat="45.84364" lon="4.80503">
        <ele>504.60000610352</ele>
        <time>2011-11-20T10:11:25.000Z</time>
      </trkpt>
      <trkpt lat="45.84364" lon="4.80508">
        <ele>504</ele>
        <time>2011-11-20T10:11:26.000Z</time>
      </trkpt>
      <trkpt lat="45.84365" lon="4.80519">
        <ele>502.79998779297</ele>
        <time>2011-11-20T10:11:29.000Z</time>
      </trkpt>
      <trkpt lat="45.84363" lon="4.80533">
        <ele>501.20001220703</ele>
        <time>2011-11-20T10:11:32.000Z</time>
      </trkpt>
      <trkpt lat="45.8436" lon="4.80542">
        <ele>500.20001220703</ele>
        <time>2011-11-20T10:11:34.000Z</time>
      </trkpt>
      <trkpt lat="45.84358" lon="4.80559">
        <ele>498.20001220703</ele>
        <time>2011-11-20T10:11:39.000Z</time>
      </trkpt>
      <trkpt lat="45.84359" lon="4.80556">
        <ele>498.60000610352</ele>
        <time>2011-11-20T10:12:19.000Z</time>
      </trkpt>
      <trkpt lat="45.84365" lon="4.80559">
        <ele>498.39999389648</ele>
        <time>2011-11-20T10:12:26.000Z</time>
      </trkpt>
      <trkpt lat="45.84368" lon="4.80561">
        <ele>498.20001220703</ele>
        <time>2011-11-20T10:12:29.000Z</time>
      </trkpt>
      <trkpt lat="45.84374" lon="4.80564">
        <ele>498</ele>
        <time>2011-11-20T10:12:32.000Z</time>
      </trkpt>
      <trkpt lat="45.84381" lon="4.80566">
        <ele>498</ele>
        <time>2011-11-20T10:12:35.000Z</time>
      </trkpt>
      <trkpt lat="45.84393" lon="4.80571">
        <ele>497.60000610352</ele>
        <time>2011-11-20T10:12:39.000Z</time>
      </trkpt>
      <trkpt lat="45.84406" lon="4.80576">
        <ele>497.39999389648</ele>
        <time>2011-11-20T10:12:44.000Z</time>
      </trkpt>
      <trkpt lat="45.84411" lon="4.80578">
        <ele>497.20001220703</ele>
        <time>2011-11-20T10:12:47.000Z</time>
      </trkpt>
      <trkpt lat="45.84414" lon="4.80579">
        <ele>497.20001220703</ele>
        <time>2011-11-20T10:12:48.000Z</time>
      </trkpt>
      <trkpt lat="45.84426" lon="4.80586">
        <ele>496</ele>
        <time>2011-11-20T10:12:52.000Z</time>
      </trkpt>
      <trkpt lat="45.84428" lon="4.80587">
        <ele>495.79998779297</ele>
        <time>2011-11-20T10:12:53.000Z</time>
      </trkpt>
      <trkpt lat="45.84437" lon="4.8059">
        <ele>495</ele>
        <time>2011-11-20T10:12:57.000Z</time>
      </trkpt>
      <trkpt lat="45.84447" lon="4.80592">
        <ele>494.20001220703</ele>
        <time>2011-11-20T10:13:01.000Z</time>
      </trkpt>
      <trkpt lat="45.8445" lon="4.80593">
        <ele>494</ele>
        <time>2011-11-20T10:13:02.000Z</time>
      </trkpt>
      <trkpt lat="45.84464" lon="4.80595">
        <ele>492.79998779297</ele>
        <time>2011-11-20T10:13:08.000Z</time>
      </trkpt>
      <trkpt lat="45.84466" lon="4.80594">
        <ele>493</ele>
        <time>2011-11-20T10:13:09.000Z</time>
      </trkpt>
      <trkpt lat="45.84474" lon="4.80593">
        <ele>492.60000610352</ele>
        <time>2011-11-20T10:13:12.000Z</time>
      </trkpt>
      <trkpt lat="45.84476" lon="4.80592">
        <ele>492.60000610352</ele>
        <time>2011-11-20T10:13:13.000Z</time>
      </trkpt>
      <trkpt lat="45.84484" lon="4.80592">
        <ele>492.20001220703</ele>
        <time>2011-11-20T10:13:16.000Z</time>
      </trkpt>
      <trkpt lat="45.8449" lon="4.80592">
        <ele>492</ele>
        <time>2011-11-20T10:13:18.000Z</time>
      </trkpt>
      <trkpt lat="45.84501" lon="4.80589">
        <ele>492</ele>
        <time>2011-11-20T10:13:22.000Z</time>
      </trkpt>
      <trkpt lat="45.84504" lon="4.80589">
        <ele>492</ele>
        <time>2011-11-20T10:13:23.000Z</time>
      </trkpt>
      <trkpt lat="45.84511" lon="4.80589">
        <ele>492.20001220703</ele>
        <time>2011-11-20T10:13:25.000Z</time>
      </trkpt>
      <trkpt lat="45.84514" lon="4.80589">
        <ele>492.20001220703</ele>
        <time>2011-11-20T10:13:26.000Z</time>
      </trkpt>
      <trkpt lat="45.84525" lon="4.80583">
        <ele>493.20001220703</ele>
        <time>2011-11-20T10:13:30.000Z</time>
      </trkpt>
      <trkpt lat="45.84527" lon="4.80582">
        <ele>493.39999389648</ele>
        <time>2011-11-20T10:13:31.000Z</time>
      </trkpt>
      <trkpt lat="45.8454" lon="4.80575">
        <ele>494.60000610352</ele>
        <time>2011-11-20T10:13:35.000Z</time>
      </trkpt>
      <trkpt lat="45.84542" lon="4.80573">
        <ele>495</ele>
        <time>2011-11-20T10:13:36.000Z</time>
      </trkpt>
      <trkpt lat="45.84546" lon="4.80568">
        <ele>496</ele>
        <time>2011-11-20T10:13:39.000Z</time>
      </trkpt>
      <trkpt lat="45.84553" lon="4.80564">
        <ele>496.60000610352</ele>
        <time>2011-11-20T10:13:42.000Z</time>
      </trkpt>
      <trkpt lat="45.84554" lon="4.80564">
        <ele>496.60000610352</ele>
        <time>2011-11-20T10:13:44.000Z</time>
      </trkpt>
      <trkpt lat="45.84552" lon="4.80569">
        <ele>495.79998779297</ele>
        <time>2011-11-20T10:13:47.000Z</time>
      </trkpt>
      <trkpt lat="45.84552" lon="4.80571">
        <ele>495.39999389648</ele>
        <time>2011-11-20T10:13:48.000Z</time>
      </trkpt>
      <trkpt lat="45.84552" lon="4.80576">
        <ele>494.60000610352</ele>
        <time>2011-11-20T10:13:50.000Z</time>
      </trkpt>
      <trkpt lat="45.84552" lon="4.80583">
        <ele>493.60000610352</ele>
        <time>2011-11-20T10:13:52.000Z</time>
      </trkpt>
      <trkpt lat="45.84552" lon="4.80589">
        <ele>492.79998779297</ele>
        <time>2011-11-20T10:13:54.000Z</time>
      </trkpt>
      <trkpt lat="45.84552" lon="4.80597">
        <ele>491.79998779297</ele>
        <time>2011-11-20T10:13:57.000Z</time>
      </trkpt>
      <trkpt lat="45.84552" lon="4.80605">
        <ele>490.60000610352</ele>
        <time>2011-11-20T10:14:00.000Z</time>
      </trkpt>
      <trkpt lat="45.84547" lon="4.80616">
        <ele>489</ele>
        <time>2011-11-20T10:14:05.000Z</time>
      </trkpt>
      <trkpt lat="45.84545" lon="4.80621">
        <ele>488.39999389648</ele>
        <time>2011-11-20T10:14:07.000Z</time>
      </trkpt>
      <trkpt lat="45.84544" lon="4.80626">
        <ele>487.60000610352</ele>
        <time>2011-11-20T10:14:09.000Z</time>
      </trkpt>
      <trkpt lat="45.84543" lon="4.80629">
        <ele>487.20001220703</ele>
        <time>2011-11-20T10:14:10.000Z</time>
      </trkpt>
      <trkpt lat="45.84543" lon="4.8064">
        <ele>485.60000610352</ele>
        <time>2011-11-20T10:14:16.000Z</time>
      </trkpt>
      <trkpt lat="45.84542" lon="4.8065">
        <ele>484.20001220703</ele>
        <time>2011-11-20T10:14:19.000Z</time>
      </trkpt>
      <trkpt lat="45.84541" lon="4.80652">
        <ele>484</ele>
        <time>2011-11-20T10:14:20.000Z</time>
      </trkpt>
      <trkpt lat="45.84537" lon="4.8066">
        <ele>482.39999389648</ele>
        <time>2011-11-20T10:14:23.000Z</time>
      </trkpt>
      <trkpt lat="45.84536" lon="4.80665">
        <ele>481.60000610352</ele>
        <time>2011-11-20T10:14:25.000Z</time>
      </trkpt>
      <trkpt lat="45.84535" lon="4.80671">
        <ele>481</ele>
        <time>2011-11-20T10:14:30.000Z</time>
      </trkpt>
      <trkpt lat="45.84534" lon="4.80675">
        <ele>480.39999389648</ele>
        <time>2011-11-20T10:14:32.000Z</time>
      </trkpt>
      <trkpt lat="45.84534" lon="4.80678">
        <ele>480.20001220703</ele>
        <time>2011-11-20T10:14:33.000Z</time>
      </trkpt>
      <trkpt lat="45.84534" lon="4.80681">
        <ele>479.60000610352</ele>
        <time>2011-11-20T10:14:35.000Z</time>
      </trkpt>
      <trkpt lat="45.84534" lon="4.80687">
        <ele>479</ele>
        <time>2011-11-20T10:14:40.000Z</time>
      </trkpt>
      <trkpt lat="45.84537" lon="4.807">
        <ele>477.79998779297</ele>
        <time>2011-11-20T10:14:47.000Z</time>
      </trkpt>
      <trkpt lat="45.84537" lon="4.80703">
        <ele>477.39999389648</ele>
        <time>2011-11-20T10:14:48.000Z</time>
      </trkpt>
      <trkpt lat="45.84539" lon="4.80711">
        <ele>476.60000610352</ele>
        <time>2011-11-20T10:14:52.000Z</time>
      </trkpt>
      <trkpt lat="45.84539" lon="4.80719">
        <ele>475.79998779297</ele>
        <time>2011-11-20T10:14:55.000Z</time>
      </trkpt>
      <trkpt lat="45.84539" lon="4.80722">
        <ele>475.39999389648</ele>
        <time>2011-11-20T10:14:56.000Z</time>
      </trkpt>
      <trkpt lat="45.84538" lon="4.80729">
        <ele>474.60000610352</ele>
        <time>2011-11-20T10:14:59.000Z</time>
      </trkpt>
      <trkpt lat="45.84536" lon="4.80735">
        <ele>473.60000610352</ele>
        <time>2011-11-20T10:15:02.000Z</time>
      </trkpt>
      <trkpt lat="45.84535" lon="4.80737">
        <ele>473.39999389648</ele>
        <time>2011-11-20T10:15:03.000Z</time>
      </trkpt>
      <trkpt lat="45.84535" lon="4.80744">
        <ele>472.60000610352</ele>
        <time>2011-11-20T10:15:06.000Z</time>
      </trkpt>
      <trkpt lat="45.84535" lon="4.8075">
        <ele>472</ele>
        <time>2011-11-20T10:15:09.000Z</time>
      </trkpt>
      <trkpt lat="45.84534" lon="4.80755">
        <ele>471.39999389648</ele>
        <time>2011-11-20T10:15:11.000Z</time>
      </trkpt>
      <trkpt lat="45.84533" lon="4.80759">
        <ele>470.79998779297</ele>
        <time>2011-11-20T10:15:13.000Z</time>
      </trkpt>
      <trkpt lat="45.84531" lon="4.80767">
        <ele>469.79998779297</ele>
        <time>2011-11-20T10:15:17.000Z</time>
      </trkpt>
      <trkpt lat="45.84529" lon="4.80771">
        <ele>469.39999389648</ele>
        <time>2011-11-20T10:15:18.000Z</time>
      </trkpt>
      <trkpt lat="45.84528" lon="4.80776">
        <ele>468.60000610352</ele>
        <time>2011-11-20T10:15:20.000Z</time>
      </trkpt>
      <trkpt lat="45.84526" lon="4.8078">
        <ele>468</ele>
        <time>2011-11-20T10:15:21.000Z</time>
      </trkpt>
      <trkpt lat="45.84522" lon="4.8079">
        <ele>466.60000610352</ele>
        <time>2011-11-20T10:15:24.000Z</time>
      </trkpt>
      <trkpt lat="45.84522" lon="4.80793">
        <ele>466.39999389648</ele>
        <time>2011-11-20T10:15:25.000Z</time>
      </trkpt>
      <trkpt lat="45.84524" lon="4.80801">
        <ele>465.60000610352</ele>
        <time>2011-11-20T10:15:29.000Z</time>
      </trkpt>
      <trkpt lat="45.84526" lon="4.80803">
        <ele>465.39999389648</ele>
        <time>2011-11-20T10:15:30.000Z</time>
      </trkpt>
      <trkpt lat="45.84526" lon="4.8081">
        <ele>464.79998779297</ele>
        <time>2011-11-20T10:15:34.000Z</time>
      </trkpt>
      <trkpt lat="45.84528" lon="4.80817">
        <ele>464</ele>
        <time>2011-11-20T10:15:39.000Z</time>
      </trkpt>
      <trkpt lat="45.84528" lon="4.80819">
        <ele>463.79998779297</ele>
        <time>2011-11-20T10:15:41.000Z</time>
      </trkpt>
      <trkpt lat="45.84527" lon="4.80819">
        <ele>463.79998779297</ele>
        <time>2011-11-20T10:15:44.000Z</time>
      </trkpt>
      <trkpt lat="45.84532" lon="4.80821">
        <ele>464</ele>
        <time>2011-11-20T10:15:58.000Z</time>
      </trkpt>
      <trkpt lat="45.84536" lon="4.80822">
        <ele>464.20001220703</ele>
        <time>2011-11-20T10:16:03.000Z</time>
      </trkpt>
      <trkpt lat="45.84542" lon="4.8082">
        <ele>464.79998779297</ele>
        <time>2011-11-20T10:16:09.000Z</time>
      </trkpt>
      <trkpt lat="45.84542" lon="4.80819">
        <ele>465</ele>
        <time>2011-11-20T10:16:10.000Z</time>
      </trkpt>
      <trkpt lat="45.84542" lon="4.80817">
        <ele>465.20001220703</ele>
        <time>2011-11-20T10:16:11.000Z</time>
      </trkpt>
      <trkpt lat="45.84548" lon="4.80815">
        <ele>465.79998779297</ele>
        <time>2011-11-20T10:16:16.000Z</time>
      </trkpt>
      <trkpt lat="45.84548" lon="4.80814">
        <ele>466</ele>
        <time>2011-11-20T10:16:17.000Z</time>
      </trkpt>
      <trkpt lat="45.84549" lon="4.80814">
        <ele>466</ele>
        <time>2011-11-20T10:16:18.000Z</time>
      </trkpt>
      <trkpt lat="45.8455" lon="4.80812">
        <ele>466.20001220703</ele>
        <time>2011-11-20T10:16:20.000Z</time>
      </trkpt>
      <trkpt lat="45.84551" lon="4.80812">
        <ele>466.39999389648</ele>
        <time>2011-11-20T10:16:21.000Z</time>
      </trkpt>
      <trkpt lat="45.84556" lon="4.80811">
        <ele>467</ele>
        <time>2011-11-20T10:16:26.000Z</time>
      </trkpt>
      <trkpt lat="45.84556" lon="4.80812">
        <ele>466.79998779297</ele>
        <time>2011-11-20T10:16:27.000Z</time>
      </trkpt>
      <trkpt lat="45.84558" lon="4.8082">
        <ele>466.20001220703</ele>
        <time>2011-11-20T10:16:31.000Z</time>
      </trkpt>
      <trkpt lat="45.84563" lon="4.80827">
        <ele>465.79998779297</ele>
        <time>2011-11-20T10:16:34.000Z</time>
      </trkpt>
      <trkpt lat="45.84565" lon="4.80829">
        <ele>465.79998779297</ele>
        <time>2011-11-20T10:16:35.000Z</time>
      </trkpt>
      <trkpt lat="45.84568" lon="4.80833">
        <ele>465.60000610352</ele>
        <time>2011-11-20T10:16:37.000Z</time>
      </trkpt>
      <trkpt lat="45.84574" lon="4.80839">
        <ele>465.60000610352</ele>
        <time>2011-11-20T10:16:41.000Z</time>
      </trkpt>
      <trkpt lat="45.84579" lon="4.80839">
        <ele>466</ele>
        <time>2011-11-20T10:16:44.000Z</time>
      </trkpt>
      <trkpt lat="45.84587" lon="4.80843">
        <ele>466.20001220703</ele>
        <time>2011-11-20T10:16:47.000Z</time>
      </trkpt>
      <trkpt lat="45.84596" lon="4.80844">
        <ele>466.60000610352</ele>
        <time>2011-11-20T10:16:52.000Z</time>
      </trkpt>
      <trkpt lat="45.84598" lon="4.80844">
        <ele>466.79998779297</ele>
        <time>2011-11-20T10:16:53.000Z</time>
      </trkpt>
      <trkpt lat="45.846" lon="4.80845">
        <ele>466.79998779297</ele>
        <time>2011-11-20T10:16:55.000Z</time>
      </trkpt>
      <trkpt lat="45.84602" lon="4.80846">
        <ele>466.79998779297</ele>
        <time>2011-11-20T10:16:56.000Z</time>
      </trkpt>
      <trkpt lat="45.84607" lon="4.8085">
        <ele>466.79998779297</ele>
        <time>2011-11-20T10:17:00.000Z</time>
      </trkpt>
      <trkpt lat="45.84606" lon="4.80861">
        <ele>465.79998779297</ele>
        <time>2011-11-20T10:17:05.000Z</time>
      </trkpt>
      <trkpt lat="45.84606" lon="4.80863">
        <ele>465.60000610352</ele>
        <time>2011-11-20T10:17:06.000Z</time>
      </trkpt>
      <trkpt lat="45.84599" lon="4.80871">
        <ele>464.60000610352</ele>
        <time>2011-11-20T10:17:10.000Z</time>
      </trkpt>
      <trkpt lat="45.84594" lon="4.80882">
        <ele>463.39999389648</ele>
        <time>2011-11-20T10:17:14.000Z</time>
      </trkpt>
      <trkpt lat="45.8459" lon="4.80887">
        <ele>462.79998779297</ele>
        <time>2011-11-20T10:17:16.000Z</time>
      </trkpt>
      <trkpt lat="45.84588" lon="4.80897">
        <ele>461.79998779297</ele>
        <time>2011-11-20T10:17:21.000Z</time>
      </trkpt>
      <trkpt lat="45.8459" lon="4.809">
        <ele>461.60000610352</ele>
        <time>2011-11-20T10:17:23.000Z</time>
      </trkpt>
      <trkpt lat="45.84592" lon="4.809">
        <ele>461.79998779297</ele>
        <time>2011-11-20T10:17:25.000Z</time>
      </trkpt>
      <trkpt lat="45.84594" lon="4.80899">
        <ele>462</ele>
        <time>2011-11-20T10:17:27.000Z</time>
      </trkpt>
      <trkpt lat="45.84602" lon="4.80903">
        <ele>462.20001220703</ele>
        <time>2011-11-20T10:17:32.000Z</time>
      </trkpt>
      <trkpt lat="45.84606" lon="4.80905">
        <ele>462.20001220703</ele>
        <time>2011-11-20T10:17:34.000Z</time>
      </trkpt>
      <trkpt lat="45.84612" lon="4.80908">
        <ele>462.39999389648</ele>
        <time>2011-11-20T10:17:37.000Z</time>
      </trkpt>
      <trkpt lat="45.84614" lon="4.80909">
        <ele>462.39999389648</ele>
        <time>2011-11-20T10:17:38.000Z</time>
      </trkpt>
      <trkpt lat="45.84619" lon="4.80913">
        <ele>462.39999389648</ele>
        <time>2011-11-20T10:17:41.000Z</time>
      </trkpt>
      <trkpt lat="45.84622" lon="4.80916">
        <ele>462.39999389648</ele>
        <time>2011-11-20T10:17:43.000Z</time>
      </trkpt>
      <trkpt lat="45.84624" lon="4.80918">
        <ele>462.20001220703</ele>
        <time>2011-11-20T10:17:45.000Z</time>
      </trkpt>
      <trkpt lat="45.84624" lon="4.80919">
        <ele>462</ele>
        <time>2011-11-20T10:17:46.000Z</time>
      </trkpt>
      <trkpt lat="45.84624" lon="4.80925">
        <ele>461.39999389648</ele>
        <time>2011-11-20T10:17:49.000Z</time>
      </trkpt>
      <trkpt lat="45.84624" lon="4.80928">
        <ele>461</ele>
        <time>2011-11-20T10:17:51.000Z</time>
      </trkpt>
      <trkpt lat="45.84622" lon="4.80932">
        <ele>460.60000610352</ele>
        <time>2011-11-20T10:17:53.000Z</time>
      </trkpt>
      <trkpt lat="45.84618" lon="4.80933">
        <ele>460.20001220703</ele>
        <time>2011-11-20T10:17:55.000Z</time>
      </trkpt>
      <trkpt lat="45.84615" lon="4.80941">
        <ele>459.20001220703</ele>
        <time>2011-11-20T10:17:59.000Z</time>
      </trkpt>
      <trkpt lat="45.84614" lon="4.80943">
        <ele>458.79998779297</ele>
        <time>2011-11-20T10:18:00.000Z</time>
      </trkpt>
      <trkpt lat="45.84608" lon="4.8095">
        <ele>457.79998779297</ele>
        <time>2011-11-20T10:18:03.000Z</time>
      </trkpt>
      <trkpt lat="45.846" lon="4.80965">
        <ele>455.79998779297</ele>
        <time>2011-11-20T10:18:08.000Z</time>
      </trkpt>
      <trkpt lat="45.84599" lon="4.80967">
        <ele>455.39999389648</ele>
        <time>2011-11-20T10:18:09.000Z</time>
      </trkpt>
      <trkpt lat="45.84596" lon="4.80973">
        <ele>454.60000610352</ele>
        <time>2011-11-20T10:18:11.000Z</time>
      </trkpt>
      <trkpt lat="45.84595" lon="4.80976">
        <ele>454.20001220703</ele>
        <time>2011-11-20T10:18:12.000Z</time>
      </trkpt>
      <trkpt lat="45.84591" lon="4.80993">
        <ele>452.20001220703</ele>
        <time>2011-11-20T10:18:18.000Z</time>
      </trkpt>
      <trkpt lat="45.84589" lon="4.80999">
        <ele>451.39999389648</ele>
        <time>2011-11-20T10:18:20.000Z</time>
      </trkpt>
      <trkpt lat="45.84586" lon="4.81008">
        <ele>450.20001220703</ele>
        <time>2011-11-20T10:18:23.000Z</time>
      </trkpt>
      <trkpt lat="45.84583" lon="4.81025">
        <ele>448.39999389648</ele>
        <time>2011-11-20T10:18:28.000Z</time>
      </trkpt>
      <trkpt lat="45.84581" lon="4.81029">
        <ele>447.79998779297</ele>
        <time>2011-11-20T10:18:29.000Z</time>
      </trkpt>
      <trkpt lat="45.84574" lon="4.81045">
        <ele>445</ele>
        <time>2011-11-20T10:18:35.000Z</time>
      </trkpt>
      <trkpt lat="45.84573" lon="4.81047">
        <ele>444.39999389648</ele>
        <time>2011-11-20T10:18:36.000Z</time>
      </trkpt>
      <trkpt lat="45.84561" lon="4.81057">
        <ele>441.20001220703</ele>
        <time>2011-11-20T10:18:42.000Z</time>
      </trkpt>
      <trkpt lat="45.84557" lon="4.8106">
        <ele>440.20001220703</ele>
        <time>2011-11-20T10:18:44.000Z</time>
      </trkpt>
      <trkpt lat="45.8455" lon="4.81064">
        <ele>438.60000610352</ele>
        <time>2011-11-20T10:18:47.000Z</time>
      </trkpt>
      <trkpt lat="45.84548" lon="4.81067">
        <ele>437.79998779297</ele>
        <time>2011-11-20T10:18:49.000Z</time>
      </trkpt>
      <trkpt lat="45.84549" lon="4.8107">
        <ele>437.39999389648</ele>
        <time>2011-11-20T10:18:51.000Z</time>
      </trkpt>
      <trkpt lat="45.84548" lon="4.81076">
        <ele>436.60000610352</ele>
        <time>2011-11-20T10:18:53.000Z</time>
      </trkpt>
      <trkpt lat="45.84549" lon="4.8108">
        <ele>436.20001220703</ele>
        <time>2011-11-20T10:18:54.000Z</time>
      </trkpt>
      <trkpt lat="45.8455" lon="4.81088">
        <ele>435.39999389648</ele>
        <time>2011-11-20T10:18:56.000Z</time>
      </trkpt>
      <trkpt lat="45.84551" lon="4.81097">
        <ele>434.39999389648</ele>
        <time>2011-11-20T10:18:58.000Z</time>
      </trkpt>
      <trkpt lat="45.84549" lon="4.81105">
        <ele>433</ele>
        <time>2011-11-20T10:19:00.000Z</time>
      </trkpt>
      <trkpt lat="45.84548" lon="4.81121">
        <ele>430.60000610352</ele>
        <time>2011-11-20T10:19:04.000Z</time>
      </trkpt>
      <trkpt lat="45.84546" lon="4.81131">
        <ele>428.79998779297</ele>
        <time>2011-11-20T10:19:07.000Z</time>
      </trkpt>
      <trkpt lat="45.84546" lon="4.81134">
        <ele>428.39999389648</ele>
        <time>2011-11-20T10:19:08.000Z</time>
      </trkpt>
      <trkpt lat="45.8455" lon="4.81149">
        <ele>427.20001220703</ele>
        <time>2011-11-20T10:19:13.000Z</time>
      </trkpt>
      <trkpt lat="45.84553" lon="4.81155">
        <ele>427</ele>
        <time>2011-11-20T10:19:15.000Z</time>
      </trkpt>
      <trkpt lat="45.84556" lon="4.81161">
        <ele>426.79998779297</ele>
        <time>2011-11-20T10:19:17.000Z</time>
      </trkpt>
      <trkpt lat="45.8456" lon="4.81171">
        <ele>426</ele>
        <time>2011-11-20T10:19:22.000Z</time>
      </trkpt>
      <trkpt lat="45.84558" lon="4.81177">
        <ele>424.39999389648</ele>
        <time>2011-11-20T10:19:25.000Z</time>
      </trkpt>
      <trkpt lat="45.84556" lon="4.81177">
        <ele>424</ele>
        <time>2011-11-20T10:19:26.000Z</time>
      </trkpt>
      <trkpt lat="45.84545" lon="4.81185">
        <ele>421</ele>
        <time>2011-11-20T10:19:32.000Z</time>
      </trkpt>
      <trkpt lat="45.84545" lon="4.81192">
        <ele>419.79998779297</ele>
        <time>2011-11-20T10:19:34.000Z</time>
      </trkpt>
      <trkpt lat="45.84547" lon="4.81197">
        <ele>419</ele>
        <time>2011-11-20T10:19:36.000Z</time>
      </trkpt>
      <trkpt lat="45.84549" lon="4.81203">
        <ele>418.39999389648</ele>
        <time>2011-11-20T10:19:38.000Z</time>
      </trkpt>
      <trkpt lat="45.8455" lon="4.8121">
        <ele>417.39999389648</ele>
        <time>2011-11-20T10:19:41.000Z</time>
      </trkpt>
      <trkpt lat="45.84553" lon="4.81215">
        <ele>416.79998779297</ele>
        <time>2011-11-20T10:19:44.000Z</time>
      </trkpt>
      <trkpt lat="45.84555" lon="4.8122">
        <ele>416.20001220703</ele>
        <time>2011-11-20T10:19:46.000Z</time>
      </trkpt>
      <trkpt lat="45.84555" lon="4.8123">
        <ele>414.39999389648</ele>
        <time>2011-11-20T10:19:50.000Z</time>
      </trkpt>
      <trkpt lat="45.84553" lon="4.81231">
        <ele>414</ele>
        <time>2011-11-20T10:19:51.000Z</time>
      </trkpt>
      <trkpt lat="45.84552" lon="4.81233">
        <ele>413.39999389648</ele>
        <time>2011-11-20T10:19:53.000Z</time>
      </trkpt>
      <trkpt lat="45.84551" lon="4.81235">
        <ele>413</ele>
        <time>2011-11-20T10:19:54.000Z</time>
      </trkpt>
      <trkpt lat="45.84548" lon="4.81238">
        <ele>412.20001220703</ele>
        <time>2011-11-20T10:19:56.000Z</time>
      </trkpt>
      <trkpt lat="45.84548" lon="4.81246">
        <ele>410.79998779297</ele>
        <time>2011-11-20T10:19:59.000Z</time>
      </trkpt>
      <trkpt lat="45.84549" lon="4.81248">
        <ele>410.39999389648</ele>
        <time>2011-11-20T10:20:00.000Z</time>
      </trkpt>
      <trkpt lat="45.84553" lon="4.8126">
        <ele>408.20001220703</ele>
        <time>2011-11-20T10:20:04.000Z</time>
      </trkpt>
      <trkpt lat="45.84554" lon="4.81263">
        <ele>407.60000610352</ele>
        <time>2011-11-20T10:20:05.000Z</time>
      </trkpt>
      <trkpt lat="45.84557" lon="4.81268">
        <ele>406.39999389648</ele>
        <time>2011-11-20T10:20:08.000Z</time>
      </trkpt>
      <trkpt lat="45.84559" lon="4.8127">
        <ele>406.39999389648</ele>
        <time>2011-11-20T10:20:09.000Z</time>
      </trkpt>
      <trkpt lat="45.84565" lon="4.81277">
        <ele>405.20001220703</ele>
        <time>2011-11-20T10:20:13.000Z</time>
      </trkpt>
      <trkpt lat="45.84564" lon="4.81279">
        <ele>404.60000610352</ele>
        <time>2011-11-20T10:20:17.000Z</time>
      </trkpt>
      <trkpt lat="45.84564" lon="4.81281">
        <ele>404.20001220703</ele>
        <time>2011-11-20T10:20:18.000Z</time>
      </trkpt>
      <trkpt lat="45.84563" lon="4.81285">
        <ele>403</ele>
        <time>2011-11-20T10:20:20.000Z</time>
      </trkpt>
      <trkpt lat="45.84562" lon="4.81287">
        <ele>402.39999389648</ele>
        <time>2011-11-20T10:20:21.000Z</time>
      </trkpt>
      <trkpt lat="45.84563" lon="4.81296">
        <ele>400.39999389648</ele>
        <time>2011-11-20T10:20:24.000Z</time>
      </trkpt>
      <trkpt lat="45.84567" lon="4.8131">
        <ele>397.20001220703</ele>
        <time>2011-11-20T10:20:30.000Z</time>
      </trkpt>
      <trkpt lat="45.84567" lon="4.81311">
        <ele>396.79998779297</ele>
        <time>2011-11-20T10:20:32.000Z</time>
      </trkpt>
      <trkpt lat="45.84567" lon="4.81314">
        <ele>396.20001220703</ele>
        <time>2011-11-20T10:20:35.000Z</time>
      </trkpt>
      <trkpt lat="45.84574" lon="4.81318">
        <ele>395.79998779297</ele>
        <time>2011-11-20T10:20:54.000Z</time>
      </trkpt>
      <trkpt lat="45.84576" lon="4.81318">
        <ele>396</ele>
        <time>2011-11-20T10:20:56.000Z</time>
      </trkpt>
      <trkpt lat="45.84582" lon="4.81319">
        <ele>396.39999389648</ele>
        <time>2011-11-20T10:20:59.000Z</time>
      </trkpt>
      <trkpt lat="45.84583" lon="4.81319">
        <ele>396.60000610352</ele>
        <time>2011-11-20T10:21:00.000Z</time>
      </trkpt>
      <trkpt lat="45.84585" lon="4.8132">
        <ele>396.20001220703</ele>
        <time>2011-11-20T10:21:01.000Z</time>
      </trkpt>
      <trkpt lat="45.84594" lon="4.81321">
        <ele>394.79998779297</ele>
        <time>2011-11-20T10:21:05.000Z</time>
      </trkpt>
      <trkpt lat="45.84596" lon="4.8132">
        <ele>394.79998779297</ele>
        <time>2011-11-20T10:21:06.000Z</time>
      </trkpt>
      <trkpt lat="45.84602" lon="4.81319">
        <ele>394.39999389648</ele>
        <time>2011-11-20T10:21:09.000Z</time>
      </trkpt>
      <trkpt lat="45.84603" lon="4.81319">
        <ele>394.39999389648</ele>
        <time>2011-11-20T10:21:10.000Z</time>
      </trkpt>
      <trkpt lat="45.8461" lon="4.81317">
        <ele>394</ele>
        <time>2011-11-20T10:21:14.000Z</time>
      </trkpt>
      <trkpt lat="45.84612" lon="4.81322">
        <ele>392.60000610352</ele>
        <time>2011-11-20T10:21:17.000Z</time>
      </trkpt>
      <trkpt lat="45.84612" lon="4.81323">
        <ele>392.39999389648</ele>
        <time>2011-11-20T10:21:18.000Z</time>
      </trkpt>
      <trkpt lat="45.84612" lon="4.81325">
        <ele>392</ele>
        <time>2011-11-20T10:21:19.000Z</time>
      </trkpt>
      <trkpt lat="45.84611" lon="4.81331">
        <ele>390.39999389648</ele>
        <time>2011-11-20T10:21:22.000Z</time>
      </trkpt>
      <trkpt lat="45.8461" lon="4.81333">
        <ele>390</ele>
        <time>2011-11-20T10:21:23.000Z</time>
      </trkpt>
      <trkpt lat="45.84611" lon="4.81335">
        <ele>389.39999389648</ele>
        <time>2011-11-20T10:21:24.000Z</time>
      </trkpt>
      <trkpt lat="45.84616" lon="4.81343">
        <ele>386</ele>
        <time>2011-11-20T10:21:29.000Z</time>
      </trkpt>
      <trkpt lat="45.8462" lon="4.81345">
        <ele>385.20001220703</ele>
        <time>2011-11-20T10:21:31.000Z</time>
      </trkpt>
      <trkpt lat="45.84622" lon="4.81345">
        <ele>385.20001220703</ele>
        <time>2011-11-20T10:21:33.000Z</time>
      </trkpt>
      <trkpt lat="45.84623" lon="4.81347">
        <ele>384.20001220703</ele>
        <time>2011-11-20T10:21:37.000Z</time>
      </trkpt>
      <trkpt lat="45.84623" lon="4.81348">
        <ele>384</ele>
        <time>2011-11-20T10:21:38.000Z</time>
      </trkpt>
      <trkpt lat="45.84627" lon="4.81349">
        <ele>383.60000610352</ele>
        <time>2011-11-20T10:21:44.000Z</time>
      </trkpt>
      <trkpt lat="45.84629" lon="4.81349">
        <ele>383.20001220703</ele>
        <time>2011-11-20T10:21:49.000Z</time>
      </trkpt>
      <trkpt lat="45.84635" lon="4.81345">
        <ele>384</ele>
        <time>2011-11-20T10:22:01.000Z</time>
      </trkpt>
      <trkpt lat="45.84636" lon="4.81344">
        <ele>384.20001220703</ele>
        <time>2011-11-20T10:22:03.000Z</time>
      </trkpt>
      <trkpt lat="45.84638" lon="4.81345">
        <ele>384</ele>
        <time>2011-11-20T10:22:05.000Z</time>
      </trkpt>
      <trkpt lat="45.8464" lon="4.81345">
        <ele>383.60000610352</ele>
        <time>2011-11-20T10:22:08.000Z</time>
      </trkpt>
      <trkpt lat="45.84641" lon="4.81347">
        <ele>383.20001220703</ele>
        <time>2011-11-20T10:22:11.000Z</time>
      </trkpt>
      <trkpt lat="45.84641" lon="4.81348">
        <ele>382.79998779297</ele>
        <time>2011-11-20T10:22:12.000Z</time>
      </trkpt>
      <trkpt lat="45.84641" lon="4.81349">
        <ele>382.39999389648</ele>
        <time>2011-11-20T10:22:15.000Z</time>
      </trkpt>
      <trkpt lat="45.8464" lon="4.8135">
        <ele>382.60000610352</ele>
        <time>2011-11-20T10:22:18.000Z</time>
      </trkpt>
      <trkpt lat="45.84641" lon="4.81354">
        <ele>381.39999389648</ele>
        <time>2011-11-20T10:22:23.000Z</time>
      </trkpt>
      <trkpt lat="45.8464" lon="4.81355">
        <ele>381.20001220703</ele>
        <time>2011-11-20T10:22:24.000Z</time>
      </trkpt>
      <trkpt lat="45.84641" lon="4.81359">
        <ele>380</ele>
        <time>2011-11-20T10:22:27.000Z</time>
      </trkpt>
      <trkpt lat="45.8464" lon="4.8136">
        <ele>379.79998779297</ele>
        <time>2011-11-20T10:22:28.000Z</time>
      </trkpt>
      <trkpt lat="45.84635" lon="4.81366">
        <ele>378.20001220703</ele>
        <time>2011-11-20T10:22:32.000Z</time>
      </trkpt>
      <trkpt lat="45.84633" lon="4.81368">
        <ele>377.60000610352</ele>
        <time>2011-11-20T10:22:36.000Z</time>
      </trkpt>
      <trkpt lat="45.84634" lon="4.81368">
        <ele>377.60000610352</ele>
        <time>2011-11-20T10:22:38.000Z</time>
      </trkpt>
      <trkpt lat="45.84635" lon="4.8137">
        <ele>377</ele>
        <time>2011-11-20T10:22:40.000Z</time>
      </trkpt>
      <trkpt lat="45.84638" lon="4.81372">
        <ele>376.39999389648</ele>
        <time>2011-11-20T10:22:44.000Z</time>
      </trkpt>
      <trkpt lat="45.84639" lon="4.8137">
        <ele>377.20001220703</ele>
        <time>2011-11-20T10:22:47.000Z</time>
      </trkpt>
      <trkpt lat="45.84637" lon="4.81367">
        <ele>377.79998779297</ele>
        <time>2011-11-20T10:22:49.000Z</time>
      </trkpt>
      <trkpt lat="45.84636" lon="4.81368">
        <ele>377.60000610352</ele>
        <time>2011-11-20T10:22:51.000Z</time>
      </trkpt>
      <trkpt lat="45.84634" lon="4.81369">
        <ele>377.39999389648</ele>
        <time>2011-11-20T10:22:53.000Z</time>
      </trkpt>
      <trkpt lat="45.84628" lon="4.81371">
        <ele>376.60000610352</ele>
        <time>2011-11-20T10:22:58.000Z</time>
      </trkpt>
      <trkpt lat="45.84625" lon="4.81376">
        <ele>375</ele>
        <time>2011-11-20T10:23:00.000Z</time>
      </trkpt>
      <trkpt lat="45.84626" lon="4.8138">
        <ele>373.79998779297</ele>
        <time>2011-11-20T10:23:03.000Z</time>
      </trkpt>
      <trkpt lat="45.84626" lon="4.81378">
        <ele>374.39999389648</ele>
        <time>2011-11-20T10:23:12.000Z</time>
      </trkpt>
      <trkpt lat="45.84625" lon="4.81378">
        <ele>374.60000610352</ele>
        <time>2011-11-20T10:23:16.000Z</time>
      </trkpt>
      <trkpt lat="45.84614" lon="4.81381">
        <ele>373</ele>
        <time>2011-11-20T10:23:22.000Z</time>
      </trkpt>
      <trkpt lat="45.84612" lon="4.81381">
        <ele>373</ele>
        <time>2011-11-20T10:23:23.000Z</time>
      </trkpt>
      <trkpt lat="45.8461" lon="4.81382">
        <ele>372.60000610352</ele>
        <time>2011-11-20T10:23:25.000Z</time>
      </trkpt>
      <trkpt lat="45.84613" lon="4.8138">
        <ele>373.20001220703</ele>
        <time>2011-11-20T10:23:29.000Z</time>
      </trkpt>
      <trkpt lat="45.8461" lon="4.81382">
        <ele>372.39999389648</ele>
        <time>2011-11-20T10:23:37.000Z</time>
      </trkpt>
      <trkpt lat="45.84606" lon="4.81374">
        <ele>375.39999389648</ele>
        <time>2011-11-20T10:23:39.000Z</time>
      </trkpt>
      <trkpt lat="45.84607" lon="4.81372">
        <ele>376</ele>
        <time>2011-11-20T10:23:41.000Z</time>
      </trkpt>
      <trkpt lat="45.84611" lon="4.8138">
        <ele>373.39999389648</ele>
        <time>2011-11-20T10:23:45.000Z</time>
      </trkpt>
      <trkpt lat="45.84632" lon="4.81382">
        <ele>373.60000610352</ele>
        <time>2011-11-20T10:23:53.000Z</time>
      </trkpt>
      <trkpt lat="45.84638" lon="4.8138">
        <ele>374.39999389648</ele>
        <time>2011-11-20T10:23:56.000Z</time>
      </trkpt>
      <trkpt lat="45.8464" lon="4.81378">
        <ele>375</ele>
        <time>2011-11-20T10:24:01.000Z</time>
      </trkpt>
      <trkpt lat="45.84642" lon="4.81378">
        <ele>375</ele>
        <time>2011-11-20T10:24:03.000Z</time>
      </trkpt>
      <trkpt lat="45.84648" lon="4.81379">
        <ele>375</ele>
        <time>2011-11-20T10:24:06.000Z</time>
      </trkpt>
      <trkpt lat="45.8465" lon="4.81379">
        <ele>375.20001220703</ele>
        <time>2011-11-20T10:24:07.000Z</time>
      </trkpt>
      <trkpt lat="45.84652" lon="4.81378">
        <ele>375.39999389648</ele>
        <time>2011-11-20T10:24:08.000Z</time>
      </trkpt>
      <trkpt lat="45.84657" lon="4.81372">
        <ele>376.79998779297</ele>
        <time>2011-11-20T10:24:12.000Z</time>
      </trkpt>
      <trkpt lat="45.84659" lon="4.81359">
        <ele>379.39999389648</ele>
        <time>2011-11-20T10:24:15.000Z</time>
      </trkpt>
      <trkpt lat="45.84656" lon="4.81359">
        <ele>379.60000610352</ele>
        <time>2011-11-20T10:24:17.000Z</time>
      </trkpt>
      <trkpt lat="45.84651" lon="4.81368">
        <ele>377.79998779297</ele>
        <time>2011-11-20T10:24:19.000Z</time>
      </trkpt>
      <trkpt lat="45.84647" lon="4.81372">
        <ele>376.60000610352</ele>
        <time>2011-11-20T10:24:23.000Z</time>
      </trkpt>
      <trkpt lat="45.8464" lon="4.81374">
        <ele>376</ele>
        <time>2011-11-20T10:24:34.000Z</time>
      </trkpt>
      <trkpt lat="45.8464" lon="4.81378">
        <ele>375</ele>
        <time>2011-11-20T10:24:40.000Z</time>
      </trkpt>
      <trkpt lat="45.84643" lon="4.81381">
        <ele>374.39999389648</ele>
        <time>2011-11-20T10:24:45.000Z</time>
      </trkpt>
      <trkpt lat="45.84647" lon="4.8138">
        <ele>374.60000610352</ele>
        <time>2011-11-20T10:24:54.000Z</time>
      </trkpt>
      <trkpt lat="45.84649" lon="4.81381">
        <ele>374.60000610352</ele>
        <time>2011-11-20T10:24:58.000Z</time>
      </trkpt>
      <trkpt lat="45.84649" lon="4.81382">
        <ele>374.39999389648</ele>
        <time>2011-11-20T10:24:59.000Z</time>
      </trkpt>
      <trkpt lat="45.84651" lon="4.81386">
        <ele>373.60000610352</ele>
        <time>2011-11-20T10:25:02.000Z</time>
      </trkpt>
      <trkpt lat="45.8465" lon="4.81393">
        <ele>371.79998779297</ele>
        <time>2011-11-20T10:25:07.000Z</time>
      </trkpt>
      <trkpt lat="45.84651" lon="4.81397">
        <ele>371</ele>
        <time>2011-11-20T10:25:10.000Z</time>
      </trkpt>
      <trkpt lat="45.84651" lon="4.81397">
        <ele>371</ele>
        <time>2011-11-20T10:25:12.000Z</time>
      </trkpt>
      <trkpt lat="45.84656" lon="4.81402">
        <ele>370.20001220703</ele>
        <time>2011-11-20T10:25:19.000Z</time>
      </trkpt>
      <trkpt lat="45.84659" lon="4.81406">
        <ele>369.79998779297</ele>
        <time>2011-11-20T10:25:25.000Z</time>
      </trkpt>
      <trkpt lat="45.84659" lon="4.81407">
        <ele>369.60000610352</ele>
        <time>2011-11-20T10:25:26.000Z</time>
      </trkpt>
      <trkpt lat="45.84659" lon="4.81408">
        <ele>369.60000610352</ele>
        <time>2011-11-20T10:25:27.000Z</time>
      </trkpt>
      <trkpt lat="45.8466" lon="4.8141">
        <ele>369.20001220703</ele>
        <time>2011-11-20T10:25:29.000Z</time>
      </trkpt>
      <trkpt lat="45.8466" lon="4.81413">
        <ele>368.39999389648</ele>
        <time>2011-11-20T10:25:32.000Z</time>
      </trkpt>
      <trkpt lat="45.84658" lon="4.81419">
        <ele>367.60000610352</ele>
        <time>2011-11-20T10:25:38.000Z</time>
      </trkpt>
      <trkpt lat="45.84661" lon="4.81424">
        <ele>368.39999389648</ele>
        <time>2011-11-20T10:25:43.000Z</time>
      </trkpt>
      <trkpt lat="45.84666" lon="4.81427">
        <ele>369.39999389648</ele>
        <time>2011-11-20T10:25:48.000Z</time>
      </trkpt>
      <trkpt lat="45.84666" lon="4.81428">
        <ele>369.60000610352</ele>
        <time>2011-11-20T10:25:51.000Z</time>
      </trkpt>
      <trkpt lat="45.84668" lon="4.81432">
        <ele>370.39999389648</ele>
        <time>2011-11-20T10:25:55.000Z</time>
      </trkpt>
      <trkpt lat="45.84668" lon="4.81432">
        <ele>370.39999389648</ele>
        <time>2011-11-20T10:26:03.000Z</time>
      </trkpt>
      <trkpt lat="45.84666" lon="4.81428">
        <ele>369.60000610352</ele>
        <time>2011-11-20T10:26:06.000Z</time>
      </trkpt>
      <trkpt lat="45.84662" lon="4.81424">
        <ele>368.60000610352</ele>
        <time>2011-11-20T10:26:11.000Z</time>
      </trkpt>
      <trkpt lat="45.84659" lon="4.81417">
        <ele>367.60000610352</ele>
        <time>2011-11-20T10:26:33.000Z</time>
      </trkpt>
      <trkpt lat="45.84657" lon="4.81416">
        <ele>367.39999389648</ele>
        <time>2011-11-20T10:26:37.000Z</time>
      </trkpt>
      <trkpt lat="45.84652" lon="4.8141">
        <ele>368.20001220703</ele>
        <time>2011-11-20T10:26:39.000Z</time>
      </trkpt>
      <trkpt lat="45.84642" lon="4.81395">
        <ele>370.60000610352</ele>
        <time>2011-11-20T10:26:41.000Z</time>
      </trkpt>
      <trkpt lat="45.84638" lon="4.81388">
        <ele>372</ele>
        <time>2011-11-20T10:26:42.000Z</time>
      </trkpt>
      <trkpt lat="45.84643" lon="4.81403">
        <ele>368.79998779297</ele>
        <time>2011-11-20T10:26:44.000Z</time>
      </trkpt>
      <trkpt lat="45.84644" lon="4.81411">
        <ele>366.79998779297</ele>
        <time>2011-11-20T10:26:45.000Z</time>
      </trkpt>
      <trkpt lat="45.84641" lon="4.81423">
        <ele>364.79998779297</ele>
        <time>2011-11-20T10:26:48.000Z</time>
      </trkpt>
      <trkpt lat="45.84638" lon="4.81424">
        <ele>364.20001220703</ele>
        <time>2011-11-20T10:26:50.000Z</time>
      </trkpt>
      <trkpt lat="45.84636" lon="4.81427">
        <ele>363.79998779297</ele>
        <time>2011-11-20T10:26:52.000Z</time>
      </trkpt>
      <trkpt lat="45.84633" lon="4.81428">
        <ele>363.20001220703</ele>
        <time>2011-11-20T10:26:53.000Z</time>
      </trkpt>
      <trkpt lat="45.84631" lon="4.81429">
        <ele>362.79998779297</ele>
        <time>2011-11-20T10:26:55.000Z</time>
      </trkpt>
      <trkpt lat="45.84628" lon="4.81433">
        <ele>361.79998779297</ele>
        <time>2011-11-20T10:26:58.000Z</time>
      </trkpt>
      <trkpt lat="45.84627" lon="4.81435">
        <ele>361.60000610352</ele>
        <time>2011-11-20T10:26:59.000Z</time>
      </trkpt>
      <trkpt lat="45.84623" lon="4.81438">
        <ele>360.39999389648</ele>
        <time>2011-11-20T10:27:02.000Z</time>
      </trkpt>
      <trkpt lat="45.84622" lon="4.8144">
        <ele>360</ele>
        <time>2011-11-20T10:27:03.000Z</time>
      </trkpt>
      <trkpt lat="45.8462" lon="4.81442">
        <ele>359.39999389648</ele>
        <time>2011-11-20T10:27:04.000Z</time>
      </trkpt>
      <trkpt lat="45.84619" lon="4.81443">
        <ele>359.20001220703</ele>
        <time>2011-11-20T10:27:05.000Z</time>
      </trkpt>
      <trkpt lat="45.84616" lon="4.81445">
        <ele>358.20001220703</ele>
        <time>2011-11-20T10:27:08.000Z</time>
      </trkpt>
      <trkpt lat="45.8461" lon="4.8145">
        <ele>356</ele>
        <time>2011-11-20T10:27:13.000Z</time>
      </trkpt>
      <trkpt lat="45.8461" lon="4.81451">
        <ele>355.79998779297</ele>
        <time>2011-11-20T10:27:14.000Z</time>
      </trkpt>
      <trkpt lat="45.84609" lon="4.81452">
        <ele>355.60000610352</ele>
        <time>2011-11-20T10:27:15.000Z</time>
      </trkpt>
      <trkpt lat="45.84607" lon="4.81454">
        <ele>354.60000610352</ele>
        <time>2011-11-20T10:27:18.000Z</time>
      </trkpt>
      <trkpt lat="45.84606" lon="4.81455">
        <ele>354.20001220703</ele>
        <time>2011-11-20T10:27:19.000Z</time>
      </trkpt>
      <trkpt lat="45.84603" lon="4.81458">
        <ele>352.60000610352</ele>
        <time>2011-11-20T10:27:23.000Z</time>
      </trkpt>
      <trkpt lat="45.846" lon="4.81462">
        <ele>351.20001220703</ele>
        <time>2011-11-20T10:27:26.000Z</time>
      </trkpt>
      <trkpt lat="45.84595" lon="4.81463">
        <ele>349.60000610352</ele>
        <time>2011-11-20T10:27:30.000Z</time>
      </trkpt>
      <trkpt lat="45.84589" lon="4.81464">
        <ele>347.60000610352</ele>
        <time>2011-11-20T10:27:35.000Z</time>
      </trkpt>
      <trkpt lat="45.84587" lon="4.81465">
        <ele>346.79998779297</ele>
        <time>2011-11-20T10:27:37.000Z</time>
      </trkpt>
      <trkpt lat="45.84584" lon="4.81467">
        <ele>345.20001220703</ele>
        <time>2011-11-20T10:27:40.000Z</time>
      </trkpt>
      <trkpt lat="45.84578" lon="4.81471">
        <ele>344</ele>
        <time>2011-11-20T10:27:45.000Z</time>
      </trkpt>
      <trkpt lat="45.84574" lon="4.81474">
        <ele>343</ele>
        <time>2011-11-20T10:27:51.000Z</time>
      </trkpt>
      <trkpt lat="45.84574" lon="4.81476">
        <ele>342.60000610352</ele>
        <time>2011-11-20T10:27:53.000Z</time>
      </trkpt>
      <trkpt lat="45.84576" lon="4.81478">
        <ele>342.20001220703</ele>
        <time>2011-11-20T10:27:55.000Z</time>
      </trkpt>
      <trkpt lat="45.84578" lon="4.8148">
        <ele>342</ele>
        <time>2011-11-20T10:27:57.000Z</time>
      </trkpt>
      <trkpt lat="45.84578" lon="4.81485">
        <ele>340.79998779297</ele>
        <time>2011-11-20T10:28:06.000Z</time>
      </trkpt>
      <trkpt lat="45.84577" lon="4.81488">
        <ele>340</ele>
        <time>2011-11-20T10:28:07.000Z</time>
      </trkpt>
      <trkpt lat="45.84575" lon="4.81496">
        <ele>338.20001220703</ele>
        <time>2011-11-20T10:28:10.000Z</time>
      </trkpt>
      <trkpt lat="45.84574" lon="4.81499">
        <ele>337.39999389648</ele>
        <time>2011-11-20T10:28:11.000Z</time>
      </trkpt>
      <trkpt lat="45.84573" lon="4.81506">
        <ele>336.60000610352</ele>
        <time>2011-11-20T10:28:15.000Z</time>
      </trkpt>
      <trkpt lat="45.84573" lon="4.81508">
        <ele>336.60000610352</ele>
        <time>2011-11-20T10:28:16.000Z</time>
      </trkpt>
      <trkpt lat="45.84571" lon="4.81515">
        <ele>335.79998779297</ele>
        <time>2011-11-20T10:28:20.000Z</time>
      </trkpt>
      <trkpt lat="45.84569" lon="4.81524">
        <ele>335</ele>
        <time>2011-11-20T10:28:24.000Z</time>
      </trkpt>
      <trkpt lat="45.84569" lon="4.81526">
        <ele>334.79998779297</ele>
        <time>2011-11-20T10:28:25.000Z</time>
      </trkpt>
      <trkpt lat="45.84569" lon="4.81533">
        <ele>334.20001220703</ele>
        <time>2011-11-20T10:28:28.000Z</time>
      </trkpt>
      <trkpt lat="45.84569" lon="4.81537">
        <ele>333.79998779297</ele>
        <time>2011-11-20T10:28:30.000Z</time>
      </trkpt>
      <trkpt lat="45.84569" lon="4.81545">
        <ele>333.20001220703</ele>
        <time>2011-11-20T10:28:34.000Z</time>
      </trkpt>
      <trkpt lat="45.8457" lon="4.8155">
        <ele>333</ele>
        <time>2011-11-20T10:28:37.000Z</time>
      </trkpt>
      <trkpt lat="45.8457" lon="4.81553">
        <ele>332.79998779297</ele>
        <time>2011-11-20T10:28:38.000Z</time>
      </trkpt>
      <trkpt lat="45.84571" lon="4.81556">
        <ele>332.79998779297</ele>
        <time>2011-11-20T10:28:40.000Z</time>
      </trkpt>
      <trkpt lat="45.84578" lon="4.81562">
        <ele>333.79998779297</ele>
        <time>2011-11-20T10:28:45.000Z</time>
      </trkpt>
      <trkpt lat="45.84579" lon="4.81563">
        <ele>334</ele>
        <time>2011-11-20T10:28:46.000Z</time>
      </trkpt>
      <trkpt lat="45.84582" lon="4.81569">
        <ele>334.39999389648</ele>
        <time>2011-11-20T10:28:49.000Z</time>
      </trkpt>
      <trkpt lat="45.84583" lon="4.81571">
        <ele>334.39999389648</ele>
        <time>2011-11-20T10:28:50.000Z</time>
      </trkpt>
      <trkpt lat="45.84587" lon="4.81578">
        <ele>336.39999389648</ele>
        <time>2011-11-20T10:28:55.000Z</time>
      </trkpt>
      <trkpt lat="45.84588" lon="4.8158">
        <ele>336.60000610352</ele>
        <time>2011-11-20T10:28:56.000Z</time>
      </trkpt>
      <trkpt lat="45.84588" lon="4.81584">
        <ele>336.60000610352</ele>
        <time>2011-11-20T10:28:58.000Z</time>
      </trkpt>
      <trkpt lat="45.84591" lon="4.81589">
        <ele>337.20001220703</ele>
        <time>2011-11-20T10:29:01.000Z</time>
      </trkpt>
      <trkpt lat="45.84592" lon="4.81591">
        <ele>337.39999389648</ele>
        <time>2011-11-20T10:29:03.000Z</time>
      </trkpt>
      <trkpt lat="45.84592" lon="4.81592">
        <ele>337.60000610352</ele>
        <time>2011-11-20T10:29:04.000Z</time>
      </trkpt>
      <trkpt lat="45.84593" lon="4.81595">
        <ele>337.39999389648</ele>
        <time>2011-11-20T10:29:09.000Z</time>
      </trkpt>
      <trkpt lat="45.84592" lon="4.81599">
        <ele>336.20001220703</ele>
        <time>2011-11-20T10:29:15.000Z</time>
      </trkpt>
      <trkpt lat="45.84589" lon="4.81604">
        <ele>333.20001220703</ele>
        <time>2011-11-20T10:29:21.000Z</time>
      </trkpt>
      <trkpt lat="45.84589" lon="4.81604">
        <ele>333.20001220703</ele>
        <time>2011-11-20T10:29:22.000Z</time>
      </trkpt>
      <trkpt lat="45.84588" lon="4.81609">
        <ele>332.20001220703</ele>
        <time>2011-11-20T10:29:27.000Z</time>
      </trkpt>
      <trkpt lat="45.84586" lon="4.81614">
        <ele>330</ele>
        <time>2011-11-20T10:29:30.000Z</time>
      </trkpt>
      <trkpt lat="45.84585" lon="4.8162">
        <ele>328.39999389648</ele>
        <time>2011-11-20T10:29:32.000Z</time>
      </trkpt>
      <trkpt lat="45.84585" lon="4.81628">
        <ele>327.20001220703</ele>
        <time>2011-11-20T10:29:36.000Z</time>
      </trkpt>
      <trkpt lat="45.84585" lon="4.81631">
        <ele>326.20001220703</ele>
        <time>2011-11-20T10:29:38.000Z</time>
      </trkpt>
      <trkpt lat="45.84585" lon="4.81635">
        <ele>325.39999389648</ele>
        <time>2011-11-20T10:29:42.000Z</time>
      </trkpt>
      <trkpt lat="45.84585" lon="4.81637">
        <ele>325.20001220703</ele>
        <time>2011-11-20T10:29:43.000Z</time>
      </trkpt>
      <trkpt lat="45.84585" lon="4.81641">
        <ele>324.60000610352</ele>
        <time>2011-11-20T10:29:45.000Z</time>
      </trkpt>
      <trkpt lat="45.84585" lon="4.81643">
        <ele>324</ele>
        <time>2011-11-20T10:29:46.000Z</time>
      </trkpt>
      <trkpt lat="45.84584" lon="4.81644">
        <ele>323.20001220703</ele>
        <time>2011-11-20T10:29:47.000Z</time>
      </trkpt>
      <trkpt lat="45.84583" lon="4.81657">
        <ele>320.60000610352</ele>
        <time>2011-11-20T10:29:51.000Z</time>
      </trkpt>
      <trkpt lat="45.84584" lon="4.81661">
        <ele>320.20001220703</ele>
        <time>2011-11-20T10:29:52.000Z</time>
      </trkpt>
      <trkpt lat="45.84585" lon="4.81667">
        <ele>319.60000610352</ele>
        <time>2011-11-20T10:29:54.000Z</time>
      </trkpt>
      <trkpt lat="45.84587" lon="4.81679">
        <ele>319.20001220703</ele>
        <time>2011-11-20T10:29:57.000Z</time>
      </trkpt>
      <trkpt lat="45.84589" lon="4.81695">
        <ele>318</ele>
        <time>2011-11-20T10:30:01.000Z</time>
      </trkpt>
      <trkpt lat="45.84591" lon="4.81702">
        <ele>317.39999389648</ele>
        <time>2011-11-20T10:30:05.000Z</time>
      </trkpt>
      <trkpt lat="45.84591" lon="4.81706">
        <ele>316.79998779297</ele>
        <time>2011-11-20T10:30:08.000Z</time>
      </trkpt>
      <trkpt lat="45.84591" lon="4.81709">
        <ele>316.60000610352</ele>
        <time>2011-11-20T10:30:11.000Z</time>
      </trkpt>
      <trkpt lat="45.84593" lon="4.81715">
        <ele>316.60000610352</ele>
        <time>2011-11-20T10:30:16.000Z</time>
      </trkpt>
      <trkpt lat="45.84595" lon="4.81716">
        <ele>317.79998779297</ele>
        <time>2011-11-20T10:30:18.000Z</time>
      </trkpt>
      <trkpt lat="45.84596" lon="4.81717">
        <ele>318.20001220703</ele>
        <time>2011-11-20T10:30:19.000Z</time>
      </trkpt>
      <trkpt lat="45.84597" lon="4.81718">
        <ele>318.39999389648</ele>
        <time>2011-11-20T10:30:20.000Z</time>
      </trkpt>
      <trkpt lat="45.84597" lon="4.81721">
        <ele>318</ele>
        <time>2011-11-20T10:30:23.000Z</time>
      </trkpt>
      <trkpt lat="45.846" lon="4.81722">
        <ele>319.39999389648</ele>
        <time>2011-11-20T10:30:28.000Z</time>
      </trkpt>
      <trkpt lat="45.84602" lon="4.81727">
        <ele>319.79998779297</ele>
        <time>2011-11-20T10:30:32.000Z</time>
      </trkpt>
      <trkpt lat="45.84604" lon="4.81733">
        <ele>320</ele>
        <time>2011-11-20T10:30:37.000Z</time>
      </trkpt>
      <trkpt lat="45.84605" lon="4.81741">
        <ele>319.20001220703</ele>
        <time>2011-11-20T10:30:40.000Z</time>
      </trkpt>
      <trkpt lat="45.84606" lon="4.81747">
        <ele>319</ele>
        <time>2011-11-20T10:30:42.000Z</time>
      </trkpt>
      <trkpt lat="45.8461" lon="4.81755">
        <ele>319.60000610352</ele>
        <time>2011-11-20T10:30:47.000Z</time>
      </trkpt>
      <trkpt lat="45.84614" lon="4.81762">
        <ele>320.79998779297</ele>
        <time>2011-11-20T10:30:53.000Z</time>
      </trkpt>
      <trkpt lat="45.84614" lon="4.81763">
        <ele>320.79998779297</ele>
        <time>2011-11-20T10:30:54.000Z</time>
      </trkpt>
      <trkpt lat="45.84614" lon="4.81764">
        <ele>320.79998779297</ele>
        <time>2011-11-20T10:30:55.000Z</time>
      </trkpt>
      <trkpt lat="45.84617" lon="4.81766">
        <ele>322.39999389648</ele>
        <time>2011-11-20T10:30:59.000Z</time>
      </trkpt>
      <trkpt lat="45.84623" lon="4.81768">
        <ele>325.20001220703</ele>
        <time>2011-11-20T10:31:06.000Z</time>
      </trkpt>
      <trkpt lat="45.84625" lon="4.81769">
        <ele>326.39999389648</ele>
        <time>2011-11-20T10:31:08.000Z</time>
      </trkpt>
      <trkpt lat="45.84628" lon="4.8177">
        <ele>327.60000610352</ele>
        <time>2011-11-20T10:31:12.000Z</time>
      </trkpt>
      <trkpt lat="45.84628" lon="4.81772">
        <ele>327.39999389648</ele>
        <time>2011-11-20T10:31:16.000Z</time>
      </trkpt>
      <trkpt lat="45.8463" lon="4.81778">
        <ele>327.39999389648</ele>
        <time>2011-11-20T10:31:22.000Z</time>
      </trkpt>
      <trkpt lat="45.84633" lon="4.81784">
        <ele>328</ele>
        <time>2011-11-20T10:31:30.000Z</time>
      </trkpt>
      <trkpt lat="45.84634" lon="4.81786">
        <ele>328.60000610352</ele>
        <time>2011-11-20T10:31:35.000Z</time>
      </trkpt>
      <trkpt lat="45.84638" lon="4.81792">
        <ele>329.20001220703</ele>
        <time>2011-11-20T10:31:41.000Z</time>
      </trkpt>
      <trkpt lat="45.84638" lon="4.81797">
        <ele>328.60000610352</ele>
        <time>2011-11-20T10:31:44.000Z</time>
      </trkpt>
      <trkpt lat="45.8464" lon="4.81799">
        <ele>329</ele>
        <time>2011-11-20T10:31:47.000Z</time>
      </trkpt>
      <trkpt lat="45.8464" lon="4.818">
        <ele>329</ele>
        <time>2011-11-20T10:31:49.000Z</time>
      </trkpt>
      <trkpt lat="45.84641" lon="4.81804">
        <ele>328.79998779297</ele>
        <time>2011-11-20T10:31:52.000Z</time>
      </trkpt>
      <trkpt lat="45.84642" lon="4.81805">
        <ele>329</ele>
        <time>2011-11-20T10:31:53.000Z</time>
      </trkpt>
      <trkpt lat="45.84643" lon="4.81808">
        <ele>329</ele>
        <time>2011-11-20T10:31:56.000Z</time>
      </trkpt>
      <trkpt lat="45.84643" lon="4.81809">
        <ele>328.79998779297</ele>
        <time>2011-11-20T10:31:57.000Z</time>
      </trkpt>
      <trkpt lat="45.84644" lon="4.81815">
        <ele>328.39999389648</ele>
        <time>2011-11-20T10:32:00.000Z</time>
      </trkpt>
      <trkpt lat="45.84645" lon="4.81817">
        <ele>328.20001220703</ele>
        <time>2011-11-20T10:32:01.000Z</time>
      </trkpt>
      <trkpt lat="45.84648" lon="4.8182">
        <ele>329.60000610352</ele>
        <time>2011-11-20T10:32:04.000Z</time>
      </trkpt>
      <trkpt lat="45.84649" lon="4.8182">
        <ele>329.79998779297</ele>
        <time>2011-11-20T10:32:05.000Z</time>
      </trkpt>
      <trkpt lat="45.84649" lon="4.81822">
        <ele>329.60000610352</ele>
        <time>2011-11-20T10:32:07.000Z</time>
      </trkpt>
      <trkpt lat="45.84651" lon="4.81827">
        <ele>329.39999389648</ele>
        <time>2011-11-20T10:32:11.000Z</time>
      </trkpt>
      <trkpt lat="45.84651" lon="4.81831">
        <ele>328.79998779297</ele>
        <time>2011-11-20T10:32:14.000Z</time>
      </trkpt>
      <trkpt lat="45.84652" lon="4.81832">
        <ele>328.60000610352</ele>
        <time>2011-11-20T10:32:16.000Z</time>
      </trkpt>
      <trkpt lat="45.84654" lon="4.81837">
        <ele>328.60000610352</ele>
        <time>2011-11-20T10:32:25.000Z</time>
      </trkpt>
      <trkpt lat="45.84657" lon="4.81838">
        <ele>329.79998779297</ele>
        <time>2011-11-20T10:32:29.000Z</time>
      </trkpt>
      <trkpt lat="45.84659" lon="4.81839">
        <ele>330.60000610352</ele>
        <time>2011-11-20T10:32:32.000Z</time>
      </trkpt>
      <trkpt lat="45.84658" lon="4.81846">
        <ele>328</ele>
        <time>2011-11-20T10:32:37.000Z</time>
      </trkpt>
      <trkpt lat="45.84659" lon="4.81851">
        <ele>327.20001220703</ele>
        <time>2011-11-20T10:32:41.000Z</time>
      </trkpt>
      <trkpt lat="45.84662" lon="4.81859">
        <ele>326.60000610352</ele>
        <time>2011-11-20T10:32:46.000Z</time>
      </trkpt>
      <trkpt lat="45.84663" lon="4.81862">
        <ele>325.79998779297</ele>
        <time>2011-11-20T10:32:47.000Z</time>
      </trkpt>
      <trkpt lat="45.84666" lon="4.81872">
        <ele>324.20001220703</ele>
        <time>2011-11-20T10:32:50.000Z</time>
      </trkpt>
      <trkpt lat="45.84668" lon="4.8188">
        <ele>322.60000610352</ele>
        <time>2011-11-20T10:32:54.000Z</time>
      </trkpt>
      <trkpt lat="45.84672" lon="4.81882">
        <ele>322.60000610352</ele>
        <time>2011-11-20T10:32:58.000Z</time>
      </trkpt>
      <trkpt lat="45.84673" lon="4.81882">
        <ele>322.79998779297</ele>
        <time>2011-11-20T10:33:00.000Z</time>
      </trkpt>
      <trkpt lat="45.84677" lon="4.81883">
        <ele>323</ele>
        <time>2011-11-20T10:33:03.000Z</time>
      </trkpt>
      <trkpt lat="45.84679" lon="4.81882">
        <ele>323.60000610352</ele>
        <time>2011-11-20T10:33:10.000Z</time>
      </trkpt>
      <trkpt lat="45.8468" lon="4.8188">
        <ele>324.39999389648</ele>
        <time>2011-11-20T10:33:15.000Z</time>
      </trkpt>
      <trkpt lat="45.8468" lon="4.81877">
        <ele>325.20001220703</ele>
        <time>2011-11-20T10:33:20.000Z</time>
      </trkpt>
      <trkpt lat="45.84682" lon="4.81874">
        <ele>326.20001220703</ele>
        <time>2011-11-20T10:33:24.000Z</time>
      </trkpt>
      <trkpt lat="45.84685" lon="4.81872">
        <ele>327.39999389648</ele>
        <time>2011-11-20T10:33:31.000Z</time>
      </trkpt>
      <trkpt lat="45.84686" lon="4.8187">
        <ele>328.39999389648</ele>
        <time>2011-11-20T10:33:36.000Z</time>
      </trkpt>
      <trkpt lat="45.84687" lon="4.81868">
        <ele>328.79998779297</ele>
        <time>2011-11-20T10:33:37.000Z</time>
      </trkpt>
      <trkpt lat="45.84689" lon="4.8187">
        <ele>328.60000610352</ele>
        <time>2011-11-20T10:33:45.000Z</time>
      </trkpt>
      <trkpt lat="45.84692" lon="4.81875">
        <ele>327.60000610352</ele>
        <time>2011-11-20T10:33:53.000Z</time>
      </trkpt>
      <trkpt lat="45.84695" lon="4.8188">
        <ele>326.60000610352</ele>
        <time>2011-11-20T10:33:59.000Z</time>
      </trkpt>
      <trkpt lat="45.84696" lon="4.8188">
        <ele>326.79998779297</ele>
        <time>2011-11-20T10:34:00.000Z</time>
      </trkpt>
      <trkpt lat="45.84698" lon="4.81881">
        <ele>326.60000610352</ele>
        <time>2011-11-20T10:34:02.000Z</time>
      </trkpt>
      <trkpt lat="45.847" lon="4.81883">
        <ele>326.20001220703</ele>
        <time>2011-11-20T10:34:04.000Z</time>
      </trkpt>
      <trkpt lat="45.84702" lon="4.81883">
        <ele>326.39999389648</ele>
        <time>2011-11-20T10:34:05.000Z</time>
      </trkpt>
      <trkpt lat="45.84708" lon="4.81882">
        <ele>327.79998779297</ele>
        <time>2011-11-20T10:34:10.000Z</time>
      </trkpt>
      <trkpt lat="45.84716" lon="4.81879">
        <ele>329.60000610352</ele>
        <time>2011-11-20T10:34:16.000Z</time>
      </trkpt>
      <trkpt lat="45.84717" lon="4.81878">
        <ele>330.39999389648</ele>
        <time>2011-11-20T10:34:17.000Z</time>
      </trkpt>
      <trkpt lat="45.84725" lon="4.81872">
        <ele>333.20001220703</ele>
        <time>2011-11-20T10:34:21.000Z</time>
      </trkpt>
      <trkpt lat="45.84732" lon="4.81868">
        <ele>335.60000610352</ele>
        <time>2011-11-20T10:34:25.000Z</time>
      </trkpt>
      <trkpt lat="45.84735" lon="4.81865">
        <ele>336.60000610352</ele>
        <time>2011-11-20T10:34:27.000Z</time>
      </trkpt>
      <trkpt lat="45.84738" lon="4.81862">
        <ele>338.20001220703</ele>
        <time>2011-11-20T10:34:30.000Z</time>
      </trkpt>
      <trkpt lat="45.84746" lon="4.81858">
        <ele>340.79998779297</ele>
        <time>2011-11-20T10:34:36.000Z</time>
      </trkpt>
      <trkpt lat="45.84749" lon="4.81862">
        <ele>339.79998779297</ele>
        <time>2011-11-20T10:34:40.000Z</time>
      </trkpt>
      <trkpt lat="45.8475" lon="4.81863">
        <ele>339.79998779297</ele>
        <time>2011-11-20T10:34:41.000Z</time>
      </trkpt>
      <trkpt lat="45.84761" lon="4.81861">
        <ele>341</ele>
        <time>2011-11-20T10:34:45.000Z</time>
      </trkpt>
      <trkpt lat="45.84765" lon="4.81858">
        <ele>341.79998779297</ele>
        <time>2011-11-20T10:34:47.000Z</time>
      </trkpt>
      <trkpt lat="45.84766" lon="4.81859">
        <ele>341.79998779297</ele>
        <time>2011-11-20T10:34:48.000Z</time>
      </trkpt>
      <trkpt lat="45.84767" lon="4.81859">
        <ele>341.60000610352</ele>
        <time>2011-11-20T10:34:49.000Z</time>
      </trkpt>
      <trkpt lat="45.84768" lon="4.8186">
        <ele>341.60000610352</ele>
        <time>2011-11-20T10:34:50.000Z</time>
      </trkpt>
      <trkpt lat="45.8477" lon="4.81861">
        <ele>341.39999389648</ele>
        <time>2011-11-20T10:34:53.000Z</time>
      </trkpt>
      <trkpt lat="45.84774" lon="4.81858">
        <ele>342.20001220703</ele>
        <time>2011-11-20T10:34:56.000Z</time>
      </trkpt>
      <trkpt lat="45.84775" lon="4.81859">
        <ele>342</ele>
        <time>2011-11-20T10:34:57.000Z</time>
      </trkpt>
      <trkpt lat="45.84778" lon="4.81859">
        <ele>342</ele>
        <time>2011-11-20T10:34:59.000Z</time>
      </trkpt>
      <trkpt lat="45.84781" lon="4.81857">
        <ele>342.79998779297</ele>
        <time>2011-11-20T10:35:01.000Z</time>
      </trkpt>
      <trkpt lat="45.84783" lon="4.81855">
        <ele>343.20001220703</ele>
        <time>2011-11-20T10:35:03.000Z</time>
      </trkpt>
      <trkpt lat="45.84785" lon="4.81854">
        <ele>343.60000610352</ele>
        <time>2011-11-20T10:35:05.000Z</time>
      </trkpt>
      <trkpt lat="45.84786" lon="4.81849">
        <ele>344.60000610352</ele>
        <time>2011-11-20T10:35:08.000Z</time>
      </trkpt>
      <trkpt lat="45.84786" lon="4.81848">
        <ele>344.79998779297</ele>
        <time>2011-11-20T10:35:09.000Z</time>
      </trkpt>
      <trkpt lat="45.84786" lon="4.81847">
        <ele>345.20001220703</ele>
        <time>2011-11-20T10:35:10.000Z</time>
      </trkpt>
      <trkpt lat="45.84784" lon="4.81844">
        <ele>345.79998779297</ele>
        <time>2011-11-20T10:35:12.000Z</time>
      </trkpt>
      <trkpt lat="45.84781" lon="4.8184">
        <ele>346.79998779297</ele>
        <time>2011-11-20T10:35:18.000Z</time>
      </trkpt>
      <trkpt lat="45.84779" lon="4.81837">
        <ele>347.20001220703</ele>
        <time>2011-11-20T10:35:21.000Z</time>
      </trkpt>
      <trkpt lat="45.84777" lon="4.81836">
        <ele>347.60000610352</ele>
        <time>2011-11-20T10:35:23.000Z</time>
      </trkpt>
      <trkpt lat="45.84777" lon="4.81832">
        <ele>348.60000610352</ele>
        <time>2011-11-20T10:35:25.000Z</time>
      </trkpt>
      <trkpt lat="45.84777" lon="4.8183">
        <ele>349.60000610352</ele>
        <time>2011-11-20T10:35:28.000Z</time>
      </trkpt>
      <trkpt lat="45.84776" lon="4.81829">
        <ele>350</ele>
        <time>2011-11-20T10:36:40.000Z</time>
      </trkpt>
      <trkpt lat="45.84775" lon="4.8183">
        <ele>349.60000610352</ele>
        <time>2011-11-20T10:36:46.000Z</time>
      </trkpt>
      <trkpt lat="45.84776" lon="4.81825">
        <ele>351.60000610352</ele>
        <time>2011-11-20T10:37:36.000Z</time>
      </trkpt>
      <trkpt lat="45.84777" lon="4.81824">
        <ele>352.20001220703</ele>
        <time>2011-11-20T10:37:38.000Z</time>
      </trkpt>
      <trkpt lat="45.84776" lon="4.81823">
        <ele>352.60000610352</ele>
        <time>2011-11-20T10:37:39.000Z</time>
      </trkpt>
      <trkpt lat="45.84776" lon="4.81811">
        <ele>357.20001220703</ele>
        <time>2011-11-20T10:37:50.000Z</time>
      </trkpt>
      <trkpt lat="45.84775" lon="4.81802">
        <ele>361.20001220703</ele>
        <time>2011-11-20T10:37:55.000Z</time>
      </trkpt>
      <trkpt lat="45.84776" lon="4.81794">
        <ele>364.20001220703</ele>
        <time>2011-11-20T10:38:00.000Z</time>
      </trkpt>
      <trkpt lat="45.84779" lon="4.81793">
        <ele>364.20001220703</ele>
        <time>2011-11-20T10:38:03.000Z</time>
      </trkpt>
      <trkpt lat="45.84782" lon="4.81793">
        <ele>364.20001220703</ele>
        <time>2011-11-20T10:38:07.000Z</time>
      </trkpt>
      <trkpt lat="45.84782" lon="4.81797">
        <ele>362.79998779297</ele>
        <time>2011-11-20T10:38:15.000Z</time>
      </trkpt>
      <trkpt lat="45.84789" lon="4.81799">
        <ele>361.79998779297</ele>
        <time>2011-11-20T10:38:26.000Z</time>
      </trkpt>
      <trkpt lat="45.84792" lon="4.81797">
        <ele>362.20001220703</ele>
        <time>2011-11-20T10:38:30.000Z</time>
      </trkpt>
      <trkpt lat="45.84794" lon="4.81797">
        <ele>362</ele>
        <time>2011-11-20T10:38:31.000Z</time>
      </trkpt>
      <trkpt lat="45.84794" lon="4.81799">
        <ele>361.39999389648</ele>
        <time>2011-11-20T10:39:45.000Z</time>
      </trkpt>
      <trkpt lat="45.84793" lon="4.81801">
        <ele>360.60000610352</ele>
        <time>2011-11-20T10:39:47.000Z</time>
      </trkpt>
      <trkpt lat="45.84792" lon="4.81805">
        <ele>359.20001220703</ele>
        <time>2011-11-20T10:39:51.000Z</time>
      </trkpt>
      <trkpt lat="45.84788" lon="4.81808">
        <ele>358.20001220703</ele>
        <time>2011-11-20T10:39:58.000Z</time>
      </trkpt>
      <trkpt lat="45.84788" lon="4.81804">
        <ele>359.60000610352</ele>
        <time>2011-11-20T10:40:00.000Z</time>
      </trkpt>
      <trkpt lat="45.84786" lon="4.81803">
        <ele>360.20001220703</ele>
        <time>2011-11-20T10:40:02.000Z</time>
      </trkpt>
      <trkpt lat="45.84782" lon="4.81796">
        <ele>363.20001220703</ele>
        <time>2011-11-20T10:40:20.000Z</time>
      </trkpt>
      <trkpt lat="45.84779" lon="4.81795">
        <ele>363.60000610352</ele>
        <time>2011-11-20T10:40:23.000Z</time>
      </trkpt>
      <trkpt lat="45.84777" lon="4.81796">
        <ele>363.39999389648</ele>
        <time>2011-11-20T10:40:26.000Z</time>
      </trkpt>
      <trkpt lat="45.84777" lon="4.81795">
        <ele>363.60000610352</ele>
        <time>2011-11-20T10:40:27.000Z</time>
      </trkpt>
      <trkpt lat="45.84779" lon="4.81798">
        <ele>362.39999389648</ele>
        <time>2011-11-20T10:40:31.000Z</time>
      </trkpt>
      <trkpt lat="45.84777" lon="4.81802">
        <ele>361</ele>
        <time>2011-11-20T10:40:34.000Z</time>
      </trkpt>
      <trkpt lat="45.84776" lon="4.81807">
        <ele>359.20001220703</ele>
        <time>2011-11-20T10:40:39.000Z</time>
      </trkpt>
      <trkpt lat="45.84775" lon="4.81814">
        <ele>356</ele>
        <time>2011-11-20T10:40:43.000Z</time>
      </trkpt>
      <trkpt lat="45.84774" lon="4.81819">
        <ele>354.20001220703</ele>
        <time>2011-11-20T10:40:47.000Z</time>
      </trkpt>
      <trkpt lat="45.84774" lon="4.8182">
        <ele>353.60000610352</ele>
        <time>2011-11-20T10:40:48.000Z</time>
      </trkpt>
      <trkpt lat="45.84774" lon="4.81824">
        <ele>352</ele>
        <time>2011-11-20T10:40:51.000Z</time>
      </trkpt>
      <trkpt lat="45.84774" lon="4.81825">
        <ele>351.79998779297</ele>
        <time>2011-11-20T10:40:54.000Z</time>
      </trkpt>
      <trkpt lat="45.84778" lon="4.81827">
        <ele>350.79998779297</ele>
        <time>2011-11-20T10:41:00.000Z</time>
      </trkpt>
      <trkpt lat="45.84779" lon="4.81829">
        <ele>350</ele>
        <time>2011-11-20T10:41:05.000Z</time>
      </trkpt>
      <trkpt lat="45.84778" lon="4.81834">
        <ele>348.20001220703</ele>
        <time>2011-11-20T10:41:08.000Z</time>
      </trkpt>
      <trkpt lat="45.84804" lon="4.81842">
        <ele>346.20001220703</ele>
        <time>2011-11-20T10:41:36.000Z</time>
      </trkpt>
      <trkpt lat="45.84805" lon="4.81847">
        <ele>345.39999389648</ele>
        <time>2011-11-20T10:41:43.000Z</time>
      </trkpt>
      <trkpt lat="45.84806" lon="4.81851">
        <ele>344.60000610352</ele>
        <time>2011-11-20T10:41:46.000Z</time>
      </trkpt>
      <trkpt lat="45.84806" lon="4.81855">
        <ele>344</ele>
        <time>2011-11-20T10:41:49.000Z</time>
      </trkpt>
      <trkpt lat="45.84808" lon="4.81861">
        <ele>343.20001220703</ele>
        <time>2011-11-20T10:41:52.000Z</time>
      </trkpt>
      <trkpt lat="45.84809" lon="4.81868">
        <ele>342.39999389648</ele>
        <time>2011-11-20T10:41:55.000Z</time>
      </trkpt>
      <trkpt lat="45.8481" lon="4.81873">
        <ele>341.60000610352</ele>
        <time>2011-11-20T10:41:58.000Z</time>
      </trkpt>
      <trkpt lat="45.8481" lon="4.81874">
        <ele>341.39999389648</ele>
        <time>2011-11-20T10:41:59.000Z</time>
      </trkpt>
      <trkpt lat="45.84811" lon="4.81884">
        <ele>340</ele>
        <time>2011-11-20T10:42:05.000Z</time>
      </trkpt>
      <trkpt lat="45.84811" lon="4.8189">
        <ele>339.20001220703</ele>
        <time>2011-11-20T10:42:10.000Z</time>
      </trkpt>
      <trkpt lat="45.84811" lon="4.81891">
        <ele>339</ele>
        <time>2011-11-20T10:42:11.000Z</time>
      </trkpt>
      <trkpt lat="45.84812" lon="4.81895">
        <ele>338.60000610352</ele>
        <time>2011-11-20T10:42:13.000Z</time>
      </trkpt>
      <trkpt lat="45.84812" lon="4.81897">
        <ele>338.20001220703</ele>
        <time>2011-11-20T10:42:15.000Z</time>
      </trkpt>
      <trkpt lat="45.84812" lon="4.81899">
        <ele>338</ele>
        <time>2011-11-20T10:42:16.000Z</time>
      </trkpt>
      <trkpt lat="45.84811" lon="4.819">
        <ele>337.79998779297</ele>
        <time>2011-11-20T10:42:17.000Z</time>
      </trkpt>
      <trkpt lat="45.8481" lon="4.81902">
        <ele>337.20001220703</ele>
        <time>2011-11-20T10:42:20.000Z</time>
      </trkpt>
      <trkpt lat="45.84806" lon="4.81902">
        <ele>336.60000610352</ele>
        <time>2011-11-20T10:42:25.000Z</time>
      </trkpt>
      <trkpt lat="45.84806" lon="4.81903">
        <ele>336.60000610352</ele>
        <time>2011-11-20T10:42:33.000Z</time>
      </trkpt>
      <trkpt lat="45.84801" lon="4.81904">
        <ele>335.60000610352</ele>
        <time>2011-11-20T10:42:40.000Z</time>
      </trkpt>
      <trkpt lat="45.84794" lon="4.81909">
        <ele>333.39999389648</ele>
        <time>2011-11-20T10:42:45.000Z</time>
      </trkpt>
      <trkpt lat="45.84793" lon="4.81911">
        <ele>332.79998779297</ele>
        <time>2011-11-20T10:42:46.000Z</time>
      </trkpt>
      <trkpt lat="45.84791" lon="4.81912">
        <ele>332.20001220703</ele>
        <time>2011-11-20T10:42:47.000Z</time>
      </trkpt>
      <trkpt lat="45.84788" lon="4.81914">
        <ele>331.39999389648</ele>
        <time>2011-11-20T10:42:49.000Z</time>
      </trkpt>
      <trkpt lat="45.84783" lon="4.81917">
        <ele>329.79998779297</ele>
        <time>2011-11-20T10:42:53.000Z</time>
      </trkpt>
      <trkpt lat="45.84782" lon="4.81918">
        <ele>329.20001220703</ele>
        <time>2011-11-20T10:42:54.000Z</time>
      </trkpt>
      <trkpt lat="45.84777" lon="4.81923">
        <ele>327.79998779297</ele>
        <time>2011-11-20T10:42:58.000Z</time>
      </trkpt>
      <trkpt lat="45.84776" lon="4.81924">
        <ele>327.39999389648</ele>
        <time>2011-11-20T10:42:59.000Z</time>
      </trkpt>
      <trkpt lat="45.84773" lon="4.81929">
        <ele>326</ele>
        <time>2011-11-20T10:43:02.000Z</time>
      </trkpt>
      <trkpt lat="45.84769" lon="4.81933">
        <ele>324.39999389648</ele>
        <time>2011-11-20T10:43:05.000Z</time>
      </trkpt>
      <trkpt lat="45.84764" lon="4.81943">
        <ele>321.79998779297</ele>
        <time>2011-11-20T10:43:10.000Z</time>
      </trkpt>
      <trkpt lat="45.8476" lon="4.81949">
        <ele>320</ele>
        <time>2011-11-20T10:43:14.000Z</time>
      </trkpt>
      <trkpt lat="45.8476" lon="4.8195">
        <ele>319.60000610352</ele>
        <time>2011-11-20T10:43:15.000Z</time>
      </trkpt>
      <trkpt lat="45.84758" lon="4.81956">
        <ele>318.20001220703</ele>
        <time>2011-11-20T10:43:18.000Z</time>
      </trkpt>
      <trkpt lat="45.84759" lon="4.81961">
        <ele>317.60000610352</ele>
        <time>2011-11-20T10:43:20.000Z</time>
      </trkpt>
      <trkpt lat="45.84757" lon="4.81966">
        <ele>316.39999389648</ele>
        <time>2011-11-20T10:43:22.000Z</time>
      </trkpt>
      <trkpt lat="45.84756" lon="4.81967">
        <ele>315.79998779297</ele>
        <time>2011-11-20T10:43:23.000Z</time>
      </trkpt>
      <trkpt lat="45.84755" lon="4.8197">
        <ele>314.79998779297</ele>
        <time>2011-11-20T10:43:25.000Z</time>
      </trkpt>
      <trkpt lat="45.84753" lon="4.81972">
        <ele>314.20001220703</ele>
        <time>2011-11-20T10:43:26.000Z</time>
      </trkpt>
      <trkpt lat="45.84751" lon="4.81979">
        <ele>312</ele>
        <time>2011-11-20T10:43:29.000Z</time>
      </trkpt>
      <trkpt lat="45.84747" lon="4.81987">
        <ele>310</ele>
        <time>2011-11-20T10:43:34.000Z</time>
      </trkpt>
      <trkpt lat="45.84747" lon="4.8199">
        <ele>309.39999389648</ele>
        <time>2011-11-20T10:43:37.000Z</time>
      </trkpt>
      <trkpt lat="45.84747" lon="4.81991">
        <ele>309.20001220703</ele>
        <time>2011-11-20T10:43:38.000Z</time>
      </trkpt>
      <trkpt lat="45.84742" lon="4.82002">
        <ele>306.79998779297</ele>
        <time>2011-11-20T10:43:43.000Z</time>
      </trkpt>
      <trkpt lat="45.84738" lon="4.82011">
        <ele>305.60000610352</ele>
        <time>2011-11-20T10:43:47.000Z</time>
      </trkpt>
      <trkpt lat="45.84736" lon="4.82015">
        <ele>304.79998779297</ele>
        <time>2011-11-20T10:43:49.000Z</time>
      </trkpt>
      <trkpt lat="45.84731" lon="4.82026">
        <ele>303.39999389648</ele>
        <time>2011-11-20T10:43:53.000Z</time>
      </trkpt>
      <trkpt lat="45.84731" lon="4.82029">
        <ele>302.79998779297</ele>
        <time>2011-11-20T10:43:54.000Z</time>
      </trkpt>
      <trkpt lat="45.84729" lon="4.82037">
        <ele>301.60000610352</ele>
        <time>2011-11-20T10:43:56.000Z</time>
      </trkpt>
      <trkpt lat="45.84725" lon="4.82049">
        <ele>300</ele>
        <time>2011-11-20T10:44:00.000Z</time>
      </trkpt>
      <trkpt lat="45.8472" lon="4.82054">
        <ele>298.79998779297</ele>
        <time>2011-11-20T10:44:04.000Z</time>
      </trkpt>
      <trkpt lat="45.8472" lon="4.82056">
        <ele>298.39999389648</ele>
        <time>2011-11-20T10:44:05.000Z</time>
      </trkpt>
      <trkpt lat="45.84719" lon="4.82059">
        <ele>298</ele>
        <time>2011-11-20T10:44:06.000Z</time>
      </trkpt>
      <trkpt lat="45.84712" lon="4.8208">
        <ele>294.39999389648</ele>
        <time>2011-11-20T10:44:13.000Z</time>
      </trkpt>
      <trkpt lat="45.84711" lon="4.82083">
        <ele>293.79998779297</ele>
        <time>2011-11-20T10:44:14.000Z</time>
      </trkpt>
      <trkpt lat="45.84707" lon="4.82097">
        <ele>291.60000610352</ele>
        <time>2011-11-20T10:44:18.000Z</time>
      </trkpt>
      <trkpt lat="45.84703" lon="4.82109">
        <ele>289.39999389648</ele>
        <time>2011-11-20T10:44:22.000Z</time>
      </trkpt>
      <trkpt lat="45.84699" lon="4.82114">
        <ele>288.20001220703</ele>
        <time>2011-11-20T10:44:24.000Z</time>
      </trkpt>
      <trkpt lat="45.84687" lon="4.8212">
        <ele>285.39999389648</ele>
        <time>2011-11-20T10:44:29.000Z</time>
      </trkpt>
      <trkpt lat="45.84685" lon="4.8212">
        <ele>285</ele>
        <time>2011-11-20T10:44:30.000Z</time>
      </trkpt>
      <trkpt lat="45.84682" lon="4.82122">
        <ele>284</ele>
        <time>2011-11-20T10:44:32.000Z</time>
      </trkpt>
      <trkpt lat="45.84681" lon="4.82123">
        <ele>283.79998779297</ele>
        <time>2011-11-20T10:44:33.000Z</time>
      </trkpt>
      <trkpt lat="45.84684" lon="4.82125">
        <ele>284.20001220703</ele>
        <time>2011-11-20T10:44:36.000Z</time>
      </trkpt>
      <trkpt lat="45.84691" lon="4.82131">
        <ele>284.79998779297</ele>
        <time>2011-11-20T10:44:41.000Z</time>
      </trkpt>
      <trkpt lat="45.84689" lon="4.82141">
        <ele>283.20001220703</ele>
        <time>2011-11-20T10:44:44.000Z</time>
      </trkpt>
      <trkpt lat="45.84687" lon="4.82149">
        <ele>281.60000610352</ele>
        <time>2011-11-20T10:44:47.000Z</time>
      </trkpt>
      <trkpt lat="45.84683" lon="4.82154">
        <ele>280</ele>
        <time>2011-11-20T10:44:50.000Z</time>
      </trkpt>
      <trkpt lat="45.84678" lon="4.8216">
        <ele>278.20001220703</ele>
        <time>2011-11-20T10:44:53.000Z</time>
      </trkpt>
      <trkpt lat="45.84668" lon="4.82172">
        <ele>274.39999389648</ele>
        <time>2011-11-20T10:44:59.000Z</time>
      </trkpt>
      <trkpt lat="45.84655" lon="4.82189">
        <ele>269.39999389648</ele>
        <time>2011-11-20T10:45:07.000Z</time>
      </trkpt>
      <trkpt lat="45.84653" lon="4.82191">
        <ele>268.79998779297</ele>
        <time>2011-11-20T10:45:08.000Z</time>
      </trkpt>
      <trkpt lat="45.84645" lon="4.82203">
        <ele>265.60000610352</ele>
        <time>2011-11-20T10:45:13.000Z</time>
      </trkpt>
      <trkpt lat="45.84641" lon="4.82211">
        <ele>264</ele>
        <time>2011-11-20T10:45:16.000Z</time>
      </trkpt>
      <trkpt lat="45.84637" lon="4.82219">
        <ele>262.39999389648</ele>
        <time>2011-11-20T10:45:19.000Z</time>
      </trkpt>
      <trkpt lat="45.84632" lon="4.82237">
        <ele>259.60000610352</ele>
        <time>2011-11-20T10:45:24.000Z</time>
      </trkpt>
      <trkpt lat="45.84626" lon="4.82259">
        <ele>256.79998779297</ele>
        <time>2011-11-20T10:45:30.000Z</time>
      </trkpt>
      <trkpt lat="45.84625" lon="4.82262">
        <ele>256.20001220703</ele>
        <time>2011-11-20T10:45:31.000Z</time>
      </trkpt>
      <trkpt lat="45.84621" lon="4.82276">
        <ele>254.19999694824</ele>
        <time>2011-11-20T10:45:36.000Z</time>
      </trkpt>
      <trkpt lat="45.84615" lon="4.82284">
        <ele>252.60000610352</ele>
        <time>2011-11-20T10:45:39.000Z</time>
      </trkpt>
      <trkpt lat="45.84611" lon="4.82288">
        <ele>251.60000610352</ele>
        <time>2011-11-20T10:45:41.000Z</time>
      </trkpt>
      <trkpt lat="45.84603" lon="4.82304">
        <ele>249</ele>
        <time>2011-11-20T10:45:46.000Z</time>
      </trkpt>
      <trkpt lat="45.84602" lon="4.82308">
        <ele>248.60000610352</ele>
        <time>2011-11-20T10:45:47.000Z</time>
      </trkpt>
      <trkpt lat="45.84601" lon="4.82315">
        <ele>247.80000305176</ele>
        <time>2011-11-20T10:45:49.000Z</time>
      </trkpt>
      <trkpt lat="45.846" lon="4.82322">
        <ele>247.19999694824</ele>
        <time>2011-11-20T10:45:51.000Z</time>
      </trkpt>
      <trkpt lat="45.846" lon="4.82331">
        <ele>246.19999694824</ele>
        <time>2011-11-20T10:45:54.000Z</time>
      </trkpt>
      <trkpt lat="45.84599" lon="4.82336">
        <ele>245.60000610352</ele>
        <time>2011-11-20T10:45:56.000Z</time>
      </trkpt>
      <trkpt lat="45.84597" lon="4.82338">
        <ele>245.19999694824</ele>
        <time>2011-11-20T10:45:57.000Z</time>
      </trkpt>
      <trkpt lat="45.84593" lon="4.82348">
        <ele>243.60000610352</ele>
        <time>2011-11-20T10:46:00.000Z</time>
      </trkpt>
      <trkpt lat="45.84593" lon="4.82355">
        <ele>242.80000305176</ele>
        <time>2011-11-20T10:46:02.000Z</time>
      </trkpt>
      <trkpt lat="45.84593" lon="4.82358">
        <ele>242.39999389648</ele>
        <time>2011-11-20T10:46:03.000Z</time>
      </trkpt>
      <trkpt lat="45.84591" lon="4.82367">
        <ele>241.19999694824</ele>
        <time>2011-11-20T10:46:05.000Z</time>
      </trkpt>
      <trkpt lat="45.84586" lon="4.8238">
        <ele>239.19999694824</ele>
        <time>2011-11-20T10:46:09.000Z</time>
      </trkpt>
      <trkpt lat="45.84584" lon="4.82383">
        <ele>238.60000610352</ele>
        <time>2011-11-20T10:46:10.000Z</time>
      </trkpt>
      <trkpt lat="45.84581" lon="4.82395">
        <ele>236.60000610352</ele>
        <time>2011-11-20T10:46:14.000Z</time>
      </trkpt>
      <trkpt lat="45.84575" lon="4.82404">
        <ele>234.39999389648</ele>
        <time>2011-11-20T10:46:17.000Z</time>
      </trkpt>
      <trkpt lat="45.84569" lon="4.82412">
        <ele>232.39999389648</ele>
        <time>2011-11-20T10:46:20.000Z</time>
      </trkpt>
      <trkpt lat="45.8456" lon="4.82419">
        <ele>229.60000610352</ele>
        <time>2011-11-20T10:46:24.000Z</time>
      </trkpt>
      <trkpt lat="45.84559" lon="4.82421">
        <ele>229.19999694824</ele>
        <time>2011-11-20T10:46:25.000Z</time>
      </trkpt>
      <trkpt lat="45.84555" lon="4.82426">
        <ele>227.80000305176</ele>
        <time>2011-11-20T10:46:29.000Z</time>
      </trkpt>
      <trkpt lat="45.84552" lon="4.8243">
        <ele>227</ele>
        <time>2011-11-20T10:46:31.000Z</time>
      </trkpt>
      <trkpt lat="45.84546" lon="4.82439">
        <ele>225</ele>
        <time>2011-11-20T10:46:35.000Z</time>
      </trkpt>
      <trkpt lat="45.84544" lon="4.82444">
        <ele>224.19999694824</ele>
        <time>2011-11-20T10:46:37.000Z</time>
      </trkpt>
      <trkpt lat="45.84536" lon="4.8246">
        <ele>221.60000610352</ele>
        <time>2011-11-20T10:46:43.000Z</time>
      </trkpt>
      <trkpt lat="45.84535" lon="4.82462">
        <ele>221.19999694824</ele>
        <time>2011-11-20T10:46:44.000Z</time>
      </trkpt>
      <trkpt lat="45.84532" lon="4.82474">
        <ele>219.80000305176</ele>
        <time>2011-11-20T10:46:48.000Z</time>
      </trkpt>
      <trkpt lat="45.84529" lon="4.82478">
        <ele>219</ele>
        <time>2011-11-20T10:46:51.000Z</time>
      </trkpt>
      <trkpt lat="45.84527" lon="4.82483">
        <ele>218.19999694824</ele>
        <time>2011-11-20T10:46:53.000Z</time>
      </trkpt>
      <trkpt lat="45.84525" lon="4.82486">
        <ele>217.80000305176</ele>
        <time>2011-11-20T10:46:54.000Z</time>
      </trkpt>
      <trkpt lat="45.84524" lon="4.8249">
        <ele>217.39999389648</ele>
        <time>2011-11-20T10:46:55.000Z</time>
      </trkpt>
      <trkpt lat="45.84522" lon="4.82498">
        <ele>216.39999389648</ele>
        <time>2011-11-20T10:46:58.000Z</time>
      </trkpt>
      <trkpt lat="45.84522" lon="4.82515">
        <ele>215.39999389648</ele>
        <time>2011-11-20T10:47:03.000Z</time>
      </trkpt>
      <trkpt lat="45.84524" lon="4.82534">
        <ele>214.19999694824</ele>
        <time>2011-11-20T10:47:07.000Z</time>
      </trkpt>
      <trkpt lat="45.84521" lon="4.82544">
        <ele>213</ele>
        <time>2011-11-20T10:47:10.000Z</time>
      </trkpt>
      <trkpt lat="45.84518" lon="4.82553">
        <ele>212</ele>
        <time>2011-11-20T10:47:12.000Z</time>
      </trkpt>
      <trkpt lat="45.84516" lon="4.82568">
        <ele>210.39999389648</ele>
        <time>2011-11-20T10:47:17.000Z</time>
      </trkpt>
      <trkpt lat="45.84516" lon="4.82571">
        <ele>210.19999694824</ele>
        <time>2011-11-20T10:47:19.000Z</time>
      </trkpt>
      <trkpt lat="45.84515" lon="4.82569">
        <ele>210.19999694824</ele>
        <time>2011-11-20T10:47:22.000Z</time>
      </trkpt>
      <trkpt lat="45.84509" lon="4.82566">
        <ele>209.60000610352</ele>
        <time>2011-11-20T10:47:38.000Z</time>
      </trkpt>
      <trkpt lat="45.84508" lon="4.82566">
        <ele>209.39999389648</ele>
        <time>2011-11-20T10:47:39.000Z</time>
      </trkpt>
      <trkpt lat="45.84497" lon="4.82571">
        <ele>207.80000305176</ele>
        <time>2011-11-20T10:47:49.000Z</time>
      </trkpt>
      <trkpt lat="45.84496" lon="4.82571">
        <ele>207.80000305176</ele>
        <time>2011-11-20T10:47:50.000Z</time>
      </trkpt>
      <trkpt lat="45.84491" lon="4.82573">
        <ele>207.60000610352</ele>
        <time>2011-11-20T10:47:54.000Z</time>
      </trkpt>
      <trkpt lat="45.84481" lon="4.82577">
        <ele>207.19999694824</ele>
        <time>2011-11-20T10:48:00.000Z</time>
      </trkpt>
      <trkpt lat="45.84479" lon="4.82578">
        <ele>207.19999694824</ele>
        <time>2011-11-20T10:48:01.000Z</time>
      </trkpt>
      <trkpt lat="45.84474" lon="4.82581">
        <ele>206.80000305176</ele>
        <time>2011-11-20T10:48:05.000Z</time>
      </trkpt>
      <trkpt lat="45.84473" lon="4.82581">
        <ele>206.80000305176</ele>
        <time>2011-11-20T10:48:06.000Z</time>
      </trkpt>
      <trkpt lat="45.84467" lon="4.82582">
        <ele>206.60000610352</ele>
        <time>2011-11-20T10:48:10.000Z</time>
      </trkpt>
      <trkpt lat="45.84464" lon="4.82578">
        <ele>207</ele>
        <time>2011-11-20T10:48:17.000Z</time>
      </trkpt>
      <trkpt lat="45.84474" lon="4.82584">
        <ele>206.60000610352</ele>
        <time>2011-11-20T10:48:33.000Z</time>
      </trkpt>
      <trkpt lat="45.84472" lon="4.82592">
        <ele>205.60000610352</ele>
        <time>2011-11-20T10:48:36.000Z</time>
      </trkpt>
      <trkpt lat="45.84471" lon="4.82596">
        <ele>205.19999694824</ele>
        <time>2011-11-20T10:48:37.000Z</time>
      </trkpt>
      <trkpt lat="45.84467" lon="4.82601">
        <ele>204.60000610352</ele>
        <time>2011-11-20T10:48:39.000Z</time>
      </trkpt>
      <trkpt lat="45.84463" lon="4.82606">
        <ele>204</ele>
        <time>2011-11-20T10:48:41.000Z</time>
      </trkpt>
      <trkpt lat="45.84457" lon="4.82611">
        <ele>203.39999389648</ele>
        <time>2011-11-20T10:48:44.000Z</time>
      </trkpt>
      <trkpt lat="45.84451" lon="4.82613">
        <ele>203</ele>
        <time>2011-11-20T10:48:46.000Z</time>
      </trkpt>
      <trkpt lat="45.84439" lon="4.82619">
        <ele>202.39999389648</ele>
        <time>2011-11-20T10:48:52.000Z</time>
      </trkpt>
      <trkpt lat="45.84424" lon="4.82629">
        <ele>201</ele>
        <time>2011-11-20T10:48:58.000Z</time>
      </trkpt>
      <trkpt lat="45.84422" lon="4.82631">
        <ele>200.80000305176</ele>
        <time>2011-11-20T10:48:59.000Z</time>
      </trkpt>
      <trkpt lat="45.84421" lon="4.82635">
        <ele>200.39999389648</ele>
        <time>2011-11-20T10:49:00.000Z</time>
      </trkpt>
      <trkpt lat="45.84416" lon="4.82643">
        <ele>199.39999389648</ele>
        <time>2011-11-20T10:49:03.000Z</time>
      </trkpt>
      <trkpt lat="45.84411" lon="4.82649">
        <ele>198.80000305176</ele>
        <time>2011-11-20T10:49:07.000Z</time>
      </trkpt>
      <trkpt lat="45.84408" lon="4.82651">
        <ele>198.60000610352</ele>
        <time>2011-11-20T10:49:08.000Z</time>
      </trkpt>
      <trkpt lat="45.84401" lon="4.82654">
        <ele>198</ele>
        <time>2011-11-20T10:49:11.000Z</time>
      </trkpt>
      <trkpt lat="45.84396" lon="4.82657">
        <ele>197.60000610352</ele>
        <time>2011-11-20T10:49:13.000Z</time>
      </trkpt>
      <trkpt lat="45.84389" lon="4.82661">
        <ele>197</ele>
        <time>2011-11-20T10:49:16.000Z</time>
      </trkpt>
      <trkpt lat="45.84387" lon="4.82665">
        <ele>196.39999389648</ele>
        <time>2011-11-20T10:49:18.000Z</time>
      </trkpt>
      <trkpt lat="45.84387" lon="4.82667">
        <ele>196.19999694824</ele>
        <time>2011-11-20T10:49:19.000Z</time>
      </trkpt>
      <trkpt lat="45.8439" lon="4.82686">
        <ele>194</ele>
        <time>2011-11-20T10:49:24.000Z</time>
      </trkpt>
      <trkpt lat="45.84391" lon="4.8269">
        <ele>193.39999389648</ele>
        <time>2011-11-20T10:49:25.000Z</time>
      </trkpt>
      <trkpt lat="45.84396" lon="4.82705">
        <ele>191.80000305176</ele>
        <time>2011-11-20T10:49:29.000Z</time>
      </trkpt>
      <trkpt lat="45.84398" lon="4.82708">
        <ele>191.39999389648</ele>
        <time>2011-11-20T10:49:30.000Z</time>
      </trkpt>
      <trkpt lat="45.84403" lon="4.82717">
        <ele>190.39999389648</ele>
        <time>2011-11-20T10:49:33.000Z</time>
      </trkpt>
      <trkpt lat="45.8441" lon="4.82732">
        <ele>188.80000305176</ele>
        <time>2011-11-20T10:49:38.000Z</time>
      </trkpt>
      <trkpt lat="45.84412" lon="4.82737">
        <ele>188.39999389648</ele>
        <time>2011-11-20T10:49:40.000Z</time>
      </trkpt>
      <trkpt lat="45.84415" lon="4.82749">
        <ele>187</ele>
        <time>2011-11-20T10:49:43.000Z</time>
      </trkpt>
      <trkpt lat="45.84416" lon="4.82759">
        <ele>186.19999694824</ele>
        <time>2011-11-20T10:49:45.000Z</time>
      </trkpt>
      <trkpt lat="45.84418" lon="4.82767">
        <ele>185.60000610352</ele>
        <time>2011-11-20T10:49:47.000Z</time>
      </trkpt>
      <trkpt lat="45.84425" lon="4.82785">
        <ele>184.39999389648</ele>
        <time>2011-11-20T10:49:52.000Z</time>
      </trkpt>
      <trkpt lat="45.84432" lon="4.82801">
        <ele>183.19999694824</ele>
        <time>2011-11-20T10:49:57.000Z</time>
      </trkpt>
      <trkpt lat="45.84432" lon="4.82802">
        <ele>183.19999694824</ele>
        <time>2011-11-20T10:49:58.000Z</time>
      </trkpt>
      <trkpt lat="45.84433" lon="4.82804">
        <ele>183</ele>
        <time>2011-11-20T10:50:00.000Z</time>
      </trkpt>
      <trkpt lat="45.84431" lon="4.82805">
        <ele>183</ele>
        <time>2011-11-20T10:50:02.000Z</time>
      </trkpt>
      <trkpt lat="45.84429" lon="4.82804">
        <ele>183</ele>
        <time>2011-11-20T10:50:03.000Z</time>
      </trkpt>
      <trkpt lat="45.84424" lon="4.82803">
        <ele>182.80000305176</ele>
        <time>2011-11-20T10:50:05.000Z</time>
      </trkpt>
      <trkpt lat="45.84421" lon="4.82802">
        <ele>182.80000305176</ele>
        <time>2011-11-20T10:50:07.000Z</time>
      </trkpt>
      <trkpt lat="45.8441" lon="4.82802">
        <ele>182.19999694824</ele>
        <time>2011-11-20T10:50:13.000Z</time>
      </trkpt>
      <trkpt lat="45.84396" lon="4.82803">
        <ele>181.80000305176</ele>
        <time>2011-11-20T10:50:18.000Z</time>
      </trkpt>
      <trkpt lat="45.84391" lon="4.828">
        <ele>181.80000305176</ele>
        <time>2011-11-20T10:50:20.000Z</time>
      </trkpt>
      <trkpt lat="45.84381" lon="4.82792">
        <ele>182</ele>
        <time>2011-11-20T10:50:24.000Z</time>
      </trkpt>
      <trkpt lat="45.84374" lon="4.82788">
        <ele>182.19999694824</ele>
        <time>2011-11-20T10:50:27.000Z</time>
      </trkpt>
      <trkpt lat="45.84368" lon="4.82788">
        <ele>182</ele>
        <time>2011-11-20T10:50:29.000Z</time>
      </trkpt>
      <trkpt lat="45.84355" lon="4.82787">
        <ele>181.60000610352</ele>
        <time>2011-11-20T10:50:34.000Z</time>
      </trkpt>
      <trkpt lat="45.84342" lon="4.82785">
        <ele>181.39999389648</ele>
        <time>2011-11-20T10:50:39.000Z</time>
      </trkpt>
      <trkpt lat="45.84337" lon="4.82783">
        <ele>181.19999694824</ele>
        <time>2011-11-20T10:50:41.000Z</time>
      </trkpt>
      <trkpt lat="45.84328" lon="4.82784">
        <ele>181</ele>
        <time>2011-11-20T10:50:44.000Z</time>
      </trkpt>
      <trkpt lat="45.84317" lon="4.82783">
        <ele>181</ele>
        <time>2011-11-20T10:50:48.000Z</time>
      </trkpt>
      <trkpt lat="45.84314" lon="4.82782">
        <ele>180.80000305176</ele>
        <time>2011-11-20T10:50:49.000Z</time>
      </trkpt>
      <trkpt lat="45.843" lon="4.82781">
        <ele>180.80000305176</ele>
        <time>2011-11-20T10:50:54.000Z</time>
      </trkpt>
      <trkpt lat="45.84298" lon="4.82781">
        <ele>180.80000305176</ele>
        <time>2011-11-20T10:50:55.000Z</time>
      </trkpt>
      <trkpt lat="45.8429" lon="4.82781">
        <ele>180.60000610352</ele>
        <time>2011-11-20T10:50:58.000Z</time>
      </trkpt>
      <trkpt lat="45.84278" lon="4.82781">
        <ele>180.39999389648</ele>
        <time>2011-11-20T10:51:02.000Z</time>
      </trkpt>
      <trkpt lat="45.84275" lon="4.82782">
        <ele>180.39999389648</ele>
        <time>2011-11-20T10:51:03.000Z</time>
      </trkpt>
      <trkpt lat="45.84261" lon="4.82782">
        <ele>180.19999694824</ele>
        <time>2011-11-20T10:51:08.000Z</time>
      </trkpt>
      <trkpt lat="45.84258" lon="4.82783">
        <ele>180</ele>
        <time>2011-11-20T10:51:09.000Z</time>
      </trkpt>
      <trkpt lat="45.84249" lon="4.82783">
        <ele>180</ele>
        <time>2011-11-20T10:51:12.000Z</time>
      </trkpt>
      <trkpt lat="45.84239" lon="4.82782">
        <ele>180.60000610352</ele>
        <time>2011-11-20T10:51:16.000Z</time>
      </trkpt>
      <trkpt lat="45.84225" lon="4.82783">
        <ele>181</ele>
        <time>2011-11-20T10:51:21.000Z</time>
      </trkpt>
      <trkpt lat="45.84219" lon="4.82783">
        <ele>181.19999694824</ele>
        <time>2011-11-20T10:51:23.000Z</time>
      </trkpt>
      <trkpt lat="45.8421" lon="4.82782">
        <ele>181.80000305176</ele>
        <time>2011-11-20T10:51:27.000Z</time>
      </trkpt>
      <trkpt lat="45.842" lon="4.82785">
        <ele>182</ele>
        <time>2011-11-20T10:51:31.000Z</time>
      </trkpt>
      <trkpt lat="45.84197" lon="4.82786">
        <ele>182.19999694824</ele>
        <time>2011-11-20T10:51:32.000Z</time>
      </trkpt>
      <trkpt lat="45.8419" lon="4.82784">
        <ele>182.60000610352</ele>
        <time>2011-11-20T10:51:36.000Z</time>
      </trkpt>
      <trkpt lat="45.8418" lon="4.82786">
        <ele>182.80000305176</ele>
        <time>2011-11-20T10:51:40.000Z</time>
      </trkpt>
      <trkpt lat="45.84178" lon="4.82786">
        <ele>183</ele>
        <time>2011-11-20T10:51:41.000Z</time>
      </trkpt>
      <trkpt lat="45.84165" lon="4.82788">
        <ele>183.19999694824</ele>
        <time>2011-11-20T10:51:46.000Z</time>
      </trkpt>
      <trkpt lat="45.84162" lon="4.82789">
        <ele>183.19999694824</ele>
        <time>2011-11-20T10:51:47.000Z</time>
      </trkpt>
      <trkpt lat="45.84147" lon="4.82795">
        <ele>183</ele>
        <time>2011-11-20T10:51:52.000Z</time>
      </trkpt>
      <trkpt lat="45.84144" lon="4.82796">
        <ele>183</ele>
        <time>2011-11-20T10:51:53.000Z</time>
      </trkpt>
      <trkpt lat="45.84133" lon="4.828">
        <ele>182.60000610352</ele>
        <time>2011-11-20T10:51:57.000Z</time>
      </trkpt>
      <trkpt lat="45.84125" lon="4.828">
        <ele>182.80000305176</ele>
        <time>2011-11-20T10:52:01.000Z</time>
      </trkpt>
      <trkpt lat="45.84122" lon="4.82801">
        <ele>182.60000610352</ele>
        <time>2011-11-20T10:52:02.000Z</time>
      </trkpt>
      <trkpt lat="45.84106" lon="4.82804">
        <ele>182.39999389648</ele>
        <time>2011-11-20T10:52:08.000Z</time>
      </trkpt>
      <trkpt lat="45.84101" lon="4.82805">
        <ele>182.39999389648</ele>
        <time>2011-11-20T10:52:10.000Z</time>
      </trkpt>
      <trkpt lat="45.84086" lon="4.8281">
        <ele>182</ele>
        <time>2011-11-20T10:52:16.000Z</time>
      </trkpt>
      <trkpt lat="45.84077" lon="4.82814">
        <ele>181.39999389648</ele>
        <time>2011-11-20T10:52:21.000Z</time>
      </trkpt>
      <trkpt lat="45.84075" lon="4.82815">
        <ele>181.39999389648</ele>
        <time>2011-11-20T10:52:27.000Z</time>
      </trkpt>
      <trkpt lat="45.84067" lon="4.82818">
        <ele>181.19999694824</ele>
        <time>2011-11-20T10:52:33.000Z</time>
      </trkpt>
      <trkpt lat="45.84065" lon="4.82819">
        <ele>181</ele>
        <time>2011-11-20T10:52:34.000Z</time>
      </trkpt>
      <trkpt lat="45.84058" lon="4.82823">
        <ele>180.80000305176</ele>
        <time>2011-11-20T10:52:37.000Z</time>
      </trkpt>
      <trkpt lat="45.84056" lon="4.82824">
        <ele>180.80000305176</ele>
        <time>2011-11-20T10:52:38.000Z</time>
      </trkpt>
      <trkpt lat="45.84046" lon="4.82825">
        <ele>180.80000305176</ele>
        <time>2011-11-20T10:52:43.000Z</time>
      </trkpt>
      <trkpt lat="45.84045" lon="4.82825">
        <ele>180.80000305176</ele>
        <time>2011-11-20T10:52:44.000Z</time>
      </trkpt>
      <trkpt lat="45.8404" lon="4.82827">
        <ele>180.60000610352</ele>
        <time>2011-11-20T10:52:49.000Z</time>
      </trkpt>
      <trkpt lat="45.84037" lon="4.82828">
        <ele>180.60000610352</ele>
        <time>2011-11-20T10:52:51.000Z</time>
      </trkpt>
      <trkpt lat="45.84033" lon="4.8283">
        <ele>180.60000610352</ele>
        <time>2011-11-20T10:52:53.000Z</time>
      </trkpt>
      <trkpt lat="45.84031" lon="4.82832">
        <ele>180.39999389648</ele>
        <time>2011-11-20T10:52:56.000Z</time>
      </trkpt>
      <trkpt lat="45.84029" lon="4.82832">
        <ele>180.39999389648</ele>
        <time>2011-11-20T10:53:01.000Z</time>
      </trkpt>
      <trkpt lat="45.84027" lon="4.82832">
        <ele>180.39999389648</ele>
        <time>2011-11-20T10:53:05.000Z</time>
      </trkpt>
      <trkpt lat="45.84025" lon="4.82833">
        <ele>180.39999389648</ele>
        <time>2011-11-20T10:53:06.000Z</time>
      </trkpt>
      <trkpt lat="45.84019" lon="4.82834">
        <ele>180.39999389648</ele>
        <time>2011-11-20T10:53:09.000Z</time>
      </trkpt>
      <trkpt lat="45.84011" lon="4.82839">
        <ele>180.60000610352</ele>
        <time>2011-11-20T10:53:12.000Z</time>
      </trkpt>
      <trkpt lat="45.84006" lon="4.82841">
        <ele>180.60000610352</ele>
        <time>2011-11-20T10:53:14.000Z</time>
      </trkpt>
      <trkpt lat="45.83994" lon="4.82846">
        <ele>180.80000305176</ele>
        <time>2011-11-20T10:53:20.000Z</time>
      </trkpt>
      <trkpt lat="45.83992" lon="4.82848">
        <ele>180.80000305176</ele>
        <time>2011-11-20T10:53:21.000Z</time>
      </trkpt>
      <trkpt lat="45.83989" lon="4.82851">
        <ele>180.80000305176</ele>
        <time>2011-11-20T10:53:23.000Z</time>
      </trkpt>
      <trkpt lat="45.83985" lon="4.8285">
        <ele>180.80000305176</ele>
        <time>2011-11-20T10:53:25.000Z</time>
      </trkpt>
      <trkpt lat="45.83977" lon="4.82838">
        <ele>181.19999694824</ele>
        <time>2011-11-20T10:53:30.000Z</time>
      </trkpt>
      <trkpt lat="45.83976" lon="4.82835">
        <ele>181.39999389648</ele>
        <time>2011-11-20T10:53:31.000Z</time>
      </trkpt>
      <trkpt lat="45.83968" lon="4.82823">
        <ele>182.60000610352</ele>
        <time>2011-11-20T10:53:36.000Z</time>
      </trkpt>
      <trkpt lat="45.83965" lon="4.82818">
        <ele>183.19999694824</ele>
        <time>2011-11-20T10:53:38.000Z</time>
      </trkpt>
      <trkpt lat="45.8396" lon="4.8281">
        <ele>184</ele>
        <time>2011-11-20T10:53:41.000Z</time>
      </trkpt>
      <trkpt lat="45.83951" lon="4.82801">
        <ele>185</ele>
        <time>2011-11-20T10:53:45.000Z</time>
      </trkpt>
      <trkpt lat="45.83949" lon="4.82799">
        <ele>185.19999694824</ele>
        <time>2011-11-20T10:53:46.000Z</time>
      </trkpt>
      <trkpt lat="45.83942" lon="4.8279">
        <ele>186</ele>
        <time>2011-11-20T10:53:50.000Z</time>
      </trkpt>
      <trkpt lat="45.83941" lon="4.8279">
        <ele>186.19999694824</ele>
        <time>2011-11-20T10:53:51.000Z</time>
      </trkpt>
      <trkpt lat="45.83937" lon="4.82785">
        <ele>186.60000610352</ele>
        <time>2011-11-20T10:53:53.000Z</time>
      </trkpt>
      <trkpt lat="45.83936" lon="4.82783">
        <ele>186.80000305176</ele>
        <time>2011-11-20T10:53:54.000Z</time>
      </trkpt>
      <trkpt lat="45.83934" lon="4.82781">
        <ele>187</ele>
        <time>2011-11-20T10:53:55.000Z</time>
      </trkpt>
      <trkpt lat="45.83933" lon="4.8278">
        <ele>187.19999694824</ele>
        <time>2011-11-20T10:53:56.000Z</time>
      </trkpt>
      <trkpt lat="45.83925" lon="4.8277">
        <ele>188.19999694824</ele>
        <time>2011-11-20T10:54:02.000Z</time>
      </trkpt>
      <trkpt lat="45.83923" lon="4.82766">
        <ele>188.39999389648</ele>
        <time>2011-11-20T10:54:04.000Z</time>
      </trkpt>
      <trkpt lat="45.8392" lon="4.82764">
        <ele>188.60000610352</ele>
        <time>2011-11-20T10:54:06.000Z</time>
      </trkpt>
      <trkpt lat="45.83908" lon="4.82752">
        <ele>189.80000305176</ele>
        <time>2011-11-20T10:54:12.000Z</time>
      </trkpt>
      <trkpt lat="45.83906" lon="4.82751">
        <ele>189.80000305176</ele>
        <time>2011-11-20T10:54:13.000Z</time>
      </trkpt>
      <trkpt lat="45.83897" lon="4.82744">
        <ele>190.19999694824</ele>
        <time>2011-11-20T10:54:17.000Z</time>
      </trkpt>
      <trkpt lat="45.8389" lon="4.82738">
        <ele>190.39999389648</ele>
        <time>2011-11-20T10:54:21.000Z</time>
      </trkpt>
      <trkpt lat="45.83879" lon="4.8273">
        <ele>190.60000610352</ele>
        <time>2011-11-20T10:54:26.000Z</time>
      </trkpt>
      <trkpt lat="45.83872" lon="4.82726">
        <ele>190.80000305176</ele>
        <time>2011-11-20T10:54:29.000Z</time>
      </trkpt>
      <trkpt lat="45.8387" lon="4.82725">
        <ele>190.80000305176</ele>
        <time>2011-11-20T10:54:30.000Z</time>
      </trkpt>
      <trkpt lat="45.83862" lon="4.82706">
        <ele>191.19999694824</ele>
        <time>2011-11-20T10:54:35.000Z</time>
      </trkpt>
      <trkpt lat="45.83856" lon="4.82687">
        <ele>191.39999389648</ele>
        <time>2011-11-20T10:54:39.000Z</time>
      </trkpt>
      <trkpt lat="45.83857" lon="4.82687">
        <ele>191.60000610352</ele>
        <time>2011-11-20T10:54:41.000Z</time>
      </trkpt>
      <trkpt lat="45.83855" lon="4.82684">
        <ele>191.60000610352</ele>
        <time>2011-11-20T10:54:42.000Z</time>
      </trkpt>
      <trkpt lat="45.83853" lon="4.82681">
        <ele>191.60000610352</ele>
        <time>2011-11-20T10:54:46.000Z</time>
      </trkpt>
      <trkpt lat="45.83852" lon="4.82677">
        <ele>191.60000610352</ele>
        <time>2011-11-20T10:54:48.000Z</time>
      </trkpt>
      <trkpt lat="45.83847" lon="4.82664">
        <ele>191.80000305176</ele>
        <time>2011-11-20T10:54:52.000Z</time>
      </trkpt>
      <trkpt lat="45.83845" lon="4.82658">
        <ele>192</ele>
        <time>2011-11-20T10:54:54.000Z</time>
      </trkpt>
      <trkpt lat="45.83843" lon="4.82652">
        <ele>192</ele>
        <time>2011-11-20T10:54:56.000Z</time>
      </trkpt>
      <trkpt lat="45.83841" lon="4.82648">
        <ele>192.19999694824</ele>
        <time>2011-11-20T10:54:58.000Z</time>
      </trkpt>
      <trkpt lat="45.83837" lon="4.82631">
        <ele>192.60000610352</ele>
        <time>2011-11-20T10:55:03.000Z</time>
      </trkpt>
      <trkpt lat="45.83835" lon="4.82622">
        <ele>192.60000610352</ele>
        <time>2011-11-20T10:55:06.000Z</time>
      </trkpt>
      <trkpt lat="45.83833" lon="4.82603">
        <ele>193.19999694824</ele>
        <time>2011-11-20T10:55:11.000Z</time>
      </trkpt>
      <trkpt lat="45.83832" lon="4.82599">
        <ele>193.39999389648</ele>
        <time>2011-11-20T10:55:12.000Z</time>
      </trkpt>
      <trkpt lat="45.83829" lon="4.8259">
        <ele>193.80000305176</ele>
        <time>2011-11-20T10:55:15.000Z</time>
      </trkpt>
      <trkpt lat="45.83828" lon="4.82585">
        <ele>194.19999694824</ele>
        <time>2011-11-20T10:55:16.000Z</time>
      </trkpt>
      <trkpt lat="45.83826" lon="4.82578">
        <ele>194.39999389648</ele>
        <time>2011-11-20T10:55:18.000Z</time>
      </trkpt>
      <trkpt lat="45.83824" lon="4.82568">
        <ele>194.80000305176</ele>
        <time>2011-11-20T10:55:22.000Z</time>
      </trkpt>
      <trkpt lat="45.83825" lon="4.82559">
        <ele>195.19999694824</ele>
        <time>2011-11-20T10:55:25.000Z</time>
      </trkpt>
      <trkpt lat="45.83825" lon="4.82557">
        <ele>195.19999694824</ele>
        <time>2011-11-20T10:55:26.000Z</time>
      </trkpt>
      <trkpt lat="45.83824" lon="4.8255">
        <ele>195.39999389648</ele>
        <time>2011-11-20T10:55:29.000Z</time>
      </trkpt>
      <trkpt lat="45.83824" lon="4.82548">
        <ele>195.39999389648</ele>
        <time>2011-11-20T10:55:30.000Z</time>
      </trkpt>
      <trkpt lat="45.83824" lon="4.82545">
        <ele>195.60000610352</ele>
        <time>2011-11-20T10:55:31.000Z</time>
      </trkpt>
      <trkpt lat="45.83821" lon="4.82526">
        <ele>196.19999694824</ele>
        <time>2011-11-20T10:55:37.000Z</time>
      </trkpt>
      <trkpt lat="45.8382" lon="4.82522">
        <ele>196.39999389648</ele>
        <time>2011-11-20T10:55:38.000Z</time>
      </trkpt>
      <trkpt lat="45.83815" lon="4.82515">
        <ele>196.60000610352</ele>
        <time>2011-11-20T10:55:41.000Z</time>
      </trkpt>
      <trkpt lat="45.83805" lon="4.8251">
        <ele>197</ele>
        <time>2011-11-20T10:55:45.000Z</time>
      </trkpt>
      <trkpt lat="45.83803" lon="4.82509">
        <ele>197</ele>
        <time>2011-11-20T10:55:46.000Z</time>
      </trkpt>
    </trkseg>
  </trk>
</gpx>